GFSNW_prec_precacc_027.txt.gz
Total_Precipitation_Accumulation
0.58 0.47 0.28 0.28 0.36 0.41 0.34 0.20 0.18 0.15 0.48 1.06 0.87 0.86 0.91 0.65 0.40 0.51 0.47 0.18 0.04 0.03 0.04 0.10 0.13 0.08 0.03 0.01 0.01 0.11 0.33 0.48 0.69 0.47 0.16 0.17 0.21 0.19 0.11 0.24 0.15 0.08 0.02 0.00
0.58 0.51 0.36 0.28 0.51 0.57 0.23 0.14 0.25 0.52 0.41 0.49 0.46 0.58 0.66 0.64 0.52 0.49 0.47 0.15 0.06 0.01 0.02 0.08 0.06 0.04 0.00 0.00 0.00 0.03 0.25 0.56 0.64 0.50 0.26 0.30 0.38 0.23 0.08 0.08 0.06 0.03 0.01 0.00
0.50 0.44 0.37 0.29 0.77 0.71 0.12 0.13 0.23 0.66 0.56 0.22 0.43 0.60 0.64 0.67 0.49 0.41 0.44 0.16 0.05 0.02 0.01 0.03 0.03 0.03 0.00 0.00 0.00 0.01 0.24 0.56 0.54 0.31 0.11 0.12 0.17 0.11 0.03 0.02 0.03 0.02 0.01 0.00
0.58 0.45 0.37 0.34 0.56 0.60 0.15 0.14 0.12 0.10 0.14 0.07 0.18 0.51 0.70 0.74 0.77 0.46 0.54 0.35 0.05 0.02 0.01 0.02 0.01 0.01 0.01 0.00 0.00 0.01 0.19 0.46 0.35 0.14 0.00 0.01 0.02 0.01 0.01 0.03 0.02 0.01 0.00 0.00
0.60 0.45 0.33 0.24 0.25 0.36 0.18 0.10 0.08 0.05 0.01 0.01 0.08 0.38 0.50 0.56 0.58 0.49 0.30 0.19 0.03 0.01 0.01 0.00 0.00 0.00 0.00 0.00 0.00 0.01 0.04 0.13 0.12 0.11 0.00 0.00 0.00 0.00 0.00 0.01 0.00 0.00 0.00 0.00
0.48 0.46 0.36 0.63 0.56 0.34 0.14 0.06 0.04 0.03 0.04 0.02 0.08 0.13 0.37 0.60 0.56 0.29 0.08 0.06 0.08 0.07 0.01 0.00 0.01 0.00 0.00 0.00 0.00 0.00 0.00 0.02 0.03 0.05 0.01 0.00 0.00 0.00 0.00 0.00 0.00 0.00 0.00 0.00
0.59 0.61 0.52 0.56 0.40 0.23 0.02 0.00 0.01 0.04 0.03 0.03 0.06 0.18 0.27 0.41 0.49 0.37 0.09 0.07 0.07 0.04 0.00 0.01 0.02 0.01 0.00 0.02 0.02 0.00 0.01 0.01 0.01 0.00 0.00 0.00 0.00 0.00 0.00 0.00 0.00 0.00 0.00 0.00
0.37 0.23 0.16 0.13 0.14 0.14 0.03 0.00 0.02 0.06 0.04 0.03 0.04 0.10 0.22 0.36 0.46 0.41 0.13 0.06 0.04 0.01 0.01 0.03 0.17 0.17 0.09 0.05 0.03 0.01 0.04 0.06 0.01 0.00 0.00 0.00 0.00 0.00 0.00 0.00 0.00 0.00 0.00 0.00
0.44 0.36 0.46 0.38 0.26 0.24 0.09 0.01 0.06 0.08 0.07 0.05 0.02 0.02 0.14 0.33 0.48 0.43 0.17 0.03 0.05 0.04 0.04 0.08 0.15 0.29 0.08 0.04 0.10 0.02 0.03 0.13 0.10 0.02 0.00 0.00 0.00 0.00 0.00 0.00 0.00 0.00 0.00 0.00
0.56 0.43 0.35 0.19 0.07 0.16 0.16 0.02 0.04 0.15 0.09 0.02 0.03 0.01 0.05 0.25 0.51 0.50 0.22 0.05 0.12 0.11 0.07 0.07 0.04 0.12 0.02 0.01 0.02 0.03 0.03 0.07 0.14 0.05 0.02 0.00 0.00 0.00 0.00 0.00 0.00 0.00 0.00 0.00
0.30 0.27 0.20 0.21 0.14 0.22 0.22 0.02 0.03 0.10 0.10 0.03 0.01 0.00 0.00 0.05 0.26 0.51 0.29 0.08 0.11 0.17 0.14 0.10 0.02 0.03 0.02 0.00 0.00 0.00 0.01 0.01 0.03 0.04 0.01 0.00 0.00 0.00 0.00 0.00 0.00 0.00 0.00 0.00
0.27 0.34 0.24 0.16 0.06 0.11 0.16 0.05 0.05 0.10 0.10 0.05 0.01 0.00 0.00 0.00 0.07 0.28 0.44 0.16 0.04 0.08 0.11 0.07 0.02 0.00 0.00 0.00 0.00 0.00 0.00 0.00 0.00 0.00 0.00 0.00 0.00 0.00 0.00 0.00 0.00 0.00 0.00 0.00
0.19 0.26 0.23 0.14 0.09 0.16 0.16 0.06 0.11 0.15 0.09 0.05 0.01 0.00 0.00 0.00 0.01 0.08 0.29 0.33 0.16 0.04 0.04 0.08 0.05 0.00 0.00 0.00 0.00 0.00 0.00 0.00 0.00 0.00 0.00 0.00 0.00 0.00 0.00 0.00 0.00 0.00 0.00 0.00
0.18 0.23 0.24 0.13 0.09 0.12 0.17 0.06 0.12 0.15 0.13 0.07 0.01 0.00 0.00 0.00 0.00 0.01 0.07 0.29 0.27 0.20 0.17 0.14 0.09 0.05 0.01 0.00 0.00 0.00 0.00 0.00 0.00 0.00 0.00 0.00 0.00 0.00 0.00 0.00 0.00 0.00 0.00 0.00
0.16 0.17 0.21 0.14 0.09 0.12 0.13 0.06 0.19 0.21 0.17 0.12 0.01 0.00 0.00 0.00 0.00 0.00 0.00 0.14 0.30 0.19 0.27 0.13 0.06 0.02 0.02 0.00 0.00 0.00 0.00 0.00 0.00 0.00 0.00 0.00 0.00 0.00 0.00 0.00 0.00 0.00 0.00 0.00
0.12 0.13 0.18 0.14 0.10 0.17 0.16 0.17 0.15 0.21 0.14 0.11 0.01 0.00 0.00 0.00 0.00 0.00 0.00 0.05 0.11 0.10 0.10 0.08 0.06 0.02 0.00 0.00 0.00 0.00 0.00 0.00 0.00 0.00 0.00 0.00 0.00 0.00 0.00 0.00 0.00 0.00 0.00 0.00
0.10 0.12 0.18 0.16 0.18 0.17 0.14 0.08 0.03 0.18 0.21 0.12 0.04 0.01 0.00 0.00 0.00 0.00 0.00 0.00 0.01 0.01 0.02 0.01 0.01 0.01 0.00 0.00 0.00 0.00 0.00 0.00 0.00 0.00 0.00 0.00 0.00 0.00 0.00 0.00 0.00 0.00 0.00 0.00
0.12 0.16 0.24 0.27 0.25 0.21 0.12 0.05 0.07 0.20 0.37 0.16 0.09 0.05 0.00 0.00 0.00 0.00 0.00 0.01 0.01 0.03 0.02 0.00 0.00 0.00 0.00 0.00 0.00 0.00 0.00 0.00 0.00 0.00 0.00 0.00 0.00 0.00 0.00 0.00 0.00 0.00 0.00 0.00
0.25 0.32 0.41 0.44 0.18 0.06 0.05 0.09 0.15 0.13 0.37 0.38 0.08 0.03 0.01 0.00 0.01 0.02 0.02 0.03 0.03 0.02 0.01 0.01 0.00 0.00 0.00 0.00 0.00 0.00 0.00 0.00 0.00 0.00 0.00 0.00 0.00 0.00 0.00 0.00 0.00 0.00 0.00 0.00
0.57 0.63 0.44 0.23 0.08 0.05 0.06 0.10 0.12 0.21 0.19 0.18 0.11 0.02 0.00 0.00 0.01 0.03 0.02 0.01 0.01 0.01 0.01 0.00 0.00 0.00 0.00 0.00 0.00 0.00 0.00 0.00 0.00 0.00 0.00 0.00 0.00 0.00 0.00 0.00 0.00 0.00 0.00 0.00
0.96 0.63 0.20 0.07 0.04 0.02 0.03 0.17 0.11 0.14 0.08 0.03 0.03 0.05 0.05 0.01 0.05 0.08 0.04 0.01 0.00 0.00 0.00 0.00 0.00 0.00 0.00 0.00 0.00 0.00 0.00 0.00 0.00 0.00 0.00 0.00 0.00 0.00 0.00 0.00 0.00 0.00 0.00 0.00
0.57 0.23 0.26 0.07 0.05 0.04 0.01 0.09 0.08 0.02 0.00 0.00 0.00 0.00 0.04 0.06 0.03 0.04 0.04 0.00 0.00 0.00 0.00 0.00 0.00 0.00 0.00 0.00 0.00 0.00 0.00 0.00 0.00 0.00 0.00 0.00 0.00 0.00 0.00 0.00 0.00 0.00 0.00 0.00
0.58 0.60 0.50 0.08 0.07 0.03 0.00 0.01 0.01 0.00 0.00 0.00 0.00 0.00 0.00 0.01 0.01 0.00 0.00 0.00 0.00 0.00 0.01 0.00 0.00 0.00 0.00 0.00 0.00 0.00 0.00 0.00 0.00 0.00 0.00 0.00 0.00 0.00 0.00 0.00 0.00 0.00 0.00 0.00
1.57 1.16 0.59 0.07 0.05 0.00 0.00 0.00 0.00 0.00 0.00 0.00 0.00 0.00 0.00 0.00 0.00 0.00 0.00 0.01 0.01 0.01 0.01 0.00 0.00 0.00 0.00 0.00 0.00 0.00 0.00 0.00 0.00 0.00 0.00 0.00 0.00 0.00 0.00 0.00 0.00 0.00 0.00 0.00
1.27 0.54 0.14 0.02 0.00 0.00 0.00 0.00 0.00 0.00 0.00 0.00 0.00 0.00 0.00 0.00 0.00 0.00 0.01 0.03 0.01 0.00 0.00 0.00 0.00 0.00 0.00 0.00 0.00 0.00 0.00 0.00 0.00 0.00 0.00 0.00 0.00 0.00 0.00 0.00 0.00 0.00 0.00 0.00
1.27 0.47 0.12 0.02 0.00 0.00 0.00 0.00 0.00 0.00 0.00 0.00 0.00 0.00 0.00 0.00 0.00 0.00 0.00 0.00 0.00 0.00 0.00 0.00 0.00 0.00 0.00 0.00 0.00 0.00 0.00 0.00 0.00 0.00 0.00 0.00 0.00 0.00 0.00 0.00 0.00 0.00 0.00 0.00
1.28 0.32 0.02 0.00 0.00 0.00 0.00 0.00 0.00 0.00 0.00 0.00 0.00 0.00 0.00 0.00 0.00 0.00 0.00 0.00 0.00 0.00 0.00 0.00 0.00 0.00 0.00 0.00 0.00 0.00 0.00 0.00 0.00 0.00 0.00 0.00 0.00 0.00 0.00 0.00 0.00 0.00 0.00 0.00

GFSNW_prec_precacc_030.txt.gz
Total_Precipitation_Accumulation
0.64 0.62 0.53 0.44 0.47 0.60 0.58 0.59 0.63 0.45 0.73 1.29 1.06 0.91 0.91 0.65 0.40 0.51 0.49 0.21 0.08 0.05 0.05 0.11 0.13 0.08 0.03 0.01 0.01 0.12 0.35 0.58 0.77 0.62 0.25 0.17 0.22 0.22 0.11 0.26 0.23 0.14 0.17 0.02
0.64 0.76 0.50 0.43 0.72 0.95 0.81 0.54 0.63 0.76 0.56 0.78 0.49 0.58 0.66 0.64 0.52 0.51 0.53 0.21 0.09 0.02 0.03 0.10 0.06 0.04 0.00 0.00 0.01 0.08 0.37 0.70 0.72 0.55 0.40 0.36 0.49 0.25 0.09 0.15 0.30 0.23 0.09 0.01
0.58 0.65 0.50 0.39 0.90 1.04 0.93 0.56 0.49 0.95 0.85 0.32 0.44 0.60 0.65 0.67 0.49 0.44 0.52 0.26 0.13 0.05 0.02 0.03 0.03 0.03 0.00 0.00 0.00 0.03 0.35 0.72 0.80 0.59 0.24 0.15 0.24 0.18 0.10 0.13 0.21 0.19 0.14 0.02
0.65 0.58 0.45 0.42 0.66 0.87 0.75 0.44 0.20 0.18 0.25 0.14 0.19 0.51 0.71 0.74 0.78 0.50 0.63 0.44 0.11 0.04 0.02 0.02 0.01 0.01 0.01 0.00 0.00 0.05 0.31 0.70 0.73 0.36 0.12 0.04 0.10 0.16 0.09 0.22 0.17 0.13 0.05 0.03
0.63 0.53 0.40 0.40 0.40 0.77 0.58 0.23 0.10 0.05 0.01 0.01 0.08 0.39 0.50 0.56 0.59 0.54 0.37 0.25 0.06 0.06 0.02 0.00 0.00 0.00 0.00 0.01 0.01 0.03 0.13 0.43 0.45 0.25 0.04 0.07 0.09 0.26 0.08 0.36 0.17 0.10 0.02 0.01
0.49 0.52 0.43 0.82 0.83 1.08 0.62 0.12 0.04 0.04 0.05 0.02 0.08 0.14 0.37 0.60 0.57 0.30 0.11 0.13 0.16 0.11 0.01 0.00 0.01 0.00 0.00 0.00 0.02 0.02 0.02 0.17 0.29 0.16 0.04 0.02 0.05 0.10 0.07 0.15 0.06 0.04 0.02 0.00
0.59 0.65 0.59 0.73 0.65 0.63 0.34 0.05 0.02 0.09 0.05 0.04 0.06 0.20 0.30 0.42 0.50 0.40 0.13 0.12 0.12 0.06 0.00 0.01 0.02 0.01 0.00 0.02 0.02 0.01 0.01 0.01 0.07 0.05 0.00 0.00 0.00 0.00 0.00 0.00 0.00 0.00 0.00 0.00
0.38 0.26 0.21 0.28 0.31 0.34 0.24 0.04 0.02 0.07 0.06 0.04 0.05 0.12 0.26 0.38 0.48 0.47 0.19 0.08 0.05 0.02 0.01 0.06 0.18 0.18 0.10 0.05 0.03 0.03 0.04 0.06 0.01 0.00 0.00 0.00 0.00 0.00 0.00 0.00 0.00 0.00 0.00 0.00
0.45 0.38 0.49 0.50 0.45 0.38 0.23 0.08 0.07 0.08 0.08 0.06 0.03 0.05 0.16 0.35 0.53 0.52 0.24 0.06 0.07 0.04 0.05 0.10 0.15 0.35 0.10 0.04 0.10 0.02 0.03 0.13 0.11 0.02 0.00 0.00 0.00 0.00 0.00 0.00 0.00 0.00 0.00 0.00
0.57 0.46 0.37 0.24 0.20 0.31 0.29 0.05 0.04 0.15 0.10 0.03 0.06 0.06 0.08 0.28 0.59 0.62 0.36 0.14 0.15 0.12 0.09 0.09 0.04 0.14 0.02 0.01 0.02 0.03 0.03 0.07 0.14 0.05 0.02 0.00 0.00 0.00 0.00 0.00 0.00 0.00 0.00 0.00
0.31 0.29 0.22 0.24 0.26 0.32 0.31 0.05 0.04 0.11 0.12 0.03 0.02 0.01 0.02 0.10 0.33 0.64 0.45 0.25 0.18 0.20 0.16 0.12 0.02 0.03 0.02 0.00 0.00 0.00 0.01 0.01 0.03 0.04 0.01 0.00 0.00 0.00 0.00 0.00 0.00 0.00 0.00 0.00
0.28 0.35 0.26 0.20 0.14 0.18 0.24 0.07 0.05 0.12 0.13 0.06 0.03 0.00 0.00 0.02 0.10 0.34 0.54 0.26 0.08 0.10 0.11 0.08 0.02 0.00 0.00 0.00 0.00 0.00 0.00 0.00 0.00 0.00 0.00 0.00 0.00 0.00 0.00 0.00 0.00 0.00 0.00 0.00
0.20 0.28 0.26 0.19 0.17 0.22 0.27 0.07 0.11 0.16 0.12 0.07 0.02 0.00 0.00 0.00 0.01 0.11 0.42 0.46 0.21 0.05 0.04 0.09 0.06 0.00 0.00 0.00 0.00 0.00 0.00 0.00 0.00 0.00 0.00 0.00 0.00 0.00 0.00 0.00 0.00 0.00 0.00 0.00
0.19 0.24 0.26 0.19 0.17 0.20 0.29 0.07 0.13 0.16 0.14 0.09 0.03 0.00 0.00 0.00 0.00 0.04 0.17 0.47 0.37 0.23 0.18 0.15 0.11 0.05 0.01 0.00 0.00 0.00 0.00 0.00 0.00 0.00 0.00 0.00 0.00 0.00 0.00 0.00 0.00 0.00 0.00 0.00
0.16 0.18 0.22 0.18 0.17 0.21 0.20 0.07 0.19 0.21 0.20 0.22 0.07 0.00 0.00 0.00 0.00 0.00 0.02 0.17 0.40 0.28 0.29 0.14 0.07 0.03 0.02 0.00 0.00 0.00 0.00 0.00 0.00 0.00 0.00 0.00 0.00 0.00 0.00 0.00 0.00 0.00 0.00 0.00
0.13 0.14 0.18 0.18 0.19 0.28 0.24 0.19 0.15 0.21 0.16 0.20 0.09 0.01 0.00 0.00 0.00 0.00 0.01 0.09 0.19 0.25 0.16 0.10 0.07 0.03 0.02 0.00 0.00 0.00 0.00 0.00 0.00 0.00 0.00 0.00 0.00 0.00 0.00 0.00 0.00 0.00 0.00 0.00
0.11 0.13 0.19 0.21 0.29 0.26 0.20 0.09 0.03 0.18 0.23 0.17 0.09 0.01 0.00 0.00 0.00 0.00 0.00 0.02 0.07 0.10 0.09 0.02 0.02 0.03 0.02 0.00 0.00 0.00 0.00 0.00 0.00 0.00 0.00 0.00 0.00 0.00 0.00 0.00 0.00 0.00 0.00 0.00
0.12 0.17 0.26 0.35 0.36 0.30 0.16 0.05 0.08 0.20 0.39 0.19 0.11 0.05 0.00 0.00 0.00 0.00 0.00 0.01 0.01 0.03 0.02 0.01 0.01 0.01 0.00 0.00 0.00 0.00 0.00 0.00 0.00 0.00 0.00 0.00 0.00 0.00 0.00 0.00 0.00 0.00 0.00 0.00
0.25 0.33 0.47 0.59 0.28 0.08 0.05 0.11 0.18 0.14 0.38 0.45 0.09 0.03 0.01 0.00 0.01 0.02 0.02 0.03 0.03 0.02 0.01 0.01 0.00 0.00 0.00 0.00 0.00 0.00 0.00 0.00 0.00 0.00 0.00 0.00 0.00 0.00 0.00 0.00 0.00 0.00 0.00 0.00
0.57 0.69 0.64 0.40 0.15 0.07 0.06 0.16 0.15 0.29 0.26 0.22 0.14 0.02 0.00 0.00 0.01 0.03 0.02 0.01 0.01 0.01 0.01 0.00 0.00 0.00 0.00 0.00 0.00 0.00 0.00 0.00 0.00 0.00 0.00 0.00 0.00 0.00 0.00 0.00 0.00 0.00 0.00 0.00
0.99 0.79 0.37 0.16 0.07 0.04 0.05 0.26 0.16 0.15 0.11 0.05 0.03 0.05 0.05 0.01 0.05 0.09 0.05 0.01 0.00 0.00 0.00 0.00 0.00 0.00 0.00 0.00 0.00 0.00 0.00 0.00 0.00 0.00 0.00 0.00 0.00 0.00 0.00 0.00 0.00 0.00 0.00 0.00
0.71 0.49 0.54 0.24 0.14 0.14 0.04 0.12 0.11 0.02 0.00 0.00 0.00 0.00 0.04 0.06 0.03 0.05 0.05 0.00 0.00 0.00 0.00 0.00 0.00 0.00 0.00 0.00 0.00 0.00 0.00 0.00 0.00 0.00 0.00 0.00 0.00 0.00 0.00 0.00 0.00 0.00 0.00 0.00
0.80 0.95 0.86 0.23 0.16 0.05 0.00 0.01 0.03 0.00 0.00 0.00 0.00 0.00 0.00 0.02 0.07 0.04 0.01 0.00 0.00 0.00 0.01 0.00 0.00 0.00 0.00 0.00 0.00 0.00 0.00 0.00 0.00 0.00 0.00 0.00 0.00 0.00 0.00 0.00 0.00 0.00 0.00 0.00
1.81 1.51 0.86 0.11 0.07 0.00 0.00 0.00 0.00 0.00 0.00 0.00 0.00 0.00 0.00 0.00 0.01 0.02 0.00 0.01 0.01 0.01 0.01 0.00 0.00 0.00 0.00 0.00 0.00 0.00 0.00 0.00 0.00 0.00 0.00 0.00 0.00 0.00 0.00 0.00 0.00 0.00 0.00 0.00
1.45 0.77 0.25 0.03 0.00 0.00 0.00 0.00 0.00 0.00 0.00 0.00 0.00 0.00 0.00 0.00 0.00 0.00 0.01 0.03 0.01 0.00 0.00 0.00 0.00 0.00 0.00 0.00 0.00 0.00 0.00 0.00 0.00 0.00 0.00 0.00 0.00 0.00 0.00 0.00 0.00 0.00 0.00 0.00
1.45 0.62 0.17 0.02 0.00 0.00 0.00 0.00 0.00 0.00 0.00 0.00 0.00 0.00 0.00 0.00 0.00 0.00 0.00 0.00 0.00 0.00 0.00 0.00 0.00 0.00 0.00 0.00 0.00 0.00 0.00 0.00 0.00 0.00 0.00 0.00 0.00 0.00 0.00 0.00 0.00 0.00 0.00 0.00
1.47 0.38 0.03 0.00 0.00 0.00 0.00 0.00 0.00 0.00 0.00 0.00 0.00 0.00 0.00 0.00 0.00 0.00 0.00 0.00 0.00 0.00 0.00 0.00 0.00 0.00 0.00 0.00 0.00 0.00 0.00 0.00 0.00 0.00 0.00 0.00 0.00 0.00 0.00 0.00 0.00 0.00 0.00 0.00

GFSNW_prec_precacc_033.txt.gz
Total_Precipitation_Accumulation
0.64 0.65 0.74 0.57 0.54 0.73 0.73 0.80 0.96 0.87 1.41 2.06 1.32 0.94 0.91 0.65 0.40 0.51 0.49 0.21 0.09 0.06 0.06 0.12 0.13 0.08 0.03 0.01 0.01 0.12 0.36 0.69 0.83 0.69 0.27 0.20 0.30 0.26 0.12 0.27 0.23 0.14 0.19 0.03
0.64 0.79 0.70 0.58 0.84 1.09 0.95 0.80 0.96 1.24 0.95 1.11 0.59 0.60 0.66 0.64 0.52 0.51 0.53 0.21 0.10 0.03 0.04 0.11 0.06 0.04 0.00 0.00 0.01 0.09 0.43 0.84 0.80 0.62 0.50 0.46 0.60 0.32 0.14 0.16 0.31 0.23 0.16 0.02
0.58 0.67 0.60 0.52 1.06 1.24 1.07 0.85 0.99 1.58 1.47 0.48 0.45 0.60 0.65 0.67 0.49 0.44 0.52 0.27 0.16 0.08 0.03 0.03 0.03 0.03 0.00 0.00 0.00 0.03 0.41 0.85 0.90 0.70 0.39 0.33 0.28 0.19 0.11 0.14 0.21 0.20 0.18 0.03
0.65 0.59 0.49 0.53 0.84 1.04 0.90 0.67 0.50 0.39 0.48 0.24 0.20 0.52 0.71 0.74 0.78 0.51 0.65 0.47 0.13 0.07 0.04 0.02 0.01 0.01 0.01 0.00 0.00 0.06 0.42 0.85 0.84 0.45 0.21 0.24 0.23 0.19 0.10 0.23 0.17 0.14 0.07 0.06
0.63 0.54 0.42 0.44 0.49 0.84 0.65 0.42 0.29 0.07 0.01 0.02 0.09 0.39 0.51 0.57 0.59 0.55 0.38 0.26 0.09 0.08 0.03 0.00 0.00 0.00 0.00 0.01 0.02 0.10 0.29 0.61 0.68 0.56 0.14 0.15 0.19 0.31 0.11 0.43 0.20 0.16 0.14 0.11
0.49 0.53 0.44 0.87 0.95 1.23 0.78 0.33 0.13 0.05 0.05 0.03 0.09 0.14 0.37 0.60 0.58 0.31 0.11 0.14 0.18 0.12 0.02 0.01 0.01 0.00 0.00 0.01 0.04 0.12 0.17 0.37 0.53 0.51 0.31 0.18 0.28 0.30 0.47 0.43 0.17 0.21 0.25 0.12
0.59 0.65 0.60 0.78 0.73 0.81 0.62 0.32 0.16 0.10 0.06 0.04 0.07 0.20 0.30 0.42 0.50 0.43 0.17 0.15 0.14 0.06 0.00 0.01 0.02 0.01 0.00 0.02 0.03 0.02 0.02 0.12 0.26 0.18 0.03 0.08 0.05 0.07 0.24 0.18 0.16 0.21 0.10 0.05
0.38 0.26 0.21 0.32 0.41 0.47 0.41 0.21 0.07 0.08 0.07 0.04 0.06 0.12 0.27 0.41 0.52 0.51 0.27 0.14 0.06 0.02 0.02 0.07 0.19 0.18 0.10 0.05 0.03 0.03 0.04 0.08 0.05 0.02 0.00 0.01 0.00 0.00 0.01 0.02 0.07 0.06 0.04 0.01
0.45 0.38 0.50 0.52 0.54 0.49 0.41 0.24 0.12 0.08 0.08 0.06 0.04 0.06 0.17 0.38 0.59 0.60 0.33 0.15 0.10 0.06 0.08 0.12 0.16 0.35 0.11 0.04 0.10 0.02 0.03 0.14 0.12 0.02 0.00 0.00 0.00 0.00 0.00 0.00 0.01 0.00 0.00 0.00
0.57 0.46 0.38 0.26 0.24 0.39 0.41 0.16 0.09 0.15 0.10 0.03 0.06 0.06 0.10 0.31 0.65 0.70 0.46 0.29 0.23 0.13 0.11 0.11 0.04 0.14 0.02 0.01 0.02 0.03 0.03 0.07 0.14 0.05 0.02 0.00 0.00 0.00 0.00 0.00 0.00 0.00 0.00 0.00
0.31 0.29 0.22 0.26 0.28 0.40 0.41 0.13 0.06 0.12 0.14 0.04 0.02 0.02 0.03 0.14 0.40 0.73 0.57 0.43 0.29 0.23 0.17 0.18 0.02 0.03 0.02 0.00 0.00 0.00 0.01 0.01 0.03 0.04 0.01 0.00 0.00 0.00 0.00 0.00 0.00 0.00 0.00 0.00
0.28 0.35 0.27 0.21 0.15 0.24 0.31 0.13 0.06 0.13 0.14 0.07 0.03 0.02 0.01 0.04 0.14 0.42 0.60 0.37 0.13 0.11 0.12 0.09 0.03 0.00 0.00 0.00 0.00 0.00 0.00 0.00 0.00 0.00 0.00 0.00 0.00 0.00 0.00 0.00 0.00 0.00 0.00 0.00
0.20 0.28 0.27 0.20 0.19 0.28 0.34 0.14 0.12 0.16 0.14 0.07 0.03 0.01 0.02 0.01 0.05 0.17 0.49 0.50 0.29 0.08 0.04 0.09 0.06 0.00 0.00 0.00 0.00 0.00 0.00 0.00 0.00 0.00 0.00 0.00 0.00 0.00 0.00 0.00 0.00 0.00 0.00 0.00
0.19 0.25 0.26 0.20 0.19 0.24 0.33 0.09 0.13 0.16 0.14 0.09 0.04 0.02 0.00 0.01 0.03 0.09 0.23 0.62 0.53 0.35 0.19 0.15 0.11 0.05 0.01 0.00 0.00 0.00 0.00 0.00 0.00 0.00 0.00 0.00 0.00 0.00 0.00 0.00 0.00 0.00 0.00 0.00
0.17 0.19 0.23 0.19 0.19 0.24 0.23 0.09 0.20 0.22 0.21 0.24 0.10 0.02 0.00 0.00 0.02 0.02 0.09 0.28 0.55 0.43 0.39 0.14 0.08 0.04 0.02 0.00 0.00 0.00 0.00 0.00 0.00 0.00 0.00 0.00 0.00 0.00 0.00 0.00 0.00 0.00 0.00 0.00
0.14 0.14 0.19 0.18 0.21 0.32 0.28 0.22 0.15 0.21 0.16 0.24 0.17 0.06 0.00 0.00 0.00 0.00 0.04 0.12 0.25 0.36 0.29 0.13 0.08 0.03 0.02 0.00 0.00 0.00 0.00 0.00 0.00 0.00 0.00 0.00 0.00 0.00 0.00 0.00 0.00 0.00 0.00 0.00
0.12 0.13 0.19 0.21 0.31 0.31 0.25 0.10 0.03 0.18 0.23 0.20 0.17 0.06 0.00 0.00 0.00 0.00 0.00 0.06 0.14 0.17 0.21 0.07 0.02 0.03 0.02 0.00 0.00 0.00 0.00 0.00 0.00 0.00 0.00 0.00 0.00 0.00 0.00 0.00 0.00 0.00 0.00 0.00
0.13 0.17 0.26 0.35 0.37 0.33 0.19 0.06 0.08 0.20 0.39 0.20 0.14 0.07 0.00 0.00 0.00 0.00 0.00 0.01 0.04 0.05 0.06 0.03 0.02 0.02 0.01 0.00 0.00 0.00 0.00 0.00 0.00 0.00 0.00 0.00 0.00 0.00 0.00 0.00 0.00 0.00 0.00 0.00
0.26 0.33 0.47 0.61 0.30 0.11 0.07 0.15 0.19 0.14 0.39 0.46 0.10 0.03 0.01 0.00 0.02 0.02 0.02 0.03 0.03 0.02 0.01 0.02 0.01 0.00 0.00 0.00 0.00 0.00 0.00 0.00 0.00 0.00 0.00 0.00 0.00 0.00 0.00 0.00 0.00 0.00 0.00 0.00
0.57 0.69 0.67 0.45 0.18 0.11 0.10 0.25 0.21 0.31 0.27 0.22 0.14 0.02 0.00 0.00 0.02 0.03 0.02 0.01 0.01 0.01 0.01 0.00 0.00 0.00 0.00 0.00 0.00 0.00 0.00 0.00 0.00 0.00 0.00 0.00 0.00 0.00 0.00 0.00 0.00 0.00 0.00 0.00
1.01 0.83 0.46 0.28 0.20 0.12 0.09 0.33 0.23 0.19 0.14 0.06 0.03 0.05 0.05 0.01 0.05 0.09 0.05 0.01 0.00 0.00 0.00 0.00 0.00 0.00 0.00 0.00 0.00 0.00 0.00 0.00 0.00 0.00 0.00 0.00 0.00 0.00 0.00 0.00 0.00 0.00 0.00 0.00
0.74 0.61 0.72 0.55 0.34 0.29 0.09 0.15 0.15 0.03 0.01 0.00 0.00 0.00 0.04 0.06 0.03 0.06 0.06 0.00 0.00 0.00 0.00 0.00 0.00 0.00 0.00 0.00 0.00 0.00 0.00 0.00 0.00 0.00 0.00 0.00 0.00 0.00 0.00 0.00 0.00 0.00 0.00 0.00
0.85 1.12 1.10 0.42 0.29 0.12 0.01 0.01 0.03 0.00 0.00 0.00 0.00 0.00 0.00 0.02 0.08 0.05 0.02 0.00 0.00 0.00 0.01 0.00 0.00 0.00 0.00 0.00 0.00 0.00 0.00 0.00 0.00 0.00 0.00 0.00 0.00 0.00 0.00 0.00 0.00 0.00 0.00 0.00
1.90 1.70 1.10 0.19 0.10 0.00 0.00 0.00 0.00 0.00 0.00 0.00 0.00 0.00 0.00 0.00 0.02 0.04 0.01 0.01 0.01 0.01 0.01 0.00 0.00 0.00 0.00 0.00 0.00 0.00 0.00 0.00 0.00 0.00 0.00 0.00 0.00 0.00 0.00 0.00 0.00 0.00 0.00 0.00
1.56 0.95 0.41 0.07 0.01 0.00 0.00 0.00 0.00 0.00 0.00 0.00 0.00 0.00 0.00 0.00 0.01 0.00 0.01 0.03 0.01 0.00 0.00 0.00 0.00 0.00 0.00 0.00 0.00 0.00 0.00 0.00 0.00 0.00 0.00 0.00 0.00 0.00 0.00 0.00 0.00 0.00 0.00 0.00
1.56 0.75 0.24 0.02 0.00 0.00 0.00 0.00 0.00 0.00 0.00 0.00 0.00 0.00 0.00 0.00 0.00 0.00 0.00 0.00 0.00 0.00 0.00 0.00 0.00 0.00 0.00 0.00 0.00 0.00 0.00 0.00 0.00 0.00 0.00 0.00 0.00 0.00 0.00 0.00 0.00 0.00 0.00 0.00
1.54 0.42 0.03 0.00 0.00 0.00 0.00 0.00 0.00 0.00 0.00 0.00 0.00 0.00 0.00 0.00 0.00 0.00 0.00 0.00 0.00 0.00 0.00 0.00 0.00 0.00 0.00 0.00 0.00 0.00 0.00 0.00 0.00 0.00 0.00 0.00 0.00 0.00 0.00 0.00 0.00 0.00 0.00 0.00

GFSNW_prec_precacc_036.txt.gz
Total_Precipitation_Accumulation
0.65 0.65 0.78 0.65 0.78 0.92 0.82 0.84 1.03 1.10 1.79 2.84 1.88 1.03 0.92 0.65 0.40 0.51 0.49 0.21 0.09 0.06 0.06 0.12 0.13 0.08 0.03 0.01 0.01 0.12 0.36 0.72 0.84 0.69 0.27 0.22 0.34 0.29 0.21 0.37 0.24 0.14 0.20 0.03
0.65 0.80 0.71 0.63 0.96 1.22 1.01 0.90 1.02 1.55 1.32 1.42 0.82 0.65 0.66 0.64 0.52 0.51 0.53 0.21 0.10 0.03 0.04 0.13 0.07 0.04 0.00 0.00 0.01 0.09 0.43 0.87 0.83 0.62 0.53 0.56 0.75 0.40 0.25 0.26 0.39 0.26 0.16 0.02
0.59 0.67 0.61 0.54 1.12 1.41 1.19 1.03 1.19 1.95 1.93 0.65 0.47 0.61 0.65 0.67 0.49 0.44 0.52 0.27 0.16 0.10 0.05 0.04 0.03 0.03 0.00 0.00 0.00 0.03 0.41 0.86 0.93 0.75 0.43 0.52 0.54 0.31 0.27 0.29 0.34 0.22 0.18 0.03
0.66 0.59 0.50 0.54 0.89 1.12 1.02 0.84 0.70 0.54 0.61 0.41 0.23 0.52 0.71 0.74 0.78 0.51 0.65 0.47 0.13 0.08 0.07 0.03 0.02 0.01 0.01 0.00 0.00 0.06 0.42 0.87 0.88 0.49 0.28 0.37 0.39 0.33 0.23 0.34 0.20 0.15 0.07 0.07
0.64 0.54 0.42 0.46 0.53 0.91 0.67 0.47 0.50 0.12 0.03 0.04 0.12 0.41 0.51 0.57 0.59 0.55 0.38 0.26 0.09 0.08 0.05 0.01 0.00 0.00 0.00 0.01 0.02 0.11 0.32 0.67 0.73 0.61 0.24 0.31 0.31 0.36 0.16 0.46 0.21 0.16 0.14 0.12
0.50 0.53 0.45 0.88 0.98 1.33 0.84 0.38 0.33 0.19 0.12 0.05 0.14 0.16 0.37 0.61 0.58 0.31 0.11 0.14 0.18 0.12 0.02 0.01 0.01 0.00 0.00 0.01 0.05 0.14 0.23 0.45 0.65 0.62 0.48 0.25 0.40 0.42 0.50 0.43 0.17 0.21 0.26 0.14
0.60 0.65 0.60 0.78 0.79 0.91 0.73 0.38 0.30 0.30 0.13 0.05 0.07 0.20 0.30 0.42 0.51 0.43 0.17 0.16 0.14 0.06 0.01 0.02 0.02 0.01 0.00 0.02 0.03 0.02 0.03 0.18 0.38 0.27 0.13 0.14 0.10 0.10 0.30 0.25 0.22 0.24 0.13 0.06
0.38 0.26 0.21 0.32 0.44 0.56 0.44 0.32 0.26 0.23 0.08 0.04 0.07 0.12 0.27 0.41 0.53 0.52 0.29 0.15 0.08 0.07 0.07 0.09 0.20 0.18 0.10 0.05 0.03 0.03 0.04 0.11 0.15 0.08 0.03 0.02 0.00 0.00 0.02 0.11 0.20 0.13 0.06 0.01
0.45 0.38 0.50 0.52 0.58 0.53 0.44 0.33 0.28 0.16 0.09 0.06 0.04 0.07 0.18 0.39 0.60 0.61 0.35 0.18 0.16 0.13 0.15 0.17 0.17 0.35 0.11 0.04 0.10 0.02 0.03 0.15 0.17 0.03 0.03 0.01 0.00 0.00 0.00 0.00 0.03 0.01 0.01 0.02
0.58 0.46 0.38 0.26 0.27 0.42 0.46 0.29 0.27 0.16 0.10 0.03 0.06 0.07 0.11 0.31 0.67 0.74 0.50 0.35 0.31 0.19 0.16 0.14 0.04 0.14 0.02 0.01 0.02 0.03 0.04 0.08 0.15 0.06 0.03 0.00 0.00 0.00 0.00 0.00 0.00 0.00 0.00 0.00
0.32 0.29 0.22 0.27 0.30 0.42 0.47 0.18 0.12 0.14 0.14 0.04 0.02 0.02 0.03 0.14 0.42 0.78 0.65 0.52 0.46 0.32 0.20 0.21 0.02 0.03 0.02 0.00 0.00 0.00 0.01 0.01 0.03 0.04 0.01 0.00 0.00 0.00 0.00 0.00 0.00 0.00 0.00 0.00
0.28 0.35 0.27 0.22 0.16 0.27 0.36 0.18 0.08 0.14 0.14 0.07 0.03 0.02 0.01 0.04 0.16 0.48 0.69 0.46 0.26 0.18 0.12 0.11 0.04 0.00 0.00 0.00 0.00 0.00 0.00 0.00 0.00 0.00 0.00 0.00 0.00 0.00 0.00 0.00 0.00 0.00 0.00 0.00
0.20 0.28 0.27 0.21 0.19 0.30 0.37 0.17 0.14 0.16 0.14 0.07 0.03 0.01 0.02 0.02 0.08 0.24 0.59 0.57 0.34 0.12 0.04 0.09 0.06 0.01 0.00 0.00 0.00 0.00 0.00 0.00 0.00 0.00 0.00 0.00 0.00 0.00 0.00 0.00 0.00 0.00 0.00 0.00
0.19 0.26 0.28 0.20 0.19 0.25 0.34 0.11 0.17 0.16 0.14 0.09 0.04 0.03 0.02 0.01 0.06 0.16 0.32 0.70 0.61 0.40 0.21 0.16 0.14 0.05 0.01 0.00 0.00 0.00 0.00 0.00 0.00 0.00 0.00 0.00 0.00 0.00 0.00 0.00 0.00 0.00 0.00 0.00
0.17 0.19 0.23 0.19 0.19 0.24 0.24 0.10 0.22 0.22 0.21 0.25 0.10 0.04 0.02 0.01 0.09 0.12 0.20 0.35 0.61 0.48 0.43 0.16 0.09 0.05 0.02 0.00 0.00 0.00 0.00 0.00 0.00 0.00 0.00 0.00 0.00 0.00 0.00 0.00 0.00 0.00 0.00 0.00
0.14 0.15 0.19 0.18 0.21 0.33 0.30 0.28 0.16 0.22 0.16 0.25 0.21 0.11 0.03 0.00 0.04 0.05 0.12 0.19 0.33 0.43 0.37 0.18 0.08 0.03 0.02 0.00 0.00 0.00 0.00 0.00 0.00 0.00 0.00 0.00 0.00 0.00 0.00 0.00 0.00 0.00 0.00 0.00
0.13 0.14 0.19 0.21 0.31 0.33 0.28 0.11 0.03 0.18 0.23 0.21 0.25 0.12 0.02 0.00 0.01 0.03 0.04 0.12 0.18 0.23 0.28 0.12 0.04 0.03 0.02 0.00 0.00 0.00 0.00 0.00 0.00 0.00 0.00 0.00 0.00 0.00 0.00 0.00 0.00 0.00 0.00 0.00
0.13 0.18 0.26 0.35 0.38 0.35 0.20 0.06 0.08 0.21 0.39 0.20 0.16 0.09 0.01 0.00 0.00 0.02 0.01 0.06 0.08 0.08 0.09 0.05 0.03 0.02 0.01 0.00 0.00 0.00 0.00 0.00 0.00 0.00 0.00 0.00 0.00 0.00 0.00 0.00 0.00 0.00 0.00 0.00
0.26 0.33 0.47 0.61 0.30 0.12 0.08 0.15 0.19 0.14 0.39 0.47 0.10 0.04 0.02 0.00 0.02 0.03 0.03 0.03 0.04 0.02 0.01 0.02 0.01 0.00 0.00 0.00 0.00 0.00 0.00 0.00 0.00 0.00 0.00 0.00 0.00 0.00 0.00 0.00 0.00 0.00 0.00 0.00
0.57 0.70 0.68 0.47 0.19 0.17 0.17 0.31 0.23 0.31 0.27 0.23 0.15 0.02 0.01 0.01 0.02 0.03 0.02 0.01 0.02 0.01 0.01 0.00 0.00 0.00 0.00 0.00 0.00 0.00 0.00 0.00 0.00 0.00 0.00 0.00 0.00 0.00 0.00 0.00 0.00 0.00 0.00 0.00
1.03 0.85 0.49 0.31 0.34 0.36 0.17 0.46 0.29 0.22 0.14 0.06 0.03 0.05 0.05 0.01 0.05 0.09 0.05 0.01 0.00 0.00 0.00 0.00 0.00 0.00 0.00 0.00 0.00 0.00 0.00 0.00 0.00 0.00 0.00 0.00 0.00 0.00 0.00 0.00 0.00 0.00 0.00 0.00
0.74 0.62 0.82 0.66 0.56 0.41 0.14 0.18 0.16 0.04 0.01 0.00 0.00 0.00 0.04 0.06 0.03 0.06 0.07 0.00 0.00 0.00 0.00 0.00 0.00 0.00 0.00 0.00 0.00 0.00 0.00 0.00 0.00 0.00 0.00 0.00 0.00 0.00 0.00 0.00 0.00 0.00 0.00 0.00
0.86 1.19 1.25 0.56 0.42 0.19 0.02 0.02 0.04 0.00 0.00 0.00 0.00 0.00 0.00 0.02 0.08 0.05 0.03 0.00 0.00 0.00 0.01 0.00 0.00 0.00 0.00 0.00 0.00 0.00 0.00 0.00 0.00 0.00 0.00 0.00 0.00 0.00 0.00 0.00 0.00 0.00 0.00 0.00
1.92 1.78 1.23 0.27 0.16 0.00 0.00 0.00 0.00 0.00 0.00 0.00 0.00 0.00 0.00 0.00 0.02 0.04 0.01 0.01 0.01 0.01 0.01 0.00 0.00 0.00 0.00 0.00 0.00 0.00 0.00 0.00 0.00 0.00 0.00 0.00 0.00 0.00 0.00 0.00 0.00 0.00 0.00 0.00
1.58 1.02 0.51 0.13 0.04 0.01 0.00 0.00 0.00 0.00 0.00 0.00 0.00 0.00 0.00 0.00 0.01 0.01 0.01 0.03 0.01 0.00 0.00 0.00 0.00 0.00 0.00 0.00 0.00 0.00 0.00 0.00 0.00 0.00 0.00 0.00 0.00 0.00 0.00 0.00 0.00 0.00 0.00 0.00
1.59 0.81 0.31 0.05 0.00 0.00 0.00 0.00 0.00 0.00 0.00 0.00 0.00 0.00 0.00 0.00 0.00 0.01 0.00 0.00 0.00 0.00 0.00 0.00 0.00 0.00 0.00 0.00 0.00 0.00 0.00 0.00 0.00 0.00 0.00 0.00 0.00 0.00 0.00 0.00 0.00 0.00 0.00 0.00
1.54 0.43 0.05 0.01 0.00 0.00 0.00 0.00 0.00 0.00 0.00 0.00 0.00 0.00 0.00 0.00 0.00 0.00 0.00 0.00 0.00 0.00 0.00 0.00 0.00 0.00 0.00 0.00 0.00 0.00 0.00 0.00 0.00 0.00 0.00 0.00 0.00 0.00 0.00 0.00 0.00 0.00 0.00 0.00

GFSNW_prec_precacc_039.txt.gz
Total_Precipitation_Accumulation
0.65 0.66 0.78 0.66 0.86 1.17 0.96 0.88 1.07 1.25 1.89 3.12 2.27 1.30 0.95 0.65 0.40 0.51 0.49 0.21 0.09 0.06 0.06 0.12 0.13 0.08 0.03 0.01 0.01 0.12 0.36 0.74 0.85 0.69 0.27 0.22 0.34 0.30 0.28 0.62 0.33 0.20 0.21 0.03
0.65 0.81 0.71 0.63 1.00 1.44 1.11 1.04 1.16 1.90 1.39 1.49 0.90 0.73 0.69 0.64 0.52 0.51 0.53 0.21 0.10 0.03 0.04 0.13 0.07 0.04 0.00 0.00 0.01 0.09 0.43 0.89 0.83 0.62 0.53 0.58 0.79 0.41 0.33 0.43 0.63 0.43 0.21 0.03
0.60 0.68 0.61 0.55 1.15 1.50 1.25 1.18 1.49 2.38 2.19 0.71 0.48 0.65 0.66 0.67 0.49 0.44 0.52 0.27 0.16 0.10 0.05 0.04 0.03 0.03 0.00 0.00 0.00 0.03 0.41 0.87 0.93 0.75 0.43 0.56 0.76 0.41 0.42 0.57 0.61 0.28 0.21 0.03
0.67 0.59 0.50 0.54 0.91 1.16 1.05 0.87 0.82 0.62 0.67 0.53 0.25 0.53 0.72 0.74 0.78 0.51 0.65 0.47 0.13 0.08 0.07 0.03 0.02 0.01 0.01 0.00 0.00 0.06 0.43 0.88 0.88 0.49 0.28 0.42 0.52 0.50 0.39 0.54 0.25 0.20 0.09 0.07
0.65 0.54 0.42 0.46 0.54 0.95 0.72 0.56 0.72 0.23 0.04 0.08 0.16 0.43 0.53 0.57 0.59 0.55 0.38 0.26 0.09 0.08 0.05 0.01 0.00 0.00 0.00 0.01 0.02 0.11 0.32 0.69 0.74 0.61 0.24 0.38 0.47 0.47 0.24 0.48 0.21 0.18 0.14 0.12
0.51 0.53 0.45 0.88 0.99 1.42 0.94 0.55 0.59 0.33 0.17 0.08 0.19 0.17 0.38 0.61 0.58 0.31 0.11 0.14 0.18 0.12 0.02 0.01 0.01 0.00 0.00 0.01 0.05 0.15 0.25 0.48 0.69 0.63 0.48 0.28 0.46 0.55 0.60 0.44 0.18 0.22 0.26 0.14
0.61 0.66 0.60 0.78 0.80 0.98 0.81 0.47 0.35 0.41 0.18 0.07 0.08 0.21 0.30 0.43 0.51 0.43 0.17 0.16 0.14 0.06 0.01 0.02 0.03 0.01 0.01 0.03 0.03 0.03 0.04 0.20 0.40 0.28 0.14 0.15 0.11 0.14 0.39 0.26 0.22 0.24 0.14 0.07
0.39 0.27 0.22 0.32 0.45 0.61 0.47 0.34 0.31 0.33 0.13 0.06 0.09 0.13 0.28 0.41 0.53 0.52 0.29 0.15 0.09 0.10 0.12 0.12 0.21 0.18 0.10 0.05 0.03 0.03 0.04 0.11 0.18 0.11 0.05 0.03 0.00 0.00 0.05 0.13 0.20 0.13 0.06 0.01
0.46 0.39 0.50 0.52 0.59 0.57 0.46 0.34 0.32 0.28 0.11 0.07 0.05 0.07 0.18 0.39 0.60 0.61 0.36 0.19 0.19 0.19 0.23 0.23 0.20 0.35 0.11 0.04 0.10 0.02 0.03 0.15 0.19 0.05 0.07 0.01 0.00 0.00 0.00 0.01 0.04 0.01 0.01 0.02
0.58 0.46 0.38 0.26 0.27 0.44 0.48 0.33 0.50 0.34 0.11 0.03 0.06 0.07 0.11 0.31 0.67 0.74 0.50 0.36 0.34 0.25 0.25 0.17 0.07 0.14 0.02 0.01 0.02 0.03 0.04 0.08 0.16 0.08 0.06 0.00 0.00 0.00 0.00 0.01 0.02 0.00 0.00 0.00
0.32 0.29 0.23 0.27 0.31 0.44 0.49 0.26 0.33 0.21 0.14 0.04 0.02 0.02 0.03 0.14 0.42 0.78 0.66 0.56 0.51 0.42 0.29 0.26 0.03 0.03 0.02 0.00 0.00 0.00 0.01 0.02 0.03 0.05 0.01 0.00 0.00 0.00 0.00 0.00 0.00 0.00 0.00 0.00
0.28 0.35 0.28 0.23 0.17 0.28 0.39 0.26 0.10 0.18 0.15 0.07 0.03 0.02 0.01 0.04 0.16 0.48 0.72 0.51 0.38 0.26 0.15 0.12 0.05 0.00 0.00 0.00 0.00 0.00 0.00 0.00 0.00 0.00 0.00 0.00 0.00 0.00 0.00 0.00 0.00 0.00 0.00 0.00
0.20 0.28 0.28 0.22 0.20 0.31 0.39 0.22 0.16 0.20 0.16 0.07 0.03 0.01 0.02 0.02 0.08 0.25 0.64 0.63 0.40 0.22 0.08 0.10 0.09 0.04 0.00 0.00 0.00 0.00 0.00 0.00 0.00 0.00 0.00 0.00 0.00 0.00 0.00 0.00 0.00 0.00 0.00 0.00
0.19 0.26 0.28 0.21 0.20 0.25 0.35 0.14 0.21 0.17 0.14 0.09 0.04 0.03 0.02 0.01 0.07 0.19 0.39 0.77 0.66 0.48 0.25 0.17 0.15 0.06 0.01 0.00 0.00 0.00 0.00 0.00 0.00 0.00 0.00 0.00 0.00 0.00 0.00 0.00 0.00 0.00 0.00 0.00
0.18 0.20 0.23 0.19 0.20 0.25 0.24 0.11 0.26 0.24 0.23 0.26 0.10 0.04 0.02 0.02 0.13 0.22 0.31 0.46 0.66 0.51 0.46 0.17 0.10 0.05 0.02 0.00 0.00 0.00 0.00 0.00 0.00 0.00 0.00 0.00 0.00 0.00 0.00 0.00 0.00 0.00 0.00 0.00
0.15 0.15 0.19 0.18 0.21 0.33 0.31 0.29 0.21 0.26 0.23 0.26 0.21 0.12 0.05 0.03 0.10 0.17 0.25 0.26 0.37 0.47 0.40 0.19 0.08 0.03 0.02 0.00 0.00 0.00 0.00 0.00 0.00 0.00 0.00 0.00 0.00 0.00 0.00 0.00 0.00 0.00 0.00 0.00
0.13 0.14 0.20 0.21 0.31 0.33 0.31 0.13 0.05 0.20 0.25 0.21 0.26 0.16 0.04 0.01 0.04 0.12 0.14 0.22 0.24 0.27 0.31 0.15 0.05 0.04 0.02 0.00 0.00 0.00 0.00 0.00 0.00 0.00 0.00 0.00 0.00 0.00 0.00 0.00 0.00 0.00 0.00 0.00
0.14 0.18 0.27 0.35 0.38 0.35 0.22 0.06 0.08 0.21 0.39 0.20 0.16 0.10 0.02 0.00 0.01 0.03 0.04 0.14 0.17 0.14 0.12 0.06 0.04 0.03 0.02 0.00 0.00 0.00 0.00 0.00 0.00 0.00 0.00 0.00 0.00 0.00 0.00 0.00 0.00 0.00 0.00 0.00
0.26 0.33 0.47 0.61 0.30 0.13 0.12 0.16 0.19 0.14 0.39 0.48 0.10 0.04 0.02 0.01 0.02 0.03 0.04 0.05 0.07 0.05 0.02 0.02 0.01 0.00 0.00 0.00 0.00 0.00 0.00 0.00 0.00 0.00 0.00 0.00 0.00 0.00 0.00 0.00 0.00 0.00 0.00 0.00
0.57 0.70 0.68 0.47 0.19 0.26 0.35 0.36 0.26 0.32 0.27 0.24 0.15 0.02 0.01 0.01 0.02 0.03 0.02 0.01 0.02 0.01 0.01 0.00 0.00 0.00 0.00 0.00 0.00 0.00 0.00 0.00 0.00 0.00 0.00 0.00 0.00 0.00 0.00 0.00 0.00 0.00 0.00 0.00
1.03 0.86 0.51 0.33 0.38 0.53 0.25 0.53 0.32 0.24 0.14 0.06 0.03 0.05 0.05 0.01 0.05 0.09 0.05 0.01 0.00 0.00 0.00 0.00 0.00 0.00 0.00 0.00 0.00 0.00 0.00 0.00 0.00 0.00 0.00 0.00 0.00 0.00 0.00 0.00 0.00 0.00 0.00 0.00
0.75 0.63 0.88 0.70 0.64 0.52 0.18 0.21 0.17 0.05 0.01 0.00 0.00 0.00 0.04 0.06 0.03 0.06 0.07 0.00 0.00 0.00 0.00 0.00 0.00 0.00 0.00 0.00 0.00 0.00 0.00 0.00 0.00 0.00 0.00 0.00 0.00 0.00 0.00 0.00 0.00 0.00 0.00 0.00
0.86 1.21 1.32 0.60 0.52 0.26 0.04 0.02 0.04 0.00 0.00 0.00 0.00 0.00 0.00 0.02 0.08 0.05 0.03 0.00 0.00 0.00 0.01 0.00 0.00 0.00 0.00 0.00 0.00 0.00 0.00 0.00 0.00 0.00 0.00 0.00 0.00 0.00 0.00 0.00 0.00 0.00 0.00 0.00
1.93 1.80 1.27 0.31 0.23 0.03 0.02 0.00 0.00 0.00 0.00 0.00 0.00 0.00 0.00 0.00 0.02 0.04 0.01 0.01 0.01 0.01 0.01 0.00 0.00 0.00 0.00 0.00 0.00 0.00 0.00 0.00 0.00 0.00 0.00 0.00 0.00 0.00 0.00 0.00 0.00 0.00 0.00 0.00
1.59 1.04 0.54 0.16 0.07 0.03 0.01 0.00 0.00 0.00 0.00 0.00 0.00 0.00 0.00 0.00 0.01 0.01 0.01 0.03 0.01 0.00 0.00 0.00 0.00 0.00 0.00 0.00 0.00 0.00 0.00 0.00 0.00 0.00 0.00 0.00 0.00 0.00 0.00 0.00 0.00 0.00 0.00 0.00
1.59 0.82 0.34 0.08 0.01 0.01 0.00 0.00 0.00 0.00 0.00 0.00 0.00 0.00 0.00 0.00 0.00 0.01 0.00 0.00 0.00 0.00 0.00 0.00 0.00 0.00 0.00 0.00 0.00 0.00 0.00 0.00 0.00 0.00 0.00 0.00 0.00 0.00 0.00 0.00 0.00 0.00 0.00 0.00
1.55 0.43 0.05 0.03 0.01 0.02 0.00 0.00 0.00 0.00 0.00 0.00 0.00 0.00 0.00 0.00 0.00 0.00 0.00 0.00 0.00 0.00 0.00 0.00 0.00 0.00 0.00 0.00 0.00 0.00 0.00 0.00 0.00 0.00 0.00 0.00 0.00 0.00 0.00 0.00 0.00 0.00 0.00 0.00

GFSNW_prec_precacc_042.txt.gz
Total_Precipitation_Accumulation
0.67 0.67 0.78 0.66 0.86 1.24 1.04 0.96 1.26 1.30 2.00 3.21 2.55 1.53 1.05 0.65 0.40 0.51 0.49 0.21 0.09 0.06 0.06 0.12 0.13 0.08 0.03 0.01 0.01 0.12 0.36 0.74 0.86 0.69 0.27 0.22 0.34 0.30 0.30 0.76 0.42 0.34 0.31 0.07
0.66 0.81 0.71 0.63 1.00 1.48 1.18 1.10 1.36 2.07 1.46 1.53 1.04 0.89 0.73 0.64 0.52 0.51 0.53 0.21 0.10 0.03 0.04 0.13 0.07 0.04 0.00 0.00 0.01 0.09 0.43 0.89 0.84 0.62 0.53 0.58 0.79 0.41 0.34 0.55 0.84 0.58 0.31 0.09
0.61 0.68 0.62 0.55 1.15 1.51 1.31 1.29 1.86 2.61 2.27 0.72 0.49 0.69 0.69 0.69 0.50 0.44 0.52 0.27 0.16 0.10 0.05 0.04 0.03 0.03 0.00 0.00 0.00 0.03 0.41 0.87 0.93 0.75 0.43 0.57 0.82 0.45 0.53 0.89 0.83 0.32 0.26 0.03
0.67 0.60 0.50 0.54 0.91 1.17 1.12 1.14 1.10 0.67 0.69 0.53 0.25 0.53 0.72 0.74 0.78 0.51 0.65 0.47 0.13 0.08 0.07 0.03 0.02 0.01 0.01 0.00 0.00 0.06 0.43 0.89 0.88 0.49 0.28 0.42 0.57 0.56 0.48 0.77 0.35 0.28 0.10 0.07
0.66 0.54 0.42 0.46 0.54 0.97 0.81 0.75 0.89 0.28 0.04 0.09 0.17 0.43 0.53 0.57 0.59 0.55 0.38 0.26 0.09 0.08 0.05 0.01 0.00 0.00 0.01 0.01 0.02 0.11 0.33 0.70 0.75 0.61 0.24 0.38 0.48 0.55 0.34 0.52 0.22 0.19 0.15 0.12
0.51 0.53 0.45 0.88 0.99 1.46 0.99 0.60 0.66 0.44 0.21 0.09 0.20 0.17 0.38 0.61 0.58 0.31 0.11 0.14 0.18 0.12 0.02 0.01 0.01 0.00 0.00 0.01 0.06 0.15 0.26 0.49 0.71 0.64 0.48 0.28 0.46 0.58 0.66 0.46 0.18 0.22 0.27 0.14
0.61 0.66 0.60 0.78 0.80 1.00 0.85 0.49 0.42 0.52 0.22 0.08 0.09 0.21 0.30 0.43 0.51 0.43 0.17 0.16 0.14 0.06 0.01 0.03 0.03 0.02 0.01 0.03 0.03 0.03 0.05 0.21 0.44 0.30 0.15 0.15 0.11 0.14 0.43 0.27 0.22 0.24 0.14 0.07
0.39 0.27 0.22 0.32 0.45 0.62 0.49 0.34 0.35 0.46 0.21 0.06 0.09 0.13 0.28 0.41 0.53 0.52 0.29 0.15 0.09 0.10 0.14 0.14 0.22 0.19 0.11 0.05 0.03 0.03 0.04 0.12 0.21 0.13 0.06 0.03 0.00 0.00 0.07 0.13 0.20 0.13 0.06 0.01
0.46 0.40 0.50 0.52 0.59 0.58 0.46 0.34 0.34 0.38 0.19 0.08 0.05 0.07 0.18 0.39 0.60 0.61 0.36 0.19 0.20 0.21 0.28 0.25 0.22 0.36 0.11 0.04 0.10 0.02 0.03 0.15 0.21 0.07 0.10 0.02 0.00 0.00 0.00 0.01 0.05 0.02 0.01 0.02
0.59 0.46 0.38 0.27 0.28 0.44 0.49 0.37 0.59 0.43 0.15 0.04 0.06 0.07 0.11 0.32 0.67 0.75 0.50 0.37 0.35 0.29 0.32 0.20 0.08 0.14 0.02 0.01 0.02 0.03 0.06 0.11 0.18 0.10 0.12 0.00 0.00 0.00 0.00 0.04 0.05 0.01 0.02 0.01
0.32 0.29 0.23 0.28 0.31 0.44 0.51 0.34 0.46 0.33 0.18 0.04 0.02 0.02 0.03 0.14 0.42 0.79 0.66 0.56 0.51 0.44 0.33 0.28 0.04 0.03 0.02 0.00 0.00 0.00 0.02 0.02 0.05 0.06 0.03 0.00 0.00 0.00 0.00 0.00 0.01 0.01 0.02 0.01
0.28 0.35 0.28 0.23 0.17 0.28 0.39 0.30 0.16 0.24 0.16 0.07 0.03 0.02 0.01 0.04 0.16 0.48 0.72 0.51 0.38 0.27 0.17 0.13 0.06 0.00 0.00 0.00 0.00 0.00 0.00 0.00 0.00 0.00 0.00 0.00 0.00 0.00 0.00 0.00 0.00 0.00 0.01 0.01
0.20 0.29 0.28 0.22 0.20 0.31 0.39 0.24 0.16 0.23 0.17 0.08 0.03 0.01 0.02 0.02 0.08 0.25 0.64 0.64 0.42 0.26 0.12 0.13 0.11 0.07 0.00 0.00 0.00 0.00 0.00 0.00 0.00 0.00 0.00 0.00 0.00 0.00 0.00 0.00 0.00 0.00 0.00 0.00
0.19 0.27 0.28 0.21 0.20 0.26 0.35 0.14 0.21 0.19 0.16 0.09 0.04 0.03 0.02 0.01 0.07 0.20 0.41 0.80 0.70 0.53 0.32 0.21 0.18 0.09 0.03 0.00 0.00 0.00 0.00 0.00 0.00 0.00 0.00 0.00 0.00 0.00 0.00 0.00 0.00 0.00 0.00 0.00
0.18 0.20 0.23 0.19 0.20 0.25 0.24 0.11 0.27 0.25 0.25 0.27 0.11 0.04 0.02 0.02 0.14 0.25 0.37 0.53 0.72 0.56 0.54 0.22 0.12 0.08 0.03 0.01 0.00 0.00 0.00 0.00 0.00 0.00 0.00 0.00 0.00 0.00 0.00 0.00 0.00 0.00 0.00 0.00
0.15 0.15 0.20 0.19 0.22 0.33 0.31 0.31 0.29 0.32 0.31 0.29 0.21 0.12 0.07 0.06 0.16 0.26 0.35 0.35 0.45 0.52 0.44 0.24 0.10 0.03 0.03 0.01 0.00 0.00 0.00 0.00 0.00 0.00 0.00 0.00 0.00 0.00 0.00 0.00 0.00 0.00 0.00 0.00
0.13 0.14 0.20 0.22 0.32 0.33 0.31 0.14 0.08 0.22 0.28 0.22 0.26 0.17 0.09 0.08 0.09 0.19 0.25 0.33 0.30 0.31 0.35 0.16 0.06 0.04 0.03 0.01 0.00 0.00 0.00 0.00 0.00 0.00 0.00 0.00 0.00 0.00 0.00 0.00 0.00 0.02 0.00 0.00
0.14 0.19 0.27 0.36 0.38 0.35 0.24 0.07 0.08 0.21 0.39 0.20 0.16 0.10 0.03 0.05 0.04 0.06 0.11 0.25 0.26 0.19 0.16 0.08 0.04 0.04 0.03 0.01 0.00 0.00 0.00 0.00 0.00 0.00 0.00 0.00 0.00 0.00 0.02 0.00 0.00 0.00 0.01 0.02
0.26 0.34 0.48 0.62 0.30 0.14 0.16 0.21 0.21 0.14 0.39 0.48 0.10 0.04 0.02 0.02 0.04 0.05 0.09 0.09 0.12 0.10 0.04 0.02 0.01 0.00 0.00 0.00 0.00 0.00 0.00 0.00 0.00 0.00 0.00 0.00 0.00 0.01 0.03 0.02 0.00 0.00 0.00 0.00
0.57 0.70 0.68 0.47 0.20 0.28 0.42 0.38 0.27 0.33 0.28 0.24 0.15 0.02 0.01 0.01 0.03 0.03 0.04 0.03 0.03 0.01 0.01 0.00 0.00 0.00 0.00 0.00 0.00 0.00 0.00 0.00 0.00 0.01 0.01 0.00 0.00 0.00 0.01 0.02 0.02 0.00 0.00 0.00
1.03 0.86 0.52 0.33 0.40 0.60 0.30 0.57 0.33 0.25 0.14 0.06 0.03 0.05 0.05 0.01 0.06 0.09 0.05 0.02 0.00 0.00 0.00 0.00 0.00 0.00 0.00 0.00 0.00 0.00 0.00 0.00 0.00 0.00 0.01 0.00 0.00 0.00 0.00 0.00 0.00 0.00 0.00 0.00
0.75 0.63 0.89 0.71 0.67 0.58 0.19 0.22 0.19 0.05 0.01 0.00 0.00 0.00 0.04 0.06 0.04 0.07 0.07 0.00 0.00 0.00 0.00 0.00 0.00 0.00 0.00 0.00 0.00 0.00 0.00 0.00 0.00 0.00 0.00 0.00 0.00 0.00 0.00 0.00 0.00 0.00 0.00 0.00
0.87 1.21 1.33 0.62 0.55 0.30 0.05 0.03 0.04 0.00 0.00 0.00 0.00 0.00 0.00 0.02 0.08 0.05 0.03 0.01 0.00 0.00 0.01 0.00 0.00 0.00 0.00 0.00 0.00 0.00 0.00 0.00 0.00 0.00 0.00 0.00 0.00 0.00 0.00 0.00 0.00 0.00 0.00 0.00
1.93 1.81 1.27 0.32 0.26 0.06 0.05 0.00 0.00 0.00 0.00 0.00 0.01 0.00 0.00 0.00 0.02 0.05 0.01 0.02 0.01 0.01 0.01 0.00 0.00 0.00 0.00 0.00 0.00 0.00 0.00 0.00 0.00 0.00 0.00 0.00 0.00 0.00 0.00 0.00 0.00 0.00 0.00 0.00
1.59 1.04 0.54 0.16 0.08 0.05 0.02 0.00 0.00 0.00 0.00 0.00 0.00 0.00 0.00 0.00 0.01 0.01 0.01 0.03 0.01 0.00 0.00 0.00 0.00 0.00 0.00 0.00 0.00 0.00 0.00 0.00 0.00 0.00 0.00 0.00 0.00 0.00 0.00 0.00 0.00 0.00 0.00 0.00
1.59 0.82 0.34 0.08 0.01 0.01 0.00 0.00 0.00 0.00 0.00 0.00 0.00 0.00 0.00 0.00 0.00 0.01 0.00 0.00 0.00 0.00 0.00 0.00 0.00 0.00 0.00 0.00 0.00 0.00 0.00 0.00 0.00 0.00 0.00 0.00 0.00 0.00 0.00 0.00 0.00 0.00 0.00 0.00
1.55 0.43 0.06 0.03 0.02 0.02 0.01 0.00 0.00 0.00 0.00 0.01 0.02 0.01 0.00 0.00 0.00 0.00 0.00 0.00 0.00 0.00 0.00 0.00 0.00 0.00 0.00 0.00 0.00 0.00 0.00 0.00 0.00 0.00 0.00 0.00 0.00 0.00 0.00 0.00 0.00 0.00 0.00 0.00

GFSNW_prec_precacc_045.txt.gz
Total_Precipitation_Accumulation
0.69 0.68 0.79 0.66 0.86 1.25 1.08 1.07 1.45 1.39 2.06 3.30 2.63 1.57 1.08 0.69 0.40 0.51 0.49 0.21 0.09 0.06 0.06 0.12 0.13 0.08 0.03 0.01 0.01 0.12 0.36 0.74 0.86 0.69 0.27 0.22 0.34 0.30 0.30 0.77 0.42 0.39 0.35 0.09
0.68 0.82 0.72 0.63 1.00 1.49 1.28 1.22 1.49 2.13 1.54 1.59 1.10 0.92 0.82 0.67 0.53 0.51 0.53 0.21 0.10 0.03 0.04 0.13 0.07 0.04 0.00 0.00 0.01 0.09 0.43 0.90 0.84 0.62 0.53 0.58 0.79 0.41 0.35 0.58 0.93 0.65 0.40 0.13
0.62 0.69 0.62 0.55 1.15 1.51 1.44 1.46 1.91 2.67 2.36 0.74 0.52 0.72 0.80 0.71 0.50 0.44 0.52 0.27 0.16 0.10 0.05 0.04 0.03 0.03 0.00 0.00 0.00 0.03 0.41 0.88 0.93 0.75 0.43 0.57 0.82 0.45 0.57 1.09 1.01 0.34 0.28 0.03
0.68 0.60 0.50 0.54 0.91 1.18 1.24 1.31 1.17 0.80 0.76 0.54 0.29 0.55 0.77 0.75 0.79 0.51 0.65 0.47 0.13 0.08 0.07 0.03 0.02 0.01 0.01 0.00 0.00 0.06 0.43 0.90 0.88 0.49 0.28 0.42 0.57 0.56 0.49 0.89 0.49 0.41 0.13 0.07
0.66 0.54 0.42 0.46 0.54 0.99 0.87 0.84 0.99 0.33 0.05 0.09 0.18 0.44 0.55 0.58 0.59 0.55 0.38 0.26 0.09 0.08 0.05 0.01 0.00 0.00 0.01 0.01 0.02 0.11 0.33 0.71 0.75 0.61 0.24 0.38 0.48 0.55 0.36 0.56 0.25 0.22 0.15 0.12
0.51 0.53 0.46 0.88 0.99 1.47 1.03 0.68 0.76 0.48 0.21 0.10 0.21 0.18 0.38 0.62 0.58 0.31 0.11 0.14 0.18 0.12 0.02 0.01 0.01 0.00 0.00 0.01 0.06 0.16 0.27 0.50 0.72 0.64 0.48 0.28 0.46 0.58 0.68 0.48 0.19 0.22 0.27 0.14
0.61 0.66 0.60 0.78 0.80 1.00 0.87 0.52 0.46 0.57 0.24 0.09 0.10 0.21 0.30 0.43 0.51 0.43 0.17 0.16 0.14 0.06 0.01 0.03 0.03 0.02 0.01 0.03 0.03 0.03 0.06 0.22 0.45 0.31 0.15 0.16 0.11 0.14 0.44 0.28 0.23 0.24 0.14 0.07
0.40 0.27 0.22 0.32 0.45 0.63 0.50 0.35 0.36 0.48 0.24 0.07 0.10 0.14 0.28 0.42 0.53 0.52 0.29 0.15 0.09 0.10 0.14 0.15 0.22 0.19 0.11 0.06 0.03 0.03 0.05 0.13 0.22 0.14 0.07 0.03 0.00 0.00 0.07 0.13 0.20 0.13 0.06 0.01
0.46 0.40 0.50 0.53 0.59 0.58 0.47 0.36 0.38 0.41 0.24 0.10 0.05 0.07 0.19 0.40 0.60 0.62 0.36 0.19 0.20 0.21 0.28 0.26 0.23 0.36 0.11 0.04 0.10 0.02 0.04 0.16 0.23 0.08 0.12 0.02 0.00 0.00 0.01 0.02 0.08 0.02 0.02 0.03
0.59 0.46 0.38 0.27 0.28 0.45 0.49 0.39 0.61 0.46 0.22 0.05 0.06 0.08 0.11 0.32 0.68 0.75 0.51 0.37 0.36 0.29 0.33 0.21 0.09 0.14 0.02 0.01 0.02 0.03 0.06 0.13 0.20 0.12 0.16 0.01 0.00 0.00 0.01 0.05 0.09 0.01 0.04 0.02
0.32 0.29 0.23 0.28 0.31 0.44 0.51 0.36 0.47 0.36 0.25 0.05 0.03 0.02 0.03 0.14 0.42 0.79 0.66 0.57 0.51 0.46 0.34 0.29 0.05 0.03 0.02 0.00 0.00 0.00 0.02 0.03 0.06 0.09 0.07 0.00 0.00 0.00 0.00 0.00 0.01 0.02 0.08 0.01
0.28 0.35 0.28 0.23 0.17 0.28 0.40 0.31 0.18 0.27 0.18 0.09 0.04 0.02 0.01 0.05 0.16 0.48 0.72 0.52 0.38 0.28 0.18 0.14 0.07 0.01 0.01 0.00 0.00 0.00 0.00 0.00 0.00 0.00 0.00 0.00 0.00 0.00 0.00 0.00 0.00 0.00 0.02 0.09
0.20 0.29 0.29 0.22 0.20 0.31 0.40 0.24 0.18 0.24 0.18 0.09 0.03 0.01 0.02 0.02 0.08 0.25 0.65 0.64 0.42 0.26 0.13 0.16 0.12 0.10 0.01 0.01 0.00 0.00 0.00 0.00 0.00 0.00 0.00 0.00 0.00 0.00 0.00 0.00 0.00 0.00 0.00 0.01
0.19 0.27 0.29 0.21 0.20 0.26 0.35 0.14 0.21 0.21 0.17 0.10 0.05 0.03 0.02 0.01 0.07 0.20 0.41 0.80 0.71 0.56 0.34 0.23 0.20 0.10 0.04 0.00 0.00 0.00 0.00 0.00 0.00 0.00 0.00 0.00 0.00 0.00 0.00 0.00 0.00 0.00 0.00 0.00
0.18 0.20 0.24 0.20 0.20 0.25 0.24 0.11 0.27 0.25 0.26 0.29 0.11 0.04 0.02 0.02 0.14 0.25 0.38 0.55 0.76 0.60 0.58 0.24 0.13 0.10 0.04 0.01 0.00 0.00 0.00 0.00 0.00 0.00 0.00 0.00 0.00 0.00 0.00 0.00 0.00 0.00 0.00 0.00
0.15 0.15 0.20 0.19 0.22 0.33 0.31 0.31 0.29 0.33 0.33 0.30 0.22 0.12 0.07 0.07 0.18 0.30 0.40 0.42 0.53 0.56 0.46 0.26 0.12 0.04 0.04 0.03 0.00 0.00 0.00 0.00 0.00 0.00 0.00 0.00 0.00 0.00 0.00 0.00 0.00 0.00 0.00 0.00
0.13 0.14 0.20 0.23 0.33 0.33 0.31 0.14 0.09 0.25 0.29 0.23 0.26 0.18 0.09 0.11 0.13 0.23 0.31 0.40 0.36 0.36 0.38 0.19 0.09 0.06 0.03 0.01 0.00 0.00 0.00 0.00 0.00 0.00 0.00 0.00 0.00 0.00 0.00 0.00 0.00 0.03 0.01 0.00
0.14 0.19 0.28 0.37 0.39 0.35 0.24 0.07 0.09 0.21 0.41 0.21 0.17 0.10 0.03 0.07 0.09 0.12 0.18 0.36 0.34 0.24 0.19 0.09 0.05 0.05 0.04 0.02 0.00 0.00 0.00 0.00 0.00 0.00 0.00 0.00 0.00 0.00 0.02 0.01 0.00 0.00 0.01 0.02
0.26 0.34 0.48 0.62 0.30 0.14 0.18 0.22 0.21 0.14 0.41 0.49 0.10 0.04 0.02 0.03 0.07 0.11 0.18 0.19 0.22 0.19 0.09 0.04 0.02 0.01 0.01 0.00 0.00 0.00 0.00 0.00 0.00 0.00 0.00 0.00 0.00 0.01 0.03 0.03 0.00 0.00 0.00 0.01
0.57 0.70 0.68 0.48 0.20 0.30 0.47 0.40 0.29 0.34 0.28 0.24 0.16 0.03 0.01 0.02 0.05 0.04 0.09 0.13 0.10 0.06 0.04 0.02 0.01 0.00 0.00 0.00 0.00 0.00 0.00 0.00 0.00 0.01 0.01 0.00 0.00 0.00 0.02 0.03 0.04 0.00 0.00 0.00
1.03 0.86 0.52 0.33 0.41 0.64 0.33 0.57 0.33 0.25 0.15 0.06 0.04 0.05 0.06 0.01 0.09 0.12 0.06 0.06 0.03 0.01 0.00 0.00 0.00 0.00 0.00 0.00 0.00 0.00 0.00 0.00 0.00 0.00 0.01 0.02 0.01 0.00 0.00 0.00 0.02 0.00 0.00 0.00
0.75 0.64 0.90 0.72 0.69 0.63 0.20 0.23 0.19 0.05 0.01 0.00 0.00 0.00 0.04 0.06 0.04 0.12 0.10 0.01 0.00 0.00 0.00 0.00 0.00 0.00 0.00 0.00 0.00 0.00 0.00 0.00 0.00 0.00 0.00 0.01 0.00 0.00 0.00 0.00 0.00 0.00 0.00 0.00
0.87 1.21 1.33 0.63 0.56 0.32 0.05 0.03 0.04 0.00 0.00 0.00 0.00 0.00 0.00 0.02 0.08 0.06 0.03 0.01 0.00 0.00 0.01 0.00 0.00 0.00 0.00 0.00 0.00 0.00 0.00 0.00 0.00 0.00 0.00 0.00 0.00 0.00 0.00 0.00 0.00 0.00 0.00 0.00
1.93 1.81 1.27 0.32 0.27 0.07 0.07 0.01 0.00 0.00 0.00 0.00 0.01 0.00 0.00 0.00 0.02 0.05 0.01 0.02 0.01 0.01 0.01 0.00 0.00 0.00 0.00 0.00 0.00 0.00 0.00 0.00 0.00 0.00 0.00 0.00 0.00 0.00 0.00 0.00 0.00 0.00 0.00 0.00
1.59 1.04 0.54 0.16 0.08 0.05 0.02 0.00 0.00 0.00 0.00 0.00 0.00 0.00 0.00 0.00 0.01 0.01 0.01 0.03 0.01 0.00 0.00 0.00 0.00 0.00 0.00 0.00 0.00 0.00 0.00 0.00 0.00 0.00 0.00 0.00 0.00 0.00 0.00 0.00 0.00 0.00 0.00 0.00
1.59 0.83 0.34 0.09 0.01 0.01 0.00 0.00 0.00 0.00 0.00 0.00 0.01 0.00 0.00 0.00 0.00 0.01 0.00 0.00 0.00 0.00 0.00 0.00 0.00 0.00 0.00 0.00 0.00 0.00 0.00 0.00 0.00 0.00 0.00 0.00 0.00 0.00 0.00 0.00 0.00 0.00 0.00 0.00
1.55 0.43 0.06 0.03 0.02 0.02 0.01 0.00 0.00 0.00 0.00 0.01 0.06 0.03 0.00 0.00 0.00 0.00 0.00 0.00 0.00 0.00 0.00 0.00 0.00 0.00 0.00 0.00 0.00 0.00 0.00 0.00 0.00 0.00 0.00 0.00 0.00 0.00 0.00 0.00 0.00 0.00 0.00 0.00

GFSNW_prec_precacc_048.txt.gz
Total_Precipitation_Accumulation
0.70 0.69 0.79 0.66 0.86 1.25 1.13 1.20 1.61 1.50 2.12 3.31 2.64 1.59 1.13 0.88 0.49 0.52 0.49 0.21 0.09 0.06 0.06 0.12 0.13 0.08 0.03 0.01 0.01 0.12 0.36 0.75 0.86 0.69 0.27 0.22 0.34 0.30 0.30 0.77 0.42 0.40 0.36 0.10
0.69 0.82 0.72 0.63 1.00 1.50 1.37 1.29 1.51 2.18 1.60 1.63 1.12 0.94 0.90 0.80 0.56 0.51 0.53 0.21 0.10 0.03 0.04 0.13 0.07 0.04 0.00 0.00 0.01 0.09 0.43 0.90 0.84 0.62 0.53 0.58 0.79 0.41 0.35 0.59 0.97 0.67 0.42 0.14
0.63 0.69 0.62 0.55 1.15 1.54 1.53 1.48 1.93 2.71 2.47 0.81 0.53 0.77 0.93 0.77 0.52 0.45 0.52 0.27 0.16 0.10 0.05 0.04 0.03 0.03 0.00 0.00 0.00 0.03 0.41 0.88 0.93 0.75 0.43 0.57 0.82 0.45 0.57 1.13 1.08 0.35 0.29 0.04
0.69 0.60 0.51 0.55 0.91 1.23 1.27 1.32 1.19 0.83 0.77 0.62 0.31 0.60 0.83 0.78 0.80 0.51 0.65 0.47 0.13 0.08 0.07 0.03 0.02 0.01 0.01 0.00 0.00 0.06 0.43 0.90 0.88 0.49 0.28 0.42 0.57 0.56 0.49 0.94 0.52 0.50 0.16 0.07
0.67 0.55 0.43 0.46 0.54 1.00 0.88 0.85 1.06 0.40 0.08 0.16 0.20 0.46 0.65 0.60 0.59 0.56 0.38 0.26 0.09 0.08 0.05 0.01 0.00 0.00 0.01 0.01 0.02 0.11 0.33 0.71 0.75 0.61 0.24 0.38 0.48 0.55 0.36 0.56 0.27 0.26 0.16 0.13
0.52 0.54 0.46 0.89 1.00 1.48 1.06 0.69 0.78 0.49 0.22 0.11 0.22 0.19 0.41 0.62 0.58 0.31 0.11 0.14 0.18 0.12 0.02 0.01 0.01 0.00 0.00 0.01 0.06 0.16 0.28 0.51 0.73 0.64 0.48 0.28 0.47 0.58 0.68 0.48 0.20 0.24 0.27 0.14
0.62 0.67 0.60 0.79 0.81 1.02 0.91 0.54 0.47 0.57 0.24 0.10 0.10 0.21 0.31 0.44 0.51 0.43 0.17 0.16 0.14 0.06 0.01 0.03 0.03 0.02 0.01 0.03 0.03 0.03 0.06 0.23 0.46 0.31 0.15 0.16 0.11 0.14 0.44 0.28 0.23 0.26 0.14 0.07
0.41 0.28 0.22 0.32 0.46 0.63 0.51 0.36 0.37 0.50 0.25 0.08 0.10 0.14 0.28 0.43 0.54 0.53 0.29 0.15 0.09 0.10 0.14 0.15 0.22 0.19 0.12 0.06 0.03 0.03 0.05 0.15 0.24 0.15 0.07 0.03 0.00 0.00 0.07 0.13 0.22 0.14 0.07 0.01
0.47 0.40 0.50 0.53 0.59 0.58 0.47 0.37 0.39 0.42 0.26 0.10 0.06 0.07 0.19 0.41 0.61 0.62 0.36 0.19 0.20 0.21 0.29 0.26 0.23 0.37 0.11 0.04 0.10 0.02 0.04 0.17 0.25 0.09 0.12 0.02 0.00 0.00 0.01 0.02 0.15 0.02 0.05 0.03
0.59 0.46 0.38 0.27 0.28 0.45 0.49 0.40 0.62 0.50 0.27 0.07 0.06 0.08 0.12 0.33 0.68 0.77 0.51 0.38 0.37 0.29 0.33 0.22 0.09 0.15 0.02 0.01 0.03 0.03 0.07 0.16 0.23 0.13 0.17 0.01 0.00 0.00 0.01 0.06 0.10 0.01 0.05 0.03
0.32 0.29 0.23 0.28 0.31 0.44 0.51 0.36 0.49 0.42 0.30 0.06 0.03 0.03 0.05 0.14 0.43 0.81 0.66 0.57 0.52 0.47 0.35 0.30 0.05 0.03 0.02 0.00 0.00 0.00 0.02 0.03 0.06 0.10 0.08 0.00 0.00 0.00 0.00 0.00 0.01 0.02 0.10 0.02
0.29 0.36 0.28 0.23 0.18 0.28 0.40 0.32 0.19 0.30 0.23 0.10 0.05 0.02 0.02 0.05 0.17 0.50 0.73 0.53 0.39 0.28 0.18 0.14 0.08 0.01 0.01 0.00 0.00 0.00 0.00 0.00 0.00 0.00 0.00 0.00 0.00 0.00 0.00 0.00 0.00 0.00 0.02 0.10
0.20 0.29 0.29 0.22 0.20 0.31 0.40 0.24 0.18 0.25 0.20 0.11 0.04 0.02 0.02 0.02 0.08 0.25 0.65 0.64 0.42 0.26 0.13 0.16 0.13 0.10 0.01 0.01 0.00 0.00 0.00 0.00 0.00 0.00 0.00 0.00 0.00 0.00 0.00 0.00 0.00 0.00 0.00 0.01
0.19 0.27 0.29 0.21 0.20 0.26 0.36 0.15 0.21 0.21 0.18 0.10 0.07 0.03 0.02 0.01 0.07 0.20 0.41 0.81 0.71 0.56 0.35 0.24 0.22 0.12 0.05 0.00 0.00 0.00 0.00 0.00 0.00 0.00 0.00 0.00 0.00 0.00 0.00 0.00 0.00 0.00 0.00 0.00
0.18 0.20 0.24 0.20 0.20 0.25 0.24 0.11 0.27 0.26 0.27 0.30 0.12 0.05 0.02 0.02 0.14 0.25 0.38 0.55 0.77 0.61 0.60 0.26 0.15 0.11 0.05 0.02 0.00 0.00 0.00 0.00 0.00 0.00 0.00 0.00 0.00 0.00 0.00 0.00 0.00 0.00 0.00 0.00
0.15 0.16 0.20 0.19 0.23 0.34 0.32 0.32 0.30 0.34 0.34 0.31 0.22 0.13 0.07 0.07 0.18 0.30 0.41 0.44 0.57 0.59 0.48 0.27 0.14 0.06 0.08 0.05 0.00 0.00 0.00 0.00 0.00 0.00 0.00 0.00 0.00 0.00 0.00 0.00 0.00 0.00 0.00 0.00
0.13 0.14 0.21 0.23 0.33 0.34 0.31 0.15 0.10 0.26 0.29 0.24 0.27 0.18 0.09 0.11 0.14 0.25 0.34 0.45 0.42 0.41 0.42 0.20 0.10 0.09 0.09 0.03 0.00 0.00 0.00 0.00 0.00 0.00 0.00 0.00 0.00 0.00 0.00 0.00 0.00 0.03 0.01 0.00
0.14 0.19 0.29 0.38 0.40 0.36 0.24 0.08 0.10 0.22 0.41 0.22 0.18 0.10 0.03 0.07 0.13 0.19 0.26 0.47 0.41 0.29 0.23 0.12 0.07 0.06 0.07 0.02 0.00 0.00 0.00 0.00 0.00 0.00 0.00 0.00 0.00 0.00 0.02 0.01 0.00 0.00 0.01 0.02
0.26 0.34 0.48 0.62 0.31 0.14 0.18 0.23 0.22 0.14 0.43 0.52 0.10 0.04 0.02 0.03 0.10 0.17 0.26 0.29 0.32 0.25 0.13 0.06 0.05 0.03 0.01 0.00 0.00 0.00 0.00 0.00 0.00 0.00 0.00 0.00 0.00 0.01 0.03 0.03 0.01 0.00 0.00 0.01
0.57 0.70 0.70 0.49 0.20 0.32 0.51 0.42 0.30 0.34 0.29 0.25 0.16 0.03 0.02 0.02 0.07 0.10 0.14 0.22 0.20 0.15 0.11 0.07 0.03 0.01 0.00 0.00 0.00 0.00 0.00 0.00 0.00 0.01 0.01 0.00 0.00 0.00 0.02 0.03 0.05 0.00 0.00 0.00
1.03 0.86 0.52 0.34 0.44 0.72 0.37 0.58 0.34 0.26 0.15 0.06 0.04 0.05 0.06 0.01 0.09 0.15 0.11 0.09 0.09 0.06 0.02 0.01 0.00 0.00 0.00 0.00 0.00 0.00 0.00 0.00 0.00 0.00 0.01 0.02 0.01 0.00 0.00 0.00 0.03 0.01 0.00 0.00
0.75 0.64 0.90 0.74 0.74 0.67 0.21 0.23 0.19 0.05 0.01 0.00 0.00 0.00 0.04 0.07 0.04 0.14 0.15 0.06 0.04 0.02 0.00 0.01 0.00 0.00 0.00 0.00 0.00 0.00 0.00 0.00 0.00 0.00 0.00 0.01 0.01 0.02 0.00 0.00 0.01 0.00 0.00 0.00
0.87 1.22 1.34 0.64 0.58 0.35 0.07 0.04 0.05 0.01 0.00 0.00 0.01 0.00 0.00 0.02 0.08 0.06 0.04 0.04 0.04 0.02 0.03 0.01 0.00 0.00 0.00 0.00 0.00 0.00 0.00 0.00 0.00 0.00 0.00 0.01 0.00 0.00 0.00 0.00 0.00 0.00 0.00 0.00
1.93 1.81 1.27 0.33 0.29 0.07 0.08 0.01 0.00 0.00 0.00 0.00 0.01 0.00 0.00 0.00 0.02 0.05 0.01 0.02 0.01 0.01 0.03 0.00 0.00 0.00 0.00 0.00 0.00 0.00 0.01 0.00 0.00 0.00 0.00 0.00 0.00 0.00 0.00 0.00 0.00 0.00 0.00 0.00
1.60 1.04 0.55 0.16 0.09 0.05 0.02 0.00 0.00 0.00 0.00 0.00 0.00 0.00 0.00 0.00 0.01 0.01 0.01 0.03 0.01 0.00 0.00 0.00 0.00 0.00 0.00 0.00 0.00 0.00 0.00 0.00 0.00 0.00 0.00 0.00 0.00 0.00 0.00 0.00 0.00 0.00 0.00 0.00
1.59 0.83 0.35 0.09 0.01 0.01 0.00 0.00 0.00 0.00 0.00 0.00 0.01 0.00 0.00 0.00 0.00 0.01 0.00 0.00 0.00 0.00 0.00 0.00 0.00 0.00 0.00 0.00 0.00 0.00 0.00 0.00 0.00 0.00 0.00 0.00 0.00 0.00 0.00 0.00 0.00 0.00 0.00 0.00
1.55 0.43 0.06 0.03 0.02 0.02 0.01 0.00 0.00 0.00 0.00 0.01 0.07 0.04 0.00 0.00 0.00 0.00 0.00 0.00 0.00 0.00 0.00 0.00 0.00 0.00 0.00 0.00 0.00 0.00 0.00 0.00 0.00 0.00 0.00 0.00 0.00 0.00 0.00 0.00 0.00 0.00 0.00 0.00

GFSNW_prec_precacc_051.txt.gz
Total_Precipitation_Accumulation
0.71 0.69 0.79 0.66 0.86 1.26 1.14 1.21 1.70 1.55 2.17 3.32 2.65 1.62 1.16 1.17 0.69 0.56 0.49 0.21 0.09 0.06 0.06 0.12 0.13 0.08 0.03 0.01 0.01 0.12 0.36 0.75 0.86 0.69 0.27 0.22 0.34 0.30 0.30 0.77 0.42 0.40 0.36 0.10
0.69 0.83 0.72 0.63 1.00 1.53 1.41 1.30 1.52 2.20 1.62 1.63 1.13 0.98 1.00 1.01 0.62 0.52 0.54 0.21 0.10 0.03 0.04 0.13 0.07 0.04 0.00 0.00 0.01 0.09 0.43 0.90 0.84 0.63 0.53 0.58 0.79 0.41 0.35 0.59 0.97 0.67 0.42 0.14
0.63 0.69 0.62 0.55 1.15 1.56 1.55 1.48 1.95 2.72 2.49 0.82 0.56 0.84 1.10 0.89 0.57 0.46 0.53 0.27 0.16 0.10 0.05 0.04 0.04 0.03 0.00 0.00 0.00 0.03 0.41 0.88 0.93 0.75 0.43 0.57 0.82 0.45 0.57 1.13 1.09 0.36 0.29 0.04
0.70 0.61 0.51 0.55 0.91 1.23 1.27 1.32 1.19 0.84 0.78 0.64 0.32 0.67 0.91 0.81 0.80 0.51 0.65 0.47 0.13 0.08 0.07 0.03 0.02 0.01 0.01 0.00 0.00 0.06 0.43 0.90 0.88 0.49 0.28 0.42 0.57 0.56 0.49 0.94 0.52 0.52 0.16 0.07
0.68 0.55 0.43 0.46 0.54 1.00 0.89 0.85 1.09 0.41 0.15 0.19 0.22 0.57 0.78 0.63 0.59 0.56 0.38 0.27 0.09 0.08 0.05 0.01 0.00 0.00 0.01 0.01 0.02 0.11 0.33 0.71 0.75 0.61 0.24 0.38 0.48 0.55 0.36 0.56 0.27 0.26 0.17 0.13
0.54 0.54 0.46 0.89 1.00 1.48 1.06 0.69 0.78 0.49 0.26 0.13 0.29 0.31 0.48 0.63 0.58 0.31 0.11 0.14 0.18 0.12 0.02 0.01 0.01 0.00 0.00 0.01 0.06 0.16 0.28 0.51 0.73 0.64 0.48 0.28 0.47 0.58 0.68 0.48 0.20 0.25 0.28 0.15
0.62 0.67 0.60 0.79 0.81 1.02 0.91 0.55 0.47 0.57 0.24 0.10 0.10 0.21 0.31 0.44 0.52 0.43 0.17 0.16 0.14 0.06 0.01 0.03 0.03 0.02 0.01 0.03 0.03 0.03 0.06 0.23 0.46 0.31 0.15 0.16 0.11 0.14 0.44 0.28 0.23 0.26 0.14 0.07
0.41 0.28 0.22 0.32 0.46 0.63 0.51 0.38 0.37 0.50 0.25 0.08 0.10 0.14 0.29 0.44 0.54 0.53 0.29 0.15 0.09 0.10 0.14 0.15 0.22 0.19 0.12 0.06 0.03 0.03 0.05 0.16 0.25 0.15 0.07 0.03 0.00 0.00 0.07 0.13 0.22 0.14 0.07 0.02
0.47 0.40 0.50 0.53 0.60 0.58 0.47 0.38 0.40 0.43 0.26 0.10 0.06 0.07 0.19 0.42 0.62 0.62 0.36 0.19 0.20 0.21 0.29 0.26 0.23 0.37 0.11 0.04 0.10 0.02 0.05 0.17 0.26 0.09 0.12 0.02 0.00 0.00 0.01 0.02 0.15 0.02 0.05 0.04
0.59 0.47 0.38 0.27 0.28 0.45 0.49 0.41 0.64 0.51 0.28 0.07 0.06 0.08 0.12 0.33 0.68 0.77 0.52 0.38 0.37 0.29 0.33 0.22 0.09 0.15 0.02 0.01 0.03 0.04 0.08 0.17 0.24 0.14 0.18 0.01 0.00 0.00 0.01 0.06 0.10 0.01 0.06 0.06
0.32 0.29 0.23 0.28 0.31 0.44 0.51 0.36 0.49 0.44 0.31 0.06 0.03 0.03 0.06 0.14 0.43 0.81 0.67 0.57 0.52 0.47 0.35 0.30 0.05 0.03 0.02 0.00 0.00 0.00 0.02 0.04 0.07 0.11 0.08 0.00 0.00 0.00 0.00 0.00 0.01 0.02 0.10 0.03
0.29 0.36 0.28 0.24 0.18 0.29 0.40 0.32 0.20 0.31 0.28 0.11 0.05 0.02 0.03 0.05 0.17 0.51 0.73 0.53 0.39 0.28 0.19 0.14 0.08 0.01 0.01 0.00 0.00 0.00 0.00 0.00 0.00 0.00 0.00 0.00 0.00 0.00 0.00 0.00 0.00 0.00 0.02 0.10
0.20 0.29 0.29 0.22 0.20 0.32 0.40 0.24 0.19 0.26 0.23 0.11 0.05 0.03 0.02 0.02 0.08 0.25 0.66 0.64 0.42 0.26 0.13 0.16 0.13 0.11 0.01 0.01 0.00 0.00 0.00 0.00 0.00 0.00 0.00 0.00 0.00 0.00 0.00 0.00 0.00 0.00 0.00 0.01
0.20 0.27 0.29 0.21 0.20 0.26 0.36 0.15 0.22 0.21 0.18 0.11 0.09 0.03 0.02 0.01 0.07 0.20 0.41 0.81 0.71 0.56 0.35 0.24 0.22 0.12 0.05 0.01 0.00 0.00 0.00 0.00 0.00 0.00 0.00 0.00 0.00 0.00 0.00 0.00 0.00 0.00 0.00 0.00
0.19 0.20 0.24 0.20 0.20 0.26 0.24 0.11 0.27 0.26 0.27 0.30 0.12 0.05 0.02 0.02 0.14 0.25 0.38 0.55 0.77 0.61 0.61 0.27 0.15 0.11 0.05 0.02 0.00 0.00 0.00 0.00 0.00 0.00 0.00 0.00 0.00 0.00 0.00 0.00 0.00 0.00 0.00 0.00
0.15 0.16 0.20 0.20 0.23 0.35 0.32 0.32 0.30 0.34 0.34 0.31 0.22 0.13 0.07 0.07 0.18 0.30 0.41 0.44 0.57 0.59 0.49 0.28 0.14 0.06 0.09 0.07 0.00 0.00 0.00 0.00 0.00 0.00 0.00 0.00 0.00 0.00 0.00 0.00 0.00 0.00 0.00 0.00
0.14 0.14 0.21 0.23 0.34 0.35 0.31 0.15 0.12 0.28 0.29 0.24 0.27 0.18 0.09 0.11 0.14 0.25 0.34 0.47 0.44 0.44 0.46 0.22 0.11 0.10 0.13 0.05 0.00 0.00 0.00 0.00 0.00 0.00 0.00 0.00 0.00 0.00 0.00 0.00 0.00 0.03 0.01 0.00
0.14 0.19 0.29 0.39 0.41 0.36 0.24 0.08 0.11 0.22 0.41 0.23 0.18 0.10 0.03 0.07 0.13 0.20 0.30 0.52 0.46 0.31 0.26 0.14 0.08 0.07 0.08 0.03 0.00 0.00 0.00 0.00 0.00 0.00 0.00 0.00 0.00 0.00 0.02 0.01 0.00 0.00 0.01 0.02
0.26 0.34 0.48 0.62 0.31 0.14 0.19 0.25 0.25 0.15 0.44 0.55 0.11 0.04 0.02 0.03 0.10 0.20 0.32 0.35 0.38 0.29 0.15 0.07 0.07 0.04 0.02 0.00 0.00 0.00 0.00 0.00 0.00 0.00 0.00 0.00 0.00 0.01 0.03 0.03 0.01 0.00 0.00 0.01
0.57 0.70 0.70 0.49 0.20 0.33 0.54 0.43 0.32 0.36 0.30 0.27 0.17 0.03 0.02 0.02 0.07 0.11 0.21 0.29 0.29 0.20 0.17 0.12 0.05 0.01 0.00 0.00 0.00 0.00 0.00 0.00 0.00 0.01 0.01 0.00 0.00 0.00 0.02 0.03 0.05 0.00 0.00 0.00
1.03 0.86 0.52 0.34 0.46 0.82 0.46 0.62 0.38 0.28 0.15 0.07 0.04 0.05 0.06 0.01 0.09 0.15 0.15 0.15 0.15 0.12 0.08 0.08 0.06 0.03 0.00 0.00 0.00 0.00 0.00 0.00 0.00 0.00 0.01 0.02 0.01 0.00 0.00 0.00 0.03 0.01 0.00 0.00
0.75 0.64 0.90 0.76 0.81 0.78 0.25 0.24 0.19 0.06 0.01 0.00 0.00 0.00 0.04 0.07 0.04 0.14 0.17 0.12 0.11 0.10 0.07 0.07 0.01 0.00 0.00 0.00 0.00 0.00 0.00 0.00 0.00 0.00 0.00 0.01 0.01 0.02 0.02 0.01 0.01 0.01 0.00 0.00
0.87 1.22 1.34 0.65 0.61 0.38 0.09 0.05 0.06 0.01 0.00 0.00 0.01 0.00 0.00 0.02 0.08 0.06 0.04 0.05 0.08 0.08 0.13 0.12 0.02 0.01 0.00 0.00 0.00 0.00 0.00 0.00 0.00 0.00 0.00 0.02 0.01 0.00 0.00 0.01 0.04 0.02 0.00 0.00
1.94 1.81 1.27 0.33 0.30 0.08 0.11 0.01 0.00 0.00 0.00 0.00 0.01 0.00 0.00 0.01 0.02 0.05 0.01 0.02 0.01 0.03 0.11 0.06 0.00 0.00 0.00 0.00 0.00 0.00 0.03 0.04 0.00 0.00 0.00 0.02 0.00 0.00 0.00 0.00 0.01 0.00 0.00 0.00
1.60 1.04 0.55 0.16 0.10 0.05 0.02 0.00 0.00 0.00 0.00 0.00 0.00 0.00 0.00 0.00 0.01 0.01 0.01 0.03 0.01 0.00 0.01 0.00 0.00 0.00 0.00 0.00 0.00 0.00 0.04 0.04 0.01 0.00 0.00 0.00 0.00 0.00 0.00 0.00 0.00 0.00 0.00 0.00
1.59 0.83 0.35 0.09 0.01 0.01 0.00 0.00 0.00 0.00 0.00 0.00 0.01 0.00 0.00 0.00 0.00 0.01 0.00 0.00 0.00 0.00 0.00 0.00 0.00 0.00 0.00 0.00 0.00 0.00 0.00 0.00 0.00 0.00 0.00 0.00 0.00 0.00 0.00 0.00 0.01 0.02 0.00 0.00
1.55 0.43 0.06 0.04 0.02 0.02 0.01 0.00 0.00 0.00 0.00 0.02 0.08 0.05 0.01 0.00 0.00 0.00 0.00 0.00 0.00 0.00 0.00 0.00 0.00 0.00 0.00 0.00 0.00 0.00 0.00 0.00 0.00 0.00 0.00 0.00 0.00 0.00 0.00 0.00 0.00 0.01 0.00 0.00

GFSNW_prec_precacc_054.txt.gz
Total_Precipitation_Accumulation
0.71 0.69 0.79 0.66 0.86 1.27 1.14 1.21 1.70 1.56 2.17 3.32 2.66 1.66 1.26 1.36 0.89 0.62 0.50 0.21 0.09 0.06 0.06 0.12 0.13 0.08 0.03 0.01 0.01 0.12 0.36 0.75 0.86 0.69 0.27 0.22 0.34 0.30 0.30 0.77 0.42 0.40 0.36 0.10
0.70 0.83 0.72 0.64 1.00 1.53 1.41 1.30 1.53 2.20 1.62 1.64 1.15 1.04 1.11 1.19 0.69 0.53 0.54 0.21 0.10 0.03 0.04 0.13 0.07 0.04 0.00 0.00 0.01 0.09 0.43 0.90 0.84 0.63 0.54 0.58 0.79 0.41 0.35 0.59 0.97 0.67 0.42 0.14
0.64 0.69 0.62 0.55 1.15 1.56 1.55 1.48 1.95 2.72 2.49 0.82 0.63 1.01 1.32 1.05 0.58 0.46 0.53 0.27 0.16 0.10 0.05 0.04 0.04 0.03 0.00 0.00 0.00 0.03 0.41 0.88 0.93 0.75 0.43 0.57 0.82 0.45 0.57 1.13 1.09 0.36 0.29 0.04
0.70 0.61 0.51 0.55 0.91 1.23 1.27 1.32 1.19 0.84 0.78 0.64 0.34 0.76 0.98 0.82 0.81 0.51 0.65 0.47 0.13 0.08 0.08 0.03 0.02 0.01 0.01 0.00 0.00 0.06 0.43 0.90 0.88 0.49 0.28 0.42 0.57 0.56 0.49 0.94 0.52 0.52 0.16 0.07
0.68 0.55 0.43 0.46 0.54 1.00 0.89 0.85 1.09 0.41 0.15 0.19 0.24 0.62 0.80 0.64 0.60 0.56 0.39 0.27 0.09 0.08 0.05 0.01 0.00 0.00 0.01 0.01 0.02 0.11 0.33 0.71 0.75 0.61 0.24 0.38 0.48 0.55 0.36 0.56 0.27 0.26 0.17 0.13
0.54 0.54 0.46 0.89 1.00 1.48 1.06 0.69 0.78 0.49 0.26 0.16 0.38 0.36 0.49 0.63 0.58 0.32 0.11 0.14 0.18 0.12 0.02 0.01 0.01 0.00 0.00 0.01 0.06 0.16 0.28 0.51 0.73 0.64 0.48 0.28 0.47 0.58 0.68 0.48 0.20 0.25 0.28 0.15
0.63 0.67 0.60 0.79 0.81 1.02 0.91 0.55 0.47 0.58 0.24 0.10 0.10 0.21 0.31 0.44 0.52 0.44 0.17 0.16 0.14 0.06 0.01 0.03 0.03 0.02 0.01 0.03 0.03 0.03 0.06 0.23 0.46 0.31 0.15 0.16 0.11 0.14 0.44 0.28 0.23 0.26 0.14 0.07
0.41 0.28 0.22 0.32 0.46 0.63 0.51 0.38 0.38 0.51 0.25 0.08 0.10 0.14 0.29 0.44 0.54 0.53 0.29 0.15 0.09 0.10 0.14 0.15 0.22 0.19 0.12 0.06 0.03 0.03 0.05 0.16 0.25 0.15 0.07 0.03 0.00 0.00 0.07 0.13 0.22 0.14 0.07 0.02
0.47 0.40 0.50 0.53 0.60 0.58 0.47 0.39 0.41 0.44 0.27 0.10 0.06 0.07 0.19 0.42 0.62 0.62 0.36 0.19 0.20 0.21 0.29 0.26 0.23 0.37 0.11 0.04 0.10 0.03 0.05 0.18 0.26 0.09 0.12 0.02 0.00 0.00 0.01 0.02 0.15 0.02 0.05 0.04
0.59 0.47 0.38 0.28 0.29 0.45 0.49 0.41 0.64 0.53 0.29 0.07 0.06 0.08 0.12 0.33 0.68 0.77 0.52 0.38 0.37 0.29 0.33 0.22 0.09 0.15 0.02 0.01 0.03 0.04 0.09 0.18 0.26 0.14 0.18 0.01 0.00 0.00 0.01 0.06 0.10 0.01 0.06 0.06
0.33 0.29 0.23 0.28 0.32 0.45 0.51 0.36 0.49 0.44 0.32 0.06 0.03 0.03 0.06 0.14 0.43 0.81 0.67 0.57 0.52 0.47 0.35 0.30 0.05 0.03 0.02 0.00 0.00 0.00 0.02 0.04 0.07 0.11 0.09 0.00 0.00 0.00 0.00 0.00 0.01 0.02 0.10 0.03
0.29 0.36 0.28 0.24 0.18 0.29 0.40 0.32 0.20 0.31 0.29 0.11 0.05 0.02 0.03 0.05 0.17 0.51 0.73 0.53 0.39 0.28 0.19 0.14 0.08 0.01 0.01 0.00 0.00 0.00 0.00 0.00 0.00 0.00 0.00 0.00 0.00 0.00 0.00 0.00 0.00 0.00 0.02 0.10
0.21 0.29 0.29 0.22 0.21 0.32 0.40 0.25 0.19 0.27 0.24 0.11 0.05 0.04 0.02 0.02 0.08 0.25 0.66 0.64 0.42 0.26 0.13 0.16 0.13 0.11 0.01 0.01 0.00 0.00 0.00 0.00 0.00 0.00 0.00 0.00 0.00 0.00 0.00 0.00 0.00 0.00 0.00 0.01
0.20 0.27 0.29 0.21 0.20 0.26 0.36 0.15 0.22 0.21 0.19 0.11 0.10 0.04 0.02 0.01 0.07 0.20 0.41 0.81 0.71 0.56 0.35 0.24 0.22 0.12 0.05 0.01 0.00 0.00 0.00 0.00 0.00 0.00 0.00 0.00 0.00 0.00 0.00 0.00 0.00 0.00 0.00 0.00
0.19 0.21 0.24 0.20 0.20 0.26 0.25 0.11 0.27 0.26 0.27 0.30 0.14 0.05 0.02 0.02 0.14 0.25 0.38 0.55 0.77 0.61 0.61 0.27 0.16 0.12 0.05 0.02 0.00 0.00 0.00 0.00 0.00 0.00 0.00 0.00 0.00 0.00 0.00 0.00 0.00 0.00 0.00 0.00
0.16 0.16 0.21 0.20 0.24 0.36 0.32 0.32 0.30 0.34 0.34 0.31 0.22 0.13 0.07 0.07 0.18 0.30 0.41 0.44 0.57 0.59 0.50 0.28 0.15 0.06 0.10 0.07 0.01 0.00 0.00 0.00 0.00 0.00 0.00 0.00 0.00 0.00 0.00 0.00 0.00 0.00 0.00 0.00
0.14 0.15 0.21 0.23 0.35 0.36 0.32 0.16 0.16 0.29 0.29 0.25 0.28 0.18 0.09 0.11 0.14 0.25 0.34 0.47 0.46 0.45 0.48 0.23 0.11 0.10 0.14 0.07 0.00 0.00 0.00 0.00 0.00 0.00 0.00 0.00 0.00 0.00 0.00 0.00 0.00 0.03 0.01 0.00
0.14 0.19 0.29 0.41 0.43 0.37 0.24 0.08 0.12 0.22 0.41 0.24 0.19 0.11 0.03 0.07 0.13 0.20 0.31 0.54 0.52 0.37 0.31 0.17 0.09 0.08 0.09 0.04 0.00 0.00 0.00 0.00 0.00 0.00 0.00 0.00 0.00 0.00 0.02 0.01 0.00 0.00 0.01 0.02
0.26 0.34 0.49 0.63 0.31 0.14 0.19 0.26 0.26 0.16 0.46 0.58 0.11 0.04 0.02 0.03 0.10 0.20 0.35 0.40 0.44 0.34 0.19 0.09 0.10 0.07 0.04 0.00 0.00 0.00 0.00 0.00 0.00 0.00 0.00 0.00 0.00 0.01 0.03 0.03 0.01 0.00 0.00 0.01
0.57 0.70 0.71 0.49 0.21 0.37 0.58 0.46 0.36 0.39 0.32 0.30 0.18 0.03 0.02 0.02 0.08 0.13 0.22 0.36 0.35 0.25 0.21 0.16 0.09 0.03 0.01 0.00 0.00 0.00 0.00 0.00 0.00 0.01 0.01 0.00 0.00 0.00 0.02 0.03 0.05 0.00 0.00 0.00
1.03 0.86 0.52 0.34 0.47 0.86 0.49 0.65 0.40 0.31 0.16 0.07 0.04 0.05 0.07 0.02 0.10 0.17 0.17 0.20 0.22 0.16 0.14 0.16 0.13 0.10 0.04 0.00 0.00 0.00 0.00 0.00 0.00 0.00 0.01 0.02 0.01 0.00 0.00 0.00 0.03 0.01 0.00 0.00
0.75 0.64 0.90 0.77 0.82 0.85 0.30 0.28 0.21 0.08 0.02 0.00 0.01 0.01 0.04 0.07 0.04 0.16 0.18 0.17 0.20 0.17 0.15 0.15 0.05 0.01 0.00 0.00 0.00 0.00 0.00 0.00 0.00 0.00 0.00 0.01 0.01 0.02 0.02 0.01 0.01 0.01 0.00 0.00
0.87 1.22 1.35 0.67 0.64 0.44 0.11 0.06 0.07 0.01 0.00 0.00 0.01 0.00 0.00 0.02 0.08 0.06 0.05 0.08 0.11 0.13 0.23 0.21 0.06 0.01 0.00 0.00 0.00 0.00 0.00 0.00 0.00 0.00 0.00 0.02 0.02 0.00 0.00 0.02 0.05 0.03 0.01 0.01
1.94 1.81 1.28 0.34 0.31 0.09 0.12 0.01 0.00 0.00 0.00 0.00 0.01 0.00 0.00 0.01 0.02 0.05 0.01 0.02 0.01 0.07 0.19 0.11 0.01 0.00 0.00 0.00 0.00 0.00 0.04 0.09 0.01 0.00 0.01 0.08 0.04 0.00 0.00 0.00 0.03 0.04 0.01 0.00
1.60 1.04 0.55 0.16 0.10 0.06 0.02 0.00 0.00 0.00 0.00 0.00 0.00 0.00 0.00 0.00 0.01 0.01 0.01 0.03 0.01 0.02 0.07 0.02 0.00 0.00 0.00 0.00 0.00 0.00 0.21 0.29 0.08 0.02 0.00 0.00 0.00 0.00 0.01 0.00 0.00 0.00 0.00 0.00
1.59 0.83 0.35 0.09 0.01 0.01 0.00 0.00 0.00 0.00 0.00 0.00 0.01 0.01 0.00 0.00 0.00 0.01 0.00 0.00 0.00 0.01 0.00 0.00 0.00 0.00 0.00 0.00 0.00 0.00 0.08 0.10 0.06 0.01 0.00 0.01 0.02 0.00 0.00 0.00 0.02 0.04 0.02 0.00
1.55 0.43 0.06 0.04 0.03 0.03 0.01 0.00 0.00 0.00 0.00 0.03 0.11 0.06 0.01 0.00 0.01 0.00 0.00 0.00 0.00 0.00 0.00 0.00 0.00 0.00 0.00 0.00 0.00 0.00 0.00 0.00 0.00 0.00 0.00 0.00 0.00 0.00 0.00 0.00 0.00 0.03 0.05 0.01

GFSNW_prec_precacc_057.txt.gz
Total_Precipitation_Accumulation
0.72 0.70 0.79 0.66 0.86 1.28 1.14 1.21 1.70 1.56 2.17 3.32 2.66 1.70 1.36 1.44 0.93 0.62 0.50 0.21 0.09 0.06 0.06 0.12 0.13 0.08 0.03 0.01 0.01 0.12 0.36 0.75 0.87 0.69 0.27 0.22 0.34 0.30 0.30 0.77 0.42 0.40 0.36 0.10
0.70 0.83 0.72 0.64 1.00 1.54 1.41 1.30 1.53 2.20 1.62 1.65 1.18 1.11 1.18 1.22 0.69 0.53 0.54 0.21 0.10 0.03 0.04 0.13 0.07 0.04 0.00 0.00 0.01 0.09 0.43 0.90 0.84 0.63 0.54 0.58 0.79 0.41 0.35 0.59 0.97 0.67 0.42 0.14
0.64 0.69 0.62 0.55 1.15 1.56 1.55 1.48 1.95 2.72 2.49 0.83 0.72 1.20 1.40 1.06 0.58 0.46 0.53 0.27 0.16 0.10 0.05 0.04 0.04 0.03 0.00 0.00 0.00 0.03 0.41 0.88 0.93 0.75 0.43 0.57 0.82 0.45 0.57 1.13 1.09 0.36 0.29 0.04
0.70 0.61 0.51 0.55 0.91 1.23 1.27 1.32 1.19 0.84 0.78 0.64 0.36 0.79 1.00 0.82 0.81 0.51 0.65 0.47 0.13 0.08 0.08 0.03 0.02 0.01 0.01 0.00 0.00 0.06 0.43 0.90 0.88 0.49 0.28 0.42 0.57 0.56 0.49 0.94 0.52 0.52 0.16 0.07
0.68 0.55 0.43 0.46 0.54 1.00 0.89 0.85 1.09 0.41 0.15 0.19 0.24 0.62 0.80 0.64 0.60 0.56 0.39 0.27 0.09 0.08 0.05 0.01 0.00 0.00 0.01 0.01 0.02 0.11 0.33 0.71 0.75 0.61 0.24 0.38 0.48 0.55 0.36 0.56 0.27 0.26 0.17 0.13
0.54 0.54 0.46 0.89 1.00 1.48 1.06 0.69 0.78 0.49 0.26 0.16 0.38 0.36 0.49 0.63 0.58 0.32 0.11 0.14 0.18 0.12 0.02 0.01 0.01 0.00 0.00 0.01 0.06 0.16 0.28 0.51 0.73 0.64 0.48 0.28 0.47 0.58 0.68 0.48 0.20 0.25 0.28 0.15
0.63 0.67 0.60 0.79 0.81 1.02 0.91 0.55 0.47 0.58 0.24 0.10 0.10 0.21 0.31 0.44 0.52 0.44 0.17 0.16 0.14 0.06 0.01 0.03 0.03 0.02 0.01 0.03 0.03 0.03 0.06 0.23 0.46 0.31 0.15 0.16 0.11 0.14 0.44 0.28 0.23 0.26 0.14 0.07
0.41 0.28 0.22 0.32 0.46 0.63 0.51 0.38 0.39 0.51 0.25 0.08 0.10 0.14 0.29 0.44 0.54 0.53 0.29 0.15 0.09 0.10 0.14 0.15 0.22 0.19 0.12 0.06 0.03 0.03 0.05 0.16 0.25 0.15 0.07 0.03 0.00 0.00 0.07 0.13 0.22 0.14 0.07 0.02
0.47 0.40 0.50 0.53 0.60 0.58 0.47 0.39 0.41 0.44 0.28 0.10 0.06 0.07 0.19 0.42 0.62 0.62 0.36 0.19 0.20 0.21 0.29 0.26 0.23 0.37 0.11 0.04 0.11 0.03 0.05 0.18 0.26 0.10 0.12 0.02 0.00 0.00 0.01 0.02 0.15 0.02 0.05 0.04
0.60 0.47 0.38 0.28 0.29 0.45 0.49 0.41 0.64 0.53 0.29 0.07 0.06 0.08 0.12 0.33 0.68 0.77 0.52 0.38 0.37 0.29 0.33 0.22 0.09 0.15 0.02 0.01 0.03 0.04 0.10 0.19 0.27 0.15 0.18 0.01 0.00 0.00 0.01 0.06 0.10 0.01 0.06 0.06
0.33 0.29 0.23 0.28 0.32 0.45 0.51 0.36 0.49 0.44 0.32 0.06 0.03 0.03 0.06 0.14 0.43 0.81 0.67 0.57 0.52 0.47 0.35 0.30 0.05 0.03 0.02 0.00 0.00 0.00 0.02 0.04 0.08 0.12 0.09 0.00 0.00 0.00 0.00 0.00 0.01 0.02 0.10 0.03
0.29 0.36 0.29 0.24 0.18 0.29 0.40 0.32 0.20 0.31 0.29 0.11 0.05 0.02 0.03 0.05 0.17 0.51 0.73 0.53 0.39 0.28 0.19 0.14 0.08 0.01 0.01 0.00 0.00 0.00 0.00 0.00 0.00 0.00 0.00 0.00 0.00 0.00 0.00 0.00 0.00 0.00 0.02 0.10
0.21 0.29 0.29 0.22 0.21 0.32 0.40 0.25 0.19 0.27 0.24 0.11 0.05 0.04 0.02 0.02 0.08 0.25 0.66 0.64 0.42 0.26 0.13 0.16 0.13 0.11 0.01 0.01 0.00 0.00 0.00 0.00 0.00 0.00 0.00 0.00 0.00 0.00 0.00 0.00 0.00 0.00 0.00 0.01
0.20 0.27 0.29 0.21 0.20 0.26 0.36 0.15 0.22 0.22 0.19 0.11 0.10 0.04 0.03 0.01 0.07 0.20 0.41 0.81 0.71 0.56 0.35 0.24 0.23 0.13 0.05 0.01 0.00 0.00 0.01 0.00 0.00 0.00 0.00 0.00 0.00 0.00 0.00 0.00 0.00 0.00 0.00 0.00
0.19 0.21 0.25 0.20 0.20 0.26 0.25 0.12 0.27 0.26 0.29 0.31 0.15 0.05 0.02 0.02 0.14 0.25 0.38 0.55 0.77 0.61 0.61 0.28 0.16 0.12 0.05 0.02 0.00 0.00 0.00 0.00 0.00 0.00 0.00 0.00 0.00 0.00 0.00 0.00 0.00 0.00 0.00 0.00
0.16 0.17 0.21 0.20 0.24 0.37 0.33 0.32 0.30 0.34 0.34 0.32 0.23 0.13 0.07 0.07 0.18 0.30 0.41 0.44 0.57 0.59 0.50 0.29 0.15 0.06 0.10 0.08 0.01 0.00 0.00 0.00 0.00 0.00 0.00 0.00 0.00 0.00 0.00 0.00 0.00 0.00 0.00 0.00
0.14 0.15 0.21 0.24 0.36 0.38 0.32 0.17 0.22 0.30 0.30 0.27 0.28 0.18 0.09 0.11 0.14 0.25 0.34 0.47 0.46 0.46 0.50 0.26 0.12 0.10 0.16 0.10 0.01 0.00 0.00 0.00 0.00 0.00 0.00 0.00 0.00 0.00 0.00 0.00 0.00 0.03 0.01 0.00
0.14 0.19 0.29 0.44 0.46 0.39 0.25 0.09 0.16 0.25 0.43 0.25 0.21 0.11 0.03 0.07 0.13 0.20 0.31 0.54 0.52 0.39 0.33 0.19 0.10 0.10 0.14 0.08 0.00 0.00 0.00 0.00 0.00 0.00 0.00 0.00 0.00 0.00 0.02 0.01 0.00 0.00 0.01 0.02
0.26 0.34 0.50 0.64 0.31 0.14 0.20 0.33 0.36 0.19 0.50 0.62 0.12 0.04 0.02 0.03 0.10 0.21 0.36 0.41 0.45 0.36 0.21 0.10 0.14 0.11 0.07 0.01 0.00 0.00 0.00 0.00 0.00 0.00 0.00 0.00 0.00 0.01 0.03 0.03 0.01 0.00 0.00 0.01
0.57 0.70 0.71 0.49 0.21 0.41 0.64 0.55 0.44 0.44 0.36 0.33 0.20 0.03 0.02 0.02 0.08 0.13 0.24 0.37 0.39 0.28 0.23 0.21 0.15 0.05 0.02 0.00 0.00 0.00 0.00 0.00 0.00 0.01 0.01 0.00 0.00 0.00 0.02 0.03 0.05 0.00 0.00 0.00
1.03 0.86 0.52 0.34 0.52 0.97 0.55 0.72 0.47 0.35 0.17 0.08 0.05 0.06 0.07 0.02 0.10 0.19 0.21 0.23 0.27 0.21 0.18 0.24 0.19 0.14 0.05 0.01 0.00 0.00 0.00 0.00 0.00 0.00 0.01 0.02 0.01 0.00 0.00 0.00 0.03 0.01 0.00 0.00
0.75 0.64 0.90 0.77 0.85 0.91 0.32 0.31 0.22 0.10 0.02 0.00 0.01 0.01 0.04 0.07 0.04 0.18 0.26 0.22 0.28 0.24 0.23 0.23 0.09 0.03 0.00 0.00 0.00 0.00 0.00 0.00 0.00 0.00 0.00 0.01 0.01 0.02 0.02 0.01 0.01 0.01 0.00 0.00
0.87 1.22 1.35 0.67 0.65 0.47 0.15 0.08 0.08 0.01 0.00 0.00 0.01 0.00 0.00 0.02 0.08 0.09 0.07 0.13 0.16 0.20 0.31 0.25 0.09 0.02 0.00 0.00 0.00 0.00 0.00 0.00 0.00 0.00 0.00 0.02 0.02 0.00 0.00 0.02 0.05 0.04 0.02 0.02
1.94 1.81 1.28 0.35 0.33 0.10 0.13 0.01 0.00 0.00 0.00 0.00 0.01 0.00 0.00 0.01 0.03 0.06 0.02 0.02 0.02 0.12 0.24 0.13 0.03 0.00 0.00 0.00 0.00 0.00 0.04 0.11 0.02 0.00 0.02 0.10 0.05 0.00 0.00 0.00 0.03 0.05 0.02 0.01
1.60 1.04 0.55 0.17 0.10 0.06 0.02 0.00 0.00 0.00 0.00 0.00 0.00 0.00 0.00 0.02 0.02 0.01 0.01 0.03 0.02 0.03 0.08 0.03 0.00 0.00 0.00 0.00 0.00 0.00 0.26 0.45 0.25 0.07 0.06 0.07 0.01 0.01 0.01 0.00 0.00 0.00 0.00 0.00
1.59 0.83 0.35 0.09 0.01 0.01 0.00 0.00 0.00 0.00 0.00 0.01 0.01 0.02 0.01 0.00 0.00 0.02 0.00 0.00 0.00 0.01 0.00 0.00 0.00 0.00 0.00 0.00 0.00 0.00 0.11 0.23 0.23 0.06 0.02 0.04 0.07 0.04 0.01 0.00 0.04 0.05 0.02 0.00
1.55 0.43 0.06 0.04 0.03 0.03 0.01 0.00 0.00 0.00 0.01 0.05 0.14 0.09 0.01 0.01 0.03 0.01 0.00 0.00 0.00 0.00 0.00 0.00 0.00 0.00 0.00 0.00 0.00 0.00 0.00 0.01 0.01 0.00 0.00 0.01 0.05 0.10 0.04 0.00 0.01 0.06 0.10 0.03

GFSNW_prec_precacc_060.txt.gz
Total_Precipitation_Accumulation
0.72 0.70 0.79 0.66 0.87 1.28 1.14 1.21 1.70 1.56 2.17 3.32 2.66 1.72 1.40 1.47 0.93 0.62 0.50 0.21 0.09 0.06 0.06 0.12 0.13 0.08 0.03 0.01 0.01 0.12 0.36 0.75 0.87 0.70 0.27 0.22 0.34 0.30 0.30 0.77 0.42 0.40 0.36 0.10
0.70 0.83 0.72 0.64 1.00 1.54 1.41 1.30 1.53 2.20 1.62 1.66 1.19 1.11 1.18 1.22 0.69 0.53 0.54 0.21 0.10 0.03 0.04 0.13 0.07 0.04 0.00 0.00 0.01 0.09 0.43 0.90 0.84 0.63 0.54 0.58 0.79 0.41 0.35 0.59 0.97 0.67 0.42 0.14
0.64 0.69 0.62 0.55 1.15 1.56 1.55 1.48 1.95 2.72 2.49 0.83 0.73 1.20 1.40 1.06 0.58 0.46 0.53 0.27 0.16 0.10 0.05 0.04 0.04 0.03 0.00 0.00 0.00 0.03 0.41 0.88 0.93 0.75 0.43 0.57 0.82 0.45 0.57 1.13 1.09 0.36 0.29 0.04
0.70 0.61 0.51 0.55 0.91 1.23 1.27 1.32 1.19 0.84 0.79 0.64 0.36 0.79 1.00 0.82 0.81 0.51 0.65 0.47 0.13 0.08 0.08 0.03 0.02 0.01 0.01 0.00 0.00 0.06 0.43 0.90 0.88 0.49 0.28 0.42 0.57 0.56 0.49 0.94 0.52 0.52 0.16 0.07
0.68 0.55 0.43 0.46 0.54 1.00 0.89 0.85 1.10 0.42 0.15 0.19 0.24 0.62 0.80 0.64 0.60 0.56 0.39 0.27 0.09 0.08 0.05 0.01 0.00 0.00 0.01 0.01 0.02 0.11 0.33 0.71 0.75 0.61 0.24 0.38 0.48 0.55 0.36 0.56 0.27 0.26 0.17 0.13
0.54 0.55 0.46 0.89 1.00 1.48 1.06 0.69 0.78 0.50 0.26 0.16 0.38 0.36 0.49 0.63 0.58 0.32 0.11 0.14 0.18 0.12 0.02 0.01 0.01 0.00 0.00 0.01 0.06 0.16 0.28 0.51 0.73 0.64 0.48 0.28 0.47 0.58 0.68 0.48 0.20 0.25 0.28 0.15
0.63 0.67 0.60 0.79 0.81 1.02 0.91 0.55 0.47 0.58 0.24 0.10 0.10 0.21 0.31 0.44 0.52 0.44 0.17 0.16 0.14 0.06 0.01 0.03 0.03 0.02 0.01 0.03 0.03 0.03 0.06 0.23 0.46 0.31 0.15 0.16 0.11 0.14 0.44 0.28 0.23 0.26 0.14 0.07
0.41 0.28 0.22 0.32 0.46 0.63 0.51 0.38 0.39 0.51 0.25 0.08 0.10 0.14 0.29 0.44 0.54 0.53 0.29 0.15 0.09 0.10 0.14 0.15 0.22 0.19 0.12 0.06 0.03 0.03 0.05 0.16 0.25 0.16 0.07 0.03 0.00 0.00 0.07 0.13 0.22 0.14 0.07 0.02
0.47 0.40 0.50 0.53 0.60 0.58 0.47 0.39 0.41 0.45 0.28 0.10 0.06 0.07 0.19 0.42 0.62 0.62 0.36 0.19 0.20 0.21 0.29 0.26 0.23 0.37 0.11 0.04 0.11 0.03 0.05 0.18 0.27 0.10 0.12 0.02 0.00 0.00 0.01 0.02 0.16 0.02 0.05 0.04
0.60 0.47 0.38 0.28 0.29 0.45 0.49 0.41 0.64 0.53 0.29 0.07 0.06 0.08 0.12 0.33 0.68 0.77 0.52 0.38 0.37 0.29 0.33 0.22 0.09 0.15 0.02 0.01 0.03 0.04 0.10 0.19 0.28 0.15 0.18 0.01 0.00 0.00 0.01 0.06 0.10 0.01 0.06 0.06
0.33 0.30 0.23 0.29 0.32 0.45 0.51 0.36 0.49 0.44 0.32 0.06 0.03 0.03 0.06 0.14 0.43 0.81 0.67 0.57 0.52 0.47 0.35 0.30 0.05 0.03 0.02 0.00 0.00 0.00 0.03 0.05 0.08 0.13 0.09 0.00 0.00 0.00 0.00 0.00 0.01 0.02 0.10 0.03
0.29 0.36 0.29 0.24 0.18 0.29 0.40 0.32 0.20 0.31 0.29 0.11 0.05 0.02 0.03 0.05 0.17 0.51 0.73 0.53 0.39 0.28 0.19 0.14 0.08 0.01 0.01 0.00 0.00 0.00 0.00 0.00 0.00 0.00 0.00 0.00 0.00 0.00 0.00 0.00 0.00 0.00 0.02 0.10
0.21 0.30 0.29 0.23 0.21 0.32 0.41 0.25 0.19 0.27 0.25 0.11 0.05 0.04 0.02 0.02 0.08 0.25 0.66 0.64 0.42 0.26 0.13 0.16 0.13 0.11 0.01 0.01 0.00 0.00 0.00 0.00 0.00 0.00 0.00 0.00 0.00 0.00 0.00 0.00 0.00 0.00 0.00 0.01
0.21 0.28 0.29 0.22 0.21 0.27 0.36 0.15 0.22 0.22 0.20 0.12 0.10 0.04 0.03 0.01 0.07 0.20 0.41 0.81 0.71 0.56 0.35 0.24 0.23 0.13 0.05 0.01 0.00 0.00 0.01 0.00 0.00 0.00 0.00 0.00 0.00 0.00 0.00 0.00 0.00 0.00 0.00 0.00
0.19 0.21 0.25 0.21 0.21 0.26 0.25 0.12 0.28 0.26 0.31 0.33 0.15 0.05 0.02 0.03 0.14 0.25 0.38 0.55 0.77 0.61 0.61 0.28 0.16 0.12 0.05 0.02 0.00 0.00 0.00 0.00 0.00 0.00 0.00 0.00 0.00 0.00 0.00 0.00 0.00 0.00 0.00 0.00
0.16 0.17 0.22 0.21 0.24 0.38 0.35 0.33 0.30 0.34 0.35 0.37 0.24 0.13 0.07 0.07 0.19 0.30 0.41 0.44 0.57 0.59 0.51 0.30 0.15 0.06 0.10 0.09 0.01 0.00 0.00 0.00 0.00 0.00 0.00 0.00 0.00 0.00 0.00 0.00 0.00 0.00 0.00 0.00
0.14 0.15 0.21 0.24 0.36 0.41 0.34 0.17 0.29 0.31 0.33 0.35 0.30 0.18 0.09 0.12 0.14 0.25 0.34 0.47 0.46 0.47 0.51 0.27 0.13 0.10 0.18 0.12 0.01 0.00 0.00 0.00 0.00 0.00 0.00 0.00 0.00 0.00 0.00 0.00 0.00 0.03 0.01 0.00
0.14 0.19 0.29 0.45 0.50 0.44 0.26 0.09 0.21 0.38 0.54 0.34 0.24 0.11 0.03 0.07 0.13 0.20 0.31 0.54 0.53 0.40 0.34 0.19 0.10 0.11 0.19 0.13 0.00 0.00 0.00 0.00 0.00 0.00 0.00 0.00 0.00 0.00 0.02 0.01 0.00 0.00 0.01 0.02
0.26 0.34 0.50 0.65 0.31 0.14 0.21 0.41 0.49 0.32 0.63 0.68 0.14 0.05 0.02 0.03 0.11 0.21 0.36 0.41 0.46 0.37 0.23 0.12 0.16 0.14 0.11 0.02 0.00 0.00 0.00 0.00 0.00 0.00 0.00 0.00 0.00 0.01 0.03 0.03 0.01 0.00 0.00 0.01
0.57 0.70 0.71 0.49 0.21 0.41 0.71 0.68 0.59 0.58 0.45 0.37 0.21 0.03 0.02 0.03 0.13 0.15 0.27 0.40 0.40 0.29 0.23 0.23 0.19 0.07 0.03 0.01 0.00 0.00 0.00 0.00 0.00 0.01 0.01 0.00 0.00 0.00 0.02 0.03 0.05 0.00 0.00 0.00
1.03 0.86 0.52 0.34 0.52 0.99 0.66 0.82 0.54 0.39 0.20 0.09 0.05 0.06 0.07 0.02 0.11 0.20 0.24 0.26 0.31 0.23 0.20 0.30 0.22 0.15 0.06 0.01 0.00 0.00 0.00 0.00 0.00 0.00 0.01 0.02 0.01 0.00 0.00 0.00 0.03 0.01 0.00 0.00
0.75 0.64 0.90 0.77 0.86 0.95 0.36 0.35 0.25 0.13 0.02 0.00 0.01 0.01 0.04 0.07 0.04 0.19 0.34 0.29 0.33 0.26 0.29 0.31 0.11 0.04 0.00 0.00 0.00 0.00 0.00 0.00 0.00 0.00 0.00 0.01 0.01 0.02 0.02 0.01 0.01 0.01 0.00 0.00
0.88 1.22 1.35 0.68 0.67 0.50 0.17 0.10 0.10 0.02 0.00 0.01 0.01 0.00 0.00 0.02 0.09 0.11 0.12 0.18 0.20 0.23 0.34 0.28 0.10 0.04 0.00 0.00 0.00 0.00 0.00 0.00 0.00 0.00 0.00 0.02 0.02 0.00 0.00 0.02 0.05 0.04 0.02 0.02
1.94 1.81 1.28 0.35 0.35 0.10 0.14 0.02 0.00 0.00 0.00 0.00 0.01 0.01 0.00 0.01 0.05 0.08 0.04 0.03 0.03 0.13 0.25 0.14 0.05 0.01 0.00 0.00 0.00 0.00 0.06 0.12 0.03 0.01 0.02 0.11 0.05 0.00 0.00 0.00 0.03 0.05 0.02 0.01
1.60 1.04 0.55 0.17 0.10 0.06 0.02 0.00 0.00 0.00 0.00 0.00 0.00 0.00 0.00 0.02 0.04 0.02 0.02 0.04 0.02 0.03 0.08 0.03 0.00 0.00 0.00 0.00 0.00 0.01 0.30 0.48 0.28 0.14 0.14 0.14 0.06 0.02 0.01 0.00 0.00 0.00 0.01 0.00
1.60 0.83 0.35 0.09 0.02 0.01 0.00 0.00 0.00 0.01 0.03 0.05 0.02 0.03 0.03 0.00 0.01 0.02 0.00 0.00 0.00 0.01 0.00 0.00 0.00 0.00 0.00 0.00 0.00 0.01 0.15 0.28 0.31 0.16 0.12 0.15 0.17 0.10 0.04 0.00 0.04 0.05 0.02 0.00
1.55 0.43 0.06 0.04 0.03 0.03 0.01 0.00 0.00 0.00 0.01 0.08 0.18 0.11 0.02 0.01 0.04 0.01 0.00 0.00 0.00 0.00 0.00 0.00 0.00 0.00 0.00 0.00 0.00 0.00 0.00 0.01 0.06 0.02 0.00 0.02 0.08 0.17 0.12 0.02 0.03 0.07 0.10 0.04

GFSNW_prec_precacc_063.txt.gz
Total_Precipitation_Accumulation
0.72 0.70 0.79 0.66 0.87 1.28 1.14 1.21 1.70 1.56 2.17 3.32 2.66 1.72 1.41 1.47 0.93 0.62 0.50 0.21 0.09 0.06 0.06 0.12 0.13 0.08 0.03 0.01 0.01 0.12 0.36 0.75 0.87 0.70 0.27 0.22 0.34 0.30 0.30 0.77 0.42 0.40 0.36 0.10
0.70 0.83 0.72 0.64 1.00 1.54 1.41 1.30 1.53 2.20 1.62 1.66 1.19 1.11 1.18 1.22 0.69 0.53 0.54 0.21 0.10 0.03 0.04 0.13 0.07 0.04 0.00 0.00 0.01 0.09 0.43 0.90 0.84 0.63 0.54 0.58 0.79 0.41 0.35 0.59 0.97 0.67 0.42 0.14
0.64 0.69 0.62 0.55 1.15 1.56 1.55 1.48 1.95 2.72 2.49 0.83 0.73 1.21 1.40 1.06 0.58 0.46 0.53 0.27 0.16 0.10 0.05 0.04 0.04 0.03 0.00 0.00 0.00 0.03 0.41 0.88 0.93 0.75 0.43 0.57 0.82 0.45 0.57 1.13 1.09 0.36 0.29 0.04
0.70 0.61 0.51 0.55 0.91 1.23 1.27 1.32 1.19 0.84 0.79 0.64 0.36 0.79 1.00 0.82 0.81 0.51 0.65 0.47 0.13 0.08 0.08 0.03 0.02 0.01 0.01 0.00 0.00 0.06 0.43 0.90 0.88 0.49 0.28 0.42 0.57 0.56 0.49 0.94 0.52 0.52 0.16 0.07
0.68 0.55 0.43 0.46 0.54 1.00 0.89 0.85 1.10 0.42 0.15 0.19 0.24 0.62 0.80 0.64 0.60 0.56 0.39 0.27 0.09 0.08 0.05 0.01 0.00 0.00 0.01 0.01 0.02 0.11 0.33 0.71 0.75 0.61 0.24 0.38 0.48 0.55 0.36 0.56 0.27 0.26 0.17 0.13
0.54 0.55 0.46 0.89 1.00 1.48 1.06 0.69 0.78 0.50 0.26 0.16 0.38 0.36 0.49 0.63 0.58 0.32 0.11 0.14 0.18 0.12 0.02 0.01 0.01 0.00 0.00 0.01 0.06 0.16 0.28 0.51 0.73 0.64 0.48 0.28 0.47 0.58 0.68 0.48 0.20 0.25 0.28 0.15
0.63 0.67 0.60 0.79 0.81 1.02 0.91 0.55 0.48 0.58 0.24 0.10 0.10 0.21 0.31 0.44 0.52 0.44 0.17 0.16 0.14 0.06 0.01 0.03 0.03 0.02 0.01 0.03 0.03 0.03 0.06 0.23 0.46 0.31 0.15 0.16 0.11 0.14 0.44 0.28 0.23 0.26 0.14 0.07
0.41 0.28 0.22 0.32 0.46 0.63 0.51 0.38 0.39 0.52 0.25 0.08 0.10 0.14 0.29 0.44 0.54 0.53 0.29 0.15 0.09 0.10 0.14 0.15 0.22 0.19 0.12 0.06 0.03 0.03 0.05 0.16 0.25 0.16 0.07 0.03 0.00 0.00 0.07 0.13 0.22 0.14 0.07 0.02
0.47 0.40 0.50 0.53 0.60 0.58 0.47 0.39 0.41 0.45 0.28 0.10 0.06 0.07 0.19 0.42 0.62 0.62 0.36 0.19 0.20 0.21 0.29 0.26 0.23 0.37 0.11 0.04 0.11 0.03 0.05 0.18 0.27 0.10 0.12 0.02 0.00 0.00 0.01 0.02 0.16 0.02 0.05 0.04
0.60 0.47 0.38 0.28 0.29 0.45 0.49 0.41 0.64 0.53 0.30 0.07 0.06 0.08 0.12 0.33 0.68 0.77 0.52 0.38 0.37 0.29 0.33 0.22 0.09 0.15 0.02 0.01 0.03 0.05 0.10 0.19 0.28 0.15 0.18 0.01 0.00 0.00 0.01 0.07 0.10 0.01 0.06 0.06
0.34 0.30 0.23 0.29 0.32 0.45 0.51 0.36 0.49 0.44 0.32 0.06 0.03 0.03 0.06 0.14 0.43 0.81 0.67 0.57 0.52 0.47 0.35 0.30 0.05 0.03 0.02 0.00 0.00 0.00 0.03 0.05 0.08 0.13 0.09 0.00 0.00 0.00 0.00 0.00 0.01 0.02 0.10 0.03
0.30 0.37 0.29 0.24 0.19 0.29 0.40 0.32 0.20 0.31 0.29 0.11 0.05 0.02 0.03 0.05 0.17 0.51 0.73 0.53 0.39 0.28 0.19 0.14 0.08 0.01 0.01 0.00 0.00 0.00 0.00 0.00 0.00 0.00 0.00 0.00 0.00 0.00 0.00 0.00 0.00 0.00 0.02 0.10
0.21 0.30 0.30 0.23 0.21 0.32 0.41 0.25 0.19 0.27 0.25 0.11 0.05 0.04 0.02 0.02 0.08 0.25 0.66 0.64 0.42 0.26 0.13 0.16 0.13 0.11 0.01 0.01 0.00 0.00 0.00 0.00 0.00 0.00 0.00 0.00 0.00 0.00 0.00 0.00 0.00 0.00 0.00 0.01
0.21 0.28 0.30 0.22 0.21 0.27 0.37 0.15 0.22 0.23 0.21 0.12 0.10 0.04 0.03 0.01 0.07 0.20 0.41 0.81 0.71 0.56 0.35 0.24 0.23 0.13 0.05 0.01 0.00 0.00 0.01 0.00 0.00 0.00 0.00 0.00 0.00 0.00 0.00 0.00 0.00 0.00 0.00 0.00
0.20 0.21 0.25 0.22 0.22 0.27 0.26 0.12 0.28 0.26 0.31 0.36 0.15 0.05 0.02 0.03 0.15 0.25 0.38 0.55 0.77 0.61 0.61 0.28 0.16 0.12 0.05 0.02 0.00 0.00 0.00 0.00 0.00 0.00 0.00 0.00 0.00 0.00 0.00 0.00 0.00 0.00 0.00 0.00
0.16 0.17 0.23 0.22 0.25 0.39 0.36 0.33 0.31 0.34 0.36 0.39 0.25 0.14 0.07 0.07 0.20 0.33 0.42 0.44 0.57 0.60 0.53 0.32 0.16 0.06 0.10 0.09 0.01 0.00 0.00 0.00 0.00 0.00 0.00 0.00 0.00 0.00 0.00 0.00 0.00 0.00 0.00 0.00
0.14 0.16 0.21 0.24 0.36 0.42 0.34 0.18 0.33 0.32 0.34 0.39 0.35 0.20 0.10 0.13 0.15 0.25 0.35 0.47 0.46 0.47 0.54 0.28 0.13 0.10 0.18 0.12 0.01 0.00 0.00 0.00 0.00 0.00 0.00 0.00 0.00 0.00 0.00 0.00 0.00 0.03 0.01 0.00
0.15 0.19 0.29 0.46 0.51 0.46 0.27 0.09 0.23 0.41 0.59 0.45 0.37 0.18 0.07 0.10 0.16 0.21 0.31 0.55 0.54 0.41 0.34 0.20 0.11 0.11 0.20 0.14 0.00 0.00 0.00 0.00 0.00 0.00 0.00 0.00 0.00 0.00 0.02 0.01 0.00 0.00 0.01 0.02
0.26 0.34 0.50 0.66 0.31 0.14 0.21 0.43 0.52 0.38 0.76 0.82 0.22 0.15 0.07 0.06 0.11 0.21 0.36 0.42 0.47 0.38 0.24 0.13 0.17 0.16 0.13 0.02 0.00 0.00 0.00 0.00 0.00 0.00 0.00 0.00 0.00 0.01 0.03 0.03 0.01 0.00 0.00 0.01
0.57 0.70 0.71 0.49 0.21 0.42 0.75 0.78 0.68 0.65 0.54 0.44 0.28 0.11 0.08 0.06 0.16 0.17 0.28 0.44 0.42 0.29 0.23 0.24 0.22 0.08 0.03 0.01 0.00 0.00 0.00 0.00 0.00 0.01 0.01 0.00 0.00 0.00 0.02 0.03 0.05 0.00 0.00 0.00
1.03 0.86 0.52 0.34 0.52 1.02 0.74 0.91 0.60 0.45 0.24 0.11 0.06 0.07 0.10 0.04 0.15 0.23 0.26 0.28 0.35 0.25 0.20 0.32 0.23 0.16 0.06 0.01 0.00 0.00 0.00 0.00 0.00 0.00 0.01 0.02 0.01 0.00 0.00 0.00 0.03 0.01 0.00 0.00
0.75 0.64 0.90 0.77 0.87 0.97 0.42 0.41 0.28 0.16 0.04 0.04 0.03 0.01 0.04 0.07 0.04 0.19 0.36 0.34 0.40 0.28 0.32 0.35 0.12 0.04 0.00 0.00 0.00 0.00 0.00 0.00 0.00 0.00 0.00 0.01 0.01 0.02 0.02 0.01 0.01 0.01 0.00 0.00
0.88 1.22 1.35 0.68 0.68 0.53 0.19 0.11 0.11 0.03 0.01 0.04 0.02 0.01 0.03 0.04 0.09 0.13 0.16 0.25 0.25 0.28 0.37 0.28 0.11 0.05 0.01 0.00 0.00 0.00 0.00 0.00 0.00 0.00 0.00 0.03 0.02 0.00 0.00 0.02 0.05 0.04 0.02 0.02
1.94 1.81 1.29 0.36 0.36 0.11 0.15 0.02 0.01 0.00 0.00 0.01 0.02 0.02 0.01 0.02 0.08 0.09 0.06 0.04 0.05 0.14 0.26 0.14 0.05 0.02 0.00 0.00 0.00 0.01 0.06 0.12 0.04 0.01 0.02 0.12 0.05 0.01 0.00 0.00 0.03 0.05 0.02 0.01
1.60 1.04 0.55 0.17 0.11 0.07 0.02 0.00 0.00 0.00 0.01 0.01 0.00 0.01 0.00 0.03 0.06 0.03 0.03 0.05 0.02 0.03 0.08 0.03 0.00 0.00 0.00 0.00 0.01 0.06 0.35 0.51 0.31 0.16 0.17 0.18 0.11 0.08 0.05 0.01 0.00 0.00 0.01 0.00
1.60 0.83 0.35 0.09 0.02 0.01 0.00 0.00 0.00 0.01 0.04 0.10 0.04 0.03 0.03 0.01 0.02 0.05 0.00 0.01 0.00 0.01 0.00 0.00 0.00 0.00 0.00 0.00 0.01 0.05 0.19 0.33 0.38 0.22 0.16 0.21 0.27 0.24 0.15 0.04 0.07 0.06 0.03 0.01
1.55 0.43 0.06 0.04 0.03 0.03 0.01 0.00 0.00 0.01 0.02 0.11 0.26 0.15 0.02 0.02 0.06 0.02 0.00 0.00 0.00 0.00 0.00 0.00 0.00 0.00 0.00 0.00 0.00 0.00 0.00 0.01 0.07 0.06 0.05 0.04 0.08 0.19 0.16 0.05 0.04 0.08 0.11 0.04

GFSNW_prec_precacc_066.txt.gz
Total_Precipitation_Accumulation
0.72 0.70 0.79 0.66 0.87 1.28 1.14 1.21 1.70 1.56 2.17 3.32 2.66 1.73 1.41 1.47 0.93 0.62 0.50 0.21 0.09 0.06 0.06 0.12 0.13 0.08 0.03 0.01 0.01 0.12 0.36 0.75 0.87 0.70 0.27 0.22 0.34 0.30 0.30 0.77 0.42 0.40 0.36 0.10
0.71 0.83 0.72 0.64 1.00 1.54 1.41 1.30 1.53 2.20 1.62 1.66 1.19 1.11 1.18 1.22 0.69 0.53 0.54 0.21 0.10 0.03 0.04 0.13 0.07 0.04 0.00 0.00 0.01 0.09 0.43 0.90 0.84 0.63 0.54 0.58 0.79 0.41 0.35 0.59 0.97 0.67 0.42 0.14
0.65 0.69 0.62 0.55 1.15 1.56 1.55 1.48 1.95 2.72 2.49 0.83 0.74 1.21 1.40 1.06 0.58 0.46 0.53 0.27 0.16 0.10 0.05 0.04 0.04 0.03 0.00 0.00 0.00 0.03 0.41 0.88 0.93 0.75 0.43 0.57 0.82 0.45 0.57 1.13 1.09 0.36 0.29 0.04
0.70 0.61 0.51 0.55 0.91 1.23 1.27 1.32 1.19 0.84 0.79 0.64 0.36 0.79 1.00 0.82 0.81 0.51 0.65 0.47 0.13 0.08 0.08 0.03 0.02 0.01 0.01 0.00 0.00 0.06 0.43 0.90 0.88 0.49 0.28 0.42 0.57 0.56 0.49 0.94 0.52 0.52 0.16 0.07
0.68 0.55 0.43 0.46 0.54 1.00 0.89 0.85 1.10 0.42 0.15 0.19 0.24 0.62 0.80 0.64 0.60 0.56 0.39 0.27 0.09 0.08 0.05 0.01 0.00 0.00 0.01 0.01 0.02 0.11 0.33 0.71 0.75 0.61 0.24 0.38 0.48 0.55 0.36 0.56 0.27 0.26 0.17 0.13
0.54 0.55 0.46 0.89 1.00 1.48 1.06 0.69 0.78 0.50 0.26 0.16 0.38 0.36 0.49 0.63 0.58 0.32 0.11 0.14 0.18 0.12 0.02 0.01 0.01 0.00 0.00 0.01 0.06 0.16 0.28 0.51 0.73 0.64 0.48 0.28 0.47 0.58 0.68 0.48 0.20 0.25 0.28 0.15
0.64 0.67 0.60 0.79 0.81 1.02 0.91 0.55 0.48 0.58 0.24 0.10 0.10 0.21 0.31 0.44 0.52 0.44 0.17 0.16 0.14 0.06 0.01 0.03 0.03 0.02 0.01 0.03 0.03 0.03 0.06 0.23 0.46 0.31 0.15 0.16 0.11 0.14 0.44 0.28 0.23 0.26 0.14 0.07
0.42 0.28 0.22 0.32 0.46 0.63 0.51 0.38 0.39 0.52 0.25 0.08 0.10 0.14 0.29 0.44 0.54 0.53 0.29 0.15 0.09 0.10 0.14 0.15 0.22 0.19 0.12 0.06 0.03 0.03 0.05 0.16 0.25 0.16 0.07 0.03 0.00 0.00 0.07 0.13 0.22 0.14 0.07 0.02
0.48 0.40 0.50 0.53 0.60 0.58 0.47 0.39 0.41 0.45 0.29 0.10 0.06 0.07 0.19 0.42 0.62 0.62 0.36 0.19 0.20 0.21 0.29 0.26 0.23 0.37 0.11 0.05 0.11 0.03 0.05 0.18 0.27 0.10 0.12 0.02 0.00 0.00 0.01 0.02 0.17 0.02 0.05 0.04
0.60 0.47 0.38 0.28 0.29 0.45 0.49 0.41 0.64 0.53 0.30 0.07 0.06 0.08 0.12 0.33 0.68 0.77 0.52 0.38 0.37 0.29 0.33 0.22 0.09 0.15 0.02 0.01 0.03 0.05 0.10 0.19 0.28 0.15 0.18 0.01 0.00 0.00 0.01 0.08 0.12 0.01 0.06 0.06
0.34 0.30 0.24 0.29 0.32 0.45 0.51 0.36 0.49 0.44 0.32 0.06 0.03 0.03 0.06 0.14 0.43 0.81 0.67 0.57 0.52 0.47 0.35 0.30 0.05 0.03 0.02 0.00 0.00 0.00 0.03 0.05 0.09 0.13 0.10 0.00 0.00 0.00 0.00 0.00 0.01 0.02 0.10 0.03
0.30 0.37 0.30 0.24 0.19 0.30 0.40 0.32 0.20 0.31 0.29 0.11 0.05 0.02 0.03 0.05 0.17 0.51 0.73 0.53 0.39 0.28 0.19 0.14 0.08 0.01 0.01 0.00 0.00 0.00 0.00 0.00 0.00 0.00 0.00 0.00 0.00 0.00 0.00 0.00 0.00 0.00 0.02 0.10
0.21 0.30 0.30 0.23 0.22 0.32 0.41 0.25 0.19 0.27 0.26 0.11 0.05 0.04 0.02 0.02 0.08 0.25 0.66 0.64 0.42 0.26 0.13 0.16 0.13 0.11 0.01 0.01 0.00 0.00 0.00 0.00 0.00 0.00 0.00 0.00 0.00 0.00 0.00 0.00 0.00 0.00 0.00 0.01
0.21 0.28 0.30 0.22 0.21 0.28 0.37 0.15 0.22 0.23 0.21 0.13 0.10 0.04 0.03 0.01 0.07 0.20 0.41 0.81 0.71 0.56 0.35 0.24 0.23 0.13 0.05 0.01 0.00 0.00 0.01 0.00 0.00 0.00 0.00 0.00 0.00 0.00 0.00 0.00 0.00 0.00 0.00 0.00
0.20 0.21 0.25 0.22 0.22 0.28 0.26 0.12 0.28 0.26 0.32 0.36 0.16 0.05 0.02 0.03 0.15 0.25 0.38 0.56 0.77 0.61 0.62 0.29 0.17 0.12 0.05 0.02 0.00 0.00 0.00 0.00 0.00 0.00 0.00 0.00 0.00 0.00 0.00 0.00 0.01 0.00 0.00 0.00
0.16 0.17 0.23 0.22 0.25 0.39 0.36 0.33 0.31 0.34 0.36 0.40 0.25 0.14 0.07 0.07 0.20 0.35 0.43 0.45 0.58 0.61 0.55 0.34 0.16 0.06 0.10 0.09 0.01 0.00 0.00 0.00 0.00 0.00 0.00 0.00 0.00 0.00 0.00 0.00 0.00 0.00 0.00 0.00
0.14 0.16 0.21 0.24 0.37 0.42 0.35 0.18 0.34 0.32 0.34 0.40 0.36 0.21 0.11 0.14 0.16 0.29 0.42 0.50 0.48 0.49 0.58 0.30 0.14 0.10 0.19 0.13 0.01 0.00 0.00 0.00 0.00 0.00 0.00 0.00 0.00 0.00 0.00 0.00 0.00 0.03 0.01 0.00
0.15 0.19 0.30 0.46 0.51 0.47 0.29 0.10 0.24 0.41 0.60 0.46 0.41 0.23 0.15 0.15 0.24 0.26 0.37 0.65 0.58 0.44 0.35 0.21 0.12 0.12 0.21 0.14 0.00 0.00 0.00 0.00 0.00 0.00 0.00 0.00 0.00 0.00 0.02 0.01 0.00 0.00 0.01 0.02
0.26 0.34 0.50 0.66 0.31 0.14 0.21 0.43 0.52 0.38 0.78 0.87 0.28 0.28 0.22 0.16 0.28 0.25 0.43 0.43 0.49 0.38 0.25 0.13 0.18 0.17 0.14 0.02 0.00 0.00 0.00 0.00 0.00 0.00 0.00 0.00 0.00 0.01 0.03 0.03 0.01 0.00 0.00 0.01
0.57 0.70 0.71 0.49 0.21 0.42 0.76 0.83 0.75 0.70 0.57 0.47 0.30 0.20 0.32 0.27 0.30 0.23 0.37 0.47 0.43 0.30 0.24 0.25 0.24 0.09 0.03 0.01 0.00 0.00 0.00 0.00 0.00 0.01 0.01 0.00 0.00 0.00 0.02 0.03 0.05 0.00 0.00 0.00
1.03 0.86 0.52 0.34 0.52 1.03 0.78 0.97 0.65 0.48 0.26 0.12 0.08 0.11 0.25 0.29 0.37 0.32 0.30 0.30 0.36 0.26 0.20 0.33 0.25 0.16 0.06 0.01 0.00 0.00 0.00 0.00 0.00 0.00 0.01 0.02 0.01 0.00 0.00 0.00 0.03 0.01 0.00 0.00
0.76 0.64 0.90 0.77 0.87 0.99 0.47 0.44 0.31 0.19 0.05 0.05 0.07 0.07 0.09 0.15 0.08 0.20 0.37 0.34 0.42 0.29 0.34 0.38 0.12 0.04 0.00 0.00 0.00 0.00 0.00 0.00 0.00 0.00 0.00 0.01 0.01 0.02 0.02 0.01 0.01 0.01 0.00 0.00
0.88 1.22 1.35 0.69 0.69 0.55 0.22 0.13 0.13 0.03 0.02 0.06 0.09 0.12 0.05 0.05 0.09 0.14 0.16 0.28 0.29 0.33 0.42 0.30 0.11 0.05 0.01 0.00 0.00 0.00 0.00 0.00 0.00 0.00 0.00 0.03 0.03 0.00 0.00 0.02 0.05 0.04 0.02 0.02
1.95 1.81 1.29 0.36 0.37 0.12 0.15 0.02 0.01 0.01 0.00 0.07 0.10 0.04 0.02 0.04 0.09 0.11 0.08 0.05 0.08 0.17 0.27 0.14 0.05 0.04 0.01 0.01 0.02 0.03 0.07 0.12 0.04 0.03 0.03 0.12 0.06 0.01 0.01 0.01 0.03 0.05 0.02 0.01
1.60 1.05 0.55 0.17 0.11 0.08 0.04 0.02 0.01 0.01 0.01 0.06 0.03 0.02 0.00 0.03 0.06 0.05 0.05 0.06 0.03 0.03 0.08 0.03 0.00 0.00 0.00 0.03 0.05 0.09 0.36 0.53 0.34 0.20 0.19 0.20 0.13 0.10 0.08 0.04 0.01 0.00 0.01 0.00
1.60 0.83 0.35 0.09 0.02 0.01 0.01 0.02 0.01 0.02 0.04 0.15 0.13 0.04 0.03 0.01 0.02 0.07 0.01 0.01 0.00 0.01 0.00 0.00 0.00 0.00 0.00 0.01 0.04 0.07 0.20 0.34 0.40 0.27 0.21 0.25 0.30 0.29 0.24 0.14 0.12 0.09 0.05 0.02
1.55 0.43 0.06 0.04 0.03 0.03 0.01 0.01 0.01 0.01 0.03 0.14 0.36 0.23 0.03 0.03 0.07 0.02 0.00 0.00 0.00 0.00 0.00 0.00 0.00 0.00 0.00 0.00 0.00 0.00 0.00 0.01 0.07 0.06 0.05 0.06 0.11 0.22 0.21 0.12 0.13 0.15 0.14 0.05

GFSNW_prec_precacc_069.txt.gz
Total_Precipitation_Accumulation
0.72 0.70 0.79 0.66 0.87 1.28 1.14 1.21 1.70 1.56 2.17 3.32 2.66 1.73 1.41 1.47 0.93 0.62 0.50 0.21 0.09 0.06 0.06 0.12 0.13 0.08 0.03 0.01 0.01 0.12 0.36 0.75 0.88 0.70 0.27 0.22 0.34 0.30 0.30 0.77 0.42 0.40 0.36 0.10
0.71 0.83 0.72 0.64 1.00 1.54 1.41 1.30 1.53 2.20 1.62 1.66 1.19 1.11 1.18 1.22 0.69 0.53 0.54 0.21 0.10 0.03 0.04 0.13 0.07 0.04 0.00 0.00 0.01 0.09 0.43 0.90 0.84 0.63 0.54 0.58 0.79 0.41 0.35 0.59 0.97 0.67 0.42 0.14
0.65 0.69 0.62 0.55 1.15 1.56 1.55 1.48 1.95 2.72 2.49 0.83 0.74 1.21 1.40 1.06 0.58 0.46 0.53 0.27 0.16 0.10 0.05 0.04 0.04 0.03 0.00 0.00 0.00 0.03 0.41 0.88 0.93 0.75 0.43 0.57 0.82 0.45 0.57 1.13 1.09 0.36 0.29 0.04
0.70 0.61 0.51 0.55 0.91 1.23 1.27 1.32 1.19 0.84 0.79 0.64 0.36 0.79 1.00 0.82 0.81 0.51 0.65 0.47 0.13 0.08 0.08 0.03 0.02 0.01 0.01 0.00 0.00 0.06 0.43 0.90 0.88 0.49 0.28 0.42 0.57 0.56 0.49 0.94 0.52 0.52 0.16 0.07
0.68 0.55 0.43 0.46 0.54 1.00 0.89 0.85 1.10 0.42 0.15 0.19 0.24 0.62 0.80 0.64 0.60 0.56 0.39 0.27 0.09 0.08 0.05 0.01 0.00 0.00 0.01 0.01 0.02 0.11 0.33 0.71 0.75 0.61 0.24 0.38 0.48 0.55 0.36 0.56 0.27 0.26 0.17 0.13
0.54 0.55 0.46 0.89 1.00 1.48 1.06 0.70 0.78 0.50 0.26 0.16 0.38 0.36 0.49 0.63 0.58 0.32 0.11 0.14 0.18 0.12 0.02 0.01 0.01 0.00 0.00 0.01 0.06 0.16 0.28 0.51 0.73 0.64 0.48 0.28 0.47 0.58 0.68 0.48 0.20 0.25 0.28 0.15
0.64 0.67 0.60 0.79 0.81 1.02 0.91 0.56 0.48 0.58 0.24 0.10 0.10 0.21 0.31 0.44 0.52 0.44 0.17 0.16 0.14 0.06 0.01 0.03 0.03 0.02 0.01 0.03 0.03 0.03 0.06 0.23 0.46 0.31 0.15 0.16 0.11 0.14 0.44 0.28 0.23 0.26 0.14 0.07
0.42 0.28 0.22 0.32 0.46 0.63 0.51 0.38 0.39 0.53 0.26 0.08 0.10 0.14 0.29 0.44 0.54 0.53 0.29 0.15 0.09 0.10 0.14 0.15 0.22 0.19 0.12 0.06 0.03 0.03 0.05 0.16 0.25 0.16 0.07 0.03 0.00 0.00 0.07 0.13 0.22 0.14 0.07 0.02
0.48 0.40 0.50 0.53 0.60 0.58 0.47 0.39 0.41 0.46 0.29 0.10 0.06 0.07 0.19 0.42 0.62 0.62 0.36 0.19 0.20 0.21 0.29 0.26 0.23 0.37 0.11 0.05 0.11 0.03 0.05 0.18 0.27 0.10 0.12 0.02 0.00 0.00 0.01 0.02 0.18 0.02 0.05 0.04
0.60 0.47 0.38 0.28 0.29 0.45 0.49 0.41 0.64 0.54 0.31 0.07 0.06 0.08 0.12 0.33 0.68 0.77 0.52 0.38 0.37 0.29 0.33 0.22 0.09 0.15 0.02 0.01 0.03 0.05 0.11 0.19 0.28 0.15 0.18 0.01 0.00 0.00 0.01 0.08 0.13 0.01 0.06 0.06
0.34 0.30 0.24 0.29 0.32 0.45 0.51 0.36 0.49 0.44 0.32 0.06 0.03 0.03 0.06 0.14 0.43 0.81 0.67 0.57 0.52 0.47 0.36 0.30 0.06 0.03 0.02 0.00 0.00 0.00 0.03 0.05 0.09 0.13 0.10 0.00 0.00 0.00 0.00 0.01 0.01 0.02 0.10 0.03
0.30 0.37 0.30 0.24 0.19 0.30 0.40 0.32 0.20 0.31 0.29 0.11 0.05 0.02 0.03 0.05 0.17 0.51 0.73 0.53 0.39 0.28 0.19 0.14 0.08 0.01 0.01 0.00 0.00 0.00 0.00 0.00 0.00 0.00 0.00 0.00 0.00 0.00 0.00 0.00 0.00 0.00 0.02 0.10
0.21 0.30 0.30 0.23 0.22 0.32 0.41 0.25 0.19 0.27 0.26 0.11 0.05 0.04 0.02 0.02 0.08 0.25 0.66 0.65 0.43 0.26 0.13 0.17 0.13 0.11 0.01 0.01 0.00 0.00 0.00 0.00 0.00 0.00 0.00 0.00 0.00 0.00 0.00 0.00 0.00 0.00 0.00 0.01
0.21 0.28 0.30 0.22 0.21 0.28 0.38 0.16 0.22 0.23 0.21 0.13 0.10 0.04 0.03 0.01 0.07 0.20 0.41 0.81 0.71 0.56 0.35 0.25 0.23 0.13 0.05 0.01 0.00 0.00 0.01 0.00 0.00 0.00 0.00 0.00 0.00 0.00 0.00 0.00 0.00 0.00 0.00 0.00
0.20 0.21 0.25 0.22 0.22 0.28 0.27 0.12 0.28 0.27 0.32 0.37 0.16 0.05 0.02 0.03 0.15 0.25 0.38 0.56 0.77 0.62 0.64 0.30 0.17 0.12 0.05 0.02 0.00 0.00 0.00 0.00 0.00 0.00 0.00 0.00 0.00 0.00 0.00 0.00 0.01 0.00 0.00 0.00
0.17 0.18 0.23 0.22 0.26 0.41 0.37 0.33 0.31 0.34 0.37 0.41 0.26 0.14 0.07 0.07 0.20 0.35 0.43 0.46 0.58 0.63 0.59 0.36 0.17 0.06 0.10 0.09 0.01 0.00 0.00 0.00 0.00 0.00 0.00 0.00 0.00 0.00 0.00 0.00 0.00 0.00 0.00 0.00
0.16 0.16 0.22 0.25 0.38 0.44 0.36 0.18 0.34 0.32 0.34 0.40 0.37 0.21 0.11 0.14 0.17 0.32 0.44 0.51 0.49 0.52 0.63 0.32 0.15 0.11 0.19 0.13 0.01 0.00 0.00 0.00 0.00 0.00 0.00 0.00 0.00 0.00 0.00 0.00 0.00 0.03 0.01 0.00
0.19 0.22 0.31 0.47 0.53 0.49 0.30 0.10 0.24 0.41 0.60 0.47 0.43 0.24 0.18 0.18 0.28 0.34 0.42 0.72 0.62 0.47 0.39 0.22 0.13 0.13 0.22 0.15 0.00 0.00 0.00 0.00 0.00 0.00 0.00 0.00 0.00 0.00 0.02 0.01 0.00 0.00 0.01 0.02
0.30 0.36 0.52 0.66 0.32 0.16 0.22 0.44 0.53 0.39 0.79 0.90 0.31 0.32 0.33 0.27 0.40 0.31 0.57 0.54 0.70 0.47 0.28 0.14 0.20 0.18 0.14 0.02 0.00 0.00 0.00 0.00 0.00 0.00 0.00 0.00 0.00 0.01 0.03 0.03 0.01 0.00 0.00 0.01
0.64 0.73 0.74 0.52 0.22 0.43 0.77 0.86 0.79 0.75 0.60 0.48 0.31 0.24 0.46 0.40 0.47 0.33 0.54 0.55 0.47 0.33 0.24 0.25 0.25 0.10 0.03 0.01 0.00 0.00 0.00 0.00 0.00 0.01 0.01 0.00 0.00 0.00 0.02 0.03 0.05 0.00 0.00 0.00
1.08 0.91 0.56 0.35 0.52 1.05 0.83 1.03 0.69 0.50 0.28 0.13 0.08 0.12 0.30 0.46 0.64 0.50 0.43 0.44 0.41 0.26 0.21 0.35 0.25 0.16 0.06 0.01 0.00 0.00 0.00 0.00 0.00 0.00 0.01 0.02 0.01 0.00 0.00 0.00 0.03 0.01 0.00 0.00
0.81 0.69 0.93 0.78 0.88 1.02 0.53 0.48 0.34 0.21 0.05 0.06 0.08 0.12 0.15 0.30 0.39 0.37 0.47 0.37 0.44 0.29 0.35 0.40 0.12 0.04 0.00 0.00 0.00 0.00 0.00 0.00 0.00 0.00 0.00 0.01 0.01 0.02 0.02 0.01 0.01 0.01 0.00 0.00
0.92 1.24 1.37 0.70 0.70 0.59 0.26 0.15 0.15 0.04 0.02 0.08 0.12 0.27 0.14 0.12 0.18 0.17 0.17 0.29 0.30 0.35 0.44 0.31 0.11 0.05 0.02 0.00 0.00 0.00 0.00 0.00 0.00 0.00 0.00 0.03 0.03 0.00 0.00 0.02 0.05 0.04 0.02 0.02
1.98 1.83 1.30 0.37 0.38 0.13 0.16 0.03 0.01 0.01 0.01 0.09 0.22 0.16 0.06 0.08 0.11 0.12 0.09 0.06 0.10 0.20 0.28 0.15 0.09 0.11 0.05 0.04 0.04 0.04 0.07 0.12 0.04 0.03 0.04 0.13 0.07 0.02 0.01 0.01 0.03 0.05 0.02 0.01
1.64 1.06 0.56 0.17 0.11 0.09 0.05 0.03 0.02 0.01 0.02 0.08 0.10 0.08 0.03 0.04 0.06 0.06 0.06 0.08 0.04 0.03 0.08 0.03 0.01 0.01 0.02 0.08 0.08 0.09 0.37 0.53 0.35 0.21 0.22 0.22 0.14 0.11 0.08 0.05 0.03 0.01 0.01 0.00
1.60 0.83 0.36 0.09 0.02 0.01 0.01 0.02 0.03 0.03 0.05 0.15 0.20 0.09 0.05 0.01 0.03 0.07 0.01 0.02 0.00 0.01 0.00 0.00 0.00 0.00 0.00 0.02 0.06 0.09 0.21 0.34 0.40 0.27 0.22 0.28 0.33 0.32 0.27 0.17 0.17 0.14 0.08 0.05
1.55 0.43 0.06 0.04 0.03 0.03 0.01 0.02 0.01 0.01 0.03 0.14 0.40 0.31 0.04 0.03 0.08 0.02 0.00 0.00 0.00 0.00 0.00 0.00 0.00 0.00 0.00 0.00 0.00 0.00 0.00 0.01 0.07 0.06 0.05 0.06 0.11 0.23 0.24 0.16 0.21 0.23 0.20 0.08

GFSNW_prec_precacc_072.txt.gz
Total_Precipitation_Accumulation
0.73 0.70 0.79 0.66 0.87 1.28 1.14 1.21 1.70 1.56 2.17 3.32 2.66 1.73 1.41 1.47 0.93 0.62 0.50 0.21 0.09 0.06 0.06 0.12 0.13 0.08 0.03 0.01 0.01 0.12 0.36 0.75 0.88 0.71 0.27 0.22 0.34 0.31 0.30 0.77 0.42 0.40 0.36 0.10
0.71 0.83 0.72 0.64 1.00 1.54 1.41 1.30 1.53 2.20 1.62 1.66 1.19 1.11 1.18 1.22 0.69 0.53 0.54 0.21 0.10 0.03 0.04 0.13 0.07 0.04 0.00 0.00 0.01 0.09 0.43 0.90 0.84 0.63 0.54 0.58 0.79 0.41 0.35 0.59 0.97 0.67 0.42 0.14
0.65 0.69 0.62 0.55 1.15 1.56 1.55 1.48 1.95 2.72 2.49 0.83 0.74 1.21 1.40 1.06 0.58 0.46 0.53 0.27 0.16 0.10 0.05 0.04 0.04 0.03 0.00 0.00 0.00 0.03 0.41 0.88 0.93 0.75 0.43 0.57 0.82 0.45 0.57 1.13 1.09 0.36 0.29 0.04
0.70 0.61 0.51 0.55 0.91 1.23 1.27 1.32 1.19 0.84 0.79 0.64 0.36 0.79 1.00 0.82 0.81 0.51 0.65 0.47 0.13 0.08 0.08 0.03 0.02 0.01 0.01 0.00 0.00 0.06 0.43 0.90 0.88 0.49 0.28 0.42 0.57 0.56 0.49 0.94 0.52 0.52 0.16 0.07
0.68 0.55 0.43 0.46 0.54 1.00 0.89 0.86 1.10 0.42 0.15 0.19 0.24 0.62 0.80 0.64 0.60 0.56 0.39 0.27 0.09 0.08 0.05 0.01 0.00 0.00 0.01 0.01 0.02 0.11 0.33 0.71 0.75 0.61 0.24 0.38 0.48 0.55 0.36 0.56 0.27 0.26 0.17 0.13
0.54 0.55 0.46 0.89 1.00 1.48 1.06 0.70 0.79 0.51 0.26 0.16 0.38 0.36 0.49 0.63 0.59 0.32 0.11 0.14 0.18 0.12 0.02 0.01 0.01 0.00 0.00 0.01 0.06 0.16 0.28 0.51 0.73 0.64 0.48 0.28 0.47 0.58 0.68 0.48 0.20 0.25 0.28 0.15
0.64 0.67 0.60 0.79 0.81 1.02 0.92 0.56 0.48 0.59 0.24 0.10 0.10 0.21 0.31 0.44 0.52 0.44 0.17 0.16 0.14 0.06 0.01 0.03 0.03 0.02 0.01 0.03 0.03 0.03 0.06 0.23 0.46 0.31 0.15 0.16 0.11 0.14 0.44 0.28 0.23 0.26 0.14 0.07
0.42 0.28 0.22 0.32 0.46 0.63 0.51 0.38 0.39 0.53 0.26 0.08 0.10 0.14 0.29 0.44 0.54 0.53 0.29 0.15 0.09 0.10 0.14 0.15 0.23 0.20 0.12 0.06 0.03 0.03 0.05 0.16 0.25 0.16 0.07 0.03 0.00 0.00 0.07 0.13 0.22 0.14 0.07 0.02
0.48 0.40 0.50 0.53 0.60 0.58 0.47 0.39 0.41 0.46 0.29 0.10 0.06 0.07 0.19 0.42 0.62 0.62 0.36 0.19 0.20 0.21 0.29 0.27 0.23 0.37 0.11 0.05 0.11 0.03 0.05 0.18 0.27 0.10 0.12 0.02 0.00 0.00 0.01 0.02 0.19 0.02 0.05 0.04
0.60 0.47 0.38 0.28 0.29 0.45 0.49 0.41 0.64 0.54 0.31 0.07 0.06 0.08 0.12 0.34 0.69 0.78 0.52 0.38 0.37 0.29 0.34 0.23 0.10 0.15 0.02 0.01 0.03 0.05 0.11 0.19 0.28 0.15 0.18 0.01 0.00 0.00 0.01 0.09 0.14 0.01 0.06 0.06
0.34 0.30 0.24 0.29 0.32 0.45 0.51 0.36 0.49 0.44 0.32 0.06 0.03 0.03 0.06 0.14 0.44 0.82 0.67 0.57 0.52 0.47 0.37 0.31 0.07 0.04 0.02 0.00 0.00 0.00 0.03 0.05 0.09 0.14 0.10 0.00 0.00 0.00 0.00 0.01 0.01 0.02 0.10 0.03
0.30 0.37 0.30 0.24 0.19 0.30 0.40 0.32 0.20 0.31 0.29 0.11 0.05 0.02 0.03 0.05 0.17 0.51 0.73 0.54 0.39 0.28 0.19 0.15 0.09 0.02 0.01 0.00 0.00 0.00 0.00 0.00 0.00 0.00 0.00 0.00 0.00 0.00 0.00 0.00 0.00 0.00 0.02 0.10
0.21 0.30 0.30 0.23 0.22 0.33 0.41 0.25 0.19 0.28 0.26 0.11 0.05 0.04 0.02 0.02 0.08 0.25 0.66 0.65 0.44 0.28 0.13 0.19 0.14 0.11 0.01 0.01 0.00 0.00 0.00 0.00 0.00 0.00 0.00 0.00 0.00 0.00 0.00 0.00 0.00 0.00 0.00 0.01
0.22 0.28 0.30 0.22 0.21 0.28 0.38 0.16 0.23 0.24 0.22 0.13 0.10 0.04 0.03 0.01 0.07 0.20 0.41 0.81 0.71 0.56 0.35 0.27 0.24 0.13 0.05 0.01 0.00 0.00 0.01 0.00 0.00 0.00 0.00 0.00 0.00 0.00 0.00 0.00 0.00 0.00 0.00 0.00
0.22 0.24 0.28 0.22 0.22 0.28 0.28 0.13 0.29 0.28 0.33 0.37 0.16 0.05 0.02 0.03 0.15 0.25 0.38 0.56 0.77 0.62 0.66 0.33 0.17 0.13 0.05 0.02 0.00 0.00 0.00 0.00 0.00 0.00 0.00 0.00 0.00 0.00 0.00 0.00 0.01 0.00 0.00 0.00
0.23 0.24 0.27 0.23 0.26 0.41 0.39 0.34 0.32 0.34 0.38 0.44 0.26 0.14 0.07 0.07 0.20 0.35 0.43 0.46 0.58 0.64 0.64 0.39 0.19 0.07 0.11 0.09 0.01 0.00 0.00 0.00 0.00 0.00 0.00 0.00 0.00 0.00 0.00 0.00 0.00 0.00 0.00 0.00
0.31 0.26 0.25 0.26 0.40 0.47 0.39 0.19 0.36 0.32 0.35 0.42 0.37 0.21 0.11 0.15 0.18 0.33 0.45 0.52 0.50 0.54 0.65 0.35 0.17 0.13 0.20 0.13 0.01 0.00 0.00 0.00 0.00 0.00 0.00 0.00 0.00 0.00 0.00 0.00 0.00 0.03 0.01 0.00
0.34 0.28 0.35 0.51 0.57 0.53 0.32 0.11 0.25 0.42 0.62 0.48 0.44 0.24 0.19 0.22 0.31 0.38 0.45 0.75 0.64 0.53 0.43 0.25 0.14 0.15 0.24 0.15 0.00 0.00 0.00 0.00 0.00 0.00 0.00 0.00 0.00 0.00 0.02 0.01 0.00 0.00 0.01 0.02
0.33 0.38 0.55 0.69 0.34 0.18 0.23 0.44 0.54 0.39 0.81 0.92 0.32 0.33 0.35 0.37 0.48 0.39 0.76 0.60 0.76 0.51 0.31 0.15 0.22 0.19 0.15 0.02 0.00 0.00 0.00 0.00 0.00 0.00 0.00 0.00 0.00 0.01 0.03 0.03 0.01 0.00 0.00 0.01
0.72 0.80 0.79 0.56 0.24 0.44 0.78 0.88 0.84 0.80 0.65 0.50 0.31 0.24 0.47 0.46 0.55 0.45 0.78 0.68 0.55 0.45 0.29 0.27 0.27 0.10 0.03 0.01 0.00 0.00 0.00 0.00 0.00 0.01 0.01 0.00 0.00 0.00 0.02 0.03 0.05 0.00 0.00 0.00
1.15 0.95 0.60 0.37 0.53 1.09 0.88 1.09 0.74 0.54 0.31 0.14 0.09 0.12 0.32 0.49 0.70 0.68 0.49 0.64 0.46 0.30 0.22 0.37 0.27 0.16 0.06 0.01 0.00 0.00 0.00 0.00 0.00 0.00 0.01 0.02 0.01 0.00 0.00 0.00 0.03 0.01 0.00 0.00
0.87 0.72 0.96 0.79 0.89 1.05 0.59 0.53 0.37 0.23 0.05 0.06 0.09 0.15 0.24 0.38 0.49 0.54 0.62 0.47 0.54 0.33 0.36 0.41 0.12 0.04 0.00 0.00 0.00 0.00 0.00 0.00 0.00 0.00 0.00 0.01 0.01 0.02 0.02 0.01 0.01 0.01 0.00 0.00
0.93 1.25 1.40 0.74 0.73 0.62 0.29 0.17 0.18 0.06 0.03 0.10 0.19 0.36 0.26 0.24 0.33 0.25 0.26 0.33 0.31 0.36 0.45 0.31 0.11 0.06 0.02 0.00 0.00 0.00 0.00 0.00 0.00 0.00 0.00 0.03 0.03 0.00 0.00 0.02 0.05 0.04 0.02 0.02
1.99 1.83 1.31 0.39 0.40 0.14 0.17 0.04 0.05 0.05 0.01 0.10 0.27 0.28 0.15 0.17 0.24 0.21 0.14 0.09 0.12 0.21 0.29 0.15 0.11 0.19 0.11 0.07 0.06 0.06 0.08 0.12 0.04 0.03 0.04 0.13 0.07 0.02 0.01 0.01 0.03 0.05 0.02 0.01
1.65 1.06 0.56 0.17 0.11 0.09 0.06 0.04 0.02 0.02 0.03 0.08 0.12 0.13 0.08 0.08 0.12 0.09 0.08 0.10 0.05 0.04 0.09 0.03 0.01 0.13 0.05 0.14 0.18 0.18 0.41 0.54 0.35 0.22 0.22 0.22 0.15 0.12 0.09 0.06 0.04 0.02 0.02 0.01
1.60 0.84 0.36 0.09 0.02 0.01 0.01 0.02 0.03 0.03 0.05 0.16 0.21 0.10 0.06 0.03 0.03 0.08 0.03 0.03 0.02 0.02 0.00 0.00 0.00 0.01 0.00 0.02 0.08 0.12 0.23 0.35 0.42 0.27 0.22 0.28 0.33 0.32 0.28 0.18 0.18 0.16 0.12 0.08
1.55 0.43 0.06 0.04 0.03 0.03 0.01 0.02 0.01 0.01 0.04 0.15 0.41 0.35 0.07 0.05 0.08 0.02 0.00 0.01 0.01 0.00 0.00 0.00 0.00 0.00 0.00 0.00 0.00 0.00 0.00 0.01 0.07 0.06 0.05 0.06 0.11 0.23 0.24 0.17 0.22 0.27 0.24 0.11

GFSNW_prec_precacc_075.txt.gz
Total_Precipitation_Accumulation
0.73 0.70 0.79 0.66 0.87 1.28 1.14 1.21 1.70 1.56 2.17 3.32 2.66 1.73 1.41 1.47 0.93 0.62 0.50 0.21 0.09 0.06 0.06 0.12 0.13 0.08 0.03 0.01 0.01 0.12 0.36 0.75 0.89 0.72 0.27 0.22 0.34 0.32 0.30 0.78 0.43 0.40 0.36 0.10
0.71 0.83 0.72 0.64 1.00 1.54 1.41 1.30 1.53 2.20 1.62 1.66 1.19 1.11 1.18 1.22 0.69 0.53 0.54 0.21 0.10 0.03 0.04 0.13 0.07 0.04 0.00 0.00 0.01 0.09 0.43 0.90 0.84 0.63 0.54 0.58 0.79 0.42 0.35 0.59 0.97 0.67 0.42 0.14
0.65 0.69 0.62 0.55 1.15 1.56 1.55 1.48 1.95 2.72 2.49 0.83 0.74 1.21 1.40 1.06 0.58 0.46 0.53 0.27 0.16 0.10 0.05 0.04 0.04 0.03 0.00 0.00 0.00 0.03 0.41 0.88 0.93 0.75 0.43 0.57 0.82 0.45 0.57 1.13 1.09 0.36 0.29 0.04
0.70 0.61 0.51 0.55 0.91 1.23 1.27 1.32 1.19 0.84 0.79 0.64 0.36 0.79 1.00 0.82 0.81 0.51 0.65 0.47 0.13 0.08 0.08 0.03 0.02 0.01 0.01 0.00 0.00 0.06 0.43 0.90 0.88 0.49 0.28 0.42 0.57 0.56 0.49 0.94 0.52 0.52 0.16 0.07
0.68 0.55 0.43 0.46 0.54 1.00 0.89 0.86 1.10 0.42 0.15 0.19 0.24 0.62 0.80 0.64 0.60 0.56 0.39 0.27 0.09 0.08 0.05 0.01 0.00 0.00 0.01 0.01 0.02 0.11 0.33 0.71 0.75 0.61 0.24 0.38 0.48 0.55 0.36 0.56 0.27 0.26 0.17 0.13
0.54 0.55 0.46 0.89 1.00 1.48 1.06 0.70 0.79 0.51 0.26 0.16 0.38 0.36 0.49 0.63 0.59 0.32 0.12 0.14 0.18 0.12 0.02 0.01 0.01 0.00 0.00 0.01 0.06 0.16 0.28 0.51 0.73 0.64 0.48 0.28 0.47 0.58 0.68 0.48 0.20 0.25 0.28 0.15
0.64 0.67 0.60 0.79 0.81 1.02 0.92 0.56 0.48 0.59 0.24 0.10 0.10 0.21 0.31 0.44 0.52 0.44 0.17 0.16 0.14 0.06 0.01 0.03 0.03 0.02 0.01 0.03 0.03 0.03 0.06 0.23 0.46 0.31 0.15 0.16 0.11 0.14 0.44 0.28 0.23 0.26 0.14 0.07
0.42 0.28 0.22 0.32 0.46 0.63 0.51 0.38 0.39 0.53 0.26 0.08 0.10 0.14 0.29 0.44 0.54 0.53 0.29 0.15 0.09 0.10 0.14 0.15 0.23 0.20 0.12 0.06 0.03 0.03 0.05 0.16 0.25 0.16 0.07 0.03 0.00 0.00 0.07 0.13 0.22 0.14 0.07 0.02
0.48 0.40 0.50 0.53 0.60 0.58 0.47 0.39 0.41 0.46 0.29 0.10 0.06 0.07 0.19 0.42 0.62 0.62 0.36 0.19 0.20 0.21 0.30 0.28 0.23 0.37 0.11 0.05 0.11 0.03 0.05 0.18 0.27 0.10 0.12 0.02 0.00 0.00 0.01 0.02 0.19 0.02 0.05 0.04
0.60 0.47 0.38 0.28 0.29 0.45 0.49 0.41 0.64 0.54 0.31 0.07 0.06 0.08 0.12 0.34 0.69 0.78 0.52 0.38 0.37 0.29 0.34 0.24 0.10 0.15 0.02 0.01 0.03 0.05 0.11 0.19 0.28 0.15 0.18 0.01 0.00 0.00 0.01 0.09 0.14 0.01 0.06 0.06
0.34 0.30 0.24 0.29 0.32 0.45 0.51 0.36 0.49 0.44 0.32 0.06 0.03 0.03 0.06 0.14 0.44 0.82 0.67 0.58 0.52 0.47 0.37 0.31 0.07 0.04 0.02 0.00 0.00 0.00 0.03 0.05 0.09 0.14 0.10 0.00 0.00 0.00 0.00 0.01 0.01 0.02 0.10 0.03
0.30 0.37 0.30 0.24 0.19 0.30 0.40 0.32 0.20 0.31 0.29 0.11 0.05 0.02 0.03 0.05 0.17 0.51 0.73 0.54 0.39 0.29 0.19 0.15 0.09 0.02 0.01 0.00 0.00 0.00 0.00 0.00 0.00 0.00 0.00 0.00 0.00 0.00 0.00 0.00 0.00 0.00 0.02 0.10
0.23 0.31 0.31 0.24 0.22 0.33 0.41 0.25 0.19 0.29 0.27 0.11 0.05 0.04 0.02 0.02 0.08 0.25 0.66 0.66 0.44 0.30 0.14 0.19 0.14 0.11 0.01 0.01 0.00 0.00 0.00 0.00 0.00 0.00 0.00 0.00 0.00 0.00 0.00 0.00 0.00 0.00 0.00 0.01
0.25 0.33 0.35 0.25 0.22 0.28 0.38 0.16 0.24 0.27 0.25 0.15 0.10 0.04 0.03 0.01 0.07 0.20 0.41 0.81 0.71 0.56 0.35 0.27 0.24 0.13 0.05 0.01 0.00 0.00 0.01 0.00 0.00 0.00 0.00 0.00 0.00 0.00 0.00 0.00 0.00 0.00 0.00 0.00
0.24 0.29 0.36 0.27 0.27 0.31 0.28 0.13 0.29 0.30 0.37 0.38 0.16 0.05 0.02 0.03 0.15 0.25 0.38 0.56 0.77 0.62 0.67 0.34 0.18 0.13 0.05 0.02 0.00 0.00 0.00 0.00 0.00 0.00 0.00 0.00 0.00 0.00 0.00 0.00 0.01 0.00 0.00 0.00
0.25 0.30 0.36 0.34 0.32 0.43 0.40 0.34 0.32 0.35 0.39 0.47 0.27 0.14 0.07 0.07 0.20 0.35 0.43 0.46 0.58 0.64 0.65 0.41 0.19 0.07 0.11 0.09 0.01 0.00 0.00 0.00 0.00 0.00 0.00 0.00 0.00 0.00 0.00 0.00 0.00 0.00 0.00 0.00
0.33 0.37 0.41 0.40 0.49 0.48 0.39 0.19 0.37 0.33 0.35 0.44 0.38 0.21 0.11 0.15 0.18 0.33 0.46 0.53 0.50 0.55 0.67 0.36 0.17 0.13 0.22 0.14 0.01 0.00 0.00 0.00 0.00 0.00 0.00 0.00 0.00 0.00 0.00 0.00 0.00 0.03 0.01 0.00
0.36 0.33 0.40 0.54 0.57 0.53 0.34 0.11 0.26 0.43 0.63 0.49 0.45 0.24 0.19 0.27 0.34 0.40 0.47 0.78 0.66 0.54 0.46 0.27 0.14 0.15 0.24 0.16 0.00 0.00 0.00 0.00 0.00 0.00 0.00 0.00 0.00 0.00 0.02 0.01 0.00 0.00 0.01 0.02
0.35 0.39 0.55 0.69 0.34 0.18 0.24 0.44 0.55 0.39 0.81 0.92 0.33 0.34 0.35 0.39 0.60 0.48 0.84 0.66 0.85 0.53 0.37 0.18 0.23 0.19 0.15 0.02 0.00 0.00 0.00 0.00 0.00 0.00 0.00 0.00 0.00 0.01 0.03 0.03 0.01 0.00 0.00 0.01
0.73 0.81 0.81 0.58 0.24 0.45 0.79 0.89 0.86 0.84 0.68 0.52 0.32 0.24 0.47 0.46 0.57 0.56 0.87 0.76 0.59 0.50 0.30 0.30 0.29 0.10 0.03 0.01 0.00 0.00 0.00 0.00 0.00 0.01 0.01 0.00 0.00 0.00 0.02 0.03 0.05 0.00 0.00 0.00
1.15 0.95 0.60 0.38 0.53 1.10 0.89 1.12 0.76 0.56 0.31 0.14 0.09 0.13 0.37 0.53 0.74 0.73 0.57 0.78 0.49 0.32 0.25 0.39 0.28 0.16 0.06 0.01 0.00 0.00 0.00 0.00 0.00 0.00 0.01 0.02 0.01 0.00 0.00 0.00 0.03 0.01 0.00 0.00
0.87 0.73 0.96 0.79 0.90 1.06 0.62 0.56 0.38 0.24 0.05 0.07 0.13 0.22 0.35 0.50 0.58 0.59 0.71 0.53 0.62 0.38 0.36 0.42 0.13 0.04 0.00 0.00 0.00 0.00 0.00 0.00 0.00 0.00 0.00 0.01 0.01 0.02 0.02 0.01 0.01 0.01 0.00 0.00
0.93 1.25 1.40 0.74 0.74 0.62 0.31 0.17 0.19 0.09 0.10 0.15 0.24 0.41 0.35 0.38 0.49 0.32 0.31 0.40 0.36 0.39 0.48 0.31 0.11 0.06 0.02 0.00 0.00 0.00 0.00 0.00 0.00 0.00 0.00 0.03 0.03 0.00 0.00 0.02 0.05 0.04 0.02 0.02
1.99 1.83 1.31 0.39 0.41 0.14 0.17 0.05 0.08 0.09 0.03 0.11 0.28 0.30 0.22 0.26 0.35 0.30 0.21 0.16 0.16 0.23 0.29 0.15 0.11 0.23 0.16 0.09 0.06 0.06 0.09 0.12 0.04 0.03 0.04 0.13 0.07 0.02 0.01 0.01 0.03 0.05 0.02 0.01
1.65 1.06 0.56 0.17 0.11 0.09 0.06 0.04 0.02 0.02 0.03 0.08 0.12 0.14 0.10 0.10 0.15 0.12 0.15 0.15 0.07 0.05 0.10 0.04 0.04 0.31 0.16 0.18 0.26 0.31 0.54 0.62 0.39 0.23 0.22 0.22 0.15 0.12 0.10 0.06 0.05 0.03 0.03 0.02
1.60 0.84 0.36 0.09 0.02 0.01 0.01 0.02 0.03 0.03 0.05 0.16 0.21 0.11 0.07 0.03 0.03 0.08 0.04 0.06 0.14 0.11 0.02 0.00 0.00 0.02 0.02 0.03 0.09 0.16 0.30 0.41 0.44 0.28 0.22 0.28 0.33 0.32 0.28 0.18 0.19 0.17 0.13 0.09
1.55 0.43 0.06 0.04 0.03 0.03 0.01 0.02 0.02 0.01 0.04 0.16 0.42 0.36 0.08 0.06 0.08 0.02 0.01 0.06 0.12 0.05 0.00 0.00 0.00 0.00 0.00 0.00 0.00 0.00 0.00 0.01 0.07 0.06 0.05 0.06 0.11 0.23 0.24 0.17 0.22 0.27 0.25 0.12

GFSNW_prec_precacc_078.txt.gz
Total_Precipitation_Accumulation
0.73 0.70 0.79 0.66 0.87 1.28 1.14 1.21 1.70 1.56 2.17 3.32 2.66 1.73 1.41 1.47 0.93 0.62 0.50 0.21 0.09 0.06 0.06 0.12 0.13 0.09 0.03 0.01 0.01 0.12 0.36 0.75 0.90 0.72 0.27 0.22 0.34 0.32 0.30 0.78 0.44 0.40 0.36 0.10
0.71 0.83 0.72 0.64 1.00 1.54 1.41 1.30 1.53 2.20 1.62 1.66 1.19 1.11 1.18 1.22 0.69 0.53 0.54 0.21 0.10 0.03 0.04 0.13 0.07 0.04 0.00 0.00 0.01 0.09 0.43 0.90 0.85 0.65 0.55 0.59 0.79 0.42 0.35 0.59 0.97 0.67 0.42 0.14
0.65 0.69 0.62 0.55 1.15 1.56 1.55 1.48 1.95 2.72 2.49 0.83 0.74 1.21 1.40 1.06 0.58 0.46 0.53 0.27 0.16 0.10 0.05 0.04 0.04 0.03 0.00 0.00 0.00 0.03 0.41 0.88 0.93 0.75 0.43 0.57 0.82 0.45 0.57 1.13 1.09 0.36 0.29 0.04
0.70 0.61 0.51 0.55 0.91 1.23 1.27 1.32 1.19 0.84 0.79 0.64 0.36 0.79 1.01 0.82 0.81 0.51 0.65 0.47 0.13 0.08 0.08 0.03 0.02 0.01 0.01 0.00 0.00 0.06 0.43 0.90 0.88 0.49 0.28 0.42 0.57 0.56 0.49 0.94 0.52 0.52 0.16 0.07
0.68 0.55 0.43 0.46 0.54 1.00 0.89 0.86 1.10 0.42 0.15 0.19 0.24 0.62 0.80 0.64 0.60 0.56 0.39 0.27 0.09 0.08 0.05 0.01 0.00 0.00 0.01 0.01 0.02 0.11 0.33 0.71 0.75 0.61 0.24 0.38 0.48 0.55 0.36 0.56 0.27 0.26 0.17 0.13
0.54 0.55 0.46 0.89 1.00 1.48 1.06 0.70 0.79 0.51 0.26 0.16 0.38 0.36 0.49 0.63 0.59 0.32 0.12 0.14 0.18 0.12 0.02 0.01 0.01 0.00 0.00 0.01 0.06 0.16 0.28 0.51 0.73 0.64 0.48 0.28 0.47 0.58 0.68 0.48 0.20 0.25 0.28 0.15
0.64 0.67 0.60 0.79 0.81 1.02 0.92 0.56 0.48 0.59 0.24 0.10 0.10 0.21 0.31 0.44 0.52 0.44 0.17 0.16 0.14 0.06 0.01 0.03 0.03 0.02 0.01 0.03 0.03 0.03 0.06 0.23 0.46 0.31 0.15 0.16 0.11 0.14 0.44 0.28 0.23 0.26 0.14 0.07
0.42 0.28 0.22 0.32 0.46 0.63 0.51 0.38 0.39 0.53 0.26 0.08 0.10 0.14 0.29 0.44 0.54 0.53 0.29 0.16 0.09 0.10 0.14 0.15 0.23 0.20 0.12 0.06 0.03 0.03 0.05 0.16 0.25 0.16 0.07 0.03 0.00 0.00 0.07 0.13 0.22 0.14 0.07 0.02
0.48 0.40 0.50 0.53 0.60 0.58 0.47 0.39 0.41 0.46 0.29 0.10 0.06 0.07 0.19 0.42 0.62 0.62 0.37 0.19 0.20 0.21 0.30 0.29 0.23 0.37 0.11 0.05 0.11 0.03 0.05 0.18 0.27 0.10 0.12 0.02 0.00 0.00 0.01 0.02 0.19 0.02 0.05 0.04
0.60 0.47 0.38 0.28 0.29 0.45 0.49 0.41 0.64 0.54 0.31 0.07 0.06 0.08 0.12 0.34 0.69 0.78 0.53 0.38 0.38 0.30 0.34 0.25 0.11 0.15 0.03 0.01 0.03 0.05 0.11 0.19 0.28 0.15 0.18 0.01 0.00 0.00 0.01 0.09 0.14 0.01 0.06 0.06
0.34 0.31 0.24 0.29 0.32 0.45 0.51 0.36 0.49 0.44 0.32 0.06 0.03 0.03 0.06 0.14 0.44 0.82 0.67 0.59 0.53 0.48 0.37 0.31 0.07 0.04 0.03 0.00 0.00 0.00 0.03 0.05 0.09 0.14 0.10 0.00 0.00 0.00 0.00 0.01 0.01 0.02 0.10 0.03
0.31 0.39 0.32 0.25 0.19 0.30 0.41 0.32 0.20 0.31 0.30 0.11 0.05 0.02 0.03 0.05 0.17 0.51 0.73 0.55 0.41 0.33 0.21 0.16 0.09 0.02 0.01 0.00 0.00 0.00 0.00 0.00 0.00 0.00 0.00 0.00 0.00 0.00 0.00 0.00 0.00 0.00 0.02 0.10
0.25 0.33 0.34 0.28 0.27 0.36 0.42 0.25 0.19 0.29 0.28 0.12 0.05 0.04 0.02 0.02 0.08 0.25 0.66 0.66 0.44 0.32 0.17 0.21 0.15 0.12 0.01 0.01 0.00 0.00 0.00 0.00 0.00 0.00 0.00 0.00 0.00 0.00 0.00 0.00 0.00 0.00 0.00 0.01
0.25 0.34 0.37 0.31 0.30 0.32 0.39 0.18 0.24 0.27 0.28 0.18 0.10 0.04 0.03 0.01 0.07 0.20 0.41 0.81 0.71 0.56 0.37 0.31 0.25 0.13 0.05 0.01 0.00 0.00 0.01 0.00 0.00 0.00 0.00 0.00 0.00 0.00 0.00 0.00 0.00 0.00 0.00 0.00
0.24 0.29 0.36 0.31 0.31 0.34 0.30 0.14 0.29 0.30 0.39 0.40 0.16 0.05 0.02 0.03 0.15 0.25 0.38 0.56 0.77 0.62 0.68 0.36 0.19 0.13 0.05 0.02 0.00 0.00 0.00 0.00 0.00 0.00 0.00 0.00 0.00 0.00 0.00 0.00 0.01 0.00 0.00 0.00
0.25 0.31 0.37 0.35 0.36 0.50 0.45 0.35 0.32 0.35 0.40 0.49 0.28 0.14 0.07 0.07 0.20 0.35 0.43 0.46 0.58 0.64 0.67 0.43 0.20 0.07 0.11 0.09 0.01 0.00 0.00 0.00 0.00 0.00 0.00 0.00 0.00 0.00 0.00 0.00 0.00 0.00 0.00 0.00
0.33 0.37 0.41 0.40 0.51 0.50 0.40 0.19 0.37 0.33 0.35 0.44 0.39 0.21 0.11 0.15 0.18 0.33 0.46 0.54 0.51 0.55 0.67 0.37 0.19 0.14 0.24 0.15 0.01 0.00 0.00 0.00 0.00 0.00 0.00 0.00 0.00 0.00 0.00 0.00 0.00 0.03 0.01 0.00
0.36 0.33 0.40 0.54 0.58 0.53 0.34 0.12 0.26 0.43 0.63 0.50 0.45 0.24 0.19 0.29 0.39 0.40 0.47 0.80 0.68 0.58 0.48 0.29 0.15 0.16 0.25 0.17 0.00 0.00 0.00 0.00 0.00 0.00 0.00 0.00 0.00 0.00 0.02 0.01 0.00 0.00 0.01 0.02
0.35 0.40 0.55 0.69 0.34 0.19 0.24 0.44 0.55 0.40 0.82 0.93 0.33 0.34 0.35 0.39 0.63 0.53 0.89 0.70 0.92 0.54 0.38 0.19 0.25 0.21 0.16 0.02 0.00 0.00 0.00 0.00 0.00 0.00 0.00 0.00 0.00 0.01 0.03 0.03 0.01 0.00 0.00 0.01
0.74 0.82 0.81 0.58 0.24 0.45 0.79 0.89 0.87 0.86 0.69 0.53 0.32 0.24 0.47 0.47 0.58 0.60 0.95 0.79 0.64 0.53 0.30 0.31 0.32 0.12 0.03 0.01 0.00 0.00 0.00 0.00 0.00 0.01 0.01 0.00 0.00 0.00 0.02 0.03 0.05 0.00 0.00 0.00
1.15 0.96 0.61 0.38 0.53 1.11 0.89 1.13 0.77 0.56 0.32 0.14 0.09 0.15 0.40 0.57 0.77 0.76 0.61 0.87 0.51 0.33 0.25 0.40 0.29 0.16 0.06 0.01 0.00 0.00 0.00 0.00 0.00 0.00 0.01 0.02 0.01 0.00 0.00 0.00 0.03 0.01 0.00 0.00
0.87 0.73 0.96 0.79 0.90 1.06 0.62 0.57 0.39 0.24 0.05 0.08 0.15 0.25 0.42 0.58 0.65 0.62 0.77 0.62 0.71 0.42 0.38 0.44 0.13 0.04 0.00 0.00 0.00 0.00 0.00 0.00 0.00 0.00 0.00 0.01 0.01 0.02 0.02 0.01 0.01 0.01 0.00 0.00
0.93 1.25 1.41 0.75 0.74 0.62 0.31 0.17 0.20 0.10 0.13 0.19 0.25 0.42 0.39 0.48 0.62 0.41 0.36 0.46 0.39 0.45 0.55 0.34 0.11 0.07 0.04 0.00 0.00 0.00 0.00 0.00 0.00 0.00 0.00 0.03 0.03 0.00 0.00 0.02 0.05 0.04 0.02 0.02
1.99 1.83 1.31 0.39 0.41 0.14 0.17 0.05 0.08 0.10 0.03 0.11 0.28 0.30 0.22 0.29 0.42 0.40 0.27 0.21 0.18 0.25 0.31 0.16 0.12 0.25 0.19 0.10 0.08 0.07 0.11 0.13 0.05 0.03 0.04 0.13 0.07 0.02 0.02 0.01 0.03 0.05 0.02 0.01
1.65 1.06 0.56 0.17 0.11 0.09 0.06 0.04 0.02 0.02 0.03 0.09 0.12 0.14 0.10 0.10 0.16 0.14 0.17 0.19 0.10 0.07 0.16 0.06 0.07 0.43 0.31 0.20 0.30 0.37 0.61 0.68 0.44 0.26 0.22 0.22 0.15 0.12 0.10 0.06 0.05 0.03 0.03 0.02
1.60 0.84 0.36 0.09 0.02 0.01 0.01 0.02 0.03 0.04 0.05 0.16 0.22 0.12 0.08 0.04 0.04 0.08 0.05 0.08 0.23 0.23 0.08 0.01 0.01 0.06 0.05 0.05 0.12 0.21 0.39 0.52 0.51 0.30 0.22 0.28 0.33 0.32 0.28 0.18 0.19 0.17 0.13 0.09
1.55 0.43 0.06 0.04 0.03 0.03 0.01 0.02 0.02 0.01 0.04 0.16 0.43 0.37 0.09 0.06 0.09 0.03 0.02 0.08 0.16 0.14 0.04 0.00 0.00 0.00 0.00 0.00 0.00 0.01 0.02 0.03 0.08 0.06 0.05 0.06 0.11 0.23 0.24 0.17 0.22 0.27 0.25 0.12

GFSNW_prec_precacc_081.txt.gz
Total_Precipitation_Accumulation
0.73 0.70 0.79 0.66 0.87 1.28 1.14 1.21 1.70 1.56 2.17 3.32 2.66 1.73 1.41 1.47 0.93 0.62 0.50 0.21 0.09 0.06 0.06 0.12 0.14 0.10 0.04 0.01 0.01 0.12 0.36 0.75 0.90 0.73 0.27 0.22 0.34 0.32 0.30 0.78 0.44 0.40 0.36 0.10
0.71 0.83 0.72 0.64 1.00 1.54 1.41 1.30 1.53 2.20 1.62 1.66 1.19 1.11 1.18 1.22 0.69 0.53 0.54 0.21 0.10 0.03 0.04 0.13 0.07 0.04 0.00 0.00 0.01 0.09 0.43 0.90 0.86 0.66 0.56 0.59 0.79 0.42 0.35 0.59 0.97 0.67 0.42 0.14
0.65 0.69 0.62 0.55 1.15 1.56 1.55 1.48 1.95 2.72 2.49 0.83 0.74 1.21 1.40 1.06 0.58 0.46 0.53 0.27 0.16 0.10 0.05 0.04 0.04 0.03 0.01 0.00 0.00 0.03 0.41 0.88 0.93 0.75 0.44 0.58 0.82 0.45 0.57 1.13 1.09 0.36 0.29 0.04
0.70 0.61 0.51 0.55 0.91 1.23 1.27 1.32 1.19 0.84 0.79 0.64 0.36 0.79 1.01 0.82 0.81 0.51 0.65 0.47 0.13 0.08 0.08 0.03 0.02 0.01 0.01 0.00 0.00 0.06 0.43 0.90 0.88 0.49 0.28 0.42 0.57 0.56 0.49 0.94 0.52 0.52 0.16 0.07
0.68 0.55 0.43 0.46 0.54 1.00 0.89 0.86 1.10 0.42 0.15 0.19 0.24 0.62 0.80 0.64 0.60 0.56 0.39 0.27 0.09 0.08 0.05 0.01 0.00 0.00 0.01 0.01 0.02 0.11 0.33 0.71 0.75 0.61 0.24 0.38 0.48 0.55 0.36 0.56 0.27 0.26 0.17 0.13
0.54 0.55 0.46 0.89 1.00 1.48 1.06 0.70 0.79 0.51 0.26 0.16 0.38 0.36 0.49 0.63 0.60 0.34 0.14 0.15 0.18 0.12 0.02 0.01 0.01 0.00 0.00 0.01 0.06 0.16 0.28 0.51 0.73 0.64 0.48 0.28 0.47 0.58 0.68 0.48 0.20 0.25 0.28 0.15
0.64 0.67 0.60 0.79 0.81 1.02 0.92 0.56 0.48 0.59 0.24 0.10 0.10 0.21 0.31 0.44 0.52 0.47 0.19 0.18 0.15 0.06 0.01 0.03 0.03 0.02 0.01 0.03 0.03 0.03 0.06 0.23 0.46 0.31 0.15 0.16 0.11 0.14 0.44 0.28 0.23 0.26 0.14 0.07
0.42 0.28 0.22 0.32 0.46 0.63 0.51 0.38 0.39 0.53 0.26 0.08 0.10 0.14 0.29 0.44 0.54 0.54 0.30 0.18 0.11 0.10 0.15 0.16 0.23 0.20 0.12 0.06 0.03 0.03 0.05 0.16 0.25 0.16 0.07 0.03 0.00 0.00 0.07 0.13 0.22 0.14 0.07 0.02
0.48 0.40 0.50 0.53 0.60 0.58 0.47 0.39 0.41 0.46 0.29 0.10 0.06 0.07 0.19 0.43 0.62 0.63 0.44 0.30 0.23 0.21 0.31 0.31 0.24 0.37 0.11 0.05 0.11 0.03 0.05 0.18 0.27 0.10 0.12 0.02 0.00 0.00 0.01 0.02 0.19 0.02 0.05 0.04
0.61 0.47 0.39 0.28 0.29 0.45 0.49 0.41 0.64 0.54 0.31 0.07 0.06 0.08 0.12 0.34 0.69 0.78 0.56 0.45 0.41 0.32 0.35 0.28 0.14 0.15 0.03 0.01 0.03 0.05 0.11 0.19 0.28 0.15 0.18 0.01 0.00 0.00 0.01 0.09 0.14 0.01 0.06 0.06
0.35 0.32 0.26 0.31 0.32 0.45 0.51 0.36 0.49 0.44 0.32 0.06 0.03 0.03 0.06 0.14 0.44 0.83 0.68 0.61 0.64 0.51 0.39 0.32 0.08 0.04 0.03 0.00 0.00 0.00 0.03 0.05 0.09 0.14 0.10 0.00 0.00 0.00 0.00 0.01 0.01 0.02 0.10 0.03
0.32 0.40 0.34 0.29 0.21 0.31 0.41 0.33 0.20 0.31 0.30 0.11 0.05 0.02 0.03 0.05 0.17 0.51 0.73 0.58 0.46 0.39 0.26 0.17 0.10 0.03 0.01 0.00 0.00 0.00 0.00 0.00 0.00 0.00 0.00 0.00 0.00 0.00 0.00 0.00 0.00 0.00 0.02 0.10
0.25 0.33 0.34 0.29 0.31 0.41 0.45 0.26 0.19 0.29 0.28 0.12 0.05 0.04 0.02 0.02 0.08 0.25 0.66 0.66 0.45 0.40 0.42 0.30 0.19 0.13 0.02 0.01 0.00 0.00 0.00 0.00 0.00 0.00 0.00 0.00 0.00 0.00 0.00 0.00 0.00 0.00 0.00 0.01
0.25 0.34 0.37 0.31 0.31 0.33 0.40 0.18 0.24 0.27 0.28 0.19 0.10 0.04 0.03 0.01 0.07 0.20 0.41 0.81 0.71 0.56 0.39 0.40 0.33 0.16 0.05 0.01 0.00 0.00 0.01 0.00 0.00 0.00 0.00 0.00 0.00 0.00 0.00 0.00 0.00 0.00 0.00 0.00
0.24 0.29 0.36 0.31 0.31 0.36 0.30 0.14 0.29 0.30 0.39 0.41 0.16 0.05 0.02 0.03 0.15 0.25 0.38 0.56 0.77 0.62 0.68 0.37 0.23 0.14 0.05 0.02 0.00 0.00 0.00 0.00 0.00 0.00 0.00 0.00 0.00 0.00 0.00 0.00 0.01 0.00 0.00 0.00
0.25 0.31 0.37 0.36 0.37 0.50 0.45 0.35 0.32 0.35 0.40 0.52 0.28 0.14 0.07 0.07 0.20 0.35 0.43 0.46 0.58 0.64 0.67 0.43 0.20 0.07 0.12 0.09 0.01 0.00 0.00 0.00 0.00 0.00 0.00 0.00 0.00 0.00 0.00 0.00 0.00 0.00 0.00 0.00
0.33 0.37 0.42 0.41 0.51 0.50 0.40 0.19 0.37 0.33 0.35 0.45 0.39 0.21 0.11 0.15 0.18 0.33 0.46 0.54 0.51 0.55 0.67 0.37 0.19 0.14 0.25 0.16 0.02 0.00 0.00 0.00 0.00 0.00 0.00 0.00 0.00 0.00 0.00 0.00 0.00 0.03 0.01 0.00
0.36 0.33 0.41 0.55 0.58 0.53 0.34 0.12 0.27 0.44 0.64 0.50 0.45 0.24 0.19 0.29 0.39 0.41 0.47 0.81 0.68 0.59 0.48 0.29 0.15 0.16 0.25 0.18 0.00 0.00 0.00 0.00 0.00 0.00 0.00 0.00 0.00 0.00 0.02 0.01 0.00 0.00 0.01 0.02
0.35 0.40 0.55 0.69 0.34 0.19 0.24 0.44 0.56 0.40 0.82 0.94 0.33 0.34 0.35 0.39 0.63 0.55 0.92 0.72 0.95 0.55 0.40 0.19 0.26 0.22 0.16 0.02 0.00 0.00 0.00 0.00 0.00 0.00 0.00 0.00 0.00 0.01 0.03 0.03 0.01 0.00 0.00 0.01
0.74 0.82 0.81 0.58 0.24 0.45 0.80 0.89 0.88 0.86 0.70 0.53 0.32 0.24 0.48 0.47 0.58 0.60 0.99 0.80 0.67 0.57 0.31 0.32 0.33 0.12 0.03 0.01 0.00 0.00 0.00 0.00 0.00 0.01 0.01 0.00 0.00 0.00 0.02 0.03 0.05 0.00 0.00 0.00
1.15 0.96 0.61 0.38 0.54 1.11 0.89 1.13 0.77 0.56 0.32 0.14 0.09 0.15 0.41 0.58 0.79 0.77 0.63 0.92 0.54 0.35 0.26 0.41 0.31 0.17 0.06 0.01 0.00 0.00 0.00 0.00 0.00 0.00 0.01 0.02 0.01 0.00 0.00 0.00 0.03 0.01 0.00 0.00
0.87 0.73 0.96 0.79 0.90 1.06 0.62 0.57 0.39 0.24 0.05 0.08 0.15 0.25 0.44 0.61 0.68 0.64 0.80 0.68 0.77 0.45 0.41 0.46 0.14 0.04 0.00 0.00 0.00 0.00 0.00 0.00 0.00 0.00 0.00 0.01 0.01 0.02 0.02 0.01 0.01 0.01 0.00 0.00
0.93 1.25 1.41 0.75 0.74 0.63 0.31 0.17 0.20 0.10 0.14 0.20 0.26 0.42 0.40 0.51 0.69 0.46 0.42 0.52 0.41 0.49 0.64 0.37 0.13 0.08 0.06 0.01 0.00 0.00 0.00 0.00 0.00 0.00 0.00 0.03 0.03 0.00 0.00 0.02 0.05 0.04 0.02 0.02
1.99 1.83 1.31 0.39 0.41 0.14 0.17 0.05 0.08 0.10 0.03 0.11 0.28 0.30 0.22 0.29 0.44 0.45 0.31 0.24 0.21 0.28 0.31 0.17 0.14 0.26 0.20 0.11 0.09 0.09 0.13 0.14 0.05 0.03 0.04 0.13 0.07 0.02 0.02 0.01 0.03 0.05 0.02 0.01
1.65 1.06 0.56 0.17 0.11 0.09 0.06 0.04 0.02 0.02 0.03 0.09 0.13 0.15 0.11 0.11 0.17 0.15 0.19 0.22 0.13 0.12 0.24 0.10 0.11 0.49 0.37 0.21 0.31 0.39 0.63 0.71 0.47 0.28 0.23 0.22 0.15 0.12 0.10 0.06 0.05 0.03 0.03 0.02
1.60 0.84 0.36 0.09 0.02 0.01 0.01 0.02 0.03 0.04 0.05 0.16 0.22 0.13 0.09 0.05 0.05 0.09 0.06 0.12 0.28 0.29 0.16 0.05 0.04 0.14 0.15 0.07 0.14 0.24 0.43 0.57 0.58 0.34 0.23 0.28 0.33 0.32 0.28 0.18 0.19 0.17 0.13 0.09
1.55 0.43 0.06 0.04 0.03 0.03 0.01 0.02 0.02 0.01 0.04 0.16 0.43 0.37 0.09 0.07 0.10 0.03 0.02 0.09 0.17 0.19 0.13 0.06 0.02 0.00 0.00 0.01 0.01 0.02 0.04 0.05 0.09 0.06 0.05 0.06 0.11 0.23 0.24 0.17 0.22 0.27 0.25 0.12

GFSNW_prec_precacc_084.txt.gz
Total_Precipitation_Accumulation
0.73 0.70 0.79 0.66 0.87 1.28 1.14 1.21 1.70 1.56 2.17 3.32 2.66 1.73 1.41 1.47 0.93 0.62 0.50 0.21 0.09 0.06 0.06 0.12 0.16 0.14 0.05 0.04 0.03 0.12 0.36 0.75 0.91 0.74 0.28 0.23 0.34 0.32 0.30 0.78 0.44 0.40 0.36 0.10
0.71 0.83 0.72 0.64 1.00 1.54 1.41 1.30 1.53 2.20 1.62 1.66 1.19 1.11 1.18 1.22 0.69 0.53 0.55 0.22 0.10 0.03 0.04 0.13 0.07 0.04 0.00 0.00 0.01 0.09 0.43 0.90 0.86 0.67 0.56 0.59 0.79 0.42 0.35 0.59 0.97 0.67 0.42 0.14
0.65 0.69 0.62 0.55 1.15 1.56 1.55 1.48 1.95 2.72 2.49 0.83 0.74 1.21 1.40 1.06 0.58 0.46 0.53 0.28 0.16 0.10 0.05 0.04 0.04 0.06 0.03 0.00 0.00 0.03 0.41 0.88 0.93 0.75 0.44 0.58 0.82 0.45 0.57 1.13 1.09 0.36 0.29 0.04
0.70 0.61 0.51 0.55 0.91 1.23 1.27 1.32 1.19 0.84 0.79 0.64 0.36 0.79 1.01 0.82 0.81 0.52 0.66 0.49 0.15 0.08 0.08 0.03 0.02 0.01 0.02 0.01 0.00 0.06 0.43 0.90 0.88 0.49 0.28 0.42 0.57 0.56 0.49 0.94 0.52 0.52 0.16 0.07
0.68 0.55 0.43 0.46 0.54 1.00 0.89 0.86 1.10 0.42 0.15 0.19 0.24 0.62 0.80 0.64 0.61 0.57 0.41 0.31 0.15 0.09 0.06 0.01 0.00 0.00 0.01 0.01 0.02 0.11 0.33 0.71 0.75 0.61 0.24 0.38 0.48 0.55 0.36 0.56 0.27 0.26 0.17 0.13
0.54 0.55 0.46 0.89 1.00 1.48 1.06 0.70 0.79 0.51 0.26 0.16 0.38 0.36 0.49 0.63 0.60 0.34 0.16 0.22 0.31 0.14 0.02 0.01 0.01 0.00 0.00 0.01 0.06 0.16 0.28 0.51 0.73 0.64 0.48 0.28 0.47 0.58 0.68 0.48 0.20 0.25 0.28 0.15
0.64 0.67 0.60 0.79 0.81 1.02 0.92 0.56 0.48 0.59 0.24 0.10 0.10 0.21 0.31 0.44 0.52 0.47 0.19 0.24 0.29 0.11 0.03 0.03 0.03 0.02 0.01 0.03 0.03 0.03 0.06 0.23 0.46 0.31 0.15 0.16 0.11 0.14 0.44 0.28 0.23 0.26 0.14 0.07
0.42 0.28 0.22 0.32 0.46 0.63 0.51 0.38 0.39 0.53 0.26 0.08 0.10 0.14 0.29 0.44 0.54 0.54 0.30 0.20 0.19 0.15 0.19 0.16 0.23 0.20 0.12 0.06 0.03 0.03 0.05 0.16 0.25 0.16 0.07 0.03 0.00 0.00 0.07 0.13 0.22 0.14 0.07 0.02
0.48 0.40 0.50 0.53 0.60 0.58 0.47 0.39 0.41 0.46 0.29 0.10 0.06 0.07 0.19 0.43 0.62 0.63 0.44 0.33 0.40 0.29 0.32 0.35 0.24 0.37 0.12 0.05 0.11 0.03 0.05 0.18 0.27 0.10 0.12 0.02 0.00 0.00 0.01 0.02 0.19 0.02 0.05 0.04
0.61 0.48 0.39 0.28 0.29 0.45 0.49 0.41 0.64 0.54 0.31 0.07 0.06 0.08 0.12 0.34 0.69 0.78 0.56 0.51 0.60 0.37 0.35 0.33 0.19 0.16 0.03 0.01 0.03 0.05 0.11 0.19 0.28 0.15 0.18 0.01 0.00 0.00 0.01 0.09 0.14 0.01 0.06 0.06
0.36 0.33 0.28 0.32 0.33 0.47 0.52 0.36 0.49 0.44 0.32 0.06 0.03 0.03 0.06 0.14 0.44 0.83 0.68 0.63 0.77 0.71 0.41 0.34 0.12 0.07 0.03 0.00 0.00 0.00 0.03 0.05 0.09 0.14 0.10 0.00 0.00 0.00 0.00 0.01 0.01 0.02 0.10 0.03
0.32 0.40 0.34 0.29 0.22 0.32 0.42 0.33 0.20 0.31 0.30 0.11 0.05 0.02 0.03 0.05 0.17 0.51 0.73 0.58 0.50 0.45 0.33 0.25 0.11 0.05 0.04 0.01 0.00 0.00 0.00 0.00 0.00 0.00 0.00 0.00 0.00 0.00 0.00 0.00 0.00 0.00 0.02 0.10
0.25 0.33 0.34 0.29 0.31 0.42 0.45 0.26 0.19 0.29 0.28 0.12 0.05 0.04 0.02 0.02 0.08 0.25 0.66 0.66 0.45 0.41 0.44 0.39 0.24 0.13 0.02 0.03 0.01 0.00 0.00 0.00 0.00 0.00 0.00 0.00 0.00 0.00 0.00 0.00 0.00 0.00 0.00 0.01
0.25 0.34 0.37 0.31 0.31 0.34 0.41 0.18 0.24 0.27 0.28 0.19 0.10 0.04 0.03 0.01 0.07 0.20 0.41 0.81 0.71 0.56 0.39 0.41 0.40 0.25 0.08 0.01 0.00 0.00 0.01 0.00 0.00 0.00 0.00 0.00 0.00 0.00 0.00 0.00 0.00 0.00 0.00 0.00
0.24 0.29 0.36 0.31 0.32 0.37 0.31 0.14 0.29 0.30 0.39 0.41 0.16 0.05 0.02 0.03 0.15 0.25 0.38 0.56 0.77 0.62 0.68 0.37 0.25 0.19 0.06 0.02 0.00 0.00 0.00 0.00 0.00 0.00 0.00 0.00 0.00 0.00 0.00 0.00 0.01 0.00 0.00 0.00
0.25 0.31 0.37 0.36 0.37 0.51 0.45 0.35 0.32 0.35 0.40 0.52 0.28 0.14 0.07 0.07 0.20 0.35 0.43 0.46 0.58 0.64 0.67 0.43 0.21 0.07 0.13 0.10 0.01 0.00 0.00 0.00 0.00 0.00 0.00 0.00 0.00 0.00 0.00 0.00 0.00 0.00 0.00 0.00
0.33 0.37 0.42 0.42 0.52 0.50 0.40 0.19 0.37 0.33 0.35 0.45 0.39 0.21 0.11 0.15 0.19 0.33 0.46 0.54 0.51 0.55 0.67 0.37 0.19 0.14 0.26 0.17 0.02 0.00 0.00 0.00 0.00 0.00 0.00 0.00 0.00 0.00 0.00 0.00 0.00 0.03 0.01 0.00
0.36 0.33 0.41 0.55 0.58 0.53 0.34 0.12 0.27 0.44 0.64 0.50 0.45 0.24 0.19 0.29 0.39 0.41 0.47 0.81 0.68 0.59 0.48 0.29 0.15 0.16 0.26 0.18 0.00 0.00 0.00 0.00 0.00 0.00 0.00 0.00 0.00 0.00 0.02 0.01 0.00 0.00 0.01 0.02
0.35 0.40 0.55 0.69 0.34 0.19 0.24 0.45 0.57 0.41 0.82 0.94 0.33 0.34 0.35 0.39 0.63 0.55 0.93 0.73 0.97 0.55 0.41 0.19 0.27 0.22 0.16 0.02 0.00 0.00 0.00 0.00 0.00 0.00 0.00 0.00 0.00 0.01 0.03 0.03 0.01 0.00 0.00 0.01
0.74 0.82 0.81 0.58 0.24 0.46 0.80 0.89 0.88 0.87 0.71 0.53 0.33 0.24 0.48 0.48 0.58 0.61 1.01 0.81 0.68 0.60 0.31 0.33 0.34 0.12 0.03 0.01 0.00 0.00 0.00 0.00 0.00 0.01 0.01 0.00 0.00 0.00 0.02 0.03 0.05 0.00 0.00 0.00
1.15 0.96 0.61 0.38 0.54 1.11 0.89 1.13 0.78 0.56 0.32 0.15 0.09 0.15 0.41 0.58 0.80 0.77 0.64 0.94 0.55 0.36 0.26 0.42 0.32 0.17 0.06 0.01 0.00 0.00 0.00 0.00 0.00 0.00 0.01 0.02 0.01 0.00 0.00 0.00 0.03 0.01 0.00 0.00
0.87 0.73 0.96 0.79 0.90 1.06 0.62 0.57 0.40 0.24 0.05 0.08 0.16 0.26 0.44 0.62 0.70 0.65 0.80 0.70 0.80 0.46 0.45 0.48 0.14 0.04 0.00 0.00 0.00 0.00 0.00 0.00 0.00 0.00 0.00 0.01 0.01 0.02 0.02 0.01 0.01 0.01 0.00 0.00
0.93 1.25 1.41 0.75 0.74 0.63 0.31 0.17 0.20 0.10 0.14 0.20 0.26 0.42 0.40 0.51 0.71 0.47 0.44 0.55 0.42 0.53 0.71 0.39 0.16 0.12 0.07 0.02 0.01 0.01 0.00 0.00 0.00 0.00 0.00 0.03 0.03 0.00 0.00 0.02 0.05 0.04 0.02 0.02
1.99 1.83 1.31 0.39 0.41 0.14 0.17 0.05 0.08 0.10 0.03 0.11 0.28 0.30 0.22 0.30 0.46 0.47 0.33 0.24 0.22 0.30 0.33 0.20 0.18 0.29 0.22 0.14 0.10 0.11 0.14 0.15 0.06 0.03 0.04 0.13 0.07 0.02 0.02 0.01 0.03 0.05 0.02 0.01
1.65 1.06 0.56 0.17 0.11 0.09 0.06 0.04 0.02 0.02 0.03 0.09 0.13 0.15 0.11 0.11 0.17 0.16 0.20 0.23 0.15 0.16 0.27 0.14 0.15 0.55 0.43 0.26 0.32 0.41 0.66 0.74 0.51 0.32 0.26 0.24 0.15 0.12 0.10 0.06 0.05 0.03 0.03 0.02
1.60 0.84 0.36 0.09 0.02 0.01 0.01 0.02 0.03 0.04 0.05 0.16 0.23 0.13 0.09 0.05 0.06 0.10 0.06 0.13 0.29 0.31 0.19 0.09 0.09 0.23 0.28 0.14 0.18 0.29 0.49 0.64 0.65 0.40 0.25 0.28 0.33 0.32 0.28 0.18 0.19 0.17 0.13 0.09
1.55 0.43 0.06 0.04 0.03 0.03 0.01 0.02 0.02 0.01 0.04 0.16 0.43 0.37 0.09 0.07 0.10 0.03 0.02 0.10 0.18 0.21 0.16 0.10 0.05 0.03 0.03 0.05 0.04 0.05 0.07 0.08 0.10 0.07 0.05 0.06 0.11 0.23 0.24 0.17 0.22 0.27 0.25 0.12

GFSNW_prec_precacc_087.txt.gz
Total_Precipitation_Accumulation
0.73 0.70 0.79 0.66 0.87 1.28 1.14 1.21 1.70 1.56 2.17 3.32 2.66 1.73 1.41 1.47 0.93 0.63 0.51 0.22 0.09 0.06 0.06 0.13 0.23 0.27 0.10 0.05 0.03 0.12 0.36 0.75 0.94 0.75 0.28 0.25 0.34 0.32 0.30 0.78 0.44 0.40 0.36 0.10
0.71 0.83 0.72 0.64 1.00 1.54 1.41 1.30 1.53 2.20 1.62 1.66 1.19 1.11 1.18 1.22 0.70 0.54 0.57 0.24 0.12 0.04 0.04 0.14 0.08 0.11 0.01 0.01 0.01 0.09 0.43 0.90 0.87 0.69 0.57 0.61 0.82 0.42 0.35 0.59 0.97 0.67 0.42 0.14
0.65 0.69 0.62 0.55 1.15 1.56 1.55 1.48 1.95 2.72 2.49 0.83 0.74 1.21 1.40 1.07 0.59 0.47 0.58 0.31 0.19 0.11 0.05 0.04 0.04 0.28 0.04 0.01 0.04 0.04 0.41 0.88 0.93 0.76 0.44 0.58 0.82 0.45 0.57 1.13 1.09 0.36 0.29 0.04
0.70 0.61 0.51 0.55 0.91 1.23 1.27 1.32 1.19 0.84 0.79 0.64 0.36 0.79 1.01 0.83 0.82 0.53 0.68 0.53 0.26 0.29 0.10 0.03 0.02 0.16 0.22 0.06 0.02 0.07 0.44 0.90 0.88 0.49 0.28 0.42 0.57 0.56 0.49 0.94 0.52 0.52 0.16 0.07
0.68 0.55 0.43 0.46 0.54 1.00 0.89 0.86 1.10 0.42 0.15 0.19 0.24 0.62 0.80 0.64 0.61 0.57 0.41 0.37 0.21 0.24 0.14 0.05 0.02 0.02 0.09 0.08 0.03 0.12 0.33 0.71 0.75 0.61 0.24 0.38 0.48 0.55 0.36 0.56 0.27 0.26 0.17 0.13
0.54 0.55 0.46 0.89 1.00 1.48 1.06 0.70 0.79 0.51 0.26 0.16 0.38 0.36 0.49 0.63 0.60 0.34 0.16 0.23 0.35 0.23 0.07 0.04 0.01 0.00 0.00 0.01 0.08 0.16 0.28 0.51 0.73 0.64 0.48 0.28 0.47 0.58 0.68 0.48 0.20 0.25 0.28 0.15
0.64 0.67 0.60 0.79 0.81 1.02 0.92 0.56 0.48 0.59 0.24 0.10 0.10 0.21 0.31 0.44 0.52 0.47 0.19 0.24 0.30 0.15 0.15 0.06 0.03 0.02 0.01 0.03 0.03 0.03 0.06 0.23 0.46 0.31 0.15 0.16 0.11 0.14 0.44 0.28 0.23 0.26 0.14 0.07
0.42 0.28 0.22 0.32 0.46 0.63 0.51 0.38 0.39 0.53 0.26 0.08 0.10 0.14 0.29 0.44 0.54 0.54 0.30 0.20 0.20 0.16 0.28 0.19 0.23 0.20 0.12 0.06 0.03 0.03 0.05 0.16 0.25 0.16 0.07 0.03 0.00 0.00 0.07 0.13 0.22 0.14 0.07 0.02
0.48 0.40 0.50 0.53 0.60 0.58 0.47 0.39 0.41 0.46 0.29 0.10 0.06 0.07 0.19 0.43 0.62 0.63 0.44 0.33 0.41 0.38 0.39 0.38 0.24 0.37 0.12 0.05 0.11 0.03 0.05 0.18 0.27 0.10 0.12 0.02 0.00 0.00 0.01 0.02 0.19 0.02 0.05 0.04
0.61 0.48 0.39 0.28 0.29 0.45 0.49 0.41 0.64 0.54 0.31 0.07 0.06 0.08 0.12 0.34 0.69 0.78 0.56 0.51 0.73 0.49 0.38 0.36 0.25 0.16 0.03 0.01 0.03 0.05 0.11 0.19 0.28 0.15 0.18 0.01 0.00 0.00 0.01 0.09 0.14 0.01 0.06 0.06
0.36 0.33 0.28 0.33 0.34 0.47 0.52 0.36 0.49 0.44 0.32 0.06 0.03 0.03 0.06 0.14 0.44 0.83 0.68 0.64 0.79 0.73 0.43 0.36 0.16 0.09 0.03 0.00 0.00 0.00 0.03 0.05 0.09 0.14 0.10 0.00 0.00 0.00 0.00 0.01 0.01 0.02 0.10 0.03
0.32 0.40 0.34 0.29 0.23 0.32 0.42 0.33 0.20 0.31 0.30 0.11 0.05 0.02 0.03 0.05 0.17 0.51 0.73 0.58 0.50 0.46 0.35 0.29 0.12 0.08 0.13 0.01 0.00 0.00 0.00 0.00 0.00 0.00 0.00 0.00 0.00 0.00 0.00 0.00 0.00 0.00 0.02 0.10
0.25 0.33 0.34 0.29 0.31 0.42 0.45 0.26 0.19 0.29 0.28 0.12 0.05 0.04 0.02 0.02 0.08 0.25 0.66 0.66 0.45 0.41 0.44 0.39 0.26 0.14 0.02 0.04 0.04 0.00 0.00 0.00 0.00 0.00 0.00 0.00 0.00 0.00 0.00 0.00 0.00 0.00 0.00 0.01
0.25 0.34 0.37 0.31 0.31 0.34 0.41 0.18 0.24 0.27 0.28 0.19 0.10 0.04 0.03 0.01 0.07 0.20 0.41 0.81 0.71 0.56 0.39 0.41 0.40 0.28 0.12 0.01 0.00 0.00 0.01 0.00 0.00 0.00 0.00 0.00 0.00 0.00 0.00 0.00 0.00 0.00 0.00 0.00
0.24 0.29 0.36 0.31 0.32 0.38 0.31 0.14 0.29 0.30 0.39 0.41 0.16 0.05 0.02 0.03 0.15 0.25 0.38 0.56 0.77 0.62 0.68 0.37 0.25 0.20 0.07 0.02 0.00 0.00 0.00 0.00 0.00 0.00 0.00 0.00 0.00 0.00 0.00 0.00 0.01 0.00 0.00 0.00
0.25 0.31 0.37 0.36 0.37 0.51 0.45 0.35 0.32 0.35 0.40 0.52 0.28 0.14 0.07 0.07 0.20 0.35 0.43 0.46 0.58 0.64 0.67 0.43 0.21 0.07 0.13 0.10 0.01 0.00 0.00 0.00 0.00 0.00 0.00 0.00 0.00 0.00 0.00 0.00 0.00 0.00 0.00 0.00
0.33 0.38 0.43 0.42 0.52 0.50 0.40 0.19 0.37 0.33 0.35 0.45 0.39 0.21 0.11 0.15 0.19 0.33 0.46 0.54 0.51 0.55 0.67 0.37 0.19 0.14 0.26 0.17 0.02 0.00 0.00 0.00 0.00 0.00 0.00 0.00 0.00 0.00 0.00 0.00 0.00 0.03 0.01 0.00
0.37 0.34 0.41 0.55 0.58 0.53 0.34 0.12 0.27 0.44 0.64 0.50 0.45 0.24 0.19 0.29 0.39 0.41 0.47 0.81 0.68 0.59 0.48 0.29 0.15 0.16 0.26 0.18 0.00 0.00 0.00 0.00 0.00 0.00 0.00 0.00 0.00 0.00 0.02 0.01 0.00 0.00 0.01 0.02
0.36 0.40 0.55 0.69 0.34 0.19 0.24 0.45 0.57 0.41 0.82 0.94 0.33 0.34 0.35 0.39 0.63 0.56 0.94 0.73 0.98 0.55 0.41 0.19 0.27 0.22 0.16 0.02 0.00 0.00 0.00 0.00 0.00 0.00 0.00 0.00 0.00 0.01 0.03 0.03 0.01 0.00 0.00 0.01
0.74 0.82 0.81 0.58 0.24 0.46 0.80 0.89 0.88 0.87 0.71 0.53 0.33 0.24 0.48 0.48 0.58 0.61 1.04 0.83 0.70 0.61 0.31 0.33 0.35 0.12 0.03 0.01 0.00 0.00 0.00 0.00 0.00 0.01 0.01 0.00 0.00 0.00 0.02 0.03 0.05 0.00 0.00 0.00
1.15 0.96 0.61 0.38 0.54 1.12 0.89 1.13 0.78 0.56 0.32 0.15 0.09 0.15 0.41 0.58 0.80 0.78 0.65 0.95 0.57 0.38 0.26 0.43 0.33 0.17 0.06 0.01 0.00 0.00 0.00 0.00 0.00 0.00 0.01 0.02 0.01 0.00 0.00 0.00 0.03 0.01 0.00 0.00
0.87 0.73 0.96 0.79 0.90 1.06 0.62 0.57 0.40 0.24 0.05 0.08 0.16 0.26 0.44 0.62 0.70 0.66 0.81 0.73 0.82 0.47 0.47 0.51 0.15 0.05 0.02 0.00 0.01 0.01 0.00 0.00 0.00 0.00 0.00 0.01 0.01 0.02 0.02 0.01 0.01 0.01 0.00 0.00
0.93 1.25 1.41 0.75 0.74 0.63 0.31 0.17 0.20 0.10 0.14 0.20 0.26 0.42 0.40 0.51 0.72 0.49 0.45 0.57 0.43 0.55 0.75 0.42 0.18 0.14 0.08 0.02 0.01 0.02 0.02 0.02 0.01 0.01 0.00 0.03 0.03 0.00 0.00 0.02 0.05 0.04 0.02 0.02
1.99 1.83 1.31 0.39 0.41 0.14 0.17 0.05 0.08 0.10 0.03 0.11 0.28 0.30 0.22 0.30 0.46 0.48 0.35 0.25 0.23 0.32 0.34 0.22 0.20 0.29 0.22 0.16 0.12 0.12 0.17 0.18 0.09 0.06 0.05 0.13 0.07 0.02 0.02 0.01 0.03 0.05 0.02 0.01
1.65 1.06 0.56 0.17 0.11 0.09 0.06 0.04 0.02 0.02 0.03 0.09 0.13 0.15 0.11 0.11 0.18 0.16 0.22 0.24 0.17 0.18 0.28 0.14 0.16 0.56 0.46 0.29 0.35 0.43 0.70 0.79 0.56 0.37 0.31 0.28 0.16 0.13 0.10 0.06 0.05 0.03 0.03 0.02
1.60 0.84 0.36 0.09 0.02 0.01 0.01 0.02 0.03 0.04 0.05 0.16 0.23 0.13 0.10 0.06 0.08 0.11 0.07 0.14 0.30 0.32 0.20 0.10 0.10 0.24 0.33 0.21 0.24 0.35 0.55 0.70 0.70 0.45 0.30 0.30 0.33 0.32 0.28 0.18 0.19 0.17 0.13 0.09
1.55 0.43 0.06 0.04 0.03 0.03 0.01 0.02 0.02 0.01 0.04 0.16 0.43 0.37 0.09 0.07 0.11 0.03 0.02 0.10 0.19 0.21 0.16 0.10 0.06 0.04 0.05 0.08 0.10 0.13 0.15 0.13 0.14 0.08 0.05 0.06 0.11 0.23 0.24 0.17 0.22 0.27 0.25 0.12

GFSNW_prec_precacc_090.txt.gz
Total_Precipitation_Accumulation
0.73 0.70 0.79 0.66 0.87 1.28 1.14 1.21 1.70 1.56 2.17 3.32 2.66 1.73 1.41 1.47 0.93 0.64 0.52 0.23 0.16 0.12 0.08 0.13 0.35 0.49 0.18 0.05 0.03 0.12 0.36 0.79 0.97 0.79 0.29 0.26 0.38 0.32 0.30 0.78 0.44 0.40 0.36 0.10
0.71 0.83 0.72 0.64 1.00 1.54 1.41 1.30 1.53 2.20 1.62 1.66 1.19 1.11 1.18 1.22 0.70 0.56 0.60 0.28 0.17 0.17 0.10 0.14 0.11 0.30 0.10 0.01 0.01 0.09 0.43 0.91 0.90 0.72 0.58 0.61 0.83 0.42 0.35 0.59 0.97 0.67 0.42 0.14
0.65 0.69 0.62 0.55 1.15 1.56 1.55 1.48 1.95 2.72 2.49 0.83 0.74 1.21 1.40 1.07 0.59 0.48 0.58 0.34 0.26 0.19 0.08 0.04 0.05 0.48 0.11 0.02 0.05 0.05 0.41 0.88 0.93 0.76 0.44 0.58 0.82 0.45 0.57 1.13 1.09 0.36 0.29 0.04
0.70 0.61 0.51 0.55 0.91 1.23 1.27 1.32 1.19 0.84 0.79 0.64 0.36 0.79 1.01 0.83 0.82 0.53 0.68 0.55 0.34 0.47 0.23 0.07 0.04 0.37 0.33 0.15 0.14 0.08 0.44 0.90 0.88 0.49 0.28 0.42 0.57 0.56 0.49 0.94 0.52 0.52 0.16 0.07
0.68 0.55 0.43 0.46 0.54 1.00 0.89 0.86 1.10 0.42 0.15 0.19 0.24 0.62 0.80 0.64 0.61 0.57 0.41 0.37 0.21 0.30 0.25 0.22 0.10 0.09 0.31 0.24 0.07 0.19 0.35 0.71 0.75 0.61 0.24 0.38 0.48 0.55 0.36 0.56 0.27 0.26 0.17 0.13
0.54 0.55 0.46 0.89 1.00 1.48 1.06 0.70 0.79 0.51 0.26 0.16 0.38 0.36 0.49 0.63 0.60 0.34 0.16 0.23 0.35 0.24 0.08 0.07 0.02 0.01 0.01 0.05 0.14 0.17 0.28 0.51 0.73 0.64 0.48 0.28 0.47 0.58 0.68 0.48 0.20 0.25 0.28 0.15
0.64 0.67 0.60 0.79 0.81 1.02 0.92 0.56 0.48 0.59 0.24 0.10 0.10 0.21 0.31 0.44 0.52 0.47 0.19 0.24 0.30 0.15 0.16 0.06 0.03 0.02 0.01 0.03 0.03 0.03 0.06 0.23 0.46 0.31 0.15 0.16 0.11 0.14 0.44 0.28 0.23 0.26 0.14 0.07
0.42 0.28 0.22 0.32 0.46 0.63 0.51 0.38 0.39 0.53 0.26 0.08 0.10 0.14 0.29 0.44 0.54 0.54 0.30 0.20 0.20 0.16 0.29 0.19 0.23 0.20 0.12 0.06 0.03 0.03 0.05 0.16 0.25 0.16 0.07 0.03 0.00 0.00 0.07 0.13 0.22 0.14 0.07 0.02
0.48 0.40 0.50 0.53 0.60 0.58 0.47 0.39 0.41 0.46 0.29 0.10 0.06 0.07 0.19 0.43 0.62 0.63 0.44 0.33 0.41 0.38 0.41 0.39 0.24 0.37 0.12 0.05 0.11 0.03 0.05 0.18 0.27 0.10 0.12 0.02 0.00 0.00 0.01 0.02 0.19 0.02 0.05 0.04
0.61 0.48 0.39 0.28 0.29 0.45 0.49 0.41 0.64 0.54 0.31 0.07 0.06 0.08 0.12 0.34 0.69 0.78 0.56 0.51 0.73 0.49 0.38 0.38 0.26 0.16 0.03 0.01 0.03 0.05 0.11 0.19 0.28 0.15 0.18 0.01 0.00 0.00 0.01 0.09 0.14 0.01 0.06 0.06
0.36 0.33 0.28 0.33 0.34 0.47 0.52 0.36 0.49 0.44 0.32 0.06 0.03 0.03 0.06 0.14 0.44 0.83 0.68 0.64 0.79 0.73 0.43 0.37 0.17 0.09 0.03 0.00 0.00 0.00 0.03 0.05 0.09 0.14 0.10 0.00 0.00 0.00 0.00 0.01 0.01 0.02 0.10 0.03
0.32 0.40 0.35 0.29 0.23 0.32 0.42 0.33 0.20 0.31 0.30 0.11 0.05 0.02 0.03 0.05 0.17 0.51 0.73 0.58 0.50 0.46 0.35 0.29 0.13 0.09 0.14 0.01 0.00 0.00 0.00 0.00 0.00 0.00 0.00 0.00 0.00 0.00 0.00 0.00 0.00 0.00 0.02 0.10
0.25 0.33 0.34 0.29 0.31 0.42 0.45 0.26 0.19 0.29 0.28 0.12 0.05 0.04 0.02 0.02 0.08 0.25 0.66 0.66 0.45 0.41 0.44 0.39 0.26 0.15 0.02 0.05 0.04 0.00 0.00 0.00 0.00 0.00 0.00 0.00 0.00 0.00 0.00 0.00 0.00 0.00 0.00 0.01
0.25 0.34 0.37 0.31 0.32 0.35 0.41 0.18 0.24 0.27 0.28 0.19 0.10 0.04 0.03 0.01 0.07 0.20 0.41 0.81 0.71 0.56 0.39 0.41 0.40 0.28 0.13 0.01 0.00 0.00 0.01 0.00 0.00 0.00 0.00 0.00 0.00 0.00 0.00 0.01 0.01 0.00 0.00 0.00
0.24 0.29 0.36 0.31 0.33 0.38 0.31 0.14 0.29 0.30 0.39 0.41 0.16 0.05 0.02 0.03 0.15 0.25 0.38 0.56 0.77 0.62 0.68 0.37 0.25 0.20 0.07 0.02 0.00 0.00 0.00 0.00 0.00 0.00 0.00 0.00 0.00 0.00 0.00 0.00 0.01 0.00 0.00 0.00
0.25 0.31 0.37 0.37 0.38 0.51 0.45 0.35 0.32 0.35 0.40 0.52 0.28 0.14 0.07 0.07 0.20 0.35 0.43 0.46 0.58 0.64 0.67 0.43 0.21 0.07 0.13 0.10 0.01 0.00 0.00 0.00 0.00 0.00 0.00 0.00 0.00 0.00 0.00 0.00 0.00 0.00 0.00 0.00
0.33 0.38 0.43 0.42 0.52 0.50 0.40 0.19 0.37 0.33 0.35 0.45 0.39 0.21 0.11 0.15 0.19 0.33 0.46 0.54 0.51 0.55 0.67 0.37 0.19 0.14 0.26 0.17 0.02 0.00 0.00 0.00 0.00 0.00 0.00 0.00 0.00 0.00 0.00 0.00 0.00 0.03 0.01 0.00
0.37 0.35 0.42 0.55 0.58 0.53 0.34 0.12 0.27 0.44 0.64 0.50 0.45 0.24 0.19 0.29 0.39 0.42 0.47 0.81 0.68 0.59 0.48 0.29 0.15 0.16 0.26 0.18 0.00 0.00 0.00 0.00 0.00 0.00 0.00 0.00 0.00 0.00 0.02 0.01 0.00 0.00 0.01 0.02
0.36 0.40 0.56 0.70 0.34 0.19 0.24 0.46 0.57 0.41 0.82 0.94 0.33 0.34 0.35 0.39 0.63 0.56 0.94 0.73 0.98 0.56 0.41 0.19 0.27 0.22 0.16 0.02 0.00 0.00 0.00 0.00 0.00 0.00 0.00 0.00 0.00 0.01 0.03 0.03 0.01 0.00 0.00 0.01
0.74 0.82 0.82 0.59 0.24 0.46 0.80 0.89 0.88 0.87 0.71 0.53 0.33 0.24 0.48 0.48 0.58 0.61 1.04 0.84 0.70 0.62 0.31 0.33 0.37 0.13 0.03 0.01 0.00 0.00 0.00 0.00 0.00 0.01 0.01 0.00 0.00 0.00 0.02 0.03 0.05 0.00 0.00 0.00
1.15 0.96 0.62 0.40 0.55 1.12 0.89 1.13 0.78 0.56 0.32 0.15 0.09 0.15 0.41 0.58 0.80 0.78 0.65 0.96 0.58 0.39 0.26 0.43 0.33 0.18 0.06 0.01 0.00 0.01 0.00 0.00 0.00 0.00 0.01 0.02 0.01 0.00 0.00 0.00 0.03 0.01 0.00 0.00
0.87 0.73 0.98 0.81 0.91 1.06 0.62 0.57 0.40 0.24 0.05 0.08 0.16 0.26 0.44 0.62 0.71 0.66 0.82 0.73 0.83 0.48 0.48 0.53 0.15 0.05 0.02 0.01 0.01 0.01 0.01 0.01 0.01 0.00 0.00 0.01 0.01 0.02 0.02 0.01 0.01 0.01 0.00 0.00
0.93 1.25 1.43 0.76 0.74 0.63 0.31 0.17 0.20 0.10 0.14 0.20 0.26 0.42 0.40 0.52 0.73 0.49 0.46 0.57 0.43 0.56 0.77 0.43 0.19 0.14 0.08 0.02 0.01 0.02 0.02 0.04 0.04 0.04 0.03 0.04 0.03 0.01 0.00 0.02 0.05 0.04 0.02 0.02
1.99 1.85 1.34 0.40 0.41 0.14 0.17 0.05 0.08 0.10 0.03 0.11 0.28 0.30 0.22 0.30 0.46 0.49 0.36 0.25 0.24 0.33 0.35 0.22 0.20 0.29 0.22 0.16 0.12 0.13 0.18 0.20 0.12 0.10 0.09 0.15 0.08 0.02 0.02 0.01 0.03 0.05 0.02 0.01
1.66 1.08 0.58 0.18 0.11 0.09 0.06 0.04 0.02 0.02 0.03 0.09 0.13 0.15 0.11 0.11 0.18 0.17 0.23 0.24 0.17 0.18 0.28 0.14 0.16 0.56 0.46 0.29 0.35 0.45 0.72 0.82 0.60 0.41 0.36 0.34 0.21 0.15 0.10 0.06 0.05 0.03 0.03 0.02
1.62 0.85 0.36 0.10 0.02 0.01 0.01 0.02 0.03 0.04 0.05 0.16 0.23 0.13 0.10 0.06 0.08 0.12 0.07 0.14 0.30 0.32 0.20 0.10 0.10 0.24 0.33 0.21 0.25 0.38 0.60 0.75 0.76 0.50 0.33 0.32 0.34 0.33 0.29 0.18 0.19 0.17 0.13 0.09
1.57 0.44 0.06 0.04 0.03 0.03 0.01 0.02 0.02 0.01 0.04 0.16 0.43 0.37 0.09 0.07 0.11 0.03 0.02 0.10 0.19 0.21 0.16 0.10 0.06 0.04 0.05 0.08 0.10 0.14 0.18 0.19 0.20 0.13 0.09 0.07 0.12 0.24 0.24 0.17 0.22 0.27 0.25 0.12

GFSNW_prec_precacc_096.txt.gz
Total_Precipitation_Accumulation
0.73 0.70 0.79 0.66 0.87 1.28 1.14 1.21 1.70 1.56 2.17 3.32 2.66 1.73 1.41 1.48 0.94 0.65 0.54 0.25 0.23 0.20 0.18 0.18 0.63 0.67 0.20 0.05 0.03 0.13 0.40 0.85 1.06 0.90 0.32 0.26 0.39 0.34 0.33 0.84 0.46 0.41 0.37 0.10
0.71 0.83 0.72 0.64 1.00 1.54 1.41 1.30 1.53 2.20 1.62 1.66 1.19 1.11 1.18 1.22 0.70 0.56 0.60 0.31 0.23 0.20 0.14 0.19 0.21 0.60 0.15 0.02 0.01 0.18 0.54 1.01 1.06 0.83 0.62 0.62 0.84 0.42 0.36 0.60 0.99 0.69 0.46 0.14
0.65 0.69 0.62 0.55 1.15 1.56 1.55 1.48 1.95 2.72 2.49 0.83 0.74 1.21 1.40 1.07 0.59 0.48 0.58 0.35 0.26 0.20 0.09 0.05 0.10 0.71 0.18 0.02 0.06 0.07 0.47 0.97 1.02 0.81 0.45 0.58 0.82 0.45 0.57 1.13 1.10 0.37 0.31 0.04
0.70 0.61 0.51 0.55 0.91 1.23 1.27 1.32 1.19 0.84 0.79 0.64 0.36 0.79 1.01 0.83 0.82 0.53 0.68 0.55 0.34 0.47 0.24 0.08 0.06 0.49 0.42 0.18 0.15 0.10 0.46 0.99 0.91 0.49 0.28 0.42 0.57 0.56 0.49 0.94 0.52 0.52 0.16 0.07
0.68 0.55 0.43 0.46 0.54 1.00 0.89 0.86 1.10 0.42 0.15 0.19 0.24 0.62 0.80 0.64 0.61 0.57 0.41 0.37 0.21 0.30 0.26 0.23 0.10 0.11 0.38 0.36 0.10 0.22 0.35 0.72 0.75 0.61 0.24 0.38 0.48 0.55 0.36 0.56 0.27 0.26 0.17 0.13
0.54 0.55 0.46 0.89 1.00 1.48 1.06 0.70 0.79 0.51 0.26 0.16 0.38 0.36 0.49 0.63 0.60 0.34 0.16 0.23 0.35 0.24 0.08 0.07 0.02 0.01 0.01 0.08 0.19 0.20 0.28 0.51 0.74 0.66 0.48 0.28 0.47 0.58 0.68 0.48 0.20 0.25 0.28 0.15
0.64 0.67 0.60 0.79 0.81 1.02 0.92 0.56 0.48 0.59 0.24 0.10 0.10 0.21 0.31 0.44 0.52 0.47 0.19 0.24 0.30 0.15 0.16 0.06 0.03 0.02 0.01 0.03 0.03 0.03 0.06 0.23 0.46 0.31 0.15 0.16 0.11 0.14 0.44 0.28 0.23 0.26 0.14 0.07
0.42 0.28 0.22 0.32 0.46 0.63 0.51 0.38 0.39 0.53 0.26 0.08 0.10 0.14 0.29 0.44 0.54 0.54 0.30 0.20 0.20 0.16 0.29 0.19 0.23 0.21 0.12 0.06 0.03 0.03 0.05 0.16 0.25 0.16 0.07 0.03 0.00 0.00 0.07 0.13 0.22 0.14 0.07 0.02
0.48 0.40 0.50 0.53 0.60 0.58 0.47 0.39 0.41 0.46 0.29 0.10 0.06 0.07 0.19 0.43 0.62 0.63 0.44 0.33 0.41 0.38 0.41 0.40 0.25 0.38 0.12 0.05 0.11 0.03 0.05 0.18 0.27 0.10 0.12 0.02 0.00 0.00 0.01 0.02 0.19 0.02 0.05 0.04
0.61 0.48 0.39 0.28 0.29 0.45 0.49 0.41 0.64 0.54 0.31 0.07 0.06 0.08 0.12 0.34 0.69 0.78 0.56 0.51 0.73 0.49 0.38 0.38 0.26 0.16 0.03 0.01 0.04 0.05 0.11 0.19 0.28 0.16 0.18 0.01 0.00 0.00 0.01 0.09 0.15 0.01 0.06 0.06
0.36 0.33 0.28 0.33 0.34 0.47 0.52 0.36 0.49 0.44 0.32 0.06 0.03 0.03 0.06 0.14 0.44 0.83 0.68 0.64 0.79 0.73 0.43 0.37 0.17 0.10 0.04 0.00 0.00 0.00 0.03 0.05 0.09 0.14 0.10 0.00 0.00 0.00 0.01 0.01 0.01 0.02 0.10 0.03
0.33 0.41 0.35 0.29 0.23 0.32 0.42 0.33 0.20 0.31 0.30 0.11 0.05 0.02 0.03 0.05 0.17 0.51 0.73 0.58 0.50 0.46 0.35 0.29 0.13 0.09 0.15 0.02 0.01 0.00 0.00 0.00 0.00 0.00 0.00 0.00 0.00 0.00 0.00 0.00 0.00 0.00 0.02 0.10
0.30 0.35 0.34 0.29 0.32 0.42 0.45 0.26 0.19 0.29 0.28 0.12 0.05 0.04 0.02 0.02 0.08 0.25 0.66 0.66 0.45 0.41 0.44 0.39 0.26 0.16 0.02 0.05 0.05 0.00 0.00 0.00 0.00 0.00 0.00 0.00 0.00 0.00 0.00 0.00 0.00 0.00 0.00 0.01
0.32 0.35 0.37 0.32 0.32 0.35 0.41 0.18 0.24 0.27 0.28 0.19 0.10 0.04 0.03 0.01 0.07 0.20 0.41 0.81 0.71 0.56 0.39 0.41 0.40 0.28 0.13 0.01 0.00 0.00 0.01 0.00 0.00 0.00 0.00 0.00 0.00 0.00 0.00 0.01 0.02 0.00 0.00 0.00
0.28 0.30 0.37 0.33 0.33 0.38 0.31 0.14 0.29 0.30 0.39 0.41 0.16 0.05 0.02 0.03 0.15 0.25 0.38 0.56 0.77 0.62 0.68 0.37 0.25 0.20 0.07 0.02 0.00 0.00 0.00 0.00 0.01 0.02 0.00 0.00 0.00 0.00 0.00 0.00 0.01 0.00 0.00 0.00
0.26 0.31 0.38 0.38 0.38 0.51 0.45 0.35 0.32 0.35 0.40 0.52 0.28 0.14 0.07 0.07 0.20 0.35 0.43 0.46 0.58 0.64 0.67 0.43 0.21 0.07 0.13 0.10 0.01 0.00 0.00 0.00 0.00 0.00 0.00 0.00 0.00 0.00 0.00 0.00 0.00 0.00 0.00 0.00
0.34 0.38 0.44 0.42 0.52 0.50 0.40 0.19 0.37 0.33 0.35 0.45 0.39 0.21 0.11 0.15 0.19 0.33 0.46 0.54 0.51 0.55 0.67 0.37 0.19 0.14 0.26 0.18 0.02 0.00 0.00 0.00 0.00 0.00 0.00 0.00 0.00 0.00 0.00 0.00 0.00 0.03 0.01 0.00
0.39 0.36 0.42 0.56 0.58 0.53 0.34 0.12 0.27 0.44 0.64 0.50 0.45 0.24 0.19 0.29 0.39 0.42 0.47 0.81 0.68 0.59 0.48 0.29 0.15 0.16 0.26 0.18 0.00 0.00 0.00 0.00 0.00 0.00 0.00 0.00 0.00 0.00 0.02 0.01 0.00 0.00 0.01 0.02
0.38 0.41 0.56 0.70 0.34 0.19 0.24 0.46 0.57 0.41 0.82 0.94 0.33 0.34 0.35 0.39 0.63 0.56 0.95 0.73 0.98 0.56 0.42 0.19 0.27 0.22 0.16 0.02 0.00 0.00 0.00 0.00 0.00 0.00 0.00 0.00 0.00 0.01 0.03 0.03 0.01 0.00 0.00 0.01
0.76 0.83 0.82 0.59 0.25 0.46 0.80 0.89 0.88 0.87 0.71 0.53 0.33 0.24 0.48 0.48 0.58 0.61 1.04 0.85 0.71 0.63 0.31 0.34 0.38 0.13 0.03 0.01 0.00 0.00 0.00 0.00 0.00 0.01 0.01 0.00 0.00 0.00 0.02 0.03 0.05 0.00 0.00 0.00
1.16 0.96 0.63 0.43 0.57 1.12 0.89 1.13 0.78 0.56 0.32 0.15 0.09 0.15 0.41 0.58 0.80 0.78 0.65 0.96 0.58 0.40 0.26 0.44 0.34 0.18 0.06 0.01 0.00 0.01 0.01 0.00 0.00 0.00 0.01 0.02 0.01 0.00 0.01 0.01 0.04 0.01 0.00 0.00
0.88 0.74 0.99 0.83 0.93 1.07 0.62 0.57 0.40 0.24 0.05 0.08 0.16 0.26 0.44 0.62 0.71 0.66 0.82 0.73 0.83 0.48 0.49 0.55 0.15 0.05 0.02 0.01 0.01 0.01 0.02 0.02 0.02 0.01 0.00 0.01 0.03 0.04 0.03 0.03 0.04 0.03 0.01 0.00
0.95 1.27 1.44 0.77 0.77 0.63 0.31 0.18 0.20 0.10 0.14 0.20 0.26 0.42 0.40 0.52 0.73 0.49 0.46 0.58 0.44 0.57 0.78 0.44 0.19 0.14 0.08 0.02 0.01 0.02 0.03 0.04 0.05 0.06 0.05 0.05 0.05 0.04 0.04 0.05 0.07 0.05 0.02 0.02
2.01 1.86 1.35 0.41 0.42 0.14 0.17 0.05 0.09 0.10 0.03 0.11 0.28 0.30 0.22 0.30 0.47 0.49 0.36 0.25 0.25 0.34 0.36 0.22 0.20 0.29 0.22 0.16 0.12 0.13 0.18 0.21 0.14 0.12 0.11 0.17 0.09 0.03 0.02 0.01 0.04 0.06 0.02 0.01
1.67 1.08 0.59 0.19 0.12 0.10 0.07 0.05 0.02 0.02 0.03 0.09 0.13 0.15 0.11 0.11 0.18 0.17 0.23 0.25 0.18 0.18 0.28 0.14 0.16 0.56 0.46 0.29 0.35 0.45 0.73 0.83 0.62 0.44 0.39 0.38 0.26 0.20 0.15 0.09 0.05 0.03 0.04 0.03
1.62 0.86 0.38 0.11 0.05 0.05 0.04 0.03 0.03 0.04 0.05 0.16 0.23 0.13 0.10 0.06 0.08 0.12 0.08 0.15 0.30 0.32 0.20 0.10 0.10 0.24 0.33 0.21 0.25 0.38 0.61 0.77 0.78 0.54 0.38 0.38 0.40 0.37 0.31 0.21 0.22 0.19 0.14 0.10
1.58 0.45 0.08 0.07 0.05 0.05 0.03 0.02 0.02 0.01 0.04 0.16 0.43 0.37 0.09 0.07 0.11 0.04 0.02 0.10 0.19 0.21 0.16 0.10 0.06 0.04 0.05 0.08 0.10 0.14 0.18 0.20 0.22 0.16 0.14 0.13 0.16 0.27 0.27 0.19 0.23 0.27 0.25 0.12

GFSNW_prec_precacc_099.txt.gz
Total_Precipitation_Accumulation
0.73 0.70 0.79 0.66 0.87 1.28 1.14 1.21 1.70 1.56 2.17 3.32 2.66 1.73 1.41 1.48 0.94 0.65 0.54 0.25 0.23 0.20 0.19 0.25 0.65 0.67 0.20 0.05 0.03 0.13 0.40 0.86 1.06 0.91 0.32 0.26 0.39 0.34 0.34 0.84 0.46 0.42 0.38 0.10
0.73 0.83 0.72 0.64 1.00 1.54 1.41 1.30 1.53 2.20 1.62 1.66 1.19 1.11 1.18 1.22 0.70 0.56 0.60 0.31 0.23 0.20 0.14 0.25 0.22 0.60 0.15 0.02 0.01 0.30 0.56 1.03 1.07 0.85 0.62 0.63 0.84 0.42 0.36 0.60 0.99 0.70 0.57 0.15
0.66 0.69 0.62 0.55 1.15 1.56 1.55 1.48 1.95 2.72 2.49 0.83 0.74 1.21 1.40 1.07 0.59 0.48 0.58 0.35 0.26 0.20 0.09 0.06 0.10 0.71 0.19 0.03 0.06 0.09 0.49 0.98 1.06 0.84 0.45 0.58 0.82 0.45 0.57 1.13 1.10 0.38 0.36 0.04
0.71 0.61 0.51 0.55 0.91 1.23 1.27 1.32 1.19 0.84 0.79 0.64 0.36 0.79 1.01 0.83 0.82 0.53 0.68 0.55 0.34 0.47 0.24 0.08 0.06 0.50 0.42 0.18 0.15 0.10 0.48 1.07 0.91 0.49 0.28 0.42 0.57 0.56 0.49 0.94 0.52 0.52 0.17 0.07
0.69 0.55 0.43 0.46 0.54 1.00 0.89 0.86 1.10 0.42 0.15 0.19 0.24 0.62 0.80 0.64 0.61 0.57 0.41 0.37 0.21 0.30 0.26 0.23 0.10 0.12 0.38 0.36 0.10 0.22 0.35 0.72 0.75 0.61 0.24 0.38 0.48 0.55 0.36 0.56 0.27 0.26 0.17 0.13
0.55 0.55 0.46 0.89 1.00 1.48 1.06 0.70 0.79 0.51 0.26 0.16 0.38 0.36 0.49 0.63 0.60 0.34 0.16 0.23 0.35 0.24 0.08 0.07 0.02 0.01 0.01 0.09 0.19 0.20 0.28 0.51 0.75 0.67 0.48 0.28 0.47 0.58 0.68 0.48 0.20 0.25 0.28 0.15
0.64 0.67 0.60 0.79 0.81 1.02 0.92 0.56 0.48 0.59 0.24 0.10 0.10 0.21 0.31 0.44 0.52 0.47 0.19 0.24 0.30 0.15 0.16 0.06 0.03 0.02 0.01 0.03 0.03 0.03 0.06 0.23 0.46 0.31 0.15 0.16 0.11 0.14 0.44 0.28 0.23 0.26 0.14 0.07
0.43 0.28 0.22 0.32 0.46 0.63 0.51 0.38 0.39 0.53 0.26 0.08 0.10 0.14 0.29 0.44 0.54 0.54 0.30 0.20 0.20 0.16 0.29 0.19 0.23 0.21 0.12 0.06 0.03 0.03 0.05 0.16 0.25 0.16 0.07 0.03 0.00 0.00 0.07 0.13 0.22 0.14 0.07 0.02
0.49 0.40 0.50 0.53 0.60 0.58 0.47 0.39 0.41 0.46 0.29 0.10 0.06 0.07 0.19 0.43 0.62 0.63 0.44 0.33 0.41 0.38 0.41 0.40 0.25 0.38 0.12 0.05 0.11 0.03 0.05 0.18 0.27 0.10 0.12 0.02 0.00 0.00 0.01 0.02 0.19 0.02 0.05 0.04
0.62 0.48 0.39 0.28 0.29 0.45 0.49 0.41 0.64 0.54 0.31 0.07 0.06 0.08 0.12 0.34 0.69 0.78 0.56 0.51 0.73 0.49 0.38 0.38 0.26 0.16 0.03 0.01 0.04 0.05 0.11 0.19 0.28 0.16 0.18 0.01 0.00 0.00 0.01 0.09 0.15 0.01 0.06 0.06
0.37 0.33 0.28 0.33 0.34 0.47 0.52 0.36 0.49 0.44 0.32 0.06 0.03 0.03 0.06 0.14 0.44 0.83 0.68 0.64 0.79 0.73 0.43 0.37 0.17 0.10 0.04 0.00 0.00 0.00 0.03 0.05 0.09 0.14 0.10 0.00 0.00 0.00 0.01 0.01 0.01 0.02 0.10 0.03
0.34 0.41 0.35 0.29 0.23 0.32 0.42 0.33 0.20 0.31 0.30 0.11 0.05 0.02 0.03 0.05 0.17 0.51 0.73 0.58 0.50 0.46 0.35 0.29 0.13 0.09 0.15 0.02 0.01 0.00 0.00 0.00 0.00 0.00 0.00 0.00 0.00 0.00 0.00 0.00 0.00 0.00 0.02 0.10
0.31 0.37 0.36 0.29 0.32 0.42 0.45 0.26 0.19 0.29 0.28 0.12 0.05 0.04 0.02 0.02 0.08 0.25 0.66 0.66 0.45 0.41 0.44 0.39 0.26 0.16 0.02 0.05 0.05 0.00 0.00 0.00 0.00 0.00 0.00 0.00 0.00 0.00 0.00 0.00 0.00 0.00 0.00 0.01
0.40 0.43 0.42 0.32 0.32 0.35 0.41 0.18 0.24 0.27 0.28 0.19 0.10 0.04 0.03 0.01 0.07 0.20 0.41 0.81 0.71 0.56 0.39 0.41 0.40 0.28 0.13 0.01 0.00 0.00 0.01 0.00 0.00 0.01 0.00 0.00 0.00 0.00 0.00 0.01 0.02 0.00 0.00 0.00
0.46 0.43 0.40 0.33 0.33 0.38 0.31 0.14 0.29 0.30 0.39 0.41 0.16 0.05 0.02 0.03 0.15 0.25 0.38 0.56 0.77 0.62 0.68 0.37 0.25 0.20 0.07 0.02 0.00 0.00 0.00 0.00 0.01 0.03 0.01 0.02 0.01 0.00 0.00 0.00 0.01 0.01 0.01 0.00
0.46 0.43 0.40 0.38 0.38 0.51 0.45 0.35 0.32 0.35 0.40 0.52 0.28 0.14 0.07 0.07 0.20 0.35 0.43 0.46 0.58 0.64 0.67 0.43 0.21 0.07 0.13 0.10 0.01 0.00 0.00 0.00 0.00 0.00 0.00 0.01 0.01 0.00 0.00 0.00 0.00 0.00 0.00 0.01
0.47 0.45 0.45 0.43 0.52 0.50 0.40 0.19 0.37 0.33 0.35 0.45 0.39 0.21 0.11 0.15 0.19 0.33 0.46 0.54 0.51 0.55 0.67 0.37 0.19 0.14 0.26 0.18 0.02 0.00 0.00 0.00 0.00 0.00 0.00 0.00 0.00 0.00 0.00 0.00 0.00 0.03 0.02 0.01
0.46 0.40 0.43 0.56 0.58 0.53 0.34 0.12 0.27 0.44 0.64 0.50 0.45 0.24 0.19 0.29 0.39 0.42 0.47 0.81 0.68 0.59 0.48 0.29 0.15 0.16 0.26 0.18 0.00 0.00 0.00 0.00 0.00 0.00 0.00 0.00 0.00 0.00 0.02 0.01 0.00 0.00 0.01 0.02
0.43 0.43 0.56 0.70 0.34 0.19 0.24 0.46 0.57 0.41 0.82 0.94 0.33 0.34 0.35 0.39 0.63 0.56 0.95 0.73 0.98 0.56 0.42 0.19 0.27 0.22 0.16 0.02 0.00 0.00 0.00 0.00 0.00 0.00 0.00 0.00 0.00 0.01 0.03 0.03 0.01 0.00 0.00 0.01
0.78 0.84 0.83 0.59 0.25 0.46 0.80 0.89 0.88 0.87 0.71 0.53 0.33 0.24 0.48 0.48 0.58 0.61 1.04 0.85 0.71 0.63 0.31 0.34 0.38 0.13 0.03 0.01 0.00 0.00 0.00 0.00 0.00 0.01 0.01 0.00 0.00 0.00 0.02 0.03 0.05 0.00 0.00 0.00
1.18 0.98 0.64 0.43 0.57 1.12 0.90 1.13 0.78 0.56 0.32 0.15 0.09 0.15 0.41 0.58 0.80 0.78 0.65 0.96 0.58 0.40 0.26 0.44 0.34 0.18 0.06 0.01 0.00 0.01 0.01 0.01 0.00 0.01 0.02 0.02 0.01 0.00 0.01 0.01 0.04 0.02 0.01 0.02
0.89 0.74 0.99 0.85 0.95 1.09 0.63 0.57 0.40 0.24 0.05 0.08 0.16 0.26 0.44 0.62 0.71 0.66 0.82 0.73 0.83 0.48 0.49 0.55 0.15 0.05 0.02 0.01 0.01 0.01 0.02 0.02 0.02 0.01 0.01 0.02 0.03 0.04 0.03 0.04 0.07 0.08 0.06 0.03
0.99 1.31 1.49 0.82 0.82 0.64 0.31 0.18 0.20 0.10 0.14 0.20 0.26 0.42 0.40 0.52 0.73 0.49 0.46 0.58 0.44 0.57 0.78 0.44 0.19 0.14 0.08 0.02 0.01 0.02 0.03 0.04 0.05 0.07 0.06 0.06 0.05 0.04 0.04 0.06 0.07 0.06 0.03 0.02
2.09 1.89 1.37 0.42 0.43 0.14 0.17 0.05 0.09 0.10 0.03 0.11 0.28 0.30 0.22 0.30 0.47 0.49 0.36 0.25 0.25 0.34 0.36 0.22 0.20 0.29 0.22 0.16 0.12 0.13 0.18 0.21 0.14 0.12 0.11 0.17 0.09 0.03 0.02 0.01 0.04 0.06 0.02 0.01
1.75 1.09 0.59 0.19 0.12 0.10 0.07 0.06 0.04 0.02 0.03 0.09 0.13 0.15 0.11 0.11 0.18 0.17 0.23 0.26 0.18 0.18 0.28 0.14 0.16 0.56 0.46 0.29 0.35 0.45 0.73 0.83 0.62 0.44 0.40 0.38 0.26 0.20 0.15 0.09 0.05 0.03 0.04 0.03
1.66 0.86 0.38 0.11 0.05 0.05 0.05 0.06 0.05 0.04 0.05 0.16 0.23 0.13 0.10 0.06 0.08 0.12 0.08 0.15 0.30 0.32 0.20 0.10 0.10 0.24 0.33 0.21 0.25 0.38 0.61 0.77 0.78 0.54 0.38 0.38 0.40 0.37 0.31 0.21 0.22 0.20 0.15 0.11
1.64 0.45 0.08 0.07 0.05 0.06 0.06 0.04 0.02 0.01 0.04 0.16 0.43 0.37 0.09 0.07 0.11 0.04 0.02 0.10 0.19 0.21 0.16 0.10 0.06 0.04 0.05 0.08 0.10 0.14 0.18 0.20 0.22 0.17 0.14 0.13 0.16 0.28 0.28 0.20 0.23 0.27 0.25 0.12

GFSNW_prec_precacc_102.txt.gz
Total_Precipitation_Accumulation
1.10 0.78 0.79 0.66 0.87 1.28 1.14 1.21 1.70 1.56 2.17 3.32 2.66 1.73 1.41 1.48 0.94 0.65 0.54 0.25 0.23 0.20 0.19 0.26 0.65 0.68 0.20 0.05 0.03 0.13 0.40 0.86 1.06 0.91 0.32 0.26 0.39 0.34 0.34 0.84 0.46 0.42 0.38 0.10
1.11 0.89 0.72 0.64 1.00 1.54 1.41 1.30 1.53 2.20 1.62 1.66 1.19 1.11 1.18 1.22 0.70 0.56 0.60 0.31 0.23 0.20 0.14 0.26 0.22 0.60 0.15 0.02 0.01 0.30 0.56 1.03 1.07 0.85 0.62 0.63 0.84 0.42 0.36 0.60 0.99 0.70 0.57 0.15
0.94 0.74 0.62 0.55 1.15 1.56 1.55 1.48 1.95 2.72 2.49 0.83 0.74 1.21 1.40 1.07 0.59 0.48 0.58 0.35 0.26 0.20 0.09 0.06 0.10 0.71 0.19 0.03 0.06 0.09 0.50 0.99 1.08 0.84 0.45 0.58 0.82 0.45 0.57 1.13 1.11 0.40 0.37 0.05
0.91 0.63 0.51 0.55 0.91 1.23 1.27 1.32 1.19 0.84 0.79 0.64 0.36 0.79 1.01 0.83 0.82 0.53 0.68 0.55 0.34 0.47 0.24 0.08 0.06 0.50 0.42 0.18 0.15 0.10 0.49 1.08 0.91 0.49 0.28 0.42 0.57 0.56 0.49 0.94 0.52 0.58 0.18 0.07
0.87 0.57 0.43 0.46 0.54 1.00 0.89 0.86 1.10 0.42 0.15 0.19 0.24 0.62 0.80 0.64 0.61 0.57 0.41 0.37 0.21 0.30 0.26 0.23 0.10 0.12 0.38 0.36 0.10 0.22 0.35 0.72 0.75 0.61 0.24 0.38 0.48 0.55 0.36 0.56 0.27 0.28 0.17 0.13
0.70 0.55 0.46 0.89 1.00 1.48 1.06 0.70 0.79 0.51 0.26 0.16 0.38 0.36 0.49 0.63 0.60 0.34 0.16 0.23 0.35 0.24 0.08 0.07 0.02 0.01 0.01 0.09 0.19 0.20 0.28 0.51 0.75 0.67 0.48 0.28 0.47 0.58 0.68 0.48 0.20 0.25 0.28 0.15
0.79 0.68 0.60 0.79 0.81 1.02 0.92 0.56 0.48 0.59 0.24 0.10 0.10 0.21 0.31 0.44 0.52 0.47 0.19 0.24 0.30 0.15 0.16 0.06 0.03 0.02 0.01 0.03 0.03 0.03 0.06 0.23 0.46 0.31 0.15 0.16 0.11 0.14 0.44 0.28 0.23 0.26 0.14 0.07
0.52 0.28 0.22 0.32 0.46 0.63 0.51 0.38 0.39 0.53 0.26 0.08 0.10 0.14 0.29 0.44 0.54 0.54 0.30 0.20 0.20 0.16 0.29 0.19 0.23 0.21 0.12 0.06 0.03 0.03 0.05 0.16 0.25 0.16 0.07 0.03 0.00 0.00 0.07 0.13 0.22 0.14 0.07 0.02
0.53 0.41 0.50 0.53 0.60 0.58 0.47 0.39 0.41 0.46 0.29 0.10 0.06 0.07 0.19 0.43 0.62 0.63 0.44 0.33 0.41 0.38 0.41 0.40 0.25 0.38 0.12 0.05 0.11 0.03 0.05 0.18 0.27 0.10 0.12 0.02 0.00 0.00 0.01 0.02 0.19 0.02 0.05 0.04
0.67 0.48 0.39 0.28 0.29 0.45 0.49 0.41 0.64 0.54 0.31 0.07 0.06 0.08 0.12 0.34 0.69 0.78 0.56 0.51 0.73 0.49 0.38 0.38 0.26 0.16 0.03 0.01 0.04 0.05 0.11 0.19 0.28 0.16 0.18 0.01 0.00 0.00 0.01 0.09 0.15 0.01 0.06 0.06
0.44 0.35 0.28 0.33 0.34 0.47 0.52 0.36 0.49 0.44 0.32 0.06 0.03 0.03 0.06 0.14 0.44 0.83 0.68 0.64 0.79 0.73 0.43 0.37 0.17 0.10 0.04 0.00 0.00 0.00 0.03 0.05 0.09 0.14 0.10 0.00 0.00 0.00 0.01 0.01 0.02 0.02 0.10 0.03
0.43 0.43 0.35 0.29 0.23 0.32 0.42 0.33 0.20 0.31 0.30 0.11 0.05 0.02 0.03 0.05 0.17 0.51 0.73 0.58 0.50 0.46 0.35 0.29 0.13 0.09 0.15 0.02 0.01 0.00 0.00 0.00 0.00 0.00 0.00 0.00 0.00 0.00 0.00 0.00 0.00 0.00 0.02 0.10
0.37 0.38 0.37 0.29 0.32 0.42 0.45 0.26 0.19 0.29 0.28 0.12 0.05 0.04 0.02 0.02 0.08 0.25 0.66 0.66 0.45 0.41 0.44 0.39 0.26 0.16 0.02 0.05 0.05 0.00 0.00 0.00 0.00 0.00 0.00 0.00 0.00 0.00 0.00 0.00 0.00 0.00 0.00 0.01
0.42 0.44 0.46 0.33 0.32 0.35 0.41 0.18 0.24 0.27 0.28 0.19 0.10 0.04 0.03 0.01 0.07 0.20 0.41 0.81 0.71 0.56 0.39 0.41 0.40 0.28 0.13 0.01 0.00 0.00 0.01 0.00 0.00 0.01 0.00 0.00 0.00 0.00 0.00 0.01 0.02 0.00 0.00 0.00
0.49 0.50 0.49 0.34 0.33 0.38 0.31 0.14 0.29 0.30 0.39 0.41 0.16 0.05 0.02 0.03 0.15 0.25 0.38 0.56 0.77 0.62 0.68 0.37 0.25 0.20 0.07 0.02 0.00 0.00 0.00 0.00 0.01 0.03 0.01 0.02 0.02 0.01 0.00 0.00 0.01 0.01 0.02 0.01
0.55 0.58 0.50 0.40 0.38 0.51 0.45 0.35 0.32 0.35 0.40 0.52 0.28 0.14 0.07 0.07 0.20 0.35 0.43 0.46 0.58 0.64 0.67 0.43 0.21 0.07 0.13 0.10 0.01 0.00 0.00 0.00 0.00 0.00 0.00 0.01 0.01 0.01 0.00 0.00 0.00 0.00 0.00 0.01
0.62 0.63 0.52 0.43 0.52 0.50 0.40 0.19 0.37 0.33 0.35 0.45 0.39 0.21 0.11 0.15 0.19 0.33 0.46 0.54 0.51 0.55 0.67 0.37 0.19 0.14 0.26 0.18 0.02 0.00 0.00 0.00 0.00 0.00 0.00 0.00 0.00 0.00 0.00 0.00 0.00 0.03 0.02 0.01
0.62 0.53 0.46 0.56 0.58 0.53 0.34 0.12 0.27 0.44 0.64 0.50 0.45 0.24 0.19 0.29 0.39 0.42 0.47 0.81 0.68 0.59 0.48 0.29 0.15 0.16 0.26 0.18 0.00 0.00 0.00 0.00 0.00 0.00 0.00 0.00 0.00 0.00 0.02 0.01 0.00 0.00 0.01 0.02
0.55 0.50 0.57 0.70 0.35 0.19 0.24 0.46 0.57 0.41 0.82 0.94 0.33 0.34 0.35 0.39 0.63 0.56 0.95 0.73 0.98 0.56 0.42 0.19 0.27 0.22 0.16 0.02 0.00 0.00 0.00 0.00 0.00 0.00 0.00 0.00 0.00 0.01 0.03 0.03 0.01 0.00 0.00 0.01
0.87 0.87 0.84 0.60 0.25 0.46 0.80 0.89 0.88 0.87 0.71 0.53 0.33 0.24 0.48 0.48 0.58 0.61 1.04 0.85 0.71 0.63 0.31 0.34 0.38 0.13 0.03 0.01 0.00 0.00 0.00 0.00 0.00 0.01 0.01 0.00 0.00 0.00 0.02 0.03 0.05 0.00 0.00 0.00
1.23 1.00 0.66 0.44 0.57 1.12 0.90 1.13 0.78 0.56 0.32 0.15 0.09 0.15 0.41 0.58 0.80 0.78 0.65 0.96 0.58 0.40 0.26 0.44 0.34 0.18 0.06 0.01 0.00 0.01 0.01 0.01 0.00 0.01 0.02 0.03 0.02 0.01 0.01 0.01 0.04 0.02 0.02 0.03
0.90 0.75 1.00 0.85 0.95 1.10 0.65 0.57 0.40 0.24 0.05 0.08 0.16 0.26 0.44 0.62 0.71 0.66 0.82 0.73 0.83 0.48 0.49 0.55 0.15 0.05 0.02 0.01 0.01 0.01 0.02 0.02 0.02 0.01 0.01 0.02 0.04 0.04 0.04 0.04 0.07 0.08 0.08 0.05
1.03 1.37 1.54 0.84 0.83 0.69 0.32 0.18 0.20 0.10 0.14 0.20 0.26 0.42 0.40 0.52 0.73 0.49 0.46 0.58 0.44 0.57 0.78 0.44 0.19 0.14 0.08 0.02 0.01 0.02 0.03 0.04 0.05 0.07 0.06 0.06 0.05 0.04 0.04 0.06 0.07 0.06 0.03 0.02
2.20 1.95 1.40 0.45 0.44 0.14 0.17 0.05 0.09 0.10 0.03 0.11 0.28 0.30 0.22 0.30 0.47 0.49 0.36 0.25 0.25 0.34 0.36 0.22 0.20 0.29 0.22 0.16 0.12 0.13 0.18 0.21 0.14 0.12 0.11 0.17 0.09 0.03 0.02 0.01 0.04 0.06 0.02 0.01
1.82 1.12 0.60 0.19 0.12 0.10 0.07 0.06 0.04 0.02 0.03 0.09 0.13 0.15 0.11 0.11 0.18 0.17 0.23 0.26 0.18 0.18 0.28 0.14 0.16 0.56 0.46 0.29 0.35 0.45 0.73 0.83 0.62 0.44 0.40 0.38 0.26 0.20 0.15 0.09 0.05 0.03 0.04 0.04
1.73 0.89 0.38 0.11 0.05 0.05 0.05 0.07 0.07 0.04 0.05 0.16 0.23 0.13 0.10 0.06 0.08 0.12 0.08 0.15 0.30 0.32 0.20 0.10 0.10 0.24 0.33 0.21 0.25 0.38 0.61 0.77 0.78 0.54 0.38 0.38 0.40 0.37 0.31 0.21 0.22 0.20 0.15 0.11
1.71 0.46 0.08 0.07 0.05 0.06 0.06 0.05 0.02 0.01 0.04 0.16 0.43 0.37 0.09 0.07 0.11 0.04 0.02 0.10 0.19 0.21 0.16 0.10 0.06 0.04 0.05 0.08 0.10 0.14 0.18 0.20 0.22 0.17 0.14 0.13 0.16 0.28 0.28 0.20 0.24 0.28 0.25 0.12

GFSNW_prec_precacc_105.txt.gz
Total_Precipitation_Accumulation
1.51 1.29 1.15 0.80 0.88 1.28 1.14 1.21 1.70 1.56 2.17 3.32 2.66 1.73 1.41 1.48 0.94 0.65 0.54 0.25 0.23 0.20 0.19 0.26 0.65 0.68 0.20 0.05 0.03 0.13 0.40 0.86 1.06 0.91 0.32 0.26 0.39 0.34 0.34 0.84 0.46 0.42 0.38 0.10
1.60 1.51 1.14 0.69 1.00 1.54 1.41 1.30 1.53 2.20 1.62 1.66 1.19 1.11 1.18 1.22 0.70 0.56 0.60 0.31 0.23 0.20 0.14 0.26 0.22 0.60 0.15 0.02 0.01 0.30 0.56 1.03 1.07 0.85 0.62 0.63 0.84 0.42 0.36 0.60 0.99 0.70 0.57 0.15
1.21 1.12 0.91 0.58 1.15 1.56 1.55 1.48 1.95 2.72 2.49 0.83 0.74 1.21 1.40 1.07 0.59 0.48 0.58 0.35 0.26 0.20 0.09 0.06 0.10 0.71 0.19 0.03 0.07 0.09 0.50 0.99 1.08 0.84 0.45 0.58 0.82 0.45 0.57 1.13 1.11 0.40 0.37 0.05
1.25 0.85 0.65 0.55 0.91 1.23 1.27 1.32 1.19 0.84 0.79 0.64 0.36 0.79 1.01 0.83 0.82 0.53 0.68 0.55 0.34 0.47 0.24 0.08 0.06 0.50 0.42 0.18 0.15 0.10 0.49 1.09 0.92 0.49 0.28 0.42 0.57 0.56 0.49 0.94 0.52 0.58 0.18 0.07
1.45 0.93 0.49 0.46 0.54 1.00 0.89 0.86 1.10 0.42 0.15 0.19 0.24 0.62 0.80 0.64 0.61 0.57 0.41 0.37 0.21 0.30 0.26 0.23 0.10 0.12 0.38 0.36 0.10 0.22 0.35 0.72 0.75 0.61 0.24 0.38 0.48 0.55 0.36 0.56 0.27 0.28 0.17 0.13
1.10 0.87 0.48 0.89 1.00 1.48 1.06 0.70 0.79 0.51 0.26 0.16 0.38 0.36 0.49 0.63 0.60 0.34 0.16 0.23 0.35 0.24 0.08 0.07 0.02 0.01 0.01 0.09 0.19 0.20 0.28 0.51 0.75 0.67 0.48 0.28 0.47 0.58 0.68 0.48 0.20 0.25 0.28 0.15
1.42 0.95 0.62 0.79 0.81 1.02 0.92 0.56 0.48 0.59 0.24 0.10 0.10 0.21 0.31 0.44 0.52 0.47 0.19 0.24 0.30 0.15 0.16 0.06 0.03 0.02 0.01 0.03 0.03 0.03 0.06 0.23 0.46 0.31 0.15 0.16 0.11 0.14 0.44 0.28 0.23 0.26 0.14 0.07
0.97 0.53 0.25 0.32 0.46 0.63 0.51 0.38 0.39 0.53 0.26 0.08 0.10 0.14 0.29 0.44 0.54 0.54 0.30 0.20 0.20 0.16 0.29 0.19 0.23 0.21 0.12 0.06 0.03 0.03 0.05 0.16 0.25 0.16 0.07 0.03 0.00 0.00 0.07 0.13 0.22 0.14 0.07 0.02
0.60 0.49 0.52 0.53 0.60 0.58 0.47 0.39 0.41 0.46 0.29 0.10 0.06 0.07 0.19 0.43 0.62 0.63 0.44 0.33 0.41 0.38 0.41 0.40 0.25 0.38 0.12 0.05 0.11 0.03 0.05 0.18 0.27 0.10 0.12 0.02 0.00 0.00 0.01 0.02 0.19 0.02 0.05 0.04
0.70 0.49 0.39 0.28 0.29 0.45 0.49 0.41 0.64 0.54 0.31 0.07 0.06 0.08 0.12 0.34 0.69 0.78 0.56 0.51 0.73 0.49 0.38 0.38 0.26 0.16 0.03 0.01 0.04 0.05 0.11 0.19 0.28 0.16 0.18 0.01 0.00 0.00 0.01 0.09 0.15 0.02 0.06 0.06
0.50 0.36 0.28 0.33 0.34 0.47 0.52 0.36 0.49 0.44 0.32 0.06 0.03 0.03 0.06 0.14 0.44 0.83 0.68 0.64 0.79 0.73 0.43 0.37 0.17 0.10 0.04 0.00 0.00 0.00 0.03 0.05 0.09 0.14 0.10 0.00 0.00 0.00 0.01 0.01 0.02 0.03 0.10 0.03
0.50 0.45 0.35 0.29 0.23 0.32 0.42 0.33 0.20 0.31 0.30 0.11 0.05 0.02 0.03 0.05 0.17 0.51 0.73 0.58 0.50 0.46 0.35 0.29 0.13 0.09 0.15 0.02 0.01 0.00 0.00 0.00 0.00 0.00 0.00 0.00 0.00 0.00 0.00 0.00 0.00 0.00 0.02 0.10
0.43 0.40 0.37 0.29 0.32 0.42 0.45 0.26 0.19 0.29 0.28 0.12 0.05 0.04 0.02 0.02 0.08 0.25 0.66 0.66 0.45 0.41 0.44 0.39 0.26 0.16 0.02 0.05 0.05 0.00 0.00 0.00 0.00 0.00 0.00 0.00 0.00 0.00 0.00 0.00 0.00 0.00 0.00 0.01
0.48 0.45 0.46 0.33 0.32 0.35 0.41 0.18 0.24 0.27 0.28 0.19 0.10 0.04 0.03 0.01 0.07 0.20 0.41 0.81 0.71 0.56 0.39 0.41 0.40 0.28 0.13 0.01 0.00 0.00 0.01 0.00 0.00 0.01 0.00 0.00 0.00 0.00 0.00 0.01 0.02 0.00 0.00 0.01
0.54 0.51 0.54 0.35 0.33 0.38 0.31 0.14 0.29 0.30 0.39 0.41 0.16 0.05 0.02 0.03 0.15 0.25 0.38 0.56 0.77 0.62 0.68 0.37 0.25 0.20 0.07 0.02 0.00 0.00 0.00 0.00 0.01 0.03 0.01 0.02 0.02 0.01 0.00 0.00 0.01 0.01 0.02 0.01
0.58 0.64 0.58 0.41 0.38 0.51 0.45 0.35 0.32 0.35 0.40 0.52 0.28 0.14 0.07 0.07 0.20 0.35 0.43 0.46 0.58 0.64 0.67 0.43 0.21 0.07 0.13 0.10 0.01 0.00 0.00 0.00 0.00 0.00 0.00 0.01 0.01 0.01 0.01 0.00 0.00 0.00 0.00 0.01
0.68 0.76 0.60 0.44 0.52 0.50 0.40 0.19 0.37 0.33 0.35 0.45 0.39 0.21 0.11 0.15 0.19 0.33 0.46 0.54 0.51 0.55 0.67 0.37 0.19 0.14 0.26 0.18 0.02 0.00 0.00 0.00 0.00 0.00 0.00 0.00 0.00 0.00 0.00 0.00 0.00 0.03 0.02 0.01
0.72 0.66 0.50 0.56 0.58 0.53 0.34 0.12 0.27 0.44 0.64 0.50 0.45 0.24 0.19 0.29 0.39 0.42 0.47 0.81 0.68 0.59 0.48 0.29 0.15 0.16 0.26 0.18 0.00 0.00 0.00 0.00 0.00 0.00 0.00 0.00 0.00 0.00 0.02 0.01 0.00 0.00 0.01 0.02
0.64 0.58 0.59 0.70 0.35 0.19 0.24 0.46 0.57 0.41 0.82 0.94 0.33 0.34 0.35 0.39 0.63 0.56 0.95 0.73 0.98 0.56 0.42 0.19 0.27 0.22 0.16 0.02 0.00 0.00 0.00 0.00 0.00 0.00 0.00 0.00 0.00 0.01 0.03 0.03 0.01 0.00 0.00 0.01
0.92 0.92 0.85 0.61 0.25 0.46 0.80 0.89 0.88 0.87 0.71 0.53 0.33 0.24 0.48 0.48 0.58 0.61 1.04 0.85 0.71 0.63 0.31 0.34 0.38 0.13 0.03 0.01 0.00 0.00 0.00 0.00 0.00 0.01 0.01 0.00 0.00 0.00 0.02 0.03 0.05 0.00 0.00 0.00
1.27 1.02 0.66 0.44 0.57 1.12 0.90 1.13 0.78 0.56 0.32 0.15 0.09 0.15 0.41 0.58 0.80 0.78 0.65 0.96 0.58 0.40 0.26 0.44 0.34 0.18 0.06 0.01 0.00 0.01 0.01 0.01 0.00 0.01 0.02 0.03 0.02 0.01 0.01 0.02 0.04 0.03 0.03 0.04
0.91 0.75 1.00 0.85 0.95 1.10 0.65 0.57 0.40 0.24 0.05 0.08 0.16 0.26 0.44 0.62 0.71 0.66 0.82 0.73 0.83 0.48 0.49 0.55 0.15 0.05 0.02 0.01 0.01 0.01 0.02 0.02 0.02 0.01 0.01 0.02 0.04 0.04 0.04 0.04 0.08 0.08 0.08 0.06
1.03 1.42 1.59 0.85 0.83 0.69 0.33 0.18 0.20 0.10 0.14 0.20 0.26 0.42 0.40 0.52 0.73 0.49 0.46 0.58 0.44 0.57 0.78 0.44 0.19 0.14 0.08 0.02 0.01 0.02 0.03 0.04 0.05 0.07 0.06 0.06 0.05 0.04 0.04 0.06 0.07 0.06 0.03 0.02
2.33 2.04 1.46 0.49 0.45 0.14 0.17 0.05 0.09 0.10 0.03 0.11 0.28 0.30 0.22 0.30 0.47 0.49 0.36 0.25 0.25 0.35 0.36 0.22 0.20 0.29 0.22 0.16 0.12 0.13 0.18 0.21 0.14 0.12 0.11 0.17 0.09 0.03 0.02 0.01 0.04 0.06 0.02 0.01
1.93 1.16 0.62 0.20 0.12 0.10 0.07 0.06 0.04 0.02 0.03 0.09 0.13 0.15 0.11 0.11 0.18 0.17 0.23 0.26 0.18 0.18 0.28 0.14 0.16 0.56 0.46 0.29 0.35 0.45 0.73 0.83 0.62 0.44 0.40 0.38 0.26 0.20 0.15 0.09 0.05 0.03 0.04 0.04
1.80 0.93 0.39 0.11 0.05 0.05 0.05 0.07 0.07 0.04 0.05 0.16 0.23 0.13 0.10 0.06 0.08 0.12 0.08 0.15 0.30 0.32 0.20 0.10 0.10 0.24 0.33 0.21 0.25 0.38 0.61 0.77 0.78 0.54 0.38 0.38 0.40 0.37 0.31 0.21 0.22 0.20 0.15 0.11
1.78 0.47 0.08 0.07 0.05 0.06 0.06 0.05 0.02 0.01 0.04 0.16 0.43 0.37 0.09 0.07 0.11 0.04 0.02 0.10 0.19 0.21 0.16 0.10 0.06 0.04 0.05 0.08 0.10 0.14 0.18 0.20 0.22 0.17 0.14 0.13 0.16 0.28 0.28 0.20 0.24 0.28 0.25 0.12

GFSNW_prec_precacc_108.txt.gz
Total_Precipitation_Accumulation
1.54 1.35 1.23 0.92 1.17 1.41 1.16 1.21 1.71 1.57 2.17 3.32 2.66 1.73 1.41 1.48 0.94 0.65 0.54 0.25 0.23 0.20 0.19 0.26 0.65 0.68 0.20 0.05 0.03 0.13 0.40 0.86 1.06 0.91 0.32 0.26 0.39 0.34 0.34 0.84 0.46 0.42 0.38 0.10
1.65 1.64 1.45 1.00 1.10 1.58 1.42 1.30 1.54 2.22 1.62 1.66 1.19 1.11 1.18 1.22 0.70 0.56 0.60 0.31 0.23 0.20 0.14 0.26 0.22 0.60 0.15 0.02 0.01 0.30 0.57 1.03 1.07 0.85 0.62 0.63 0.84 0.42 0.36 0.60 0.99 0.70 0.57 0.15
1.32 1.25 1.10 1.11 1.38 1.57 1.55 1.48 1.96 2.73 2.49 0.83 0.74 1.21 1.40 1.07 0.59 0.48 0.58 0.35 0.26 0.20 0.09 0.06 0.10 0.71 0.19 0.03 0.07 0.10 0.50 0.99 1.08 0.85 0.46 0.58 0.82 0.45 0.57 1.13 1.11 0.40 0.37 0.05
1.43 1.07 0.70 0.64 1.09 1.24 1.27 1.32 1.19 0.85 0.79 0.64 0.36 0.79 1.01 0.83 0.82 0.53 0.68 0.55 0.34 0.47 0.24 0.08 0.06 0.50 0.42 0.18 0.15 0.10 0.49 1.09 0.92 0.49 0.28 0.42 0.57 0.56 0.49 0.94 0.52 0.58 0.18 0.07
1.66 1.49 0.81 0.49 0.62 1.00 0.89 0.86 1.11 0.42 0.15 0.19 0.24 0.62 0.80 0.64 0.61 0.57 0.41 0.37 0.21 0.30 0.26 0.23 0.10 0.12 0.38 0.36 0.10 0.22 0.35 0.72 0.75 0.61 0.24 0.38 0.48 0.55 0.36 0.56 0.27 0.28 0.17 0.13
1.21 0.98 0.86 0.97 1.04 1.48 1.06 0.70 0.79 0.51 0.26 0.16 0.38 0.36 0.49 0.63 0.60 0.34 0.16 0.23 0.35 0.24 0.08 0.07 0.02 0.01 0.01 0.09 0.19 0.20 0.28 0.51 0.75 0.67 0.48 0.28 0.47 0.58 0.68 0.48 0.20 0.25 0.28 0.15
1.84 1.05 0.68 0.85 0.82 1.02 0.92 0.56 0.48 0.59 0.24 0.10 0.10 0.21 0.31 0.44 0.52 0.47 0.19 0.24 0.30 0.15 0.16 0.06 0.03 0.02 0.01 0.03 0.03 0.03 0.06 0.23 0.46 0.31 0.15 0.16 0.11 0.14 0.44 0.28 0.23 0.26 0.14 0.07
1.59 0.92 0.28 0.33 0.46 0.63 0.51 0.38 0.39 0.53 0.26 0.08 0.10 0.14 0.29 0.44 0.54 0.54 0.30 0.20 0.20 0.16 0.29 0.19 0.23 0.21 0.12 0.06 0.03 0.03 0.05 0.16 0.25 0.16 0.07 0.03 0.00 0.00 0.07 0.13 0.22 0.14 0.07 0.02
0.75 0.87 0.61 0.53 0.60 0.58 0.47 0.39 0.41 0.46 0.29 0.10 0.06 0.07 0.19 0.43 0.62 0.63 0.44 0.33 0.41 0.38 0.41 0.40 0.25 0.38 0.12 0.05 0.11 0.03 0.05 0.18 0.27 0.10 0.12 0.02 0.00 0.00 0.01 0.02 0.20 0.02 0.05 0.04
0.73 0.53 0.43 0.29 0.29 0.45 0.49 0.41 0.64 0.54 0.31 0.07 0.06 0.08 0.12 0.34 0.69 0.78 0.56 0.51 0.73 0.49 0.38 0.38 0.26 0.16 0.03 0.01 0.04 0.05 0.11 0.19 0.28 0.16 0.18 0.01 0.00 0.00 0.01 0.09 0.15 0.02 0.06 0.06
0.54 0.36 0.28 0.33 0.34 0.47 0.52 0.36 0.49 0.44 0.32 0.06 0.03 0.03 0.06 0.14 0.44 0.83 0.68 0.64 0.79 0.73 0.43 0.37 0.17 0.10 0.04 0.00 0.00 0.00 0.03 0.05 0.09 0.14 0.10 0.00 0.00 0.00 0.01 0.01 0.02 0.03 0.10 0.03
0.59 0.46 0.35 0.29 0.23 0.32 0.42 0.33 0.20 0.31 0.30 0.11 0.05 0.02 0.03 0.05 0.17 0.51 0.73 0.58 0.50 0.46 0.35 0.29 0.13 0.09 0.15 0.02 0.01 0.00 0.00 0.00 0.00 0.00 0.00 0.00 0.00 0.00 0.00 0.00 0.00 0.00 0.02 0.10
0.51 0.40 0.37 0.29 0.32 0.42 0.45 0.26 0.19 0.29 0.28 0.12 0.05 0.04 0.02 0.02 0.08 0.25 0.66 0.66 0.45 0.41 0.44 0.39 0.26 0.16 0.02 0.05 0.05 0.00 0.00 0.00 0.00 0.00 0.00 0.00 0.00 0.00 0.00 0.00 0.00 0.00 0.00 0.01
0.52 0.45 0.46 0.33 0.32 0.35 0.41 0.18 0.24 0.27 0.28 0.19 0.10 0.04 0.03 0.01 0.07 0.20 0.41 0.81 0.71 0.56 0.39 0.41 0.40 0.28 0.13 0.01 0.00 0.00 0.01 0.00 0.00 0.01 0.00 0.00 0.00 0.00 0.00 0.01 0.02 0.00 0.00 0.01
0.56 0.52 0.54 0.35 0.33 0.38 0.31 0.14 0.29 0.30 0.39 0.41 0.16 0.05 0.02 0.03 0.15 0.25 0.38 0.56 0.77 0.62 0.68 0.37 0.25 0.20 0.07 0.02 0.00 0.00 0.00 0.00 0.01 0.03 0.01 0.02 0.02 0.01 0.00 0.00 0.01 0.01 0.02 0.01
0.60 0.65 0.60 0.41 0.38 0.51 0.45 0.35 0.32 0.35 0.40 0.52 0.28 0.14 0.07 0.07 0.20 0.35 0.43 0.46 0.58 0.64 0.67 0.43 0.21 0.07 0.13 0.10 0.01 0.00 0.00 0.00 0.00 0.00 0.00 0.01 0.01 0.01 0.01 0.00 0.00 0.00 0.00 0.01
0.72 0.78 0.63 0.44 0.52 0.50 0.40 0.19 0.37 0.33 0.35 0.45 0.39 0.21 0.11 0.15 0.19 0.33 0.46 0.54 0.51 0.55 0.67 0.37 0.19 0.14 0.26 0.18 0.02 0.00 0.00 0.00 0.00 0.00 0.00 0.00 0.00 0.00 0.00 0.00 0.00 0.03 0.02 0.01
0.80 0.72 0.53 0.56 0.58 0.53 0.34 0.12 0.27 0.44 0.64 0.50 0.45 0.24 0.19 0.29 0.39 0.42 0.47 0.81 0.68 0.59 0.48 0.29 0.15 0.16 0.26 0.18 0.00 0.00 0.00 0.00 0.00 0.00 0.00 0.00 0.00 0.00 0.02 0.01 0.00 0.00 0.01 0.02
0.75 0.65 0.61 0.70 0.35 0.19 0.24 0.46 0.57 0.41 0.82 0.94 0.33 0.34 0.35 0.39 0.63 0.56 0.95 0.73 0.98 0.56 0.42 0.19 0.27 0.22 0.16 0.02 0.00 0.00 0.00 0.00 0.00 0.00 0.00 0.00 0.00 0.01 0.03 0.03 0.01 0.00 0.00 0.01
1.02 1.00 0.87 0.61 0.25 0.46 0.80 0.89 0.88 0.87 0.71 0.53 0.33 0.24 0.48 0.48 0.58 0.61 1.04 0.85 0.71 0.63 0.31 0.34 0.38 0.13 0.03 0.01 0.00 0.00 0.00 0.00 0.00 0.01 0.01 0.00 0.00 0.00 0.02 0.03 0.05 0.00 0.00 0.01
1.37 1.08 0.67 0.44 0.57 1.12 0.90 1.13 0.78 0.56 0.32 0.15 0.09 0.15 0.41 0.58 0.80 0.78 0.65 0.96 0.58 0.40 0.26 0.44 0.34 0.18 0.06 0.01 0.00 0.01 0.01 0.01 0.00 0.01 0.02 0.03 0.02 0.01 0.01 0.02 0.05 0.03 0.03 0.04
0.93 0.75 1.00 0.85 0.95 1.10 0.65 0.57 0.40 0.24 0.05 0.08 0.16 0.26 0.44 0.62 0.71 0.66 0.82 0.73 0.83 0.48 0.49 0.55 0.15 0.05 0.02 0.01 0.01 0.01 0.02 0.02 0.02 0.01 0.01 0.02 0.04 0.04 0.04 0.05 0.08 0.09 0.08 0.06
1.04 1.43 1.60 0.86 0.83 0.69 0.33 0.18 0.20 0.10 0.14 0.20 0.26 0.42 0.40 0.52 0.73 0.49 0.46 0.58 0.44 0.58 0.79 0.44 0.19 0.14 0.08 0.02 0.01 0.02 0.03 0.04 0.05 0.07 0.06 0.06 0.05 0.04 0.04 0.06 0.07 0.06 0.03 0.02
2.38 2.06 1.48 0.50 0.46 0.14 0.17 0.05 0.09 0.10 0.03 0.11 0.28 0.30 0.22 0.30 0.47 0.49 0.36 0.25 0.25 0.35 0.36 0.22 0.20 0.29 0.22 0.16 0.12 0.13 0.18 0.21 0.14 0.12 0.11 0.17 0.09 0.03 0.02 0.01 0.04 0.06 0.02 0.01
2.01 1.19 0.64 0.20 0.12 0.10 0.07 0.06 0.04 0.02 0.03 0.09 0.13 0.15 0.11 0.11 0.18 0.17 0.23 0.26 0.18 0.18 0.28 0.14 0.16 0.56 0.46 0.29 0.35 0.45 0.73 0.83 0.62 0.44 0.40 0.38 0.26 0.20 0.15 0.09 0.05 0.03 0.04 0.04
1.88 0.98 0.40 0.11 0.05 0.05 0.05 0.07 0.07 0.04 0.05 0.16 0.23 0.13 0.10 0.06 0.08 0.12 0.08 0.15 0.30 0.32 0.20 0.10 0.10 0.24 0.33 0.21 0.25 0.38 0.61 0.77 0.78 0.54 0.38 0.38 0.40 0.37 0.31 0.21 0.22 0.20 0.15 0.11
1.88 0.51 0.08 0.07 0.05 0.06 0.06 0.05 0.02 0.01 0.04 0.16 0.43 0.37 0.09 0.07 0.11 0.04 0.02 0.10 0.19 0.21 0.16 0.10 0.06 0.04 0.05 0.08 0.10 0.14 0.18 0.20 0.22 0.17 0.14 0.13 0.16 0.28 0.28 0.21 0.24 0.28 0.25 0.12

GFSNW_prec_precacc_111.txt.gz
Total_Precipitation_Accumulation
1.59 1.39 1.23 0.92 1.25 2.00 1.25 1.22 1.72 1.59 2.19 3.32 2.66 1.73 1.41 1.48 0.94 0.65 0.54 0.25 0.23 0.20 0.19 0.26 0.65 0.68 0.20 0.05 0.03 0.13 0.40 0.86 1.06 0.91 0.32 0.27 0.39 0.34 0.34 0.84 0.46 0.42 0.38 0.11
1.70 1.67 1.46 1.01 1.18 1.84 1.48 1.31 1.58 2.27 1.63 1.66 1.19 1.11 1.18 1.22 0.70 0.56 0.60 0.31 0.23 0.20 0.14 0.26 0.22 0.60 0.15 0.02 0.01 0.30 0.57 1.03 1.07 0.85 0.62 0.63 0.84 0.42 0.36 0.60 0.99 0.70 0.57 0.15
1.38 1.27 1.11 1.21 1.50 1.67 1.56 1.49 1.99 2.77 2.50 0.83 0.74 1.21 1.40 1.07 0.59 0.48 0.58 0.35 0.26 0.20 0.09 0.06 0.10 0.71 0.19 0.03 0.07 0.10 0.50 0.99 1.08 0.85 0.46 0.58 0.82 0.45 0.57 1.13 1.11 0.40 0.37 0.05
1.49 1.11 0.72 0.71 1.43 1.35 1.28 1.33 1.20 0.86 0.79 0.64 0.36 0.79 1.01 0.83 0.82 0.53 0.68 0.55 0.34 0.47 0.24 0.08 0.06 0.50 0.42 0.18 0.15 0.10 0.49 1.09 0.92 0.49 0.28 0.42 0.57 0.56 0.49 0.94 0.52 0.58 0.18 0.07
1.76 1.58 0.88 0.51 0.75 1.18 0.92 0.86 1.11 0.42 0.15 0.19 0.24 0.62 0.80 0.64 0.61 0.57 0.41 0.37 0.21 0.30 0.26 0.23 0.10 0.12 0.38 0.36 0.10 0.22 0.35 0.72 0.75 0.61 0.24 0.38 0.48 0.55 0.36 0.56 0.27 0.28 0.17 0.13
1.31 1.09 1.09 1.10 1.07 1.52 1.08 0.70 0.79 0.51 0.26 0.16 0.38 0.36 0.49 0.63 0.60 0.34 0.16 0.23 0.35 0.24 0.08 0.07 0.02 0.01 0.01 0.09 0.19 0.20 0.28 0.51 0.75 0.67 0.48 0.28 0.47 0.58 0.68 0.48 0.20 0.25 0.28 0.15
1.91 1.10 0.75 1.07 0.86 1.03 0.92 0.56 0.48 0.59 0.24 0.10 0.10 0.21 0.31 0.44 0.52 0.47 0.19 0.24 0.30 0.15 0.16 0.06 0.03 0.02 0.01 0.03 0.03 0.03 0.06 0.23 0.46 0.31 0.15 0.16 0.11 0.14 0.44 0.28 0.23 0.26 0.14 0.07
1.76 0.98 0.29 0.39 0.49 0.64 0.51 0.38 0.39 0.53 0.26 0.08 0.10 0.14 0.29 0.44 0.54 0.54 0.30 0.20 0.20 0.16 0.29 0.19 0.23 0.21 0.12 0.06 0.03 0.03 0.05 0.16 0.25 0.16 0.07 0.03 0.00 0.00 0.07 0.13 0.22 0.14 0.07 0.02
0.94 1.18 0.66 0.55 0.61 0.58 0.47 0.39 0.41 0.46 0.29 0.10 0.06 0.07 0.19 0.43 0.62 0.63 0.44 0.33 0.41 0.38 0.41 0.40 0.25 0.38 0.12 0.05 0.11 0.03 0.05 0.18 0.27 0.10 0.12 0.02 0.00 0.00 0.01 0.02 0.20 0.02 0.05 0.04
0.81 0.75 0.64 0.32 0.29 0.45 0.49 0.41 0.64 0.54 0.31 0.07 0.06 0.08 0.12 0.34 0.69 0.78 0.56 0.51 0.73 0.49 0.38 0.38 0.26 0.16 0.03 0.01 0.04 0.05 0.11 0.19 0.28 0.16 0.18 0.01 0.00 0.00 0.01 0.09 0.15 0.02 0.06 0.06
0.56 0.39 0.33 0.36 0.35 0.47 0.52 0.36 0.49 0.44 0.32 0.06 0.03 0.03 0.06 0.14 0.44 0.83 0.68 0.64 0.79 0.73 0.43 0.37 0.17 0.10 0.04 0.00 0.00 0.00 0.03 0.05 0.09 0.14 0.10 0.00 0.00 0.00 0.01 0.01 0.02 0.03 0.10 0.03
0.62 0.49 0.35 0.30 0.23 0.32 0.42 0.33 0.20 0.31 0.30 0.11 0.05 0.02 0.03 0.05 0.17 0.51 0.73 0.58 0.50 0.46 0.35 0.29 0.13 0.09 0.15 0.02 0.01 0.00 0.00 0.00 0.00 0.00 0.00 0.00 0.00 0.00 0.00 0.00 0.00 0.00 0.02 0.10
0.56 0.46 0.38 0.30 0.32 0.42 0.45 0.26 0.19 0.29 0.28 0.12 0.05 0.04 0.02 0.02 0.08 0.25 0.66 0.66 0.45 0.41 0.44 0.39 0.26 0.16 0.02 0.05 0.05 0.00 0.00 0.00 0.00 0.00 0.00 0.00 0.00 0.00 0.00 0.00 0.00 0.00 0.00 0.01
0.60 0.50 0.47 0.33 0.32 0.35 0.41 0.18 0.24 0.27 0.28 0.19 0.10 0.04 0.03 0.01 0.07 0.20 0.41 0.81 0.71 0.56 0.39 0.41 0.40 0.28 0.13 0.01 0.00 0.00 0.01 0.00 0.00 0.01 0.00 0.00 0.00 0.00 0.00 0.01 0.02 0.00 0.00 0.01
0.62 0.54 0.55 0.35 0.33 0.38 0.31 0.14 0.29 0.30 0.39 0.41 0.16 0.05 0.02 0.03 0.15 0.25 0.38 0.56 0.77 0.62 0.68 0.37 0.25 0.20 0.07 0.02 0.00 0.00 0.00 0.00 0.01 0.03 0.01 0.02 0.02 0.01 0.00 0.00 0.01 0.01 0.02 0.01
0.63 0.66 0.60 0.41 0.38 0.51 0.45 0.35 0.32 0.35 0.40 0.52 0.28 0.14 0.07 0.07 0.20 0.35 0.43 0.46 0.58 0.64 0.67 0.43 0.21 0.07 0.13 0.10 0.01 0.00 0.00 0.00 0.00 0.00 0.00 0.01 0.01 0.01 0.01 0.00 0.00 0.00 0.00 0.01
0.73 0.79 0.63 0.44 0.52 0.50 0.40 0.19 0.37 0.33 0.35 0.45 0.39 0.21 0.11 0.15 0.19 0.33 0.46 0.54 0.51 0.55 0.67 0.37 0.19 0.14 0.26 0.18 0.02 0.00 0.00 0.00 0.00 0.00 0.00 0.00 0.00 0.00 0.00 0.00 0.00 0.03 0.02 0.01
0.82 0.73 0.53 0.56 0.58 0.53 0.34 0.12 0.27 0.44 0.64 0.50 0.45 0.24 0.19 0.29 0.39 0.42 0.47 0.81 0.68 0.59 0.48 0.29 0.15 0.16 0.26 0.18 0.00 0.00 0.00 0.00 0.00 0.00 0.00 0.00 0.00 0.00 0.02 0.01 0.00 0.00 0.01 0.02
0.79 0.66 0.61 0.70 0.35 0.19 0.24 0.46 0.57 0.41 0.82 0.94 0.33 0.34 0.35 0.39 0.63 0.56 0.95 0.73 0.98 0.56 0.42 0.19 0.27 0.22 0.16 0.02 0.00 0.00 0.00 0.00 0.00 0.00 0.00 0.00 0.00 0.01 0.03 0.03 0.01 0.00 0.00 0.01
1.10 1.04 0.89 0.61 0.25 0.46 0.80 0.89 0.88 0.87 0.71 0.53 0.33 0.24 0.48 0.48 0.58 0.61 1.04 0.85 0.71 0.63 0.31 0.34 0.38 0.13 0.03 0.01 0.00 0.00 0.00 0.00 0.00 0.01 0.01 0.00 0.00 0.00 0.02 0.03 0.05 0.00 0.00 0.01
1.46 1.13 0.68 0.44 0.57 1.12 0.90 1.13 0.78 0.56 0.32 0.15 0.09 0.15 0.41 0.58 0.80 0.78 0.65 0.96 0.58 0.40 0.26 0.44 0.34 0.18 0.06 0.01 0.00 0.01 0.01 0.01 0.00 0.01 0.02 0.03 0.02 0.01 0.01 0.02 0.05 0.03 0.03 0.04
0.96 0.76 1.01 0.86 0.95 1.10 0.65 0.57 0.40 0.24 0.05 0.08 0.16 0.26 0.44 0.62 0.71 0.66 0.82 0.73 0.83 0.48 0.49 0.55 0.15 0.05 0.02 0.01 0.01 0.01 0.02 0.02 0.02 0.01 0.01 0.02 0.04 0.04 0.04 0.05 0.08 0.09 0.08 0.06
1.04 1.44 1.62 0.86 0.83 0.69 0.33 0.18 0.20 0.10 0.14 0.20 0.26 0.42 0.40 0.52 0.73 0.49 0.46 0.58 0.44 0.58 0.79 0.44 0.19 0.14 0.08 0.02 0.01 0.02 0.03 0.04 0.05 0.07 0.06 0.06 0.05 0.04 0.04 0.06 0.07 0.06 0.03 0.02
2.40 2.07 1.48 0.50 0.46 0.14 0.17 0.05 0.09 0.10 0.03 0.11 0.28 0.30 0.22 0.30 0.47 0.49 0.36 0.25 0.25 0.35 0.36 0.22 0.20 0.29 0.22 0.16 0.12 0.13 0.18 0.21 0.14 0.12 0.11 0.17 0.09 0.03 0.02 0.01 0.04 0.06 0.02 0.01
2.08 1.22 0.65 0.20 0.12 0.10 0.07 0.06 0.04 0.02 0.03 0.09 0.13 0.15 0.11 0.11 0.18 0.17 0.23 0.26 0.18 0.18 0.28 0.14 0.16 0.56 0.46 0.29 0.35 0.45 0.73 0.83 0.62 0.44 0.40 0.38 0.26 0.20 0.15 0.09 0.05 0.03 0.04 0.04
1.98 1.03 0.42 0.12 0.05 0.05 0.05 0.07 0.07 0.04 0.05 0.16 0.23 0.13 0.10 0.06 0.08 0.12 0.08 0.15 0.30 0.32 0.20 0.10 0.10 0.24 0.33 0.21 0.25 0.38 0.61 0.77 0.78 0.54 0.38 0.38 0.40 0.37 0.31 0.21 0.22 0.20 0.15 0.11
1.97 0.54 0.08 0.07 0.05 0.06 0.06 0.05 0.02 0.01 0.04 0.16 0.43 0.37 0.09 0.07 0.11 0.04 0.02 0.10 0.19 0.21 0.16 0.10 0.06 0.04 0.05 0.08 0.10 0.14 0.18 0.20 0.22 0.17 0.14 0.13 0.16 0.28 0.28 0.21 0.24 0.28 0.25 0.12

GFSNW_prec_precacc_114.txt.gz
Total_Precipitation_Accumulation
1.65 1.41 1.23 0.94 1.29 2.32 1.30 1.28 1.76 1.64 2.20 3.33 2.66 1.73 1.41 1.48 0.94 0.65 0.54 0.25 0.23 0.20 0.19 0.26 0.65 0.68 0.20 0.05 0.03 0.13 0.40 0.86 1.06 0.91 0.32 0.27 0.40 0.34 0.34 0.84 0.46 0.42 0.39 0.17
1.75 1.69 1.46 1.03 1.21 2.17 1.67 1.40 1.66 2.36 1.66 1.66 1.19 1.11 1.18 1.22 0.70 0.56 0.60 0.31 0.23 0.20 0.14 0.26 0.22 0.60 0.15 0.02 0.01 0.30 0.57 1.03 1.07 0.85 0.63 0.63 0.84 0.42 0.36 0.60 0.99 0.70 0.57 0.18
1.42 1.28 1.12 1.22 1.51 1.74 1.74 1.53 2.06 2.85 2.54 0.84 0.74 1.21 1.40 1.07 0.59 0.48 0.58 0.35 0.26 0.20 0.09 0.06 0.10 0.71 0.19 0.03 0.07 0.10 0.50 0.99 1.08 0.86 0.46 0.58 0.82 0.45 0.57 1.13 1.11 0.40 0.37 0.05
1.54 1.14 0.74 0.71 1.44 1.38 1.35 1.34 1.20 0.88 0.80 0.64 0.36 0.79 1.01 0.83 0.82 0.53 0.68 0.55 0.34 0.47 0.24 0.08 0.06 0.50 0.42 0.18 0.15 0.10 0.49 1.09 0.92 0.49 0.28 0.42 0.57 0.56 0.49 0.94 0.52 0.58 0.18 0.07
1.82 1.63 0.92 0.52 0.80 1.28 0.96 0.86 1.12 0.43 0.15 0.19 0.24 0.62 0.80 0.64 0.61 0.57 0.41 0.37 0.21 0.30 0.26 0.23 0.10 0.12 0.38 0.36 0.10 0.22 0.35 0.72 0.75 0.61 0.24 0.38 0.48 0.55 0.36 0.56 0.27 0.28 0.17 0.13
1.37 1.16 1.16 1.13 1.12 1.71 1.10 0.70 0.79 0.51 0.26 0.16 0.38 0.36 0.49 0.63 0.60 0.34 0.16 0.23 0.35 0.24 0.08 0.07 0.02 0.01 0.01 0.09 0.19 0.20 0.28 0.51 0.75 0.67 0.48 0.28 0.47 0.58 0.68 0.48 0.20 0.25 0.28 0.15
1.96 1.16 0.81 1.10 0.89 1.06 0.92 0.56 0.48 0.59 0.24 0.10 0.10 0.21 0.31 0.44 0.52 0.47 0.19 0.24 0.30 0.15 0.16 0.06 0.03 0.02 0.01 0.03 0.03 0.03 0.06 0.23 0.46 0.31 0.15 0.16 0.11 0.14 0.44 0.28 0.23 0.26 0.14 0.07
1.82 1.02 0.30 0.40 0.51 0.65 0.51 0.38 0.39 0.53 0.26 0.08 0.10 0.14 0.29 0.44 0.54 0.54 0.30 0.20 0.20 0.16 0.29 0.19 0.23 0.21 0.12 0.06 0.03 0.03 0.05 0.16 0.25 0.16 0.07 0.03 0.00 0.00 0.07 0.13 0.22 0.14 0.07 0.02
1.00 1.21 0.67 0.55 0.62 0.59 0.47 0.39 0.41 0.46 0.29 0.10 0.06 0.07 0.19 0.43 0.62 0.63 0.44 0.33 0.41 0.38 0.41 0.40 0.25 0.38 0.12 0.05 0.11 0.03 0.05 0.18 0.27 0.10 0.12 0.02 0.00 0.00 0.01 0.02 0.20 0.02 0.05 0.04
1.01 0.81 0.65 0.33 0.29 0.45 0.49 0.41 0.64 0.54 0.31 0.07 0.06 0.08 0.12 0.34 0.69 0.78 0.56 0.51 0.73 0.49 0.38 0.38 0.26 0.16 0.03 0.01 0.04 0.05 0.11 0.19 0.28 0.16 0.18 0.01 0.00 0.00 0.01 0.09 0.15 0.02 0.06 0.06
0.72 0.57 0.43 0.37 0.35 0.47 0.52 0.36 0.49 0.44 0.32 0.06 0.03 0.03 0.06 0.14 0.44 0.83 0.68 0.64 0.79 0.73 0.43 0.37 0.17 0.10 0.04 0.00 0.00 0.00 0.03 0.05 0.09 0.14 0.10 0.00 0.00 0.00 0.01 0.01 0.02 0.03 0.10 0.03
0.63 0.52 0.37 0.31 0.24 0.32 0.42 0.33 0.20 0.31 0.30 0.11 0.05 0.02 0.03 0.05 0.17 0.51 0.73 0.58 0.50 0.46 0.35 0.29 0.13 0.09 0.15 0.02 0.01 0.00 0.00 0.00 0.00 0.00 0.00 0.00 0.00 0.00 0.00 0.00 0.00 0.00 0.02 0.10
0.56 0.47 0.38 0.30 0.32 0.42 0.45 0.26 0.19 0.29 0.28 0.12 0.05 0.04 0.02 0.02 0.08 0.25 0.66 0.66 0.45 0.41 0.44 0.39 0.26 0.16 0.02 0.05 0.05 0.00 0.00 0.00 0.00 0.00 0.00 0.00 0.00 0.00 0.00 0.00 0.00 0.00 0.00 0.01
0.62 0.53 0.47 0.33 0.33 0.35 0.41 0.18 0.24 0.27 0.28 0.19 0.10 0.04 0.03 0.01 0.07 0.20 0.41 0.81 0.71 0.56 0.39 0.41 0.40 0.28 0.13 0.01 0.00 0.00 0.01 0.00 0.00 0.01 0.00 0.00 0.00 0.00 0.00 0.01 0.02 0.00 0.00 0.01
0.66 0.57 0.55 0.35 0.33 0.38 0.31 0.14 0.29 0.30 0.39 0.41 0.16 0.05 0.02 0.03 0.15 0.25 0.38 0.56 0.77 0.62 0.68 0.37 0.25 0.20 0.07 0.02 0.00 0.00 0.00 0.00 0.01 0.03 0.01 0.02 0.02 0.01 0.00 0.00 0.01 0.01 0.02 0.01
0.64 0.67 0.60 0.41 0.38 0.51 0.45 0.35 0.32 0.35 0.40 0.52 0.28 0.14 0.07 0.07 0.20 0.35 0.43 0.46 0.58 0.64 0.67 0.43 0.21 0.07 0.13 0.10 0.01 0.00 0.00 0.00 0.00 0.00 0.00 0.01 0.01 0.01 0.01 0.00 0.00 0.00 0.00 0.01
0.75 0.79 0.63 0.44 0.52 0.50 0.40 0.19 0.37 0.33 0.35 0.45 0.39 0.21 0.11 0.15 0.19 0.33 0.46 0.54 0.51 0.55 0.67 0.37 0.19 0.14 0.26 0.18 0.02 0.00 0.00 0.00 0.00 0.00 0.00 0.00 0.00 0.00 0.00 0.00 0.00 0.03 0.02 0.01
0.83 0.73 0.53 0.56 0.58 0.53 0.34 0.12 0.27 0.44 0.64 0.50 0.45 0.24 0.19 0.29 0.39 0.42 0.47 0.81 0.68 0.59 0.48 0.29 0.15 0.16 0.26 0.18 0.00 0.00 0.00 0.00 0.00 0.00 0.00 0.00 0.00 0.00 0.02 0.01 0.00 0.00 0.01 0.02
0.79 0.66 0.61 0.70 0.35 0.19 0.24 0.46 0.57 0.41 0.82 0.94 0.33 0.34 0.35 0.39 0.63 0.56 0.95 0.73 0.98 0.56 0.42 0.19 0.27 0.22 0.16 0.02 0.00 0.00 0.00 0.00 0.00 0.00 0.00 0.00 0.00 0.01 0.03 0.03 0.01 0.00 0.00 0.01
1.10 1.04 0.89 0.61 0.25 0.46 0.80 0.89 0.88 0.87 0.71 0.53 0.33 0.24 0.48 0.48 0.58 0.61 1.04 0.85 0.71 0.63 0.31 0.34 0.38 0.13 0.03 0.01 0.00 0.00 0.00 0.00 0.00 0.01 0.01 0.00 0.00 0.00 0.02 0.03 0.05 0.00 0.00 0.01
1.47 1.14 0.68 0.44 0.57 1.12 0.90 1.13 0.78 0.56 0.32 0.15 0.09 0.15 0.41 0.58 0.80 0.78 0.65 0.96 0.58 0.40 0.26 0.44 0.34 0.18 0.06 0.01 0.00 0.01 0.01 0.01 0.00 0.01 0.02 0.03 0.02 0.01 0.01 0.02 0.05 0.03 0.03 0.04
0.97 0.76 1.01 0.86 0.95 1.10 0.65 0.57 0.40 0.24 0.05 0.08 0.16 0.26 0.44 0.62 0.71 0.66 0.82 0.73 0.83 0.48 0.49 0.55 0.15 0.05 0.02 0.01 0.01 0.01 0.02 0.02 0.02 0.01 0.01 0.02 0.04 0.04 0.04 0.05 0.08 0.09 0.08 0.06
1.05 1.45 1.62 0.86 0.83 0.69 0.33 0.18 0.20 0.10 0.14 0.20 0.26 0.42 0.40 0.52 0.73 0.49 0.46 0.58 0.44 0.58 0.79 0.44 0.19 0.14 0.08 0.02 0.01 0.02 0.03 0.04 0.05 0.07 0.06 0.06 0.05 0.04 0.04 0.06 0.07 0.06 0.03 0.02
2.44 2.09 1.48 0.50 0.46 0.14 0.17 0.05 0.09 0.10 0.03 0.11 0.28 0.30 0.22 0.30 0.47 0.49 0.36 0.25 0.25 0.35 0.36 0.22 0.20 0.29 0.22 0.16 0.12 0.13 0.18 0.21 0.14 0.12 0.11 0.17 0.09 0.03 0.02 0.01 0.04 0.06 0.02 0.01
2.12 1.22 0.65 0.20 0.12 0.10 0.07 0.06 0.05 0.03 0.03 0.09 0.13 0.15 0.11 0.11 0.18 0.17 0.23 0.26 0.18 0.18 0.28 0.14 0.16 0.56 0.46 0.29 0.35 0.45 0.73 0.83 0.62 0.44 0.40 0.38 0.26 0.20 0.15 0.09 0.05 0.03 0.04 0.04
2.06 1.05 0.43 0.12 0.05 0.05 0.05 0.07 0.07 0.04 0.05 0.16 0.23 0.13 0.10 0.06 0.08 0.12 0.08 0.15 0.30 0.32 0.20 0.10 0.10 0.24 0.33 0.21 0.25 0.38 0.61 0.77 0.78 0.54 0.38 0.38 0.40 0.37 0.31 0.21 0.22 0.20 0.15 0.11
2.04 0.56 0.08 0.07 0.05 0.06 0.06 0.05 0.02 0.01 0.04 0.16 0.43 0.37 0.09 0.07 0.11 0.04 0.02 0.10 0.19 0.21 0.16 0.10 0.06 0.04 0.05 0.08 0.10 0.14 0.18 0.20 0.22 0.17 0.14 0.13 0.16 0.28 0.28 0.21 0.24 0.28 0.25 0.12

GFSNW_prec_precacc_117.txt.gz
Total_Precipitation_Accumulation
1.71 1.45 1.25 0.97 1.34 2.38 1.34 1.38 1.90 1.66 2.21 3.34 2.67 1.73 1.41 1.48 0.94 0.65 0.54 0.25 0.23 0.20 0.19 0.26 0.65 0.68 0.20 0.05 0.03 0.13 0.40 0.86 1.08 0.93 0.33 0.27 0.40 0.34 0.34 0.85 0.46 0.42 0.40 0.26
1.80 1.71 1.47 1.09 1.27 2.31 1.70 1.45 1.75 2.43 1.67 1.67 1.19 1.11 1.18 1.22 0.70 0.56 0.60 0.31 0.23 0.20 0.14 0.26 0.22 0.60 0.15 0.02 0.02 0.31 0.58 1.04 1.09 0.88 0.64 0.63 0.84 0.42 0.36 0.60 0.99 0.70 0.59 0.25
1.44 1.29 1.13 1.27 1.57 1.83 1.80 1.57 2.14 2.92 2.57 0.84 0.74 1.21 1.40 1.07 0.59 0.48 0.58 0.35 0.26 0.20 0.09 0.06 0.10 0.71 0.19 0.03 0.07 0.10 0.50 0.99 1.09 0.87 0.47 0.58 0.82 0.45 0.57 1.13 1.11 0.41 0.39 0.09
1.57 1.15 0.75 0.75 1.49 1.41 1.42 1.37 1.21 0.89 0.81 0.64 0.36 0.79 1.01 0.83 0.82 0.53 0.68 0.55 0.34 0.47 0.24 0.08 0.06 0.50 0.42 0.18 0.15 0.10 0.49 1.09 0.92 0.49 0.28 0.42 0.57 0.56 0.49 0.94 0.52 0.59 0.19 0.07
1.85 1.65 0.94 0.56 0.81 1.29 0.99 0.87 1.12 0.43 0.15 0.19 0.24 0.62 0.80 0.64 0.61 0.57 0.41 0.37 0.21 0.30 0.26 0.23 0.10 0.12 0.38 0.36 0.10 0.22 0.35 0.72 0.75 0.61 0.24 0.38 0.48 0.55 0.36 0.56 0.27 0.28 0.17 0.13
1.39 1.17 1.16 1.16 1.12 1.73 1.12 0.70 0.79 0.51 0.26 0.16 0.38 0.36 0.49 0.63 0.60 0.34 0.16 0.23 0.35 0.24 0.08 0.07 0.02 0.01 0.01 0.09 0.19 0.20 0.28 0.51 0.75 0.67 0.48 0.28 0.47 0.58 0.68 0.48 0.20 0.25 0.28 0.15
1.97 1.16 0.82 1.11 0.89 1.07 0.92 0.56 0.48 0.59 0.24 0.10 0.10 0.21 0.31 0.44 0.52 0.47 0.19 0.24 0.30 0.15 0.16 0.06 0.03 0.02 0.01 0.03 0.03 0.03 0.06 0.23 0.46 0.31 0.15 0.16 0.11 0.14 0.44 0.28 0.23 0.26 0.14 0.07
1.83 1.02 0.31 0.41 0.53 0.66 0.51 0.38 0.39 0.53 0.26 0.08 0.10 0.14 0.29 0.44 0.54 0.54 0.30 0.20 0.20 0.16 0.29 0.19 0.23 0.21 0.12 0.06 0.03 0.03 0.05 0.16 0.25 0.16 0.07 0.03 0.00 0.00 0.07 0.14 0.23 0.14 0.07 0.02
1.01 1.21 0.67 0.56 0.63 0.59 0.47 0.39 0.41 0.46 0.29 0.10 0.06 0.07 0.19 0.43 0.62 0.63 0.44 0.33 0.41 0.38 0.41 0.40 0.25 0.38 0.12 0.05 0.11 0.03 0.05 0.18 0.27 0.10 0.12 0.02 0.00 0.00 0.01 0.02 0.20 0.02 0.05 0.04
1.03 0.82 0.65 0.33 0.30 0.45 0.49 0.41 0.64 0.54 0.31 0.07 0.06 0.08 0.12 0.34 0.69 0.78 0.56 0.51 0.73 0.49 0.38 0.38 0.26 0.16 0.03 0.01 0.04 0.05 0.11 0.19 0.28 0.16 0.18 0.01 0.00 0.00 0.01 0.10 0.16 0.02 0.06 0.06
0.79 0.57 0.43 0.38 0.35 0.47 0.52 0.36 0.49 0.44 0.32 0.06 0.03 0.03 0.06 0.14 0.44 0.83 0.68 0.64 0.79 0.73 0.43 0.37 0.17 0.10 0.04 0.00 0.00 0.00 0.03 0.05 0.09 0.14 0.10 0.00 0.00 0.00 0.01 0.01 0.02 0.03 0.10 0.03
0.71 0.54 0.37 0.31 0.24 0.32 0.42 0.33 0.20 0.31 0.30 0.11 0.05 0.02 0.03 0.05 0.17 0.51 0.73 0.58 0.50 0.46 0.35 0.29 0.13 0.09 0.15 0.02 0.01 0.00 0.00 0.00 0.00 0.00 0.00 0.00 0.00 0.00 0.00 0.00 0.00 0.00 0.02 0.10
0.57 0.47 0.38 0.30 0.32 0.42 0.45 0.26 0.19 0.29 0.28 0.12 0.05 0.04 0.02 0.02 0.08 0.25 0.66 0.66 0.45 0.41 0.44 0.39 0.26 0.16 0.02 0.05 0.05 0.00 0.00 0.00 0.00 0.00 0.00 0.00 0.00 0.00 0.00 0.00 0.00 0.00 0.00 0.01
0.62 0.53 0.47 0.33 0.33 0.35 0.41 0.18 0.24 0.27 0.28 0.19 0.10 0.04 0.03 0.01 0.07 0.20 0.41 0.81 0.71 0.56 0.39 0.41 0.40 0.28 0.13 0.01 0.00 0.00 0.01 0.00 0.00 0.01 0.00 0.00 0.00 0.00 0.00 0.01 0.02 0.00 0.00 0.01
0.66 0.57 0.55 0.35 0.33 0.38 0.31 0.14 0.29 0.30 0.39 0.41 0.16 0.05 0.02 0.03 0.15 0.25 0.38 0.56 0.77 0.62 0.68 0.37 0.25 0.20 0.07 0.02 0.00 0.00 0.00 0.00 0.01 0.03 0.01 0.02 0.02 0.01 0.00 0.00 0.01 0.01 0.02 0.01
0.65 0.67 0.60 0.41 0.38 0.51 0.45 0.35 0.32 0.35 0.40 0.52 0.28 0.14 0.07 0.07 0.20 0.35 0.43 0.46 0.58 0.64 0.67 0.43 0.21 0.07 0.13 0.10 0.01 0.00 0.00 0.00 0.00 0.00 0.00 0.01 0.01 0.01 0.01 0.00 0.00 0.00 0.00 0.01
0.75 0.79 0.63 0.44 0.52 0.50 0.40 0.19 0.37 0.33 0.35 0.45 0.39 0.21 0.11 0.15 0.19 0.33 0.46 0.54 0.51 0.55 0.67 0.37 0.19 0.14 0.26 0.18 0.02 0.00 0.00 0.00 0.00 0.00 0.00 0.00 0.00 0.00 0.00 0.00 0.00 0.03 0.02 0.01
0.83 0.73 0.53 0.56 0.58 0.53 0.34 0.12 0.27 0.44 0.64 0.50 0.45 0.24 0.19 0.29 0.39 0.42 0.47 0.81 0.68 0.59 0.48 0.29 0.15 0.16 0.26 0.18 0.00 0.00 0.00 0.00 0.00 0.00 0.00 0.00 0.00 0.00 0.02 0.01 0.00 0.00 0.01 0.02
0.79 0.66 0.61 0.70 0.35 0.19 0.24 0.46 0.57 0.41 0.82 0.94 0.33 0.34 0.35 0.39 0.63 0.56 0.95 0.73 0.98 0.56 0.42 0.19 0.27 0.22 0.16 0.02 0.00 0.00 0.00 0.00 0.00 0.00 0.00 0.00 0.00 0.01 0.03 0.03 0.01 0.00 0.00 0.01
1.10 1.04 0.89 0.61 0.25 0.46 0.80 0.89 0.88 0.87 0.71 0.53 0.33 0.24 0.48 0.48 0.58 0.61 1.04 0.85 0.71 0.63 0.31 0.34 0.38 0.13 0.03 0.01 0.00 0.00 0.00 0.00 0.00 0.01 0.01 0.00 0.00 0.00 0.02 0.03 0.05 0.00 0.00 0.01
1.47 1.14 0.68 0.44 0.57 1.12 0.90 1.13 0.78 0.56 0.32 0.15 0.09 0.15 0.41 0.58 0.80 0.78 0.65 0.96 0.58 0.40 0.26 0.44 0.34 0.18 0.06 0.01 0.00 0.01 0.01 0.01 0.00 0.01 0.02 0.03 0.02 0.01 0.01 0.02 0.05 0.03 0.03 0.04
0.97 0.76 1.01 0.86 0.95 1.10 0.65 0.57 0.40 0.24 0.05 0.08 0.16 0.26 0.44 0.62 0.71 0.66 0.82 0.73 0.83 0.48 0.49 0.55 0.15 0.05 0.02 0.01 0.01 0.01 0.02 0.02 0.02 0.01 0.01 0.02 0.04 0.04 0.04 0.05 0.08 0.09 0.08 0.06
1.05 1.45 1.62 0.86 0.83 0.69 0.33 0.18 0.20 0.10 0.14 0.20 0.26 0.42 0.40 0.52 0.73 0.49 0.46 0.58 0.44 0.58 0.79 0.44 0.19 0.14 0.08 0.02 0.01 0.02 0.03 0.04 0.05 0.07 0.06 0.06 0.05 0.04 0.04 0.06 0.07 0.06 0.03 0.02
2.45 2.10 1.49 0.50 0.46 0.14 0.17 0.05 0.09 0.10 0.03 0.11 0.28 0.30 0.22 0.30 0.47 0.49 0.36 0.25 0.25 0.35 0.36 0.22 0.20 0.29 0.22 0.16 0.12 0.13 0.18 0.21 0.14 0.12 0.11 0.17 0.09 0.03 0.02 0.01 0.04 0.06 0.02 0.01
2.14 1.23 0.66 0.20 0.12 0.10 0.07 0.06 0.05 0.03 0.03 0.09 0.13 0.15 0.11 0.11 0.18 0.17 0.23 0.26 0.18 0.18 0.28 0.14 0.16 0.56 0.46 0.29 0.35 0.45 0.73 0.83 0.62 0.44 0.40 0.38 0.26 0.20 0.15 0.09 0.05 0.03 0.04 0.04
2.11 1.07 0.43 0.12 0.05 0.05 0.05 0.07 0.07 0.04 0.05 0.17 0.23 0.13 0.10 0.06 0.08 0.12 0.08 0.15 0.30 0.32 0.20 0.10 0.10 0.24 0.33 0.21 0.25 0.38 0.61 0.77 0.78 0.54 0.38 0.38 0.40 0.37 0.31 0.21 0.22 0.20 0.15 0.11
2.14 0.58 0.08 0.07 0.05 0.06 0.06 0.05 0.02 0.01 0.04 0.16 0.43 0.37 0.09 0.07 0.11 0.04 0.02 0.10 0.19 0.21 0.16 0.10 0.06 0.04 0.05 0.08 0.10 0.14 0.18 0.20 0.22 0.17 0.14 0.13 0.16 0.28 0.28 0.21 0.24 0.28 0.25 0.12

GFSNW_prec_precacc_120.txt.gz
Total_Precipitation_Accumulation
1.72 1.46 1.28 0.98 1.39 2.41 1.35 1.43 1.97 1.69 2.21 3.35 2.67 1.73 1.41 1.48 0.94 0.65 0.54 0.25 0.23 0.20 0.19 0.26 0.65 0.68 0.20 0.05 0.03 0.13 0.40 0.87 1.09 0.93 0.33 0.27 0.40 0.35 0.34 0.87 0.48 0.44 0.44 0.48
1.81 1.72 1.49 1.12 1.28 2.31 1.70 1.48 1.82 2.47 1.67 1.68 1.19 1.11 1.18 1.22 0.70 0.56 0.60 0.31 0.23 0.20 0.14 0.26 0.22 0.60 0.15 0.02 0.02 0.31 0.58 1.05 1.11 0.89 0.64 0.63 0.84 0.42 0.36 0.60 0.99 0.71 0.63 0.40
1.45 1.29 1.14 1.30 1.57 1.84 1.80 1.59 2.19 2.97 2.58 0.84 0.74 1.21 1.40 1.07 0.59 0.48 0.58 0.35 0.26 0.20 0.09 0.06 0.10 0.71 0.19 0.03 0.07 0.10 0.50 1.00 1.09 0.90 0.53 0.60 0.83 0.45 0.57 1.13 1.11 0.42 0.44 0.12
1.57 1.16 0.77 0.76 1.49 1.42 1.43 1.37 1.22 0.90 0.82 0.65 0.36 0.79 1.01 0.83 0.82 0.53 0.68 0.55 0.34 0.47 0.24 0.08 0.06 0.50 0.42 0.18 0.15 0.10 0.50 1.09 0.92 0.49 0.29 0.42 0.57 0.56 0.49 0.94 0.52 0.60 0.22 0.08
1.85 1.67 0.94 0.57 0.81 1.29 0.99 0.87 1.12 0.43 0.16 0.19 0.24 0.62 0.80 0.64 0.61 0.57 0.41 0.37 0.21 0.30 0.26 0.23 0.10 0.12 0.38 0.36 0.10 0.22 0.35 0.72 0.75 0.61 0.24 0.38 0.48 0.55 0.36 0.56 0.29 0.29 0.18 0.14
1.39 1.18 1.16 1.17 1.12 1.73 1.12 0.70 0.79 0.51 0.26 0.16 0.38 0.36 0.49 0.63 0.60 0.34 0.16 0.23 0.35 0.24 0.08 0.07 0.02 0.01 0.01 0.09 0.19 0.20 0.28 0.51 0.75 0.67 0.48 0.28 0.47 0.58 0.69 0.49 0.21 0.25 0.28 0.15
1.97 1.17 0.82 1.11 0.89 1.07 0.92 0.56 0.48 0.59 0.24 0.10 0.10 0.21 0.31 0.44 0.52 0.47 0.19 0.24 0.30 0.15 0.16 0.06 0.03 0.02 0.01 0.03 0.03 0.03 0.06 0.23 0.46 0.31 0.15 0.16 0.11 0.14 0.44 0.28 0.23 0.26 0.14 0.07
1.83 1.02 0.31 0.41 0.53 0.66 0.51 0.38 0.39 0.53 0.26 0.08 0.10 0.14 0.29 0.44 0.54 0.54 0.30 0.20 0.20 0.16 0.29 0.19 0.23 0.21 0.12 0.06 0.03 0.03 0.05 0.16 0.25 0.16 0.07 0.03 0.00 0.00 0.07 0.14 0.23 0.14 0.07 0.02
1.01 1.21 0.67 0.56 0.63 0.59 0.47 0.39 0.41 0.46 0.29 0.10 0.06 0.07 0.19 0.43 0.62 0.63 0.44 0.33 0.41 0.38 0.41 0.40 0.25 0.38 0.12 0.05 0.11 0.03 0.05 0.18 0.27 0.10 0.12 0.02 0.00 0.00 0.01 0.02 0.21 0.02 0.05 0.04
1.03 0.82 0.66 0.33 0.30 0.45 0.49 0.41 0.64 0.54 0.31 0.07 0.06 0.08 0.12 0.34 0.69 0.78 0.56 0.51 0.73 0.49 0.38 0.38 0.26 0.16 0.03 0.01 0.04 0.05 0.11 0.19 0.28 0.16 0.18 0.01 0.00 0.00 0.01 0.10 0.16 0.02 0.06 0.06
0.79 0.58 0.43 0.38 0.35 0.47 0.52 0.36 0.49 0.44 0.32 0.06 0.03 0.03 0.06 0.14 0.44 0.83 0.68 0.64 0.79 0.73 0.43 0.37 0.17 0.10 0.04 0.00 0.00 0.00 0.03 0.05 0.09 0.14 0.10 0.00 0.00 0.00 0.01 0.01 0.02 0.03 0.10 0.03
0.71 0.54 0.37 0.31 0.24 0.32 0.42 0.33 0.20 0.31 0.30 0.11 0.05 0.02 0.03 0.05 0.17 0.51 0.73 0.58 0.50 0.46 0.35 0.29 0.13 0.09 0.15 0.02 0.01 0.00 0.00 0.00 0.00 0.00 0.00 0.00 0.00 0.00 0.00 0.00 0.00 0.00 0.02 0.10
0.57 0.47 0.38 0.30 0.32 0.42 0.45 0.26 0.19 0.29 0.28 0.12 0.05 0.04 0.02 0.02 0.08 0.25 0.66 0.66 0.45 0.41 0.44 0.39 0.26 0.16 0.02 0.05 0.05 0.00 0.00 0.00 0.00 0.00 0.00 0.00 0.00 0.00 0.00 0.00 0.00 0.00 0.00 0.01
0.62 0.53 0.47 0.33 0.33 0.35 0.41 0.18 0.24 0.27 0.28 0.19 0.10 0.04 0.03 0.01 0.07 0.20 0.41 0.81 0.71 0.56 0.39 0.41 0.40 0.28 0.13 0.01 0.00 0.00 0.01 0.00 0.00 0.01 0.00 0.00 0.00 0.00 0.00 0.01 0.02 0.00 0.00 0.01
0.66 0.57 0.55 0.35 0.33 0.38 0.31 0.14 0.29 0.30 0.39 0.41 0.16 0.05 0.02 0.03 0.15 0.25 0.38 0.56 0.77 0.62 0.68 0.37 0.25 0.20 0.07 0.02 0.00 0.00 0.00 0.00 0.01 0.03 0.01 0.02 0.02 0.01 0.00 0.00 0.01 0.01 0.02 0.01
0.65 0.67 0.60 0.41 0.38 0.51 0.45 0.35 0.32 0.35 0.40 0.52 0.28 0.14 0.07 0.07 0.20 0.35 0.43 0.46 0.58 0.64 0.67 0.43 0.21 0.07 0.13 0.10 0.01 0.00 0.00 0.00 0.00 0.00 0.00 0.01 0.01 0.01 0.01 0.00 0.00 0.00 0.00 0.01
0.75 0.79 0.63 0.44 0.52 0.50 0.40 0.19 0.37 0.33 0.35 0.45 0.39 0.21 0.11 0.15 0.19 0.33 0.46 0.54 0.51 0.55 0.67 0.37 0.19 0.14 0.26 0.18 0.02 0.00 0.00 0.00 0.00 0.00 0.00 0.00 0.00 0.00 0.00 0.00 0.00 0.03 0.02 0.01
0.83 0.73 0.53 0.56 0.58 0.53 0.34 0.12 0.27 0.44 0.64 0.50 0.45 0.24 0.19 0.29 0.39 0.42 0.47 0.81 0.68 0.59 0.48 0.29 0.15 0.16 0.26 0.18 0.00 0.00 0.00 0.00 0.00 0.00 0.00 0.00 0.00 0.00 0.02 0.01 0.00 0.00 0.01 0.02
0.79 0.66 0.61 0.70 0.35 0.19 0.24 0.46 0.57 0.41 0.82 0.94 0.33 0.34 0.35 0.39 0.63 0.56 0.95 0.73 0.98 0.56 0.42 0.19 0.27 0.22 0.16 0.02 0.00 0.00 0.00 0.00 0.00 0.00 0.00 0.00 0.00 0.01 0.03 0.03 0.01 0.00 0.00 0.01
1.10 1.04 0.89 0.61 0.25 0.46 0.80 0.89 0.88 0.87 0.71 0.53 0.33 0.24 0.48 0.48 0.58 0.61 1.04 0.85 0.71 0.63 0.31 0.34 0.38 0.13 0.03 0.01 0.00 0.00 0.00 0.00 0.00 0.01 0.01 0.00 0.00 0.00 0.02 0.03 0.05 0.00 0.00 0.01
1.47 1.14 0.68 0.44 0.57 1.12 0.90 1.13 0.78 0.56 0.32 0.15 0.09 0.15 0.41 0.58 0.80 0.78 0.65 0.96 0.58 0.40 0.26 0.44 0.34 0.18 0.06 0.01 0.00 0.01 0.01 0.01 0.00 0.01 0.02 0.03 0.02 0.01 0.01 0.02 0.05 0.03 0.03 0.04
0.97 0.76 1.01 0.86 0.95 1.10 0.65 0.57 0.40 0.24 0.05 0.08 0.16 0.26 0.44 0.62 0.71 0.66 0.82 0.73 0.83 0.48 0.49 0.55 0.15 0.05 0.02 0.01 0.01 0.01 0.02 0.02 0.02 0.01 0.01 0.02 0.04 0.04 0.04 0.05 0.08 0.09 0.08 0.06
1.06 1.45 1.62 0.86 0.83 0.69 0.33 0.18 0.20 0.10 0.14 0.20 0.26 0.42 0.40 0.52 0.73 0.49 0.46 0.58 0.44 0.58 0.79 0.44 0.19 0.14 0.08 0.02 0.01 0.02 0.03 0.04 0.05 0.07 0.06 0.06 0.05 0.04 0.04 0.06 0.07 0.06 0.03 0.02
2.45 2.10 1.49 0.50 0.46 0.14 0.17 0.05 0.09 0.10 0.03 0.11 0.28 0.30 0.22 0.30 0.47 0.49 0.36 0.25 0.25 0.35 0.36 0.22 0.20 0.29 0.22 0.16 0.12 0.13 0.18 0.21 0.14 0.12 0.11 0.17 0.09 0.03 0.02 0.01 0.04 0.06 0.02 0.01
2.14 1.24 0.66 0.20 0.12 0.10 0.07 0.06 0.05 0.03 0.03 0.09 0.13 0.15 0.11 0.11 0.18 0.17 0.23 0.26 0.18 0.18 0.28 0.14 0.16 0.56 0.46 0.29 0.35 0.45 0.73 0.83 0.62 0.44 0.40 0.38 0.26 0.20 0.15 0.09 0.05 0.03 0.04 0.04
2.16 1.09 0.43 0.12 0.05 0.05 0.05 0.07 0.07 0.04 0.05 0.17 0.23 0.13 0.10 0.06 0.08 0.12 0.08 0.15 0.30 0.32 0.20 0.10 0.10 0.24 0.33 0.21 0.25 0.38 0.61 0.77 0.78 0.54 0.38 0.38 0.40 0.37 0.31 0.21 0.22 0.20 0.15 0.11
2.24 0.60 0.08 0.07 0.05 0.06 0.06 0.05 0.02 0.01 0.04 0.16 0.44 0.38 0.09 0.07 0.11 0.04 0.02 0.10 0.19 0.21 0.16 0.10 0.06 0.04 0.05 0.08 0.10 0.14 0.18 0.20 0.22 0.17 0.14 0.13 0.16 0.28 0.28 0.21 0.24 0.28 0.25 0.12

GFSNW_prec_precacc_123.txt.gz
Total_Precipitation_Accumulation
1.72 1.46 1.29 0.99 1.40 2.42 1.35 1.45 2.03 1.73 2.21 3.35 2.67 1.73 1.41 1.48 0.94 0.65 0.54 0.25 0.23 0.20 0.19 0.26 0.65 0.68 0.20 0.05 0.03 0.13 0.41 0.87 1.10 0.94 0.33 0.27 0.40 0.35 0.34 0.88 0.49 0.46 0.50 0.70
1.81 1.72 1.50 1.12 1.28 2.31 1.70 1.49 1.87 2.48 1.67 1.68 1.19 1.11 1.18 1.22 0.70 0.56 0.60 0.31 0.23 0.20 0.14 0.26 0.22 0.60 0.15 0.02 0.02 0.31 0.58 1.05 1.11 0.89 0.65 0.64 0.85 0.42 0.36 0.60 0.99 0.72 0.71 0.64
1.45 1.29 1.14 1.30 1.57 1.84 1.80 1.59 2.20 2.98 2.58 0.84 0.74 1.21 1.40 1.07 0.59 0.48 0.58 0.35 0.26 0.20 0.09 0.06 0.10 0.71 0.19 0.03 0.07 0.10 0.50 1.00 1.10 0.96 0.61 0.62 0.85 0.46 0.57 1.13 1.11 0.43 0.54 0.17
1.57 1.16 0.77 0.76 1.49 1.42 1.43 1.37 1.22 0.90 0.82 0.65 0.36 0.79 1.01 0.83 0.82 0.53 0.68 0.55 0.34 0.47 0.24 0.08 0.06 0.50 0.42 0.18 0.15 0.10 0.50 1.09 0.92 0.49 0.29 0.42 0.57 0.57 0.49 0.94 0.52 0.62 0.24 0.08
1.85 1.67 0.94 0.57 0.81 1.29 0.99 0.87 1.12 0.43 0.16 0.19 0.24 0.62 0.80 0.64 0.61 0.57 0.41 0.37 0.21 0.30 0.26 0.23 0.10 0.12 0.38 0.36 0.10 0.22 0.35 0.72 0.75 0.61 0.24 0.38 0.48 0.55 0.36 0.57 0.29 0.29 0.18 0.14
1.39 1.18 1.16 1.17 1.12 1.73 1.12 0.70 0.79 0.51 0.26 0.16 0.38 0.36 0.49 0.63 0.60 0.34 0.16 0.23 0.35 0.24 0.08 0.07 0.02 0.01 0.01 0.09 0.19 0.20 0.28 0.51 0.75 0.67 0.48 0.28 0.47 0.58 0.69 0.49 0.21 0.25 0.28 0.15
1.97 1.17 0.82 1.11 0.89 1.07 0.92 0.56 0.48 0.59 0.24 0.10 0.10 0.21 0.31 0.44 0.52 0.47 0.19 0.24 0.30 0.15 0.16 0.06 0.03 0.02 0.01 0.03 0.03 0.03 0.06 0.23 0.46 0.31 0.15 0.16 0.11 0.14 0.44 0.28 0.23 0.26 0.14 0.07
1.83 1.02 0.31 0.41 0.53 0.66 0.51 0.38 0.39 0.53 0.26 0.08 0.10 0.14 0.29 0.44 0.54 0.54 0.30 0.20 0.20 0.16 0.29 0.19 0.23 0.21 0.12 0.06 0.03 0.03 0.05 0.16 0.25 0.16 0.07 0.03 0.00 0.00 0.07 0.14 0.23 0.14 0.07 0.02
1.01 1.21 0.67 0.56 0.63 0.59 0.47 0.39 0.41 0.46 0.29 0.10 0.06 0.07 0.19 0.43 0.62 0.63 0.44 0.33 0.41 0.38 0.41 0.40 0.25 0.38 0.12 0.05 0.11 0.03 0.05 0.18 0.27 0.10 0.12 0.02 0.00 0.00 0.01 0.02 0.21 0.02 0.05 0.04
1.03 0.82 0.66 0.33 0.30 0.45 0.49 0.41 0.64 0.54 0.31 0.07 0.06 0.08 0.12 0.34 0.69 0.78 0.56 0.51 0.73 0.49 0.38 0.38 0.26 0.16 0.03 0.01 0.04 0.05 0.11 0.19 0.28 0.16 0.18 0.01 0.00 0.00 0.01 0.10 0.16 0.02 0.06 0.06
0.79 0.58 0.43 0.38 0.35 0.47 0.52 0.36 0.49 0.44 0.32 0.06 0.03 0.03 0.06 0.14 0.44 0.83 0.68 0.64 0.79 0.73 0.43 0.37 0.17 0.10 0.04 0.00 0.00 0.00 0.03 0.05 0.09 0.14 0.10 0.00 0.00 0.00 0.01 0.01 0.02 0.03 0.10 0.03
0.71 0.54 0.37 0.31 0.24 0.32 0.42 0.33 0.20 0.31 0.30 0.11 0.05 0.02 0.03 0.05 0.17 0.51 0.73 0.58 0.50 0.46 0.35 0.29 0.13 0.09 0.15 0.02 0.01 0.00 0.00 0.00 0.00 0.00 0.00 0.00 0.00 0.00 0.00 0.00 0.00 0.00 0.02 0.10
0.57 0.47 0.38 0.30 0.32 0.42 0.45 0.26 0.19 0.29 0.28 0.12 0.05 0.04 0.02 0.02 0.08 0.25 0.66 0.66 0.45 0.41 0.44 0.39 0.26 0.16 0.02 0.05 0.05 0.00 0.00 0.00 0.00 0.00 0.00 0.00 0.00 0.00 0.00 0.00 0.00 0.00 0.00 0.01
0.63 0.53 0.47 0.33 0.33 0.35 0.41 0.18 0.24 0.27 0.28 0.19 0.10 0.04 0.03 0.01 0.07 0.20 0.41 0.81 0.71 0.56 0.39 0.41 0.40 0.28 0.13 0.01 0.00 0.00 0.01 0.00 0.00 0.01 0.00 0.00 0.00 0.00 0.00 0.01 0.02 0.00 0.00 0.01
0.66 0.57 0.55 0.35 0.33 0.38 0.31 0.14 0.29 0.30 0.39 0.41 0.16 0.05 0.02 0.03 0.15 0.25 0.38 0.56 0.77 0.62 0.68 0.37 0.25 0.20 0.07 0.02 0.00 0.00 0.00 0.00 0.01 0.03 0.01 0.02 0.02 0.01 0.00 0.00 0.01 0.01 0.02 0.01
0.65 0.67 0.60 0.41 0.38 0.51 0.45 0.35 0.32 0.35 0.40 0.52 0.28 0.14 0.07 0.07 0.20 0.35 0.43 0.46 0.58 0.64 0.67 0.43 0.21 0.07 0.13 0.10 0.01 0.00 0.00 0.00 0.00 0.00 0.00 0.01 0.01 0.01 0.01 0.00 0.00 0.00 0.00 0.01
0.75 0.79 0.63 0.44 0.52 0.50 0.40 0.19 0.37 0.33 0.35 0.45 0.39 0.21 0.11 0.15 0.19 0.33 0.46 0.54 0.51 0.55 0.67 0.37 0.19 0.14 0.26 0.18 0.02 0.00 0.00 0.00 0.00 0.00 0.00 0.00 0.00 0.00 0.00 0.00 0.00 0.03 0.02 0.01
0.83 0.73 0.53 0.56 0.58 0.53 0.34 0.12 0.27 0.44 0.64 0.50 0.45 0.24 0.19 0.29 0.39 0.42 0.47 0.81 0.68 0.59 0.48 0.29 0.15 0.16 0.26 0.18 0.00 0.00 0.00 0.00 0.00 0.00 0.00 0.00 0.00 0.00 0.02 0.01 0.00 0.00 0.01 0.02
0.79 0.66 0.61 0.70 0.35 0.19 0.24 0.46 0.57 0.41 0.82 0.94 0.33 0.34 0.35 0.39 0.63 0.56 0.95 0.73 0.98 0.56 0.42 0.19 0.27 0.22 0.16 0.02 0.00 0.00 0.00 0.00 0.00 0.00 0.00 0.00 0.00 0.01 0.03 0.03 0.01 0.00 0.00 0.01
1.10 1.04 0.89 0.61 0.25 0.46 0.80 0.89 0.88 0.87 0.71 0.53 0.33 0.24 0.48 0.48 0.58 0.61 1.04 0.85 0.71 0.63 0.31 0.34 0.38 0.13 0.03 0.01 0.00 0.00 0.00 0.00 0.00 0.01 0.01 0.00 0.00 0.00 0.02 0.03 0.05 0.00 0.00 0.01
1.47 1.14 0.68 0.44 0.57 1.12 0.90 1.13 0.78 0.56 0.32 0.15 0.09 0.15 0.41 0.58 0.80 0.78 0.65 0.96 0.58 0.40 0.26 0.44 0.34 0.18 0.06 0.01 0.00 0.01 0.01 0.01 0.00 0.01 0.02 0.03 0.02 0.01 0.01 0.02 0.05 0.03 0.03 0.04
0.97 0.76 1.01 0.86 0.95 1.10 0.65 0.57 0.40 0.24 0.05 0.08 0.16 0.26 0.44 0.62 0.71 0.66 0.82 0.73 0.83 0.48 0.49 0.55 0.15 0.05 0.02 0.01 0.01 0.01 0.02 0.02 0.02 0.01 0.01 0.02 0.04 0.04 0.04 0.05 0.08 0.09 0.08 0.06
1.06 1.45 1.62 0.86 0.83 0.69 0.33 0.18 0.20 0.10 0.14 0.20 0.26 0.42 0.40 0.52 0.73 0.49 0.46 0.58 0.44 0.58 0.79 0.44 0.19 0.14 0.08 0.02 0.01 0.02 0.03 0.04 0.05 0.07 0.06 0.06 0.05 0.04 0.04 0.06 0.07 0.06 0.03 0.02
2.45 2.10 1.49 0.50 0.46 0.14 0.17 0.05 0.09 0.10 0.03 0.11 0.28 0.30 0.22 0.30 0.47 0.49 0.36 0.25 0.25 0.35 0.36 0.22 0.20 0.29 0.22 0.16 0.12 0.13 0.18 0.21 0.14 0.12 0.11 0.17 0.09 0.03 0.02 0.01 0.04 0.06 0.02 0.01
2.15 1.25 0.66 0.20 0.12 0.10 0.07 0.06 0.05 0.03 0.03 0.09 0.13 0.15 0.11 0.11 0.18 0.17 0.23 0.26 0.18 0.18 0.28 0.14 0.16 0.56 0.46 0.29 0.35 0.45 0.73 0.83 0.62 0.44 0.40 0.38 0.26 0.20 0.15 0.09 0.05 0.03 0.04 0.04
2.24 1.12 0.43 0.12 0.05 0.05 0.05 0.07 0.07 0.04 0.05 0.17 0.23 0.13 0.10 0.06 0.08 0.12 0.08 0.15 0.30 0.32 0.20 0.10 0.10 0.24 0.33 0.21 0.25 0.38 0.61 0.77 0.78 0.54 0.38 0.38 0.40 0.37 0.31 0.21 0.22 0.20 0.15 0.11
2.33 0.63 0.08 0.07 0.05 0.06 0.06 0.05 0.02 0.01 0.04 0.16 0.44 0.38 0.09 0.07 0.11 0.04 0.02 0.10 0.19 0.21 0.16 0.10 0.06 0.04 0.05 0.08 0.10 0.14 0.18 0.20 0.22 0.17 0.14 0.13 0.16 0.28 0.28 0.21 0.24 0.28 0.25 0.12

GFSNW_prec_precacc_126.txt.gz
Total_Precipitation_Accumulation
1.72 1.46 1.29 0.99 1.40 2.42 1.35 1.45 2.03 1.73 2.21 3.35 2.67 1.73 1.41 1.48 0.94 0.65 0.54 0.25 0.23 0.20 0.19 0.26 0.65 0.68 0.20 0.05 0.03 0.14 0.41 0.88 1.12 0.95 0.33 0.27 0.40 0.37 0.37 0.90 0.50 0.48 0.55 0.80
1.81 1.72 1.50 1.12 1.28 2.31 1.70 1.49 1.87 2.48 1.67 1.68 1.19 1.11 1.18 1.22 0.70 0.56 0.60 0.31 0.23 0.20 0.14 0.26 0.22 0.60 0.15 0.02 0.02 0.31 0.58 1.05 1.11 0.89 0.65 0.64 0.85 0.42 0.37 0.61 1.00 0.73 0.77 0.80
1.45 1.29 1.14 1.30 1.57 1.84 1.80 1.59 2.21 2.98 2.58 0.84 0.74 1.21 1.40 1.07 0.59 0.48 0.58 0.35 0.26 0.20 0.09 0.06 0.10 0.71 0.19 0.03 0.07 0.10 0.50 1.00 1.11 0.98 0.65 0.62 0.85 0.46 0.57 1.13 1.12 0.46 0.67 0.28
1.57 1.16 0.77 0.76 1.49 1.42 1.43 1.37 1.22 0.90 0.82 0.65 0.36 0.79 1.01 0.83 0.82 0.53 0.68 0.55 0.34 0.47 0.24 0.08 0.06 0.50 0.42 0.18 0.15 0.10 0.50 1.10 0.92 0.50 0.29 0.42 0.57 0.57 0.49 0.94 0.52 0.63 0.27 0.11
1.85 1.67 0.94 0.57 0.81 1.29 0.99 0.87 1.12 0.43 0.16 0.19 0.24 0.62 0.80 0.64 0.61 0.57 0.41 0.37 0.21 0.30 0.26 0.23 0.10 0.12 0.38 0.36 0.10 0.22 0.35 0.72 0.75 0.61 0.24 0.38 0.48 0.55 0.36 0.57 0.29 0.29 0.18 0.14
1.39 1.18 1.16 1.17 1.12 1.73 1.12 0.70 0.79 0.51 0.26 0.16 0.38 0.36 0.49 0.63 0.60 0.34 0.16 0.23 0.35 0.24 0.08 0.07 0.02 0.01 0.01 0.09 0.19 0.20 0.28 0.51 0.75 0.67 0.48 0.28 0.47 0.58 0.69 0.49 0.21 0.25 0.28 0.15
1.97 1.17 0.82 1.11 0.89 1.07 0.92 0.56 0.48 0.59 0.24 0.10 0.10 0.21 0.31 0.44 0.52 0.47 0.19 0.24 0.30 0.15 0.16 0.06 0.03 0.02 0.01 0.03 0.03 0.03 0.06 0.23 0.46 0.31 0.15 0.16 0.11 0.14 0.44 0.28 0.23 0.26 0.14 0.07
1.83 1.02 0.31 0.41 0.53 0.66 0.51 0.38 0.39 0.53 0.26 0.08 0.10 0.14 0.29 0.44 0.54 0.54 0.30 0.20 0.20 0.16 0.29 0.19 0.23 0.21 0.12 0.06 0.03 0.03 0.05 0.16 0.25 0.16 0.07 0.03 0.00 0.00 0.07 0.14 0.23 0.14 0.07 0.02
1.01 1.21 0.67 0.56 0.63 0.59 0.47 0.39 0.41 0.46 0.29 0.10 0.06 0.07 0.19 0.43 0.62 0.63 0.44 0.33 0.41 0.38 0.41 0.40 0.25 0.38 0.12 0.05 0.11 0.03 0.05 0.18 0.27 0.10 0.12 0.02 0.00 0.00 0.01 0.02 0.21 0.02 0.05 0.04
1.03 0.82 0.66 0.33 0.30 0.45 0.49 0.41 0.64 0.54 0.31 0.07 0.06 0.08 0.12 0.34 0.69 0.78 0.56 0.51 0.73 0.49 0.38 0.38 0.26 0.16 0.03 0.01 0.04 0.05 0.11 0.19 0.28 0.16 0.18 0.01 0.00 0.00 0.01 0.10 0.16 0.02 0.06 0.06
0.79 0.58 0.43 0.38 0.35 0.47 0.52 0.36 0.49 0.44 0.32 0.06 0.03 0.03 0.06 0.14 0.44 0.83 0.68 0.64 0.79 0.73 0.43 0.37 0.17 0.10 0.04 0.00 0.00 0.00 0.03 0.05 0.09 0.14 0.10 0.00 0.00 0.00 0.01 0.01 0.02 0.03 0.10 0.03
0.71 0.54 0.37 0.31 0.24 0.32 0.42 0.33 0.20 0.31 0.30 0.11 0.05 0.02 0.03 0.05 0.17 0.51 0.73 0.58 0.50 0.46 0.35 0.29 0.13 0.09 0.15 0.02 0.01 0.00 0.00 0.00 0.00 0.00 0.00 0.00 0.00 0.00 0.00 0.00 0.00 0.00 0.02 0.10
0.57 0.47 0.38 0.30 0.32 0.42 0.45 0.26 0.19 0.29 0.28 0.12 0.05 0.04 0.02 0.02 0.08 0.25 0.66 0.66 0.45 0.41 0.44 0.39 0.26 0.16 0.02 0.05 0.05 0.00 0.00 0.00 0.00 0.00 0.00 0.00 0.00 0.00 0.00 0.00 0.00 0.00 0.00 0.01
0.63 0.53 0.47 0.33 0.33 0.35 0.41 0.18 0.24 0.27 0.28 0.19 0.10 0.04 0.03 0.01 0.07 0.20 0.41 0.81 0.71 0.56 0.39 0.41 0.40 0.28 0.13 0.01 0.00 0.00 0.01 0.00 0.00 0.01 0.00 0.00 0.00 0.00 0.00 0.01 0.02 0.00 0.00 0.01
0.66 0.57 0.55 0.35 0.33 0.38 0.31 0.14 0.29 0.30 0.39 0.41 0.16 0.05 0.02 0.03 0.15 0.25 0.38 0.56 0.77 0.62 0.68 0.37 0.25 0.20 0.07 0.02 0.00 0.00 0.00 0.00 0.01 0.03 0.01 0.02 0.02 0.01 0.00 0.00 0.01 0.01 0.02 0.01
0.65 0.67 0.60 0.41 0.38 0.51 0.45 0.35 0.32 0.35 0.40 0.52 0.28 0.14 0.07 0.07 0.20 0.35 0.43 0.46 0.58 0.64 0.67 0.43 0.21 0.07 0.13 0.10 0.01 0.00 0.00 0.00 0.00 0.00 0.00 0.01 0.01 0.01 0.01 0.00 0.00 0.00 0.00 0.01
0.75 0.79 0.63 0.44 0.52 0.50 0.40 0.19 0.37 0.33 0.35 0.45 0.39 0.21 0.11 0.15 0.19 0.33 0.46 0.54 0.51 0.55 0.67 0.37 0.19 0.14 0.26 0.18 0.02 0.00 0.00 0.00 0.00 0.00 0.00 0.00 0.00 0.00 0.00 0.00 0.00 0.03 0.02 0.01
0.83 0.73 0.53 0.56 0.58 0.53 0.34 0.12 0.27 0.44 0.64 0.50 0.45 0.24 0.19 0.29 0.39 0.42 0.47 0.81 0.68 0.59 0.48 0.29 0.15 0.16 0.26 0.18 0.00 0.00 0.00 0.00 0.00 0.00 0.00 0.00 0.00 0.00 0.02 0.01 0.00 0.00 0.01 0.02
0.79 0.66 0.61 0.70 0.35 0.19 0.24 0.46 0.57 0.41 0.82 0.94 0.33 0.34 0.35 0.39 0.63 0.56 0.95 0.73 0.98 0.56 0.42 0.19 0.27 0.22 0.16 0.02 0.00 0.00 0.00 0.00 0.00 0.00 0.00 0.00 0.00 0.01 0.03 0.03 0.01 0.00 0.00 0.01
1.10 1.04 0.89 0.61 0.25 0.46 0.80 0.89 0.88 0.87 0.71 0.53 0.33 0.24 0.48 0.48 0.58 0.61 1.04 0.85 0.71 0.63 0.31 0.34 0.38 0.13 0.03 0.01 0.00 0.00 0.00 0.00 0.00 0.01 0.01 0.00 0.00 0.00 0.02 0.03 0.05 0.00 0.00 0.01
1.47 1.14 0.68 0.44 0.57 1.12 0.90 1.13 0.78 0.56 0.32 0.15 0.09 0.15 0.41 0.58 0.80 0.78 0.65 0.96 0.58 0.40 0.26 0.44 0.34 0.18 0.06 0.01 0.00 0.01 0.01 0.01 0.00 0.01 0.02 0.03 0.02 0.01 0.01 0.02 0.05 0.03 0.03 0.04
0.97 0.76 1.01 0.86 0.95 1.10 0.65 0.57 0.40 0.24 0.05 0.08 0.16 0.26 0.44 0.62 0.71 0.66 0.82 0.73 0.83 0.48 0.49 0.55 0.15 0.05 0.02 0.01 0.01 0.01 0.02 0.02 0.02 0.01 0.01 0.02 0.04 0.04 0.04 0.05 0.08 0.09 0.08 0.06
1.06 1.45 1.62 0.86 0.83 0.69 0.33 0.18 0.20 0.10 0.14 0.20 0.26 0.42 0.40 0.52 0.73 0.49 0.46 0.58 0.44 0.58 0.79 0.44 0.19 0.14 0.08 0.02 0.01 0.02 0.03 0.04 0.05 0.07 0.06 0.06 0.05 0.04 0.04 0.06 0.07 0.06 0.03 0.02
2.45 2.10 1.49 0.50 0.46 0.14 0.17 0.05 0.09 0.10 0.03 0.11 0.28 0.30 0.22 0.30 0.47 0.49 0.36 0.25 0.25 0.35 0.36 0.22 0.20 0.29 0.22 0.16 0.12 0.13 0.18 0.21 0.14 0.12 0.11 0.17 0.09 0.03 0.02 0.01 0.04 0.06 0.02 0.01
2.16 1.25 0.66 0.20 0.12 0.10 0.07 0.06 0.05 0.03 0.03 0.09 0.13 0.15 0.11 0.11 0.18 0.17 0.23 0.26 0.18 0.18 0.28 0.14 0.16 0.56 0.46 0.29 0.35 0.45 0.73 0.83 0.62 0.44 0.40 0.38 0.26 0.20 0.15 0.09 0.05 0.03 0.04 0.04
2.28 1.15 0.44 0.12 0.05 0.05 0.05 0.07 0.07 0.04 0.05 0.17 0.23 0.13 0.10 0.06 0.08 0.12 0.08 0.15 0.30 0.32 0.20 0.10 0.10 0.24 0.33 0.21 0.25 0.38 0.61 0.77 0.78 0.54 0.38 0.38 0.40 0.37 0.31 0.21 0.22 0.20 0.15 0.11
2.39 0.67 0.08 0.07 0.05 0.06 0.06 0.05 0.02 0.01 0.04 0.16 0.44 0.38 0.09 0.07 0.11 0.04 0.02 0.10 0.19 0.21 0.16 0.10 0.06 0.04 0.05 0.08 0.10 0.14 0.18 0.20 0.22 0.17 0.14 0.13 0.16 0.28 0.28 0.21 0.24 0.28 0.25 0.12

GFSNW_prec_precacc_129.txt.gz
Total_Precipitation_Accumulation
1.72 1.46 1.29 0.99 1.40 2.42 1.35 1.45 2.03 1.73 2.21 3.35 2.67 1.73 1.41 1.48 0.94 0.65 0.54 0.25 0.23 0.20 0.19 0.26 0.65 0.68 0.20 0.05 0.03 0.14 0.41 0.89 1.13 0.96 0.33 0.27 0.41 0.38 0.37 0.90 0.50 0.48 0.57 0.83
1.81 1.72 1.50 1.12 1.28 2.31 1.70 1.49 1.87 2.48 1.67 1.68 1.19 1.11 1.18 1.22 0.70 0.56 0.60 0.31 0.23 0.20 0.14 0.26 0.22 0.60 0.15 0.02 0.02 0.31 0.58 1.06 1.11 0.89 0.65 0.64 0.85 0.43 0.37 0.61 1.00 0.73 0.79 0.85
1.45 1.29 1.14 1.30 1.57 1.84 1.80 1.59 2.21 2.98 2.58 0.84 0.74 1.21 1.40 1.07 0.59 0.48 0.58 0.35 0.26 0.20 0.09 0.06 0.10 0.71 0.19 0.03 0.07 0.10 0.50 1.00 1.11 0.99 0.66 0.63 0.85 0.46 0.57 1.13 1.12 0.47 0.76 0.37
1.57 1.16 0.77 0.76 1.49 1.42 1.43 1.37 1.22 0.90 0.82 0.65 0.36 0.79 1.01 0.83 0.82 0.53 0.68 0.55 0.34 0.47 0.24 0.08 0.06 0.50 0.42 0.18 0.15 0.10 0.50 1.10 0.92 0.50 0.29 0.42 0.57 0.57 0.49 0.94 0.52 0.66 0.34 0.16
1.85 1.67 0.94 0.57 0.81 1.29 0.99 0.87 1.12 0.43 0.16 0.19 0.24 0.62 0.80 0.64 0.61 0.57 0.41 0.37 0.21 0.30 0.26 0.23 0.10 0.12 0.38 0.36 0.10 0.22 0.35 0.72 0.75 0.61 0.24 0.38 0.48 0.55 0.36 0.57 0.29 0.29 0.18 0.15
1.39 1.18 1.16 1.17 1.12 1.73 1.12 0.70 0.79 0.51 0.26 0.16 0.38 0.36 0.49 0.63 0.60 0.34 0.16 0.23 0.35 0.24 0.08 0.07 0.02 0.01 0.01 0.09 0.19 0.20 0.28 0.51 0.75 0.67 0.48 0.28 0.47 0.58 0.69 0.49 0.21 0.25 0.28 0.15
1.97 1.17 0.82 1.11 0.89 1.07 0.92 0.56 0.48 0.59 0.24 0.10 0.10 0.21 0.31 0.44 0.52 0.47 0.19 0.24 0.30 0.15 0.16 0.06 0.03 0.02 0.01 0.03 0.03 0.03 0.06 0.23 0.46 0.31 0.15 0.16 0.11 0.14 0.44 0.28 0.23 0.26 0.14 0.07
1.83 1.02 0.31 0.41 0.53 0.66 0.51 0.38 0.39 0.53 0.26 0.08 0.10 0.14 0.29 0.44 0.54 0.54 0.30 0.20 0.20 0.16 0.29 0.19 0.23 0.21 0.12 0.06 0.03 0.03 0.05 0.16 0.25 0.16 0.07 0.03 0.00 0.00 0.07 0.14 0.23 0.14 0.07 0.02
1.01 1.21 0.67 0.56 0.63 0.59 0.47 0.39 0.41 0.46 0.29 0.10 0.06 0.07 0.19 0.43 0.62 0.63 0.44 0.33 0.41 0.38 0.41 0.40 0.25 0.38 0.12 0.05 0.11 0.03 0.05 0.18 0.27 0.10 0.12 0.02 0.00 0.00 0.01 0.02 0.21 0.02 0.05 0.04
1.03 0.82 0.66 0.33 0.30 0.45 0.49 0.41 0.64 0.54 0.31 0.07 0.06 0.08 0.12 0.34 0.69 0.78 0.56 0.51 0.73 0.49 0.38 0.38 0.26 0.16 0.03 0.01 0.04 0.05 0.11 0.19 0.28 0.16 0.18 0.01 0.00 0.00 0.01 0.10 0.16 0.02 0.06 0.06
0.79 0.58 0.43 0.38 0.35 0.47 0.52 0.36 0.49 0.44 0.32 0.06 0.03 0.03 0.06 0.14 0.44 0.83 0.68 0.64 0.79 0.73 0.43 0.37 0.17 0.10 0.04 0.00 0.00 0.00 0.03 0.05 0.09 0.14 0.10 0.00 0.00 0.00 0.01 0.01 0.02 0.03 0.10 0.03
0.71 0.54 0.37 0.31 0.24 0.32 0.42 0.33 0.20 0.31 0.30 0.11 0.05 0.02 0.03 0.05 0.17 0.51 0.73 0.58 0.50 0.46 0.35 0.29 0.13 0.09 0.15 0.02 0.01 0.00 0.00 0.00 0.00 0.00 0.00 0.00 0.00 0.00 0.00 0.00 0.00 0.00 0.02 0.10
0.57 0.47 0.38 0.30 0.32 0.42 0.45 0.26 0.19 0.29 0.28 0.12 0.05 0.04 0.02 0.02 0.08 0.25 0.66 0.66 0.45 0.41 0.44 0.39 0.26 0.16 0.02 0.05 0.05 0.00 0.00 0.00 0.00 0.00 0.00 0.00 0.00 0.00 0.00 0.00 0.00 0.00 0.00 0.01
0.63 0.53 0.47 0.33 0.33 0.35 0.41 0.18 0.24 0.27 0.28 0.19 0.10 0.04 0.03 0.01 0.07 0.20 0.41 0.81 0.71 0.56 0.39 0.41 0.40 0.28 0.13 0.01 0.00 0.00 0.01 0.00 0.00 0.01 0.00 0.00 0.00 0.00 0.00 0.01 0.02 0.00 0.00 0.01
0.66 0.57 0.55 0.35 0.33 0.38 0.31 0.14 0.29 0.30 0.39 0.41 0.16 0.05 0.02 0.03 0.15 0.25 0.38 0.56 0.77 0.62 0.68 0.37 0.25 0.20 0.07 0.02 0.00 0.00 0.00 0.00 0.01 0.03 0.01 0.02 0.02 0.01 0.00 0.00 0.01 0.01 0.02 0.01
0.65 0.67 0.60 0.41 0.38 0.51 0.45 0.35 0.32 0.35 0.40 0.52 0.28 0.14 0.07 0.07 0.20 0.35 0.43 0.46 0.58 0.64 0.67 0.43 0.21 0.07 0.13 0.10 0.01 0.00 0.00 0.00 0.00 0.00 0.00 0.01 0.01 0.01 0.01 0.00 0.00 0.00 0.00 0.01
0.75 0.79 0.63 0.44 0.52 0.50 0.40 0.19 0.37 0.33 0.35 0.45 0.39 0.21 0.11 0.15 0.19 0.33 0.46 0.54 0.51 0.55 0.67 0.37 0.19 0.14 0.26 0.18 0.02 0.00 0.00 0.00 0.00 0.00 0.00 0.00 0.00 0.00 0.00 0.00 0.00 0.03 0.02 0.01
0.83 0.73 0.53 0.56 0.58 0.53 0.34 0.12 0.27 0.44 0.64 0.50 0.45 0.24 0.19 0.29 0.39 0.42 0.47 0.81 0.68 0.59 0.48 0.29 0.15 0.16 0.26 0.18 0.00 0.00 0.00 0.00 0.00 0.00 0.00 0.00 0.00 0.00 0.02 0.01 0.00 0.00 0.01 0.02
0.79 0.66 0.61 0.70 0.35 0.19 0.24 0.46 0.57 0.41 0.82 0.94 0.33 0.34 0.35 0.39 0.63 0.56 0.95 0.73 0.98 0.56 0.42 0.19 0.27 0.22 0.16 0.02 0.00 0.00 0.00 0.00 0.00 0.00 0.00 0.00 0.00 0.01 0.03 0.03 0.01 0.00 0.00 0.01
1.10 1.04 0.89 0.61 0.25 0.46 0.80 0.89 0.88 0.87 0.71 0.53 0.33 0.24 0.48 0.48 0.58 0.61 1.04 0.85 0.71 0.63 0.31 0.34 0.38 0.13 0.03 0.01 0.00 0.00 0.00 0.00 0.00 0.01 0.01 0.00 0.00 0.00 0.02 0.03 0.05 0.00 0.00 0.01
1.47 1.14 0.68 0.44 0.57 1.12 0.90 1.13 0.78 0.56 0.32 0.15 0.09 0.15 0.41 0.58 0.80 0.78 0.65 0.96 0.58 0.40 0.26 0.44 0.34 0.18 0.06 0.01 0.00 0.01 0.01 0.01 0.00 0.01 0.02 0.03 0.02 0.01 0.01 0.02 0.05 0.03 0.03 0.04
0.97 0.76 1.01 0.86 0.95 1.10 0.65 0.57 0.40 0.24 0.05 0.08 0.16 0.26 0.44 0.62 0.71 0.66 0.82 0.73 0.83 0.48 0.49 0.55 0.15 0.05 0.02 0.01 0.01 0.01 0.02 0.02 0.02 0.01 0.01 0.02 0.04 0.04 0.04 0.05 0.08 0.09 0.08 0.06
1.06 1.45 1.62 0.86 0.83 0.69 0.33 0.18 0.20 0.10 0.14 0.20 0.26 0.42 0.40 0.52 0.73 0.49 0.46 0.58 0.44 0.58 0.79 0.44 0.19 0.14 0.08 0.02 0.01 0.02 0.03 0.04 0.05 0.07 0.06 0.06 0.05 0.04 0.04 0.06 0.07 0.06 0.03 0.02
2.46 2.11 1.49 0.50 0.46 0.14 0.17 0.05 0.09 0.10 0.03 0.11 0.28 0.30 0.22 0.30 0.47 0.49 0.36 0.25 0.25 0.35 0.36 0.22 0.20 0.29 0.22 0.16 0.12 0.13 0.18 0.21 0.14 0.12 0.11 0.17 0.09 0.03 0.02 0.01 0.04 0.06 0.02 0.01
2.17 1.25 0.66 0.20 0.12 0.10 0.07 0.06 0.05 0.03 0.03 0.09 0.13 0.15 0.11 0.11 0.18 0.17 0.23 0.26 0.18 0.18 0.28 0.14 0.16 0.56 0.46 0.29 0.35 0.45 0.73 0.83 0.62 0.44 0.40 0.38 0.26 0.20 0.15 0.09 0.05 0.03 0.04 0.04
2.30 1.16 0.44 0.12 0.05 0.05 0.05 0.07 0.07 0.04 0.05 0.17 0.23 0.13 0.10 0.06 0.08 0.12 0.08 0.15 0.30 0.32 0.20 0.10 0.10 0.24 0.33 0.21 0.25 0.38 0.61 0.77 0.78 0.54 0.38 0.38 0.40 0.37 0.31 0.21 0.22 0.20 0.15 0.11
2.48 0.71 0.08 0.07 0.05 0.06 0.06 0.05 0.02 0.01 0.04 0.16 0.44 0.38 0.09 0.07 0.11 0.04 0.02 0.10 0.19 0.21 0.16 0.10 0.06 0.04 0.05 0.08 0.10 0.14 0.18 0.20 0.22 0.17 0.14 0.13 0.16 0.28 0.28 0.21 0.24 0.28 0.25 0.12

GFSNW_prec_precacc_132.txt.gz
Total_Precipitation_Accumulation
1.73 1.47 1.29 0.99 1.40 2.42 1.35 1.45 2.03 1.73 2.21 3.35 2.67 1.73 1.41 1.48 0.94 0.65 0.54 0.25 0.23 0.20 0.19 0.26 0.65 0.68 0.20 0.05 0.03 0.14 0.43 0.93 1.14 0.98 0.34 0.27 0.41 0.38 0.37 0.90 0.50 0.48 0.58 0.84
1.82 1.72 1.50 1.12 1.28 2.31 1.70 1.49 1.87 2.48 1.67 1.68 1.19 1.11 1.18 1.22 0.70 0.56 0.60 0.31 0.23 0.20 0.14 0.26 0.22 0.60 0.15 0.02 0.02 0.31 0.58 1.06 1.11 0.89 0.65 0.64 0.85 0.43 0.37 0.61 1.00 0.74 0.82 0.88
1.46 1.30 1.14 1.30 1.57 1.84 1.80 1.59 2.21 2.98 2.58 0.84 0.74 1.21 1.40 1.07 0.59 0.48 0.58 0.35 0.26 0.20 0.09 0.06 0.10 0.71 0.19 0.03 0.07 0.10 0.50 1.00 1.11 0.99 0.66 0.63 0.85 0.46 0.57 1.13 1.13 0.48 0.81 0.41
1.57 1.16 0.77 0.76 1.49 1.42 1.43 1.37 1.22 0.90 0.82 0.65 0.36 0.79 1.01 0.83 0.82 0.53 0.68 0.55 0.34 0.47 0.24 0.08 0.06 0.50 0.42 0.18 0.15 0.10 0.50 1.10 0.93 0.50 0.29 0.42 0.57 0.57 0.49 0.94 0.52 0.66 0.35 0.19
1.85 1.67 0.94 0.57 0.81 1.29 0.99 0.87 1.12 0.43 0.16 0.19 0.24 0.62 0.80 0.64 0.61 0.57 0.41 0.37 0.21 0.30 0.26 0.23 0.10 0.12 0.38 0.36 0.10 0.22 0.35 0.72 0.75 0.61 0.24 0.38 0.48 0.55 0.36 0.57 0.29 0.29 0.18 0.15
1.39 1.18 1.16 1.17 1.12 1.73 1.12 0.70 0.79 0.51 0.26 0.16 0.38 0.36 0.49 0.63 0.60 0.34 0.16 0.23 0.35 0.24 0.08 0.07 0.02 0.01 0.01 0.09 0.19 0.20 0.28 0.51 0.75 0.67 0.48 0.28 0.47 0.58 0.69 0.49 0.21 0.25 0.28 0.15
1.97 1.17 0.82 1.11 0.89 1.07 0.92 0.56 0.48 0.59 0.24 0.10 0.10 0.21 0.31 0.44 0.52 0.47 0.19 0.24 0.30 0.15 0.16 0.06 0.03 0.02 0.01 0.03 0.03 0.03 0.06 0.23 0.46 0.31 0.15 0.16 0.11 0.14 0.44 0.28 0.23 0.26 0.15 0.08
1.83 1.02 0.31 0.41 0.53 0.66 0.51 0.38 0.39 0.53 0.26 0.08 0.10 0.14 0.29 0.44 0.54 0.54 0.30 0.20 0.20 0.16 0.29 0.19 0.23 0.21 0.12 0.06 0.03 0.03 0.05 0.16 0.25 0.16 0.07 0.03 0.00 0.00 0.07 0.14 0.23 0.14 0.07 0.03
1.01 1.21 0.67 0.56 0.63 0.59 0.47 0.39 0.41 0.46 0.29 0.10 0.06 0.07 0.19 0.43 0.62 0.63 0.44 0.33 0.41 0.38 0.41 0.40 0.25 0.38 0.12 0.05 0.11 0.03 0.05 0.18 0.27 0.10 0.12 0.02 0.00 0.00 0.01 0.02 0.21 0.02 0.05 0.04
1.03 0.82 0.66 0.33 0.30 0.45 0.49 0.41 0.64 0.54 0.31 0.07 0.06 0.08 0.12 0.34 0.69 0.78 0.56 0.51 0.73 0.49 0.38 0.38 0.26 0.16 0.03 0.01 0.04 0.05 0.11 0.19 0.28 0.16 0.18 0.01 0.00 0.00 0.01 0.10 0.16 0.02 0.06 0.06
0.79 0.58 0.43 0.38 0.35 0.47 0.52 0.36 0.49 0.44 0.32 0.06 0.03 0.03 0.06 0.14 0.44 0.83 0.68 0.64 0.79 0.73 0.43 0.37 0.17 0.10 0.04 0.00 0.00 0.00 0.03 0.05 0.09 0.14 0.10 0.00 0.00 0.00 0.01 0.01 0.02 0.03 0.10 0.03
0.71 0.54 0.37 0.31 0.24 0.32 0.42 0.33 0.20 0.31 0.30 0.11 0.05 0.02 0.03 0.05 0.17 0.51 0.73 0.58 0.50 0.46 0.35 0.29 0.13 0.09 0.15 0.02 0.01 0.00 0.00 0.00 0.00 0.00 0.00 0.00 0.00 0.00 0.00 0.00 0.00 0.00 0.02 0.10
0.57 0.47 0.38 0.30 0.32 0.42 0.45 0.26 0.19 0.29 0.28 0.12 0.05 0.04 0.02 0.02 0.08 0.25 0.66 0.66 0.45 0.41 0.44 0.39 0.26 0.16 0.02 0.05 0.05 0.00 0.00 0.00 0.00 0.00 0.00 0.00 0.00 0.00 0.00 0.00 0.00 0.00 0.00 0.01
0.63 0.53 0.47 0.33 0.33 0.35 0.41 0.18 0.24 0.27 0.28 0.19 0.10 0.04 0.03 0.01 0.07 0.20 0.41 0.81 0.71 0.56 0.39 0.41 0.40 0.28 0.13 0.01 0.00 0.00 0.01 0.00 0.00 0.01 0.00 0.00 0.00 0.00 0.00 0.01 0.02 0.00 0.00 0.01
0.67 0.58 0.55 0.35 0.33 0.38 0.31 0.14 0.29 0.30 0.39 0.41 0.16 0.05 0.02 0.03 0.15 0.25 0.38 0.56 0.77 0.62 0.68 0.37 0.25 0.20 0.07 0.02 0.00 0.00 0.00 0.00 0.01 0.03 0.01 0.02 0.02 0.01 0.00 0.00 0.01 0.01 0.02 0.01
0.66 0.68 0.60 0.41 0.38 0.51 0.45 0.35 0.32 0.35 0.40 0.52 0.28 0.14 0.07 0.07 0.20 0.35 0.43 0.46 0.58 0.64 0.67 0.43 0.21 0.07 0.13 0.10 0.01 0.00 0.00 0.00 0.00 0.00 0.00 0.01 0.01 0.01 0.01 0.00 0.00 0.00 0.00 0.01
0.76 0.80 0.63 0.44 0.52 0.50 0.40 0.19 0.37 0.33 0.35 0.45 0.39 0.21 0.11 0.15 0.19 0.33 0.46 0.54 0.51 0.55 0.67 0.37 0.19 0.14 0.26 0.18 0.02 0.00 0.00 0.00 0.00 0.00 0.00 0.00 0.00 0.00 0.00 0.00 0.00 0.03 0.02 0.01
0.84 0.74 0.54 0.56 0.58 0.53 0.34 0.12 0.27 0.44 0.64 0.50 0.45 0.24 0.19 0.29 0.39 0.42 0.47 0.81 0.68 0.59 0.48 0.29 0.15 0.16 0.26 0.18 0.00 0.00 0.00 0.00 0.00 0.00 0.00 0.00 0.00 0.00 0.02 0.01 0.00 0.00 0.01 0.02
0.80 0.67 0.61 0.70 0.35 0.19 0.24 0.46 0.57 0.41 0.82 0.94 0.33 0.34 0.35 0.39 0.63 0.56 0.95 0.73 0.98 0.56 0.42 0.19 0.27 0.22 0.16 0.02 0.00 0.00 0.00 0.00 0.00 0.00 0.00 0.00 0.00 0.01 0.03 0.03 0.01 0.00 0.00 0.01
1.10 1.04 0.89 0.61 0.25 0.46 0.80 0.89 0.88 0.87 0.71 0.53 0.33 0.24 0.48 0.48 0.58 0.61 1.04 0.85 0.71 0.63 0.31 0.34 0.38 0.13 0.03 0.01 0.00 0.00 0.00 0.00 0.00 0.01 0.01 0.00 0.00 0.00 0.02 0.03 0.05 0.00 0.00 0.01
1.47 1.14 0.68 0.44 0.57 1.12 0.90 1.13 0.78 0.56 0.32 0.15 0.09 0.15 0.41 0.58 0.80 0.78 0.65 0.96 0.58 0.40 0.26 0.44 0.34 0.18 0.06 0.01 0.00 0.01 0.01 0.01 0.00 0.01 0.02 0.03 0.02 0.01 0.01 0.02 0.05 0.03 0.03 0.04
0.97 0.76 1.01 0.86 0.95 1.10 0.65 0.57 0.40 0.24 0.05 0.08 0.16 0.26 0.44 0.62 0.71 0.66 0.82 0.73 0.83 0.48 0.49 0.55 0.15 0.05 0.02 0.01 0.01 0.01 0.02 0.02 0.02 0.01 0.01 0.02 0.04 0.04 0.04 0.05 0.08 0.09 0.08 0.06
1.06 1.45 1.62 0.86 0.83 0.69 0.33 0.18 0.20 0.10 0.14 0.20 0.26 0.42 0.40 0.52 0.73 0.49 0.46 0.58 0.44 0.58 0.79 0.44 0.19 0.14 0.08 0.02 0.01 0.02 0.03 0.04 0.05 0.07 0.06 0.06 0.05 0.04 0.04 0.06 0.07 0.06 0.03 0.02
2.46 2.11 1.50 0.50 0.46 0.14 0.17 0.05 0.09 0.10 0.03 0.11 0.28 0.30 0.22 0.30 0.47 0.49 0.36 0.25 0.25 0.35 0.36 0.22 0.20 0.29 0.22 0.16 0.12 0.13 0.18 0.21 0.14 0.12 0.11 0.17 0.09 0.03 0.02 0.01 0.04 0.06 0.02 0.01
2.20 1.26 0.67 0.20 0.12 0.10 0.07 0.06 0.05 0.03 0.03 0.09 0.13 0.15 0.11 0.11 0.18 0.17 0.23 0.26 0.18 0.18 0.28 0.14 0.16 0.56 0.46 0.29 0.35 0.45 0.73 0.83 0.62 0.44 0.40 0.38 0.26 0.20 0.15 0.09 0.05 0.03 0.04 0.04
2.35 1.20 0.44 0.12 0.05 0.05 0.05 0.07 0.07 0.04 0.05 0.17 0.23 0.13 0.10 0.06 0.08 0.12 0.08 0.15 0.30 0.32 0.20 0.10 0.10 0.24 0.33 0.21 0.25 0.38 0.61 0.77 0.78 0.54 0.38 0.38 0.40 0.37 0.31 0.21 0.22 0.20 0.15 0.11
2.56 0.75 0.08 0.07 0.05 0.06 0.06 0.05 0.02 0.01 0.04 0.16 0.44 0.38 0.09 0.07 0.11 0.04 0.02 0.10 0.19 0.21 0.16 0.10 0.06 0.04 0.05 0.08 0.10 0.14 0.18 0.20 0.22 0.17 0.14 0.13 0.16 0.28 0.28 0.21 0.24 0.28 0.25 0.12

GFSNW_prec_precacc_138.txt.gz
Total_Precipitation_Accumulation
1.73 1.47 1.30 0.99 1.40 2.42 1.35 1.45 2.03 1.73 2.21 3.35 2.67 1.73 1.41 1.48 0.94 0.65 0.54 0.25 0.23 0.20 0.19 0.26 0.65 0.68 0.20 0.05 0.03 0.14 0.43 0.95 1.15 0.98 0.34 0.27 0.41 0.38 0.39 0.93 0.52 0.51 0.61 0.85
1.82 1.73 1.50 1.12 1.28 2.31 1.70 1.49 1.87 2.48 1.67 1.68 1.19 1.11 1.18 1.22 0.70 0.56 0.60 0.31 0.23 0.20 0.14 0.26 0.22 0.60 0.15 0.02 0.02 0.31 0.59 1.06 1.11 0.89 0.65 0.64 0.85 0.43 0.37 0.62 1.04 0.77 0.87 0.92
1.46 1.30 1.14 1.30 1.57 1.84 1.80 1.59 2.21 2.98 2.58 0.84 0.74 1.21 1.40 1.07 0.59 0.48 0.58 0.35 0.26 0.20 0.09 0.06 0.10 0.71 0.19 0.03 0.07 0.10 0.50 1.00 1.11 0.99 0.66 0.63 0.85 0.46 0.57 1.13 1.14 0.49 0.85 0.49
1.57 1.16 0.77 0.76 1.49 1.42 1.43 1.37 1.22 0.90 0.82 0.65 0.36 0.79 1.01 0.83 0.82 0.53 0.68 0.55 0.34 0.47 0.24 0.08 0.06 0.50 0.42 0.18 0.15 0.10 0.50 1.10 0.93 0.50 0.29 0.42 0.57 0.57 0.49 0.94 0.52 0.66 0.35 0.21
1.85 1.67 0.94 0.57 0.81 1.29 0.99 0.87 1.12 0.43 0.16 0.19 0.24 0.62 0.80 0.64 0.61 0.57 0.41 0.37 0.21 0.30 0.26 0.23 0.10 0.12 0.38 0.36 0.10 0.22 0.35 0.72 0.75 0.61 0.24 0.38 0.48 0.55 0.36 0.57 0.29 0.29 0.18 0.15
1.39 1.18 1.16 1.17 1.12 1.73 1.12 0.70 0.79 0.51 0.26 0.16 0.38 0.36 0.49 0.63 0.60 0.34 0.16 0.23 0.35 0.24 0.08 0.07 0.02 0.01 0.01 0.09 0.19 0.20 0.28 0.51 0.75 0.67 0.48 0.28 0.47 0.58 0.69 0.49 0.21 0.25 0.28 0.15
1.97 1.17 0.82 1.11 0.89 1.07 0.92 0.56 0.48 0.59 0.24 0.10 0.10 0.21 0.31 0.44 0.52 0.47 0.19 0.24 0.30 0.15 0.16 0.06 0.03 0.02 0.01 0.03 0.03 0.03 0.06 0.23 0.46 0.31 0.15 0.16 0.11 0.14 0.44 0.28 0.23 0.26 0.15 0.08
1.83 1.02 0.31 0.41 0.53 0.66 0.51 0.38 0.39 0.53 0.26 0.08 0.10 0.14 0.29 0.44 0.54 0.54 0.30 0.20 0.20 0.16 0.29 0.19 0.23 0.21 0.12 0.06 0.03 0.03 0.05 0.16 0.25 0.16 0.07 0.03 0.00 0.00 0.07 0.14 0.23 0.14 0.08 0.03
1.01 1.21 0.67 0.56 0.63 0.59 0.47 0.39 0.41 0.46 0.29 0.10 0.06 0.07 0.19 0.43 0.62 0.63 0.44 0.33 0.41 0.38 0.41 0.40 0.25 0.38 0.12 0.05 0.11 0.03 0.05 0.18 0.27 0.10 0.12 0.02 0.00 0.00 0.01 0.02 0.21 0.02 0.06 0.04
1.03 0.82 0.66 0.33 0.30 0.45 0.49 0.41 0.64 0.54 0.31 0.07 0.06 0.08 0.12 0.34 0.69 0.78 0.56 0.51 0.73 0.49 0.38 0.38 0.26 0.16 0.03 0.01 0.04 0.05 0.11 0.19 0.28 0.16 0.18 0.01 0.00 0.00 0.01 0.10 0.16 0.02 0.06 0.06
0.79 0.58 0.43 0.38 0.35 0.47 0.52 0.36 0.49 0.44 0.32 0.06 0.03 0.03 0.06 0.14 0.44 0.83 0.68 0.64 0.79 0.73 0.43 0.37 0.17 0.10 0.04 0.00 0.00 0.00 0.03 0.05 0.09 0.14 0.10 0.00 0.00 0.00 0.01 0.01 0.02 0.03 0.10 0.03
0.71 0.54 0.37 0.31 0.24 0.32 0.42 0.33 0.20 0.31 0.30 0.11 0.05 0.02 0.03 0.05 0.17 0.51 0.73 0.58 0.50 0.46 0.35 0.29 0.13 0.09 0.15 0.02 0.01 0.00 0.00 0.00 0.00 0.00 0.00 0.00 0.00 0.00 0.00 0.00 0.00 0.00 0.02 0.10
0.57 0.47 0.38 0.30 0.32 0.42 0.45 0.26 0.19 0.29 0.28 0.12 0.05 0.04 0.02 0.02 0.08 0.25 0.66 0.66 0.45 0.41 0.44 0.39 0.26 0.16 0.02 0.05 0.05 0.00 0.00 0.00 0.00 0.00 0.00 0.00 0.00 0.00 0.00 0.00 0.00 0.00 0.00 0.01
0.63 0.53 0.47 0.33 0.33 0.35 0.41 0.18 0.24 0.27 0.28 0.19 0.10 0.04 0.03 0.01 0.07 0.20 0.41 0.81 0.71 0.56 0.39 0.41 0.40 0.28 0.13 0.01 0.00 0.00 0.01 0.00 0.00 0.01 0.00 0.00 0.00 0.00 0.00 0.01 0.02 0.00 0.00 0.01
0.67 0.58 0.55 0.35 0.33 0.38 0.31 0.14 0.29 0.30 0.39 0.41 0.16 0.05 0.02 0.03 0.15 0.25 0.38 0.56 0.77 0.62 0.68 0.37 0.25 0.20 0.07 0.02 0.00 0.00 0.00 0.00 0.01 0.03 0.01 0.02 0.02 0.01 0.00 0.00 0.01 0.01 0.02 0.01
0.66 0.68 0.60 0.41 0.38 0.51 0.45 0.35 0.32 0.35 0.40 0.52 0.28 0.14 0.07 0.07 0.20 0.35 0.43 0.46 0.58 0.64 0.67 0.43 0.21 0.07 0.13 0.10 0.01 0.00 0.00 0.00 0.00 0.00 0.00 0.01 0.01 0.01 0.01 0.00 0.00 0.00 0.00 0.01
0.76 0.80 0.64 0.45 0.52 0.50 0.40 0.19 0.37 0.33 0.35 0.45 0.39 0.21 0.11 0.15 0.19 0.33 0.46 0.54 0.51 0.55 0.67 0.37 0.19 0.14 0.26 0.18 0.02 0.00 0.00 0.00 0.00 0.00 0.00 0.00 0.00 0.00 0.00 0.00 0.00 0.03 0.02 0.01
0.84 0.75 0.56 0.59 0.59 0.54 0.34 0.12 0.27 0.44 0.64 0.50 0.45 0.24 0.19 0.29 0.39 0.42 0.47 0.81 0.68 0.59 0.48 0.29 0.15 0.16 0.26 0.18 0.00 0.00 0.00 0.00 0.00 0.00 0.00 0.00 0.00 0.00 0.02 0.01 0.00 0.00 0.01 0.02
0.81 0.69 0.66 0.74 0.37 0.20 0.24 0.46 0.57 0.41 0.82 0.94 0.33 0.34 0.35 0.39 0.63 0.56 0.95 0.73 0.98 0.56 0.42 0.19 0.27 0.22 0.16 0.02 0.00 0.00 0.00 0.00 0.00 0.00 0.00 0.00 0.00 0.01 0.03 0.03 0.01 0.00 0.00 0.01
1.12 1.05 0.90 0.62 0.26 0.46 0.80 0.89 0.88 0.87 0.71 0.53 0.33 0.24 0.48 0.48 0.58 0.61 1.04 0.85 0.71 0.63 0.31 0.34 0.38 0.13 0.03 0.01 0.00 0.00 0.00 0.00 0.00 0.01 0.01 0.00 0.00 0.00 0.02 0.03 0.05 0.00 0.00 0.01
1.48 1.14 0.68 0.44 0.57 1.12 0.90 1.13 0.78 0.56 0.32 0.15 0.09 0.15 0.41 0.58 0.80 0.78 0.65 0.96 0.58 0.40 0.26 0.44 0.34 0.18 0.06 0.01 0.00 0.01 0.01 0.01 0.00 0.01 0.02 0.03 0.02 0.01 0.01 0.02 0.05 0.03 0.03 0.04
0.97 0.76 1.01 0.86 0.95 1.10 0.65 0.57 0.40 0.24 0.05 0.08 0.16 0.26 0.44 0.62 0.71 0.66 0.82 0.73 0.83 0.48 0.49 0.55 0.15 0.05 0.02 0.01 0.01 0.01 0.02 0.02 0.02 0.01 0.01 0.02 0.04 0.04 0.04 0.05 0.08 0.09 0.08 0.06
1.08 1.46 1.62 0.86 0.83 0.69 0.33 0.18 0.20 0.10 0.14 0.20 0.26 0.42 0.40 0.52 0.73 0.49 0.46 0.58 0.44 0.58 0.79 0.44 0.19 0.14 0.08 0.02 0.01 0.02 0.03 0.04 0.05 0.07 0.06 0.06 0.05 0.04 0.04 0.06 0.07 0.06 0.03 0.02
2.56 2.14 1.53 0.50 0.46 0.14 0.17 0.05 0.09 0.10 0.03 0.11 0.28 0.30 0.22 0.30 0.47 0.49 0.36 0.25 0.25 0.35 0.36 0.22 0.20 0.29 0.22 0.16 0.12 0.13 0.18 0.21 0.14 0.12 0.11 0.17 0.09 0.03 0.02 0.01 0.04 0.06 0.02 0.01
2.42 1.38 0.70 0.20 0.12 0.10 0.07 0.06 0.05 0.03 0.03 0.09 0.13 0.15 0.11 0.11 0.18 0.17 0.23 0.26 0.18 0.18 0.28 0.14 0.16 0.56 0.46 0.29 0.35 0.45 0.73 0.83 0.62 0.44 0.40 0.38 0.26 0.20 0.15 0.09 0.05 0.03 0.04 0.04
2.63 1.31 0.44 0.12 0.05 0.05 0.05 0.07 0.07 0.04 0.05 0.17 0.23 0.13 0.10 0.06 0.08 0.12 0.08 0.15 0.30 0.32 0.20 0.10 0.10 0.24 0.33 0.21 0.25 0.38 0.61 0.77 0.78 0.54 0.38 0.38 0.40 0.37 0.31 0.21 0.22 0.20 0.15 0.11
2.80 0.80 0.08 0.07 0.05 0.06 0.06 0.05 0.02 0.01 0.04 0.16 0.44 0.38 0.09 0.07 0.11 0.04 0.02 0.11 0.19 0.21 0.16 0.10 0.06 0.04 0.05 0.08 0.10 0.14 0.18 0.20 0.22 0.17 0.14 0.13 0.16 0.28 0.28 0.21 0.24 0.28 0.25 0.12

GFSNW_prec_precacc_141.txt.gz
Total_Precipitation_Accumulation
1.73 1.47 1.30 0.99 1.40 2.42 1.35 1.45 2.03 1.73 2.21 3.35 2.67 1.73 1.41 1.48 0.94 0.65 0.54 0.25 0.23 0.20 0.19 0.26 0.65 0.68 0.20 0.05 0.03 0.14 0.43 0.95 1.15 0.98 0.34 0.27 0.41 0.38 0.40 0.98 0.57 0.54 0.66 0.86
1.82 1.73 1.50 1.12 1.28 2.31 1.70 1.49 1.87 2.48 1.67 1.68 1.19 1.11 1.18 1.22 0.70 0.56 0.60 0.31 0.23 0.20 0.14 0.26 0.22 0.60 0.15 0.02 0.02 0.31 0.59 1.07 1.11 0.90 0.65 0.64 0.85 0.43 0.37 0.62 1.08 0.81 0.92 0.94
1.46 1.30 1.14 1.30 1.57 1.84 1.80 1.59 2.21 2.98 2.58 0.84 0.74 1.21 1.40 1.07 0.59 0.48 0.58 0.35 0.26 0.20 0.09 0.06 0.10 0.71 0.19 0.03 0.07 0.10 0.50 1.00 1.11 0.99 0.66 0.63 0.85 0.46 0.57 1.13 1.16 0.51 0.89 0.56
1.57 1.16 0.77 0.76 1.49 1.42 1.43 1.37 1.22 0.90 0.82 0.65 0.36 0.79 1.01 0.83 0.82 0.53 0.68 0.55 0.34 0.47 0.24 0.08 0.06 0.50 0.42 0.18 0.15 0.10 0.50 1.10 0.93 0.50 0.29 0.42 0.57 0.57 0.49 0.94 0.52 0.67 0.36 0.23
1.85 1.67 0.94 0.57 0.81 1.29 0.99 0.87 1.12 0.43 0.16 0.19 0.24 0.62 0.80 0.64 0.61 0.57 0.41 0.37 0.21 0.30 0.26 0.23 0.10 0.12 0.38 0.36 0.10 0.22 0.35 0.72 0.75 0.61 0.24 0.38 0.48 0.55 0.36 0.57 0.29 0.29 0.18 0.15
1.39 1.18 1.16 1.17 1.12 1.73 1.12 0.70 0.79 0.51 0.26 0.16 0.38 0.36 0.49 0.63 0.60 0.34 0.16 0.23 0.35 0.24 0.08 0.07 0.02 0.01 0.01 0.09 0.19 0.20 0.28 0.51 0.75 0.67 0.48 0.28 0.47 0.58 0.69 0.49 0.21 0.25 0.28 0.15
1.97 1.17 0.82 1.11 0.89 1.07 0.92 0.56 0.48 0.59 0.24 0.10 0.10 0.21 0.31 0.44 0.52 0.47 0.19 0.24 0.30 0.15 0.16 0.06 0.03 0.02 0.01 0.03 0.03 0.03 0.06 0.23 0.46 0.31 0.15 0.16 0.11 0.14 0.44 0.28 0.23 0.26 0.15 0.08
1.83 1.02 0.31 0.41 0.53 0.66 0.51 0.38 0.39 0.53 0.26 0.08 0.10 0.14 0.29 0.44 0.54 0.54 0.30 0.20 0.20 0.16 0.29 0.19 0.23 0.21 0.12 0.06 0.03 0.03 0.05 0.16 0.25 0.16 0.07 0.03 0.00 0.00 0.07 0.14 0.23 0.14 0.08 0.03
1.01 1.21 0.67 0.56 0.63 0.59 0.47 0.39 0.41 0.46 0.29 0.10 0.06 0.07 0.19 0.43 0.62 0.63 0.44 0.33 0.41 0.38 0.41 0.40 0.25 0.38 0.12 0.05 0.11 0.03 0.05 0.18 0.27 0.10 0.12 0.02 0.00 0.00 0.01 0.02 0.21 0.02 0.06 0.04
1.03 0.82 0.66 0.33 0.30 0.45 0.49 0.41 0.64 0.54 0.31 0.07 0.06 0.08 0.12 0.34 0.69 0.78 0.56 0.51 0.73 0.49 0.38 0.38 0.26 0.16 0.03 0.01 0.04 0.05 0.11 0.19 0.28 0.16 0.18 0.01 0.00 0.00 0.01 0.10 0.16 0.02 0.06 0.06
0.79 0.58 0.43 0.38 0.35 0.47 0.52 0.36 0.49 0.44 0.32 0.06 0.03 0.03 0.06 0.14 0.44 0.83 0.68 0.64 0.79 0.73 0.43 0.37 0.17 0.10 0.04 0.00 0.00 0.00 0.03 0.05 0.09 0.14 0.10 0.00 0.00 0.00 0.01 0.01 0.02 0.03 0.10 0.03
0.71 0.54 0.37 0.31 0.24 0.32 0.42 0.33 0.20 0.31 0.30 0.11 0.05 0.02 0.03 0.05 0.17 0.51 0.73 0.58 0.50 0.46 0.35 0.29 0.13 0.09 0.15 0.02 0.01 0.00 0.00 0.00 0.00 0.00 0.00 0.00 0.00 0.00 0.00 0.00 0.00 0.00 0.02 0.10
0.57 0.47 0.38 0.30 0.32 0.42 0.45 0.26 0.19 0.29 0.28 0.12 0.05 0.04 0.02 0.02 0.08 0.25 0.66 0.66 0.45 0.41 0.44 0.39 0.26 0.16 0.02 0.05 0.05 0.00 0.00 0.00 0.00 0.00 0.00 0.00 0.00 0.00 0.00 0.00 0.00 0.00 0.00 0.01
0.63 0.53 0.47 0.33 0.33 0.35 0.41 0.18 0.24 0.27 0.28 0.19 0.10 0.04 0.03 0.01 0.07 0.20 0.41 0.81 0.71 0.56 0.39 0.41 0.40 0.28 0.13 0.01 0.00 0.00 0.01 0.00 0.00 0.01 0.00 0.00 0.00 0.00 0.00 0.01 0.02 0.00 0.00 0.01
0.67 0.58 0.55 0.35 0.33 0.38 0.31 0.14 0.29 0.30 0.39 0.41 0.16 0.05 0.02 0.03 0.15 0.25 0.38 0.56 0.77 0.62 0.68 0.37 0.25 0.20 0.07 0.02 0.00 0.00 0.00 0.00 0.01 0.03 0.01 0.02 0.02 0.01 0.00 0.00 0.01 0.01 0.02 0.01
0.66 0.68 0.60 0.41 0.38 0.51 0.45 0.35 0.32 0.35 0.40 0.52 0.28 0.14 0.07 0.07 0.20 0.35 0.43 0.46 0.58 0.64 0.67 0.43 0.21 0.07 0.13 0.10 0.01 0.00 0.00 0.00 0.00 0.00 0.00 0.01 0.01 0.01 0.01 0.00 0.00 0.00 0.00 0.01
0.76 0.80 0.64 0.46 0.52 0.50 0.40 0.19 0.37 0.33 0.35 0.45 0.39 0.21 0.11 0.15 0.19 0.33 0.46 0.54 0.51 0.55 0.67 0.37 0.19 0.14 0.26 0.18 0.02 0.00 0.00 0.00 0.00 0.00 0.00 0.00 0.00 0.00 0.00 0.00 0.00 0.03 0.02 0.01
0.84 0.75 0.56 0.60 0.60 0.54 0.34 0.12 0.27 0.44 0.64 0.50 0.45 0.24 0.19 0.29 0.39 0.42 0.47 0.81 0.68 0.59 0.48 0.29 0.15 0.16 0.26 0.18 0.00 0.00 0.00 0.00 0.00 0.00 0.00 0.00 0.00 0.00 0.02 0.01 0.00 0.00 0.01 0.02
0.81 0.70 0.68 0.75 0.38 0.21 0.24 0.46 0.57 0.41 0.82 0.94 0.33 0.34 0.35 0.39 0.63 0.56 0.95 0.73 0.98 0.56 0.42 0.19 0.27 0.22 0.16 0.02 0.00 0.00 0.00 0.00 0.00 0.00 0.00 0.00 0.00 0.01 0.03 0.03 0.01 0.00 0.00 0.01
1.13 1.06 0.93 0.64 0.27 0.47 0.80 0.89 0.88 0.87 0.71 0.53 0.33 0.24 0.48 0.48 0.58 0.61 1.04 0.85 0.71 0.63 0.31 0.34 0.38 0.13 0.03 0.01 0.00 0.00 0.00 0.00 0.00 0.01 0.01 0.00 0.00 0.00 0.02 0.03 0.05 0.00 0.00 0.01
1.52 1.15 0.68 0.44 0.57 1.12 0.90 1.13 0.78 0.56 0.32 0.15 0.09 0.15 0.41 0.58 0.80 0.78 0.65 0.96 0.58 0.40 0.26 0.44 0.34 0.18 0.06 0.01 0.00 0.01 0.01 0.01 0.00 0.01 0.02 0.03 0.02 0.01 0.01 0.02 0.05 0.03 0.03 0.04
1.06 0.80 1.04 0.86 0.95 1.10 0.65 0.57 0.40 0.24 0.05 0.08 0.16 0.26 0.44 0.62 0.71 0.66 0.82 0.73 0.83 0.48 0.49 0.55 0.15 0.05 0.02 0.01 0.01 0.01 0.02 0.02 0.02 0.01 0.01 0.02 0.04 0.04 0.04 0.05 0.08 0.09 0.08 0.06
1.22 1.57 1.72 0.91 0.86 0.69 0.33 0.18 0.20 0.10 0.14 0.20 0.26 0.42 0.40 0.52 0.73 0.49 0.46 0.58 0.44 0.58 0.79 0.44 0.19 0.14 0.08 0.02 0.01 0.02 0.03 0.04 0.05 0.07 0.06 0.06 0.05 0.04 0.04 0.06 0.07 0.06 0.03 0.02
2.80 2.32 1.67 0.56 0.48 0.14 0.17 0.05 0.09 0.10 0.04 0.11 0.28 0.30 0.22 0.30 0.47 0.49 0.36 0.25 0.25 0.35 0.36 0.22 0.20 0.29 0.22 0.16 0.12 0.13 0.18 0.21 0.14 0.12 0.11 0.17 0.09 0.03 0.02 0.01 0.04 0.06 0.02 0.01
2.76 1.58 0.81 0.23 0.12 0.10 0.07 0.06 0.05 0.03 0.03 0.09 0.13 0.15 0.11 0.11 0.18 0.17 0.23 0.26 0.18 0.18 0.28 0.14 0.16 0.56 0.46 0.29 0.35 0.45 0.73 0.83 0.62 0.44 0.40 0.38 0.26 0.20 0.15 0.09 0.05 0.03 0.04 0.04
2.97 1.51 0.48 0.12 0.05 0.05 0.05 0.07 0.07 0.04 0.05 0.17 0.23 0.13 0.10 0.06 0.08 0.12 0.08 0.15 0.30 0.32 0.20 0.10 0.10 0.24 0.33 0.21 0.25 0.38 0.61 0.77 0.78 0.54 0.38 0.38 0.40 0.37 0.31 0.21 0.22 0.20 0.15 0.11
3.07 0.87 0.09 0.07 0.05 0.06 0.06 0.05 0.02 0.01 0.04 0.16 0.44 0.38 0.09 0.07 0.11 0.04 0.02 0.11 0.19 0.21 0.16 0.10 0.06 0.04 0.05 0.08 0.10 0.14 0.18 0.20 0.22 0.17 0.14 0.13 0.16 0.28 0.28 0.21 0.24 0.28 0.25 0.12

GFSNW_prec_precacc_144.txt.gz
Total_Precipitation_Accumulation
1.73 1.47 1.30 0.99 1.40 2.42 1.35 1.45 2.03 1.73 2.21 3.35 2.67 1.73 1.41 1.48 0.94 0.65 0.54 0.25 0.23 0.20 0.19 0.26 0.65 0.68 0.20 0.05 0.03 0.14 0.44 0.95 1.15 0.99 0.34 0.27 0.41 0.38 0.40 1.00 0.60 0.57 0.69 0.87
1.82 1.73 1.50 1.12 1.28 2.31 1.70 1.49 1.87 2.48 1.67 1.68 1.19 1.11 1.18 1.22 0.70 0.56 0.60 0.31 0.23 0.20 0.14 0.26 0.22 0.60 0.15 0.02 0.02 0.31 0.59 1.07 1.12 0.90 0.66 0.64 0.85 0.43 0.37 0.62 1.09 0.83 0.95 0.94
1.46 1.30 1.14 1.30 1.57 1.84 1.80 1.59 2.21 2.98 2.58 0.84 0.74 1.21 1.40 1.07 0.59 0.48 0.58 0.35 0.26 0.20 0.09 0.06 0.10 0.71 0.19 0.03 0.07 0.10 0.51 1.00 1.11 0.99 0.66 0.63 0.85 0.46 0.57 1.13 1.17 0.53 0.91 0.57
1.57 1.16 0.77 0.76 1.49 1.42 1.43 1.37 1.22 0.90 0.82 0.65 0.36 0.79 1.01 0.83 0.82 0.53 0.68 0.55 0.34 0.47 0.24 0.08 0.06 0.50 0.42 0.18 0.15 0.10 0.50 1.11 0.93 0.50 0.29 0.42 0.57 0.57 0.49 0.94 0.52 0.67 0.37 0.24
1.85 1.67 0.94 0.57 0.81 1.29 0.99 0.87 1.12 0.43 0.16 0.19 0.24 0.62 0.80 0.64 0.61 0.57 0.41 0.37 0.21 0.30 0.26 0.23 0.10 0.12 0.38 0.36 0.10 0.22 0.35 0.72 0.75 0.61 0.24 0.38 0.48 0.55 0.36 0.57 0.29 0.29 0.18 0.15
1.39 1.18 1.16 1.17 1.12 1.73 1.12 0.70 0.79 0.51 0.26 0.16 0.38 0.36 0.49 0.63 0.60 0.34 0.16 0.23 0.35 0.24 0.08 0.07 0.02 0.01 0.01 0.09 0.19 0.20 0.28 0.51 0.75 0.67 0.48 0.28 0.47 0.58 0.69 0.49 0.21 0.25 0.28 0.15
1.97 1.17 0.82 1.11 0.89 1.07 0.92 0.56 0.48 0.59 0.24 0.10 0.10 0.21 0.31 0.44 0.52 0.47 0.19 0.24 0.30 0.15 0.16 0.06 0.03 0.02 0.01 0.03 0.03 0.03 0.06 0.23 0.46 0.31 0.15 0.16 0.11 0.14 0.44 0.28 0.23 0.26 0.15 0.08
1.83 1.02 0.31 0.41 0.53 0.66 0.51 0.38 0.39 0.53 0.26 0.08 0.10 0.14 0.29 0.44 0.54 0.54 0.30 0.20 0.20 0.16 0.29 0.19 0.23 0.21 0.12 0.06 0.03 0.03 0.05 0.16 0.25 0.16 0.07 0.03 0.00 0.00 0.07 0.14 0.23 0.14 0.08 0.03
1.01 1.21 0.67 0.56 0.63 0.59 0.47 0.39 0.41 0.46 0.29 0.10 0.06 0.07 0.19 0.43 0.62 0.63 0.44 0.33 0.41 0.38 0.41 0.40 0.25 0.38 0.12 0.05 0.11 0.03 0.05 0.18 0.27 0.10 0.12 0.02 0.00 0.00 0.01 0.02 0.21 0.02 0.06 0.04
1.03 0.82 0.66 0.33 0.30 0.45 0.49 0.41 0.64 0.54 0.31 0.07 0.06 0.08 0.12 0.34 0.69 0.78 0.56 0.51 0.73 0.49 0.38 0.38 0.26 0.16 0.03 0.01 0.04 0.05 0.11 0.19 0.28 0.16 0.18 0.01 0.00 0.00 0.01 0.10 0.16 0.02 0.06 0.06
0.79 0.58 0.43 0.38 0.35 0.47 0.52 0.36 0.49 0.44 0.32 0.06 0.03 0.03 0.06 0.14 0.44 0.83 0.68 0.64 0.79 0.73 0.43 0.37 0.17 0.10 0.04 0.00 0.00 0.00 0.03 0.05 0.09 0.14 0.10 0.00 0.00 0.00 0.01 0.01 0.02 0.03 0.10 0.03
0.71 0.54 0.37 0.31 0.24 0.32 0.42 0.33 0.20 0.31 0.30 0.11 0.05 0.02 0.03 0.05 0.17 0.51 0.73 0.58 0.50 0.46 0.35 0.29 0.13 0.09 0.15 0.02 0.01 0.00 0.00 0.00 0.00 0.00 0.00 0.00 0.00 0.00 0.00 0.00 0.00 0.00 0.02 0.10
0.57 0.47 0.38 0.30 0.32 0.42 0.45 0.26 0.19 0.29 0.28 0.12 0.05 0.04 0.02 0.02 0.08 0.25 0.66 0.66 0.45 0.41 0.44 0.39 0.26 0.16 0.02 0.05 0.05 0.00 0.00 0.00 0.00 0.00 0.00 0.00 0.00 0.00 0.00 0.00 0.00 0.00 0.00 0.01
0.63 0.53 0.47 0.33 0.33 0.35 0.41 0.18 0.24 0.27 0.28 0.19 0.10 0.04 0.03 0.01 0.07 0.20 0.41 0.81 0.71 0.56 0.39 0.41 0.40 0.28 0.13 0.01 0.00 0.00 0.01 0.00 0.00 0.01 0.00 0.00 0.00 0.00 0.00 0.01 0.02 0.00 0.00 0.01
0.67 0.58 0.55 0.35 0.33 0.38 0.31 0.14 0.29 0.30 0.39 0.41 0.16 0.05 0.02 0.03 0.15 0.25 0.38 0.56 0.77 0.62 0.68 0.37 0.25 0.20 0.07 0.02 0.00 0.00 0.00 0.00 0.01 0.03 0.01 0.02 0.02 0.01 0.00 0.00 0.01 0.01 0.02 0.01
0.66 0.68 0.60 0.41 0.38 0.51 0.45 0.35 0.32 0.35 0.40 0.52 0.28 0.14 0.07 0.07 0.20 0.35 0.43 0.46 0.58 0.64 0.67 0.43 0.21 0.07 0.13 0.10 0.01 0.00 0.00 0.00 0.00 0.00 0.00 0.01 0.01 0.01 0.01 0.00 0.00 0.00 0.00 0.01
0.76 0.80 0.64 0.46 0.53 0.50 0.40 0.19 0.37 0.33 0.35 0.45 0.39 0.21 0.11 0.15 0.19 0.33 0.46 0.54 0.51 0.55 0.67 0.37 0.19 0.14 0.26 0.18 0.02 0.00 0.00 0.00 0.00 0.00 0.00 0.00 0.00 0.00 0.00 0.00 0.00 0.03 0.02 0.01
0.85 0.75 0.56 0.61 0.62 0.55 0.34 0.12 0.27 0.44 0.64 0.50 0.45 0.24 0.19 0.29 0.39 0.42 0.47 0.81 0.68 0.59 0.48 0.29 0.15 0.16 0.26 0.18 0.00 0.00 0.00 0.00 0.00 0.00 0.00 0.00 0.00 0.00 0.02 0.01 0.00 0.00 0.01 0.02
0.83 0.71 0.70 0.77 0.39 0.22 0.25 0.46 0.57 0.41 0.82 0.94 0.33 0.34 0.35 0.39 0.63 0.56 0.95 0.73 0.98 0.56 0.42 0.19 0.27 0.22 0.16 0.02 0.00 0.00 0.00 0.00 0.00 0.00 0.00 0.00 0.00 0.01 0.03 0.03 0.01 0.00 0.00 0.01
1.16 1.11 0.98 0.67 0.28 0.47 0.80 0.89 0.88 0.87 0.71 0.53 0.33 0.24 0.48 0.48 0.58 0.61 1.04 0.85 0.71 0.63 0.31 0.34 0.38 0.13 0.03 0.01 0.00 0.00 0.00 0.00 0.00 0.01 0.01 0.00 0.00 0.00 0.02 0.03 0.05 0.00 0.00 0.01
1.62 1.25 0.75 0.45 0.58 1.13 0.91 1.13 0.78 0.56 0.32 0.15 0.09 0.15 0.41 0.58 0.80 0.78 0.65 0.96 0.58 0.40 0.26 0.44 0.34 0.18 0.06 0.01 0.00 0.01 0.01 0.01 0.00 0.01 0.02 0.03 0.02 0.01 0.01 0.02 0.05 0.03 0.03 0.04
1.18 0.91 1.12 0.96 1.04 1.16 0.69 0.58 0.40 0.24 0.05 0.08 0.16 0.26 0.44 0.63 0.71 0.66 0.82 0.73 0.83 0.48 0.49 0.55 0.15 0.05 0.02 0.01 0.01 0.01 0.02 0.02 0.02 0.01 0.01 0.02 0.04 0.04 0.04 0.05 0.08 0.09 0.08 0.06
1.52 1.81 1.90 1.08 0.97 0.76 0.35 0.18 0.20 0.10 0.14 0.20 0.26 0.42 0.40 0.52 0.73 0.49 0.46 0.58 0.44 0.58 0.79 0.44 0.19 0.14 0.08 0.02 0.01 0.02 0.03 0.04 0.05 0.07 0.06 0.06 0.05 0.04 0.04 0.06 0.07 0.06 0.03 0.02
3.12 2.62 1.90 0.69 0.57 0.15 0.17 0.05 0.09 0.10 0.04 0.11 0.28 0.31 0.22 0.30 0.47 0.49 0.36 0.25 0.25 0.35 0.36 0.22 0.20 0.29 0.22 0.16 0.12 0.13 0.18 0.21 0.14 0.12 0.11 0.17 0.09 0.03 0.02 0.01 0.04 0.06 0.02 0.01
3.09 1.88 0.96 0.29 0.12 0.10 0.07 0.06 0.05 0.03 0.03 0.09 0.13 0.15 0.11 0.12 0.18 0.17 0.23 0.26 0.18 0.18 0.28 0.14 0.16 0.56 0.46 0.29 0.35 0.45 0.73 0.83 0.62 0.44 0.40 0.38 0.26 0.20 0.15 0.09 0.05 0.03 0.04 0.04
3.29 1.77 0.56 0.13 0.05 0.05 0.05 0.07 0.07 0.04 0.05 0.17 0.24 0.14 0.11 0.06 0.08 0.12 0.08 0.15 0.30 0.32 0.20 0.10 0.10 0.24 0.33 0.21 0.25 0.38 0.61 0.77 0.78 0.54 0.38 0.38 0.40 0.37 0.31 0.21 0.22 0.20 0.15 0.11
3.34 0.96 0.10 0.07 0.05 0.06 0.06 0.06 0.04 0.04 0.07 0.18 0.46 0.39 0.10 0.08 0.11 0.04 0.02 0.11 0.19 0.21 0.16 0.10 0.06 0.04 0.05 0.08 0.10 0.14 0.18 0.20 0.22 0.17 0.14 0.13 0.16 0.28 0.28 0.21 0.24 0.28 0.25 0.12

GFSNW_prec_precacc_147.txt.gz
Total_Precipitation_Accumulation
1.73 1.47 1.30 0.99 1.40 2.42 1.35 1.45 2.03 1.73 2.21 3.35 2.67 1.73 1.41 1.48 0.94 0.65 0.54 0.25 0.23 0.20 0.19 0.26 0.65 0.68 0.20 0.05 0.03 0.14 0.44 0.95 1.15 0.99 0.34 0.27 0.41 0.38 0.40 1.00 0.60 0.57 0.71 0.88
1.82 1.73 1.50 1.12 1.28 2.31 1.70 1.49 1.87 2.48 1.67 1.68 1.19 1.11 1.18 1.22 0.70 0.56 0.60 0.31 0.23 0.20 0.14 0.26 0.22 0.60 0.15 0.02 0.02 0.31 0.59 1.07 1.12 0.91 0.66 0.64 0.85 0.43 0.37 0.62 1.09 0.83 0.97 0.95
1.46 1.30 1.14 1.30 1.57 1.84 1.80 1.59 2.21 2.98 2.58 0.84 0.74 1.21 1.40 1.07 0.59 0.48 0.58 0.35 0.26 0.20 0.09 0.06 0.10 0.71 0.19 0.03 0.07 0.10 0.51 1.00 1.11 0.99 0.66 0.63 0.85 0.46 0.57 1.13 1.17 0.53 0.91 0.57
1.57 1.16 0.77 0.76 1.49 1.42 1.43 1.37 1.22 0.90 0.82 0.65 0.36 0.79 1.01 0.83 0.82 0.53 0.68 0.55 0.34 0.47 0.24 0.08 0.06 0.50 0.42 0.18 0.15 0.10 0.50 1.11 0.93 0.50 0.29 0.42 0.57 0.57 0.49 0.94 0.52 0.67 0.37 0.24
1.85 1.67 0.94 0.57 0.81 1.29 0.99 0.87 1.12 0.43 0.16 0.19 0.24 0.62 0.80 0.64 0.61 0.57 0.41 0.37 0.21 0.30 0.26 0.23 0.10 0.12 0.38 0.36 0.10 0.22 0.35 0.72 0.75 0.61 0.24 0.38 0.48 0.55 0.36 0.57 0.29 0.29 0.18 0.15
1.39 1.18 1.16 1.17 1.12 1.73 1.12 0.70 0.79 0.51 0.26 0.16 0.38 0.36 0.49 0.63 0.60 0.34 0.16 0.23 0.35 0.24 0.08 0.07 0.02 0.01 0.01 0.09 0.19 0.20 0.28 0.51 0.75 0.67 0.48 0.28 0.47 0.58 0.69 0.49 0.21 0.25 0.28 0.15
1.97 1.17 0.82 1.11 0.89 1.07 0.92 0.56 0.48 0.59 0.24 0.10 0.10 0.21 0.31 0.44 0.52 0.47 0.19 0.24 0.30 0.15 0.16 0.06 0.03 0.02 0.01 0.03 0.03 0.03 0.06 0.23 0.46 0.31 0.15 0.16 0.11 0.14 0.44 0.28 0.23 0.26 0.15 0.08
1.83 1.02 0.31 0.41 0.53 0.66 0.51 0.38 0.39 0.53 0.26 0.08 0.10 0.14 0.29 0.44 0.54 0.54 0.30 0.20 0.20 0.16 0.29 0.19 0.23 0.21 0.12 0.06 0.03 0.03 0.05 0.16 0.25 0.16 0.07 0.03 0.00 0.00 0.07 0.14 0.23 0.14 0.08 0.03
1.01 1.21 0.67 0.56 0.63 0.59 0.47 0.39 0.41 0.46 0.29 0.10 0.06 0.07 0.19 0.43 0.62 0.63 0.44 0.33 0.41 0.38 0.41 0.40 0.25 0.38 0.12 0.05 0.11 0.03 0.05 0.18 0.27 0.10 0.12 0.02 0.00 0.00 0.01 0.02 0.21 0.02 0.06 0.04
1.03 0.82 0.66 0.33 0.30 0.45 0.49 0.41 0.64 0.54 0.31 0.07 0.06 0.08 0.12 0.34 0.69 0.78 0.56 0.51 0.73 0.49 0.38 0.38 0.26 0.16 0.03 0.01 0.04 0.05 0.11 0.19 0.28 0.16 0.18 0.01 0.00 0.00 0.01 0.10 0.16 0.02 0.06 0.06
0.79 0.58 0.43 0.38 0.35 0.47 0.52 0.36 0.49 0.44 0.32 0.06 0.03 0.03 0.06 0.14 0.44 0.83 0.68 0.64 0.79 0.73 0.43 0.37 0.17 0.10 0.04 0.00 0.00 0.00 0.03 0.05 0.09 0.14 0.10 0.00 0.00 0.00 0.01 0.01 0.02 0.03 0.10 0.03
0.71 0.54 0.37 0.31 0.24 0.32 0.42 0.33 0.20 0.31 0.30 0.11 0.05 0.02 0.03 0.05 0.17 0.51 0.73 0.58 0.50 0.46 0.35 0.29 0.13 0.09 0.15 0.02 0.01 0.00 0.00 0.00 0.00 0.00 0.00 0.00 0.00 0.00 0.00 0.00 0.00 0.00 0.02 0.10
0.58 0.47 0.38 0.30 0.32 0.42 0.45 0.26 0.19 0.29 0.28 0.12 0.05 0.04 0.02 0.02 0.08 0.25 0.66 0.66 0.45 0.41 0.44 0.39 0.26 0.16 0.02 0.05 0.05 0.00 0.00 0.00 0.00 0.00 0.00 0.00 0.00 0.00 0.00 0.00 0.00 0.00 0.00 0.01
0.63 0.53 0.47 0.33 0.33 0.35 0.41 0.18 0.24 0.27 0.28 0.19 0.10 0.04 0.03 0.01 0.07 0.20 0.41 0.81 0.71 0.56 0.39 0.41 0.40 0.28 0.13 0.01 0.00 0.00 0.01 0.00 0.00 0.01 0.00 0.00 0.00 0.00 0.00 0.01 0.02 0.00 0.00 0.01
0.68 0.58 0.55 0.35 0.33 0.38 0.31 0.14 0.29 0.30 0.39 0.41 0.16 0.05 0.02 0.03 0.15 0.25 0.38 0.56 0.77 0.62 0.68 0.37 0.25 0.20 0.07 0.02 0.00 0.00 0.00 0.00 0.01 0.03 0.01 0.02 0.02 0.01 0.00 0.00 0.01 0.01 0.02 0.01
0.67 0.68 0.60 0.41 0.38 0.52 0.45 0.35 0.32 0.35 0.40 0.52 0.28 0.14 0.07 0.07 0.20 0.35 0.43 0.46 0.58 0.64 0.67 0.43 0.21 0.07 0.13 0.10 0.01 0.00 0.00 0.00 0.00 0.00 0.00 0.01 0.01 0.01 0.01 0.00 0.00 0.00 0.00 0.01
0.79 0.81 0.64 0.46 0.54 0.50 0.40 0.19 0.37 0.33 0.35 0.45 0.39 0.21 0.11 0.15 0.19 0.33 0.46 0.54 0.51 0.55 0.67 0.37 0.19 0.14 0.26 0.18 0.02 0.00 0.00 0.00 0.00 0.00 0.00 0.00 0.00 0.00 0.00 0.00 0.00 0.03 0.02 0.01
0.91 0.78 0.57 0.62 0.64 0.57 0.35 0.12 0.27 0.44 0.64 0.50 0.45 0.24 0.19 0.29 0.39 0.42 0.47 0.81 0.68 0.59 0.48 0.29 0.15 0.16 0.26 0.18 0.00 0.00 0.00 0.00 0.00 0.00 0.00 0.00 0.00 0.00 0.02 0.01 0.00 0.00 0.01 0.02
0.91 0.76 0.73 0.79 0.43 0.25 0.26 0.46 0.57 0.41 0.82 0.94 0.33 0.34 0.35 0.39 0.63 0.56 0.95 0.73 0.98 0.56 0.42 0.19 0.27 0.22 0.16 0.02 0.00 0.00 0.00 0.00 0.00 0.00 0.00 0.00 0.00 0.01 0.03 0.03 0.01 0.00 0.00 0.01
1.27 1.19 1.05 0.74 0.31 0.49 0.81 0.91 0.91 0.89 0.72 0.54 0.33 0.24 0.48 0.48 0.58 0.61 1.04 0.85 0.71 0.63 0.31 0.34 0.38 0.13 0.03 0.01 0.00 0.00 0.00 0.00 0.00 0.01 0.01 0.00 0.00 0.00 0.02 0.03 0.05 0.00 0.00 0.01
1.74 1.34 0.84 0.49 0.62 1.18 0.99 1.18 0.81 0.58 0.33 0.15 0.09 0.15 0.41 0.59 0.81 0.78 0.65 0.96 0.58 0.40 0.26 0.44 0.34 0.18 0.06 0.01 0.00 0.01 0.01 0.01 0.00 0.01 0.02 0.03 0.02 0.01 0.01 0.02 0.05 0.03 0.03 0.04
1.27 1.03 1.23 1.06 1.18 1.30 0.80 0.63 0.40 0.25 0.05 0.08 0.16 0.26 0.44 0.63 0.71 0.67 0.82 0.73 0.83 0.48 0.49 0.55 0.15 0.05 0.02 0.01 0.01 0.01 0.02 0.02 0.02 0.01 0.01 0.02 0.04 0.04 0.04 0.05 0.08 0.09 0.08 0.06
1.69 2.02 2.09 1.25 1.16 0.88 0.40 0.19 0.20 0.10 0.14 0.20 0.26 0.42 0.40 0.52 0.73 0.49 0.46 0.58 0.44 0.58 0.79 0.44 0.19 0.14 0.08 0.02 0.01 0.02 0.03 0.04 0.05 0.07 0.06 0.06 0.05 0.04 0.04 0.06 0.07 0.06 0.03 0.02
3.34 2.85 2.07 0.80 0.66 0.16 0.17 0.05 0.09 0.10 0.04 0.11 0.28 0.31 0.22 0.30 0.47 0.49 0.36 0.25 0.25 0.35 0.36 0.22 0.20 0.29 0.22 0.16 0.12 0.13 0.18 0.21 0.14 0.12 0.11 0.17 0.09 0.03 0.02 0.01 0.04 0.06 0.02 0.01
3.33 2.12 1.06 0.34 0.12 0.10 0.07 0.06 0.05 0.03 0.03 0.09 0.13 0.15 0.11 0.12 0.18 0.17 0.23 0.26 0.18 0.18 0.28 0.14 0.16 0.56 0.46 0.29 0.35 0.45 0.73 0.83 0.62 0.44 0.40 0.38 0.26 0.20 0.15 0.09 0.05 0.03 0.04 0.04
3.45 1.96 0.63 0.13 0.05 0.05 0.05 0.07 0.07 0.04 0.05 0.17 0.24 0.14 0.11 0.07 0.08 0.12 0.08 0.15 0.30 0.32 0.20 0.10 0.10 0.24 0.33 0.21 0.25 0.38 0.61 0.77 0.78 0.54 0.38 0.38 0.40 0.37 0.31 0.21 0.22 0.20 0.15 0.11
3.43 1.00 0.10 0.07 0.05 0.06 0.06 0.06 0.04 0.04 0.08 0.20 0.51 0.46 0.14 0.15 0.15 0.04 0.02 0.11 0.19 0.21 0.16 0.10 0.06 0.04 0.05 0.08 0.10 0.14 0.18 0.20 0.22 0.17 0.14 0.13 0.16 0.28 0.28 0.21 0.24 0.28 0.25 0.12

GFSNW_prec_precacc_150.txt.gz
Total_Precipitation_Accumulation
1.73 1.47 1.30 0.99 1.40 2.42 1.35 1.45 2.03 1.73 2.21 3.35 2.67 1.73 1.41 1.48 0.94 0.65 0.54 0.25 0.23 0.20 0.19 0.26 0.65 0.68 0.20 0.05 0.03 0.14 0.44 0.95 1.15 0.99 0.34 0.27 0.41 0.38 0.40 1.00 0.61 0.58 0.72 0.88
1.82 1.73 1.50 1.12 1.28 2.31 1.70 1.49 1.87 2.48 1.67 1.68 1.19 1.11 1.18 1.22 0.70 0.56 0.60 0.31 0.23 0.20 0.14 0.26 0.22 0.60 0.15 0.02 0.02 0.31 0.59 1.07 1.12 0.91 0.66 0.64 0.85 0.43 0.37 0.62 1.09 0.84 0.97 0.95
1.46 1.30 1.14 1.30 1.57 1.84 1.80 1.59 2.21 2.98 2.58 0.84 0.74 1.21 1.40 1.07 0.59 0.48 0.58 0.35 0.26 0.20 0.09 0.06 0.10 0.71 0.19 0.03 0.07 0.10 0.51 1.00 1.11 0.99 0.66 0.63 0.85 0.46 0.57 1.13 1.18 0.53 0.91 0.57
1.57 1.16 0.77 0.76 1.49 1.42 1.43 1.37 1.22 0.90 0.82 0.65 0.36 0.79 1.01 0.83 0.82 0.53 0.68 0.55 0.34 0.47 0.24 0.08 0.06 0.50 0.42 0.18 0.15 0.10 0.50 1.11 0.93 0.50 0.29 0.42 0.57 0.57 0.49 0.94 0.52 0.67 0.37 0.24
1.85 1.67 0.94 0.57 0.81 1.29 0.99 0.87 1.12 0.43 0.16 0.19 0.24 0.62 0.80 0.64 0.61 0.57 0.41 0.37 0.21 0.30 0.26 0.23 0.10 0.12 0.38 0.36 0.10 0.22 0.35 0.72 0.75 0.61 0.24 0.38 0.48 0.55 0.36 0.57 0.29 0.29 0.18 0.15
1.39 1.18 1.16 1.17 1.12 1.73 1.12 0.70 0.79 0.51 0.26 0.16 0.38 0.36 0.49 0.63 0.60 0.34 0.16 0.23 0.35 0.24 0.08 0.07 0.02 0.01 0.01 0.09 0.19 0.20 0.28 0.51 0.75 0.67 0.48 0.28 0.47 0.58 0.69 0.49 0.21 0.25 0.28 0.15
1.97 1.17 0.82 1.11 0.89 1.07 0.92 0.56 0.48 0.59 0.24 0.10 0.10 0.21 0.31 0.44 0.52 0.47 0.19 0.24 0.30 0.15 0.16 0.06 0.03 0.02 0.01 0.03 0.03 0.03 0.06 0.23 0.46 0.31 0.15 0.16 0.11 0.14 0.44 0.28 0.23 0.26 0.15 0.08
1.83 1.02 0.31 0.41 0.53 0.66 0.51 0.38 0.39 0.53 0.26 0.08 0.10 0.14 0.29 0.44 0.54 0.54 0.30 0.20 0.20 0.16 0.29 0.19 0.23 0.21 0.12 0.06 0.03 0.03 0.05 0.16 0.25 0.16 0.07 0.03 0.00 0.00 0.07 0.14 0.23 0.14 0.08 0.03
1.01 1.21 0.67 0.56 0.63 0.59 0.47 0.39 0.41 0.46 0.29 0.10 0.06 0.07 0.19 0.43 0.62 0.63 0.44 0.33 0.41 0.38 0.41 0.40 0.25 0.38 0.12 0.05 0.11 0.03 0.05 0.18 0.27 0.10 0.12 0.02 0.00 0.00 0.01 0.02 0.21 0.02 0.06 0.04
1.03 0.82 0.66 0.33 0.30 0.45 0.49 0.41 0.64 0.54 0.31 0.07 0.06 0.08 0.12 0.34 0.69 0.78 0.56 0.51 0.73 0.49 0.38 0.38 0.26 0.16 0.03 0.01 0.04 0.05 0.11 0.19 0.28 0.16 0.18 0.01 0.00 0.00 0.01 0.10 0.16 0.02 0.06 0.06
0.79 0.58 0.43 0.38 0.35 0.47 0.52 0.36 0.49 0.44 0.32 0.06 0.03 0.03 0.06 0.14 0.44 0.83 0.68 0.64 0.79 0.73 0.43 0.37 0.17 0.10 0.04 0.00 0.00 0.00 0.03 0.05 0.09 0.14 0.10 0.00 0.00 0.00 0.01 0.01 0.02 0.03 0.10 0.03
0.71 0.54 0.37 0.31 0.24 0.32 0.42 0.33 0.20 0.31 0.30 0.11 0.05 0.02 0.03 0.05 0.17 0.51 0.73 0.58 0.50 0.46 0.35 0.29 0.13 0.09 0.15 0.02 0.01 0.00 0.00 0.00 0.00 0.00 0.00 0.00 0.00 0.00 0.00 0.00 0.00 0.00 0.02 0.10
0.58 0.48 0.38 0.30 0.32 0.42 0.45 0.26 0.19 0.29 0.28 0.12 0.05 0.04 0.02 0.02 0.08 0.25 0.66 0.66 0.45 0.41 0.44 0.39 0.26 0.16 0.02 0.05 0.05 0.00 0.00 0.00 0.00 0.00 0.00 0.00 0.00 0.00 0.00 0.00 0.00 0.00 0.00 0.01
0.64 0.54 0.47 0.33 0.33 0.35 0.41 0.18 0.24 0.27 0.28 0.19 0.10 0.04 0.03 0.01 0.07 0.20 0.41 0.81 0.71 0.56 0.39 0.41 0.40 0.28 0.13 0.01 0.00 0.00 0.01 0.00 0.00 0.01 0.00 0.00 0.00 0.00 0.00 0.01 0.02 0.00 0.00 0.01
0.69 0.61 0.56 0.35 0.33 0.38 0.31 0.14 0.29 0.30 0.39 0.41 0.16 0.05 0.02 0.03 0.15 0.25 0.38 0.56 0.77 0.62 0.68 0.37 0.25 0.20 0.07 0.02 0.00 0.00 0.00 0.00 0.01 0.03 0.01 0.02 0.02 0.01 0.00 0.00 0.01 0.01 0.02 0.01
0.69 0.72 0.63 0.42 0.39 0.52 0.45 0.35 0.32 0.35 0.40 0.52 0.28 0.14 0.07 0.07 0.20 0.35 0.43 0.46 0.58 0.64 0.67 0.43 0.21 0.07 0.13 0.10 0.01 0.00 0.00 0.00 0.00 0.00 0.00 0.01 0.01 0.01 0.01 0.00 0.00 0.00 0.00 0.01
0.81 0.86 0.68 0.48 0.55 0.51 0.40 0.19 0.37 0.33 0.35 0.45 0.39 0.21 0.11 0.15 0.19 0.33 0.46 0.54 0.51 0.55 0.67 0.37 0.19 0.14 0.26 0.18 0.02 0.00 0.00 0.00 0.00 0.00 0.00 0.00 0.00 0.00 0.00 0.00 0.00 0.03 0.02 0.01
0.92 0.82 0.63 0.65 0.67 0.59 0.36 0.12 0.27 0.44 0.64 0.50 0.45 0.24 0.19 0.29 0.39 0.42 0.47 0.81 0.68 0.59 0.48 0.29 0.15 0.16 0.26 0.18 0.00 0.00 0.00 0.00 0.00 0.00 0.00 0.00 0.00 0.00 0.02 0.01 0.00 0.00 0.01 0.02
0.94 0.82 0.81 0.85 0.47 0.27 0.26 0.46 0.57 0.41 0.82 0.94 0.33 0.34 0.35 0.39 0.63 0.56 0.95 0.73 0.98 0.56 0.42 0.19 0.27 0.22 0.16 0.02 0.00 0.00 0.00 0.00 0.00 0.00 0.00 0.00 0.00 0.01 0.03 0.03 0.01 0.00 0.00 0.01
1.32 1.25 1.10 0.78 0.32 0.49 0.82 0.94 0.95 0.95 0.76 0.55 0.34 0.24 0.48 0.48 0.58 0.61 1.04 0.85 0.71 0.63 0.31 0.34 0.38 0.13 0.03 0.01 0.00 0.00 0.00 0.00 0.00 0.01 0.01 0.00 0.00 0.00 0.02 0.03 0.05 0.00 0.00 0.01
1.77 1.40 0.88 0.52 0.66 1.22 1.07 1.25 0.87 0.62 0.39 0.20 0.11 0.15 0.41 0.59 0.81 0.78 0.65 0.96 0.58 0.40 0.26 0.44 0.34 0.18 0.06 0.01 0.00 0.01 0.01 0.01 0.00 0.01 0.02 0.03 0.02 0.01 0.01 0.02 0.05 0.03 0.03 0.04
1.31 1.10 1.31 1.14 1.32 1.44 0.92 0.69 0.42 0.26 0.06 0.08 0.16 0.26 0.44 0.63 0.71 0.67 0.82 0.73 0.83 0.48 0.49 0.55 0.15 0.05 0.02 0.01 0.01 0.01 0.02 0.02 0.02 0.01 0.01 0.02 0.04 0.04 0.04 0.05 0.08 0.09 0.08 0.06
1.76 2.12 2.20 1.35 1.26 0.99 0.47 0.20 0.21 0.10 0.14 0.20 0.26 0.42 0.40 0.52 0.73 0.49 0.46 0.58 0.44 0.58 0.79 0.44 0.19 0.14 0.08 0.02 0.01 0.02 0.03 0.04 0.05 0.07 0.06 0.06 0.05 0.04 0.04 0.06 0.07 0.06 0.03 0.02
3.41 2.99 2.21 0.86 0.69 0.16 0.17 0.05 0.09 0.10 0.04 0.11 0.28 0.31 0.22 0.30 0.47 0.49 0.36 0.25 0.25 0.35 0.36 0.22 0.20 0.29 0.22 0.16 0.12 0.13 0.18 0.21 0.14 0.12 0.11 0.17 0.09 0.03 0.02 0.01 0.04 0.06 0.02 0.01
3.39 2.21 1.13 0.37 0.13 0.10 0.07 0.06 0.05 0.03 0.03 0.09 0.13 0.15 0.11 0.12 0.18 0.17 0.23 0.26 0.18 0.18 0.28 0.14 0.16 0.56 0.46 0.29 0.35 0.45 0.73 0.83 0.62 0.44 0.40 0.38 0.26 0.20 0.15 0.09 0.05 0.03 0.04 0.04
3.49 2.00 0.64 0.13 0.05 0.05 0.05 0.07 0.07 0.04 0.06 0.19 0.28 0.18 0.15 0.08 0.09 0.12 0.08 0.15 0.30 0.32 0.20 0.10 0.10 0.24 0.33 0.21 0.25 0.38 0.61 0.77 0.78 0.54 0.38 0.38 0.40 0.37 0.31 0.21 0.22 0.20 0.15 0.11
3.44 1.00 0.10 0.07 0.06 0.07 0.07 0.07 0.06 0.07 0.14 0.24 0.58 0.53 0.17 0.21 0.19 0.05 0.02 0.11 0.19 0.21 0.17 0.10 0.06 0.04 0.05 0.08 0.10 0.14 0.18 0.20 0.22 0.17 0.14 0.13 0.16 0.28 0.28 0.21 0.24 0.28 0.25 0.12